# Wetter Temperatur Luftdruck Luftfeuchtigkeit Sichtweite Windgeschwindigkeit Windrichtung Zeit
1 Clouds 23 1026 38 10000 3.09 140 12:37 22.04.2021
2 Clouds 23 1026 38 10000 3.09 140 12:37 22.04.2021
3 Clouds 23 1026 38 10000 3.09 140 12:19 22.04.2021
4 Rain 21 1027 40 9000 4.12 120 11:43 22.04.2021
5 Rain 21 1027 40 9000 4.12 120 11:22 22.04.2021
6 Clouds 20 1027 45 10000 6.17 120 10:43 22.04.2021
7 Clouds 20 1027 45 10000 6.17 120 10:43 22.04.2021
8 Clouds 20 1027 45 10000 6.17 120 10:21 22.04.2021
9 Clouds 22 1015 35 10000 2.09 182 09:41 22.04.2021
10 Clouds 20 1017 40 10000 1.29 193 09:19 22.04.2021
11 Clouds 20 1017 40 10000 1.32 193 08:38 22.04.2021
12 Clouds 18 1018 48 10000 1.19 151 08:18 22.04.2021
13 Clouds 19 1017 40 10000 1.54 115 07:37 22.04.2021
14 Clouds 18 1017 44 10000 1.17 75 07:18 22.04.2021
15 Clouds 16 1017 50 10000 1.39 33 06:23 22.04.2021
16 Clouds 16 1016 52 10000 1.51 15 05:25 22.04.2021
17 Clouds 17 1015 52 10000 1.39 29 03:25 22.04.2021
18 Clouds 18 1025 48 10000 2.57 120 00:45 22.04.2021
19 Clouds 19 1026 45 10000 2.06 250 23:44 21.04.2021
20 Clouds 19 1026 45 10000 2.06 250 23:23 21.04.2021
21 Rain 19 1027 52 9000 4.63 60 22:41 21.04.2021
22 Rain 19 1027 52 9000 4.63 60 22:23 21.04.2021
23 Clouds 17 1016 54 10000 2.58 53 21:42 21.04.2021
24 Clouds 17 1016 54 10000 2.58 53 21:42 21.04.2021
25 Clouds 17 1016 54 10000 3.41 59 21:23 21.04.2021
26 Clouds 17 1016 54 10000 3.41 59 21:23 21.04.2021
27 Clouds 17 1016 54 10000 3.41 59 20:40 21.04.2021
28 Clouds 21 1024 37 10000 3.6 80 20:18 21.04.2021
29 Clouds 21 1024 37 10000 3.6 80 19:41 21.04.2021
30 Clouds 21 1024 37 10000 3.6 80 19:23 21.04.2021
31 Clouds 22 1023 37 10000 4.63 120 18:45 21.04.2021
32 Clouds 22 1023 37 10000 4.63 120 18:24 21.04.2021
33 Clouds 23 1023 33 10000 2.57 80 17:46 21.04.2021
34 Clouds 23 1023 33 10000 2.57 80 17:24 21.04.2021
35 Clouds 21 1012 37 10000 4.61 56 16:42 21.04.2021
36 Clouds 25 1023 29 10000 11.32 100 15:56 21.04.2021
37 Clouds 25 1023 29 10000 11.32 100 15:37 21.04.2021
38 Clouds 25 1023 31 10000 10.29 130 14:47 21.04.2021
39 Clouds 25 1023 31 10000 10.29 130 14:29 21.04.2021
40 Clouds 21 1012 34 10000 1.76 106 13:51 21.04.2021
41 Clouds 22 1012 32 10000 3.86 124 13:24 21.04.2021
42 Clouds 22 1012 32 10000 3.86 124 12:56 21.04.2021
43 Clouds 22 1012 32 10000 3.79 138 12:29 21.04.2021
44 Clouds 23 1026 35 10000 7.2 130 11:47 21.04.2021
45 Clouds 23 1026 35 10000 7.2 130 11:25 21.04.2021
46 Clouds 23 1026 35 10000 7.2 130 10:43 21.04.2021
47 Clouds 22 1026 37 10000 7.2 120 09:59 21.04.2021
48 Clouds 23 1014 31 10000 3.96 112 09:35 21.04.2021
49 Clouds 21 1015 35 10000 4.34 109 08:54 21.04.2021
50 Clouds 20 1016 39 10000 3.68 103 08:27 21.04.2021
51 Clouds 20 1016 37 10000 3.02 107 07:59 21.04.2021
52 Clouds 18 1017 42 10000 1.84 93 07:29 21.04.2021
53 Clouds 13 1025 58 10000 3.09 30 06:25 21.04.2021
54 Clouds 15 1016 52 10000 0.92 49 04:41 21.04.2021
55 Clouds 14 1025 47 10000 2.06 160 00:50 21.04.2021
56 Clouds 17 1015 44 10000 1.22 37 23:48 20.04.2021
57 Clouds 18 1026 36 10000 4.12 40 22:56 20.04.2021
58 Clouds 18 1026 36 10000 4.12 40 22:36 20.04.2021
59 Clouds 18 1026 36 10000 4.12 40 22:18 20.04.2021
60 Clouds 18 1026 36 10000 3.09 40 21:44 20.04.2021
61 Clouds 18 1026 36 10000 3.09 40 21:23 20.04.2021
62 Clouds 19 1025 34 10000 6.17 70 20:42 20.04.2021
63 Clouds 19 1025 34 10000 6.17 70 20:22 20.04.2021
64 Clouds 18 1015 36 10000 3.41 76 19:52 20.04.2021
65 Clouds 18 1015 36 10000 3.41 76 19:33 20.04.2021
66 Clouds 18 1014 32 10000 4.35 91 18:54 20.04.2021
67 Clouds 23 1023 25 10000 4.35 91 18:35 20.04.2021
68 Clouds 23 1023 25 10000 5.36 101 17:43 20.04.2021
69 Clouds 23 1023 25 10000 5.72 106 17:18 20.04.2021
70 Clouds 22 1010 21 10000 5.72 106 16:43 20.04.2021
71 Clouds 25 1008 16 10000 5.24 113 15:43 20.04.2021
72 Clouds 26 1008 15 10000 3.98 117 15:25 20.04.2021
73 Clouds 26 1008 15 10000 3.98 117 14:52 20.04.2021
74 Clouds 26 1023 22 10000 14.4 100 14:27 20.04.2021
75 Clouds 26 1023 22 10000 14.4 100 13:31 20.04.2021
76 Clouds 26 1009 16 10000 3.82 116 12:55 20.04.2021
77 Clouds 26 1009 16 10000 3.82 116 12:31 20.04.2021
78 Clouds 25 1011 17 10000 3.31 110 11:58 20.04.2021
79 Clouds 24 1026 25 10000 12.35 120 11:38 20.04.2021
80 Clouds 24 1026 25 10000 12.35 120 11:19 20.04.2021
81 Clouds 24 1026 25 10000 12.35 120 10:42 20.04.2021
82 Clouds 24 1026 25 10000 12.35 120 10:20 20.04.2021
83 Clouds 20 1027 32 10000 7.2 120 09:20 20.04.2021
84 Clouds 20 1027 32 10000 7.2 120 08:53 20.04.2021
85 Clouds 17 1027 51 10000 2.06 150 07:59 20.04.2021
86 Clouds 17 1027 51 10000 2.06 150 07:33 20.04.2021
87 Clouds 14 1026 67 10000 1.03 300 05:56 20.04.2021
88 Clouds 14 1026 67 10000 1.03 300 05:31 20.04.2021
89 Clouds 12 1018 71 10000 1.03 55 04:40 20.04.2021
90 Clouds 13 1017 68 10000 0.92 79 00:52 20.04.2021
91 Clouds 14 1017 66 10000 1.1 85 00:27 20.04.2021
92 Clouds 17 1027 48 10000 3.09 80 23:32 19.04.2021
93 Clouds 17 1027 48 10000 3.09 80 22:45 19.04.2021
94 Clouds 18 1027 42 10000 4.63 60 22:26 19.04.2021
95 Clouds 18 1027 42 10000 4.63 60 21:43 19.04.2021
96 Clouds 18 1027 42 10000 4.63 60 21:20 19.04.2021
97 Clouds 18 1026 45 10000 4.12 60 20:41 19.04.2021
98 Clouds 18 1026 45 10000 4.12 60 20:20 19.04.2021
99 Clouds 16 1017 55 10000 2.81 109 19:50 19.04.2021
100 Clouds 16 1016 52 10000 2.56 115 19:27 19.04.2021
101 Clouds 16 1016 52 10000 2.56 115 18:59 19.04.2021
102 Clouds 19 1025 48 10000 4.12 50 18:39 19.04.2021
103 Clouds 19 1025 48 10000 4.12 50 18:19 19.04.2021
104 Clouds 19 1025 48 10000 4.12 50 17:43 19.04.2021
105 Clouds 19 1025 48 10000 4.12 50 17:23 19.04.2021
106 Clouds 21 1025 40 10000 7.2 90 16:43 19.04.2021
107 Clouds 21 1025 40 10000 7.2 90 16:24 19.04.2021
108 Clouds 21 1024 43 10000 7.2 110 15:42 19.04.2021
109 Clouds 21 1024 43 10000 7.2 110 15:23 19.04.2021
110 Clouds 23 1024 35 10000 7.2 110 14:43 19.04.2021
111 Clouds 23 1024 35 10000 7.2 110 14:23 19.04.2021
112 Clouds 22 1025 43 10000 8.23 90 13:49 19.04.2021
113 Clouds 22 1025 43 10000 8.23 90 13:26 19.04.2021
114 Clouds 22 1026 43 10000 7.72 110 12:47 19.04.2021
115 Clouds 20 1027 45 10000 4.12 50 12:26 19.04.2021
116 Clouds 20 1027 45 10000 4.12 50 11:55 19.04.2021
117 Clouds 20 1027 45 10000 4.12 50 11:27 19.04.2021
118 Clouds 20 1017 38 10000 1.74 168 10:55 19.04.2021
119 Clouds 20 1017 38 10000 1.74 168 10:36 19.04.2021
120 Clouds 16 1019 49 10000 0.75 295 10:18 19.04.2021
121 Clouds 16 1019 49 10000 0.78 293 09:36 19.04.2021
122 Clouds 15 1020 60 10000 1.09 315 09:18 19.04.2021
123 Clouds 14 1020 63 10000 1.34 315 08:29 19.04.2021
124 Clouds 15 1019 63 10000 1.17 340 07:49 19.04.2021
125 Rain 14 1019 69 10000 1.62 319 07:20 19.04.2021
126 Rain 14 1019 69 10000 1.62 319 06:38 19.04.2021
127 Rain 13 1027 100 6000 2.06 150 02:37 19.04.2021
128 Rain 14 1018 84 10000 1.43 116 01:29 19.04.2021
129 Rain 15 1028 77 10000 3.09 160 00:23 19.04.2021
130 Rain 15 1028 77 10000 3.09 160 23:19 18.04.2021
131 Rain 15 1029 77 10000 1.99 149 22:49 18.04.2021
132 Rain 15 1029 77 10000 1.99 149 22:30 18.04.2021
133 Rain 15 1029 77 10000 1.99 149 22:30 18.04.2021
134 Clouds 15 1018 69 10000 2.14 109 21:41 18.04.2021
135 Clouds 16 1028 72 10000 2.06 70 21:20 18.04.2021
136 Clouds 16 1028 72 10000 2.06 70 20:40 18.04.2021
137 Rain 15 1018 72 10000 1.28 329 20:20 18.04.2021
138 Rain 15 1018 72 10000 1.28 329 19:49 18.04.2021
139 Rain 16 1017 70 10000 2.67 298 19:29 18.04.2021
140 Rain 16 1017 70 10000 2.67 298 18:54 18.04.2021
141 Rain 16 1017 70 10000 2.67 298 18:31 18.04.2021
142 Rain 17 1016 63 10000 2.61 301 17:55 18.04.2021
143 Rain 20 1025 45 10000 6.17 350 17:37 18.04.2021
144 Rain 20 1025 45 10000 6.17 350 17:18 18.04.2021
145 Rain 20 1025 45 10000 6.17 350 16:41 18.04.2021
146 Rain 19 1013 46 10000 2.09 55 15:59 18.04.2021
147 Rain 19 1013 46 10000 2.09 55 15:38 18.04.2021
148 Rain 20 1012 43 10000 3.7 54 15:18 18.04.2021
149 Rain 20 1012 43 10000 3.68 54 14:41 18.04.2021
150 Clouds 21 1012 39 10000 4.12 51 14:19 18.04.2021
151 Clouds 21 1012 39 10000 4.12 51 13:49 18.04.2021
152 Clouds 21 1012 39 10000 4.12 51 13:49 18.04.2021
153 Clouds 25 1026 33 10000 8.23 120 13:29 18.04.2021
154 Clouds 25 1026 33 10000 8.23 120 12:38 18.04.2021
155 Clouds 22 1026 40 10000 8.23 100 11:58 18.04.2021
156 Clouds 22 1026 40 10000 8.23 100 11:39 18.04.2021
157 Clouds 22 1026 40 10000 8.23 100 11:20 18.04.2021
158 Clouds 23 1027 38 10000 7.2 100 10:41 18.04.2021
159 Clouds 23 1027 38 10000 7.2 100 10:19 18.04.2021
160 Clouds 22 1028 40 10000 6.17 90 09:39 18.04.2021
161 Rain 22 1028 40 10000 6.17 90 09:20 18.04.2021
162 Rain 21 1028 46 10000 3.09 120 08:44 18.04.2021
163 Rain 18 1018 55 10000 0.78 124 08:24 18.04.2021
164 Rain 18 1018 55 10000 0.78 124 07:40 18.04.2021
165 Rain 17 1018 60 10000 0.67 135 06:54 18.04.2021
166 Rain 16 1027 63 10000 5.14 50 05:26 18.04.2021
167 Rain 17 1026 59 10000 3.09 100 04:31 18.04.2021
168 Rain 16 1025 63 10000 3.09 100 02:23 18.04.2021
169 Rain 18 1026 55 10000 4.12 130 00:56 18.04.2021
170 Clouds 15 1017 70 10000 1.64 87 23:52 17.04.2021
171 Clouds 19 1027 52 10000 6.17 110 23:22 17.04.2021
172 Clouds 19 1027 52 10000 6.17 110 22:43 17.04.2021
173 Clouds 19 1027 52 10000 6.17 110 22:21 17.04.2021
174 Clouds 19 1027 45 10000 4.12 90 21:41 17.04.2021
175 Clouds 19 1027 45 10000 4.12 90 21:21 17.04.2021
176 Clouds 21 1025 30 10000 7.2 100 20:29 17.04.2021
177 Clouds 21 1025 30 10000 7.2 100 19:46 17.04.2021
178 Clouds 21 1025 30 10000 7.2 100 19:46 17.04.2021
179 Clouds 21 1025 30 10000 7.2 100 19:46 17.04.2021
180 Clouds 21 1025 30 10000 7.2 100 19:23 17.04.2021
181 Clouds 17 1015 55 10000 3.4 81 18:59 17.04.2021
182 Clouds 17 1015 55 10000 3.4 81 18:40 17.04.2021
183 Clouds 24 1023 29 10000 6.17 50 18:20 17.04.2021
184 Clouds 24 1023 29 10000 6.17 50 17:41 17.04.2021
185 Clouds 26 1023 27 10000 6.17 110 16:56 17.04.2021
186 Clouds 26 1023 27 10000 6.17 110 16:34 17.04.2021
187 Clouds 26 1023 25 10000 5.14 130 15:56 17.04.2021
188 Clouds 26 1008 21 10000 5.47 119 14:51 17.04.2021
189 Clouds 26 1009 20 10000 6.23 118 14:33 17.04.2021
190 Clouds 26 1009 19 10000 5.97 125 13:50 17.04.2021
191 Clouds 26 1025 25 10000 6.17 120 13:27 17.04.2021
192 Clouds 26 1025 25 10000 6.17 120 12:42 17.04.2021
193 Clouds 26 1025 25 10000 6.17 120 12:21 17.04.2021
194 Clouds 24 1026 27 10000 4.12 100 11:50 17.04.2021
195 Clouds 24 1026 27 10000 4.12 100 11:30 17.04.2021
196 Clouds 24 1013 21 10000 2.6 142 10:46 17.04.2021
197 Clear 23 1014 24 10000 2.11 131 10:27 17.04.2021
198 Clear 23 1014 24 10000 2.11 131 09:44 17.04.2021
199 Clouds 21 1027 28 10000 4.12 100 08:41 17.04.2021
200 Clouds 21 1027 28 10000 4.12 100 08:22 17.04.2021
201 Clouds 15 1026 44 10000 3.09 50 06:58 17.04.2021
202 Clouds 15 1015 33 10000 1.23 29 03:55 17.04.2021
203 Clouds 15 1024 36 10000 2.06 110 03:37 17.04.2021
204 Clouds 16 1014 31 10000 1.28 87 00:49 17.04.2021
205 Clouds 17 1025 29 10000 2.06 100 00:28 17.04.2021
206 Clouds 17 1025 29 10000 2.06 100 23:48 16.04.2021
207 Clouds 17 1025 29 10000 2.06 100 23:48 16.04.2021
208 Clouds 17 1025 29 10000 2.06 100 23:25 16.04.2021
209 Clouds 17 1015 29 10000 2.17 93 22:46 16.04.2021
210 Clouds 17 1016 28 10000 2.64 77 22:21 16.04.2021
211 Clouds 17 1016 28 10000 2.64 77 21:51 16.04.2021
212 Clouds 20 1025 24 10000 3.09 110 21:30 16.04.2021
213 Clouds 20 1025 24 10000 3.09 110 21:30 16.04.2021
214 Clouds 20 1025 24 10000 3.09 110 20:50 16.04.2021
215 Clouds 20 1025 24 10000 3.09 110 20:24 16.04.2021
216 Clouds 18 1014 33 10000 3.56 86 19:52 16.04.2021
217 Clouds 19 1014 29 10000 4 87 19:29 16.04.2021
218 Clouds 19 1014 29 10000 4 87 18:40 16.04.2021
219 Clouds 25 1022 23 10000 5.14 100 18:19 16.04.2021
220 Clouds 25 1022 23 10000 5.14 100 17:37 16.04.2021
221 Clouds 25 1022 23 10000 5.14 100 17:18 16.04.2021
222 Clouds 26 1022 24 10000 5.14 90 16:42 16.04.2021
223 Clouds 26 1022 24 10000 5.14 90 16:23 16.04.2021
224 Clouds 24 1009 19 10000 6.81 116 15:44 16.04.2021
225 Clouds 25 1023 27 10000 9.26 110 15:18 16.04.2021
226 Clouds 25 1023 27 10000 9.26 110 14:42 16.04.2021
227 Clouds 26 1024 24 10000 2.06 240 14:18 16.04.2021
228 Clouds 26 1024 24 10000 2.06 240 13:42 16.04.2021
229 Clouds 26 1024 24 10000 2.06 240 13:20 16.04.2021
230 Clouds 26 1025 25 10000 4.12 150 12:47 16.04.2021
231 Clouds 26 1025 25 10000 4.12 150 12:27 16.04.2021
232 Clouds 26 1025 25 10000 4.12 150 12:27 16.04.2021
233 Clouds 24 1026 31 10000 7.2 130 11:49 16.04.2021
234 Clouds 24 1026 31 10000 7.2 130 11:26 16.04.2021
235 Clouds 22 1026 35 10000 4.12 130 10:48 16.04.2021
236 Clouds 22 1026 35 10000 4.12 130 10:26 16.04.2021
237 Clouds 21 1027 37 10000 5.14 60 09:52 16.04.2021
238 Clouds 20 1016 38 10000 1.1 164 09:24 16.04.2021
239 Clouds 20 1016 38 10000 1.1 164 08:46 16.04.2021
240 Clouds 19 1017 44 10000 2.01 113 08:28 16.04.2021
241 Clouds 19 1017 44 10000 2.01 113 07:52 16.04.2021
242 Clouds 14 1026 62 10000 2.06 330 07:33 16.04.2021
243 Clouds 14 1026 62 10000 2.06 330 06:56 16.04.2021
244 Clouds 16 1016 56 10000 0.83 133 05:33 16.04.2021
245 Clouds 16 1014 56 10000 0.57 136 04:18 16.04.2021
246 Clouds 17 1014 55 10000 1.36 79 00:49 16.04.2021
247 Clouds 17 1015 55 10000 1.2 80 00:23 16.04.2021
248 Clouds 17 1015 55 10000 1.2 80 23:59 15.04.2021
249 Clouds 17 1015 55 10000 1.2 80 23:35 15.04.2021
250 Clouds 17 1016 55 10000 1.4 64 22:53 15.04.2021
251 Clouds 19 1026 45 10000 5.14 50 22:26 15.04.2021
252 Clouds 19 1026 45 10000 5.14 50 21:56 15.04.2021
253 Clouds 20 1025 42 10000 4.12 50 21:37 15.04.2021
254 Clouds 20 1025 42 10000 4.12 50 21:19 15.04.2021
255 Clouds 20 1025 42 10000 4.12 50 20:40 15.04.2021
256 Clouds 20 1025 42 10000 4.12 50 20:21 15.04.2021
257 Clouds 21 1024 40 10000 7.2 80 19:42 15.04.2021
258 Clouds 21 1024 40 10000 7.2 80 19:23 15.04.2021
259 Clouds 22 1024 37 10000 6.69 90 18:42 15.04.2021
260 Clouds 20 1013 43 10000 3.31 67 18:20 15.04.2021
261 Clouds 20 1013 43 10000 3.31 67 17:54 15.04.2021
262 Clouds 26 1022 27 10000 4.12 90 17:36 15.04.2021
263 Clouds 26 1022 27 10000 4.12 90 17:36 15.04.2021
264 Clouds 26 1022 27 10000 4.12 90 16:47 15.04.2021
265 Clouds 26 1022 27 10000 4.12 90 16:26 15.04.2021
266 Clouds 26 1023 27 10000 6.17 120 15:59 15.04.2021
267 Clouds 26 1023 27 10000 6.17 120 15:40 15.04.2021
268 Clouds 26 1023 27 10000 6.17 120 15:22 15.04.2021
269 Clouds 26 1023 27 10000 5.66 100 14:38 15.04.2021
270 Clouds 26 1023 27 10000 5.66 100 14:20 15.04.2021
271 Clouds 24 1024 31 10000 8.23 70 13:41 15.04.2021
272 Clouds 24 1024 31 10000 8.23 70 13:18 15.04.2021
273 Clouds 26 1009 22 10000 2.94 138 12:39 15.04.2021
274 Clouds 25 1011 24 10000 2.44 121 12:20 15.04.2021
275 Clouds 25 1011 24 10000 2.44 121 11:44 15.04.2021
276 Clouds 23 1013 26 10000 2.8 108 11:22 15.04.2021
277 Clouds 23 1013 26 10000 2.8 108 10:48 15.04.2021
278 Clouds 22 1014 30 10000 3.28 108 10:26 15.04.2021
279 Clouds 22 1014 30 10000 3.28 108 09:37 15.04.2021
280 Clouds 21 1016 34 10000 3.36 116 08:58 15.04.2021
281 Clouds 21 1016 34 10000 3.36 116 08:38 15.04.2021
282 Clouds 19 1017 41 10000 2.58 121 07:50 15.04.2021
283 Clouds 14 1026 62 10000 2.06 240 07:22 15.04.2021
284 Clouds 14 1026 62 10000 2.06 240 07:22 15.04.2021
285 Clouds 14 1026 62 10000 2.06 240 06:38 15.04.2021
286 Clouds 13 1025 62 10000 1.54 330 06:20 15.04.2021
287 Clouds 13 1025 62 10000 1.03 300 04:49 15.04.2021
288 Clouds 18 1025 45 10000 1.03 340 00:43 15.04.2021
289 Clouds 18 1026 45 10000 2.06 360 23:39 14.04.2021
290 Clouds 18 1026 45 10000 2.06 360 23:19 14.04.2021
291 Clouds 16 1017 58 10000 1.59 39 22:43 14.04.2021
292 Clouds 19 1026 45 10000 4.12 70 22:22 14.04.2021
293 Clouds 19 1026 45 10000 4.12 70 21:43 14.04.2021
294 Clouds 19 1026 45 10000 4.12 70 21:23 14.04.2021
295 Clouds 18 1016 52 10000 2.69 77 20:55 14.04.2021
296 Clouds 17 1016 50 10000 2.83 75 20:32 14.04.2021
297 Clouds 18 1015 46 10000 3.15 66 19:51 14.04.2021
298 Clouds 18 1014 43 10000 2.96 77 19:20 14.04.2021
299 Clouds 18 1014 43 10000 2.96 77 18:56 14.04.2021
300 Clouds 19 1014 40 10000 3.83 97 18:21 14.04.2021
301 Clouds 19 1014 40 10000 3.83 97 17:58 14.04.2021
302 Clouds 20 1012 36 10000 4.28 110 17:25 14.04.2021
303 Clouds 20 1012 36 10000 4.28 110 16:54 14.04.2021
304 Clouds 25 1023 31 10000 5.14 90 16:25 14.04.2021
305 Clouds 25 1023 31 10000 5.14 90 15:42 14.04.2021
306 Clouds 25 1023 31 10000 5.14 90 15:24 14.04.2021
307 Clouds 25 1024 31 10000 2.06 80 14:49 14.04.2021
308 Clouds 25 1024 31 10000 2.06 80 14:25 14.04.2021
309 Clouds 25 1024 31 10000 2.06 80 14:25 14.04.2021
310 Clouds 23 1011 33 10000 4.21 112 13:57 14.04.2021
311 Clouds 23 1011 33 10000 4.21 112 13:36 14.04.2021
312 Clouds 22 1026 43 10000 6.17 100 12:39 14.04.2021
313 Clouds 22 1026 43 10000 6.17 100 11:43 14.04.2021
314 Clouds 22 1026 43 10000 6.17 100 11:25 14.04.2021
315 Clouds 22 1026 43 10000 6.17 100 11:25 14.04.2021
316 Clouds 20 1027 37 10000 2.57 100 10:50 14.04.2021
317 Clouds 20 1027 37 10000 2.57 100 10:31 14.04.2021
318 Clouds 21 1028 40 10000 3.6 100 09:42 14.04.2021
319 Rain 21 1028 40 10000 3.6 100 09:21 14.04.2021
320 Rain 20 1016 44 10000 3.03 115 08:45 14.04.2021
321 Clouds 17 1027 45 10000 1.03 180 08:21 14.04.2021
322 Clouds 17 1027 45 10000 1.03 180 07:20 14.04.2021
323 Clouds 14 1026 54 10000 1.03 10 06:25 14.04.2021
324 Clouds 14 1026 51 10000 0.51 20 04:53 14.04.2021
325 Clouds 15 1026 47 10000 2.06 300 01:52 14.04.2021
326 Clouds 16 1026 41 10000 2.57 340 00:40 14.04.2021
327 Clouds 17 1027 39 10000 2.06 70 23:55 13.04.2021
328 Clouds 17 1027 39 10000 2.06 70 23:30 13.04.2021
329 Clouds 18 1027 36 10000 4.12 70 22:43 13.04.2021
330 Clouds 18 1027 36 10000 4.12 70 22:19 13.04.2021
331 Clouds 19 1027 34 10000 4.12 80 21:46 13.04.2021
332 Clouds 19 1027 34 10000 4.12 80 21:28 13.04.2021
333 Clouds 19 1026 32 10000 5.14 50 20:43 13.04.2021
334 Clouds 19 1026 32 10000 5.14 50 20:23 13.04.2021
335 Clouds 21 1026 26 10000 4.63 80 19:48 13.04.2021
336 Clouds 21 1026 26 10000 4.63 80 19:24 13.04.2021
337 Clouds 22 1025 30 10000 6.17 90 18:44 13.04.2021
338 Clouds 22 1025 30 10000 6.17 90 18:23 13.04.2021
339 Clouds 23 1024 27 10000 7.2 100 17:37 13.04.2021
340 Clouds 23 1024 27 10000 7.2 100 17:18 13.04.2021
341 Clouds 25 1024 25 10000 6.17 120 16:44 13.04.2021
342 Clouds 25 1024 25 10000 6.17 120 16:21 13.04.2021
343 Clouds 25 1024 25 10000 6.17 110 15:50 13.04.2021
344 Clouds 25 1024 25 10000 6.17 110 15:31 13.04.2021
345 Clouds 25 1024 27 10000 4.63 70 14:47 13.04.2021
346 Clouds 25 1024 27 10000 4.63 70 14:20 13.04.2021
347 Clouds 24 1025 31 10000 5.14 100 13:45 13.04.2021
348 Clouds 24 1025 31 10000 5.14 100 13:25 13.04.2021
349 Clouds 24 1025 31 10000 5.14 100 12:58 13.04.2021
350 Clouds 22 1026 37 10000 6.17 120 12:31 13.04.2021
351 Clouds 22 1026 37 10000 6.17 120 11:58 13.04.2021
352 Clouds 22 1027 35 10000 6.17 80 11:31 13.04.2021
353 Clouds 20 1028 52 10000 5.14 130 10:55 13.04.2021
354 Clouds 20 1028 52 10000 5.14 130 10:24 13.04.2021
355 Clouds 19 1028 52 10000 4.12 100 09:59 13.04.2021
356 Clouds 19 1028 52 10000 4.12 100 09:40 13.04.2021
357 Rain 19 1028 52 10000 4.12 100 09:18 13.04.2021
358 Rain 18 1028 55 10000 4.12 90 08:41 13.04.2021
359 Rain 18 1028 55 10000 4.12 90 08:41 13.04.2021
360 Clouds 18 1028 55 10000 4.12 90 08:20 13.04.2021
361 Clouds 15 1019 70 10000 1.5 101 07:36 13.04.2021
362 Clouds 16 1027 67 10000 2.06 110 06:31 13.04.2021
363 Clouds 12 1018 81 10000 1.45 10 04:50 13.04.2021
364 Clouds 16 1026 67 10000 2.57 310 02:41 13.04.2021
365 Rain 17 1027 59 10000 2.06 310 00:33 13.04.2021
366 Rain 17 1027 59 10000 2.06 310 23:49 12.04.2021
367 Rain 17 1027 59 10000 2.06 310 23:26 12.04.2021
368 Rain 18 1027 55 10000 2.06 50 22:39 12.04.2021
369 Rain 18 1027 55 10000 2.06 50 22:18 12.04.2021
370 Rain 18 1027 55 10000 2.06 50 21:45 12.04.2021
371 Rain 18 1027 55 10000 2.06 50 21:20 12.04.2021
372 Rain 19 1026 52 10000 4.12 80 20:41 12.04.2021
373 Rain 19 1026 52 10000 4.12 80 20:22 12.04.2021
374 Rain 19 1026 52 10000 4.12 80 20:22 12.04.2021
375 Rain 16 1017 73 10000 2.01 26 19:55 12.04.2021
376 Rain 16 1017 73 10000 2.01 26 19:37 12.04.2021
377 Rain 16 1016 70 10000 1.81 75 19:18 12.04.2021
378 Rain 16 1016 70 10000 1.81 75 18:44 12.04.2021
379 Rain 22 1024 40 10000 4.12 30 18:25 12.04.2021
380 Rain 22 1024 40 10000 4.12 30 17:43 12.04.2021
381 Clouds 22 1024 40 10000 4.12 30 17:23 12.04.2021
382 Clouds 19 1013 55 10000 2.39 78 16:47 12.04.2021
383 Rain 21 1024 46 10000 3.09 310 16:27 12.04.2021
384 Rain 21 1024 46 10000 3.09 310 15:49 12.04.2021
385 Rain 21 1024 46 10000 3.09 310 15:27 12.04.2021
386 Rain 22 1024 43 10000 5.14 300 14:50 12.04.2021
387 Clouds 22 1024 43 10000 5.14 300 14:30 12.04.2021
388 Clouds 21 1011 40 10000 3.27 103 13:49 12.04.2021
389 Clouds 23 1011 35 10000 2.94 121 13:28 12.04.2021
390 Clouds 23 1011 35 10000 2.94 121 12:49 12.04.2021
391 Clouds 22 1013 38 10000 4.18 123 12:27 12.04.2021
392 Clouds 22 1013 38 10000 4.18 123 11:59 12.04.2021
393 Clouds 21 1014 40 10000 6.05 113 11:24 12.04.2021
394 Clouds 21 1014 40 10000 6.05 113 10:46 12.04.2021
395 Clouds 21 1027 49 10000 7.2 90 10:26 12.04.2021
396 Clouds 21 1027 49 10000 7.2 90 09:49 12.04.2021
397 Clouds 21 1027 49 10000 7.2 90 09:19 12.04.2021
398 Clouds 19 1027 55 10000 6.17 80 08:36 12.04.2021
399 Clouds 19 1017 50 10000 3.96 110 07:40 12.04.2021
400 Clouds 15 1026 72 10000 3.09 80 07:20 12.04.2021
401 Clouds 15 1026 72 10000 3.09 80 07:20 12.04.2021
402 Clouds 15 1025 67 10000 1.03 120 05:52 12.04.2021
403 Clouds 16 1023 67 10000 2.06 80 04:31 12.04.2021
404 Clouds 17 1025 55 10000 3.09 90 01:23 12.04.2021
405 Clouds 19 1026 52 10000 2.06 40 00:25 12.04.2021
406 Clouds 19 1026 52 10000 2.06 40 23:46 11.04.2021
407 Clouds 19 1026 52 10000 2.06 40 23:27 11.04.2021
408 Clouds 15 1016 65 10000 1.11 94 22:46 11.04.2021
409 Clouds 16 1016 61 10000 2.21 90 22:25 11.04.2021
410 Clouds 16 1016 61 10000 2.21 90 21:49 11.04.2021
411 Clouds 21 1025 46 10000 6.17 80 21:30 11.04.2021
412 Clouds 21 1025 46 10000 6.17 80 20:57 11.04.2021
413 Clouds 21 1025 46 10000 6.17 80 20:30 11.04.2021
414 Clouds 21 1015 46 10000 6.17 80 19:58 11.04.2021
415 Clouds 17 1015 55 10000 3.7 81 19:38 11.04.2021
416 Clouds 18 1014 48 10000 4.44 84 19:19 11.04.2021
417 Clouds 18 1014 48 10000 4.44 84 18:45 11.04.2021
418 Clouds 20 1013 42 10000 5.07 90 18:25 11.04.2021
419 Clouds 20 1013 42 10000 5.07 90 17:46 11.04.2021
420 Clouds 22 1011 38 10000 6.15 88 17:28 11.04.2021
421 Clouds 22 1011 38 10000 6.15 88 16:52 11.04.2021
422 Clouds 23 1010 33 10000 6.19 95 16:23 11.04.2021
423 Clouds 23 1010 33 10000 6.19 95 15:57 11.04.2021
424 Clouds 26 1022 27 10000 11.32 110 15:38 11.04.2021
425 Clouds 26 1022 27 10000 11.32 110 15:19 11.04.2021
426 Clouds 26 1022 27 10000 11.32 110 15:19 11.04.2021
427 Clouds 26 1022 27 10000 11.32 110 14:46 11.04.2021
428 Clouds 26 1022 27 10000 11.32 110 14:18 11.04.2021
429 Clouds 26 1023 27 10000 5.14 130 13:36 11.04.2021
430 Clouds 26 1023 27 10000 5.14 130 13:18 11.04.2021
431 Clouds 25 1025 33 10000 5.14 90 12:22 11.04.2021
432 Clouds 25 1025 33 10000 5.14 90 11:53 11.04.2021
433 Clouds 25 1025 33 10000 5.14 90 11:29 11.04.2021
434 Clouds 23 1026 38 10000 6.17 110 10:50 11.04.2021
435 Clouds 23 1026 38 10000 6.17 110 10:32 11.04.2021
436 Clouds 22 1026 40 10000 6.17 90 09:59 11.04.2021
437 Clouds 22 1026 40 10000 6.17 90 09:37 11.04.2021
438 Clouds 22 1026 40 10000 6.17 90 09:19 11.04.2021
439 Clouds 20 1026 49 10000 4.12 100 08:30 11.04.2021
440 Clouds 20 1026 49 10000 4.12 100 08:30 11.04.2021
441 Clouds 18 1025 48 10000 3.09 90 07:24 11.04.2021
442 Clouds 18 1016 41 10000 2.93 102 06:56 11.04.2021
443 Clouds 15 1016 42 10000 1.79 92 05:44 11.04.2021
444 Clouds 16 1023 44 10000 1.54 120 05:21 11.04.2021
445 Clouds 16 1023 44 10000 1.54 120 04:35 11.04.2021
446 Clouds 18 1023 36 10000 4.12 80 02:45 11.04.2021
447 Clouds 19 1023 32 10000 4.12 40 00:40 11.04.2021
448 Clouds 19 1023 32 10000 4.12 40 00:40 11.04.2021
449 Clouds 20 1024 30 10000 5.14 60 23:51 10.04.2021
450 Clouds 20 1024 30 10000 5.14 60 23:26 10.04.2021
451 Clouds 21 1024 28 10000 5.14 50 22:45 10.04.2021
452 Clouds 21 1024 28 10000 5.14 50 22:45 10.04.2021
453 Clouds 21 1024 28 10000 5.14 50 22:23 10.04.2021
454 Clouds 21 1024 28 10000 5.14 50 21:50 10.04.2021
455 Clouds 21 1024 28 10000 5.14 50 21:23 10.04.2021
456 Clouds 22 1024 26 10000 6.17 50 20:48 10.04.2021
457 Clouds 22 1024 26 10000 6.17 50 20:24 10.04.2021
458 Clouds 22 1023 28 10000 3.09 100 19:45 10.04.2021
459 Clouds 22 1023 28 10000 3.09 100 19:45 10.04.2021
460 Clouds 22 1023 28 10000 3.09 100 19:27 10.04.2021
461 Clouds 22 1023 28 10000 3.09 100 18:53 10.04.2021
462 Clouds 26 1021 22 10000 4.12 90 18:33 10.04.2021
463 Clouds 26 1021 22 10000 4.12 90 17:41 10.04.2021
464 Clouds 26 1021 22 10000 4.12 90 17:21 10.04.2021
465 Clouds 28 1021 18 10000 2.06 330 16:31 10.04.2021
466 Clouds 28 1021 18 10000 2.06 330 15:55 10.04.2021
467 Clouds 28 1021 18 10000 2.06 330 15:34 10.04.2021
468 Clouds 28 1021 20 10000 3.6 180 14:47 10.04.2021
469 Clouds 28 1021 20 10000 3.6 180 14:22 10.04.2021
470 Clouds 28 1006 12 10000 4.89 166 13:43 10.04.2021
471 Clear 28 1007 12 10000 3.93 179 13:25 10.04.2021
472 Clear 28 1007 12 10000 3.93 179 12:35 10.04.2021
473 Clear 27 1009 13 10000 3.61 184 11:52 10.04.2021
474 Clear 25 1010 15 10000 3.06 185 11:26 10.04.2021
475 Clear 25 1010 15 10000 3.06 185 10:53 10.04.2021
476 Clear 25 1010 15 10000 3.06 185 10:31 10.04.2021
477 Clear 24 1012 16 10000 2.43 186 09:59 10.04.2021
478 Clear 22 1013 18 10000 2.2 182 09:28 10.04.2021
479 Clear 22 1013 18 10000 2.2 182 08:49 10.04.2021
480 Clear 20 1014 20 10000 1.54 174 08:29 10.04.2021
481 Clear 20 1014 20 10000 1.54 174 08:29 10.04.2021
482 Clear 20 1014 20 10000 1.54 174 07:50 10.04.2021
483 Clear 18 1015 23 10000 0.53 195 07:21 10.04.2021
484 Clouds 13 1024 35 10000 2.06 300 06:26 10.04.2021
485 Clouds 13 1023 33 10000 2.06 300 04:40 10.04.2021
486 Clear 15 1013 27 10000 1.18 245 02:53 10.04.2021
487 Clouds 17 1023 22 10000 2.06 80 02:34 10.04.2021
488 Clouds 16 1023 23 10000 2.57 170 00:50 10.04.2021
489 Clouds 16 1023 23 10000 2.57 170 00:29 10.04.2021
490 Clouds 17 1013 24 10000 0.63 272 23:44 09.04.2021
491 Clouds 20 1024 18 10000 4.63 40 23:18 09.04.2021
492 Clouds 20 1024 18 10000 4.63 40 22:42 09.04.2021
493 Clouds 20 1024 18 10000 4.63 40 22:22 09.04.2021
494 Clouds 20 1024 18 10000 5.14 50 21:39 09.04.2021
495 Clouds 20 1024 18 10000 5.14 50 21:19 09.04.2021
496 Clouds 20 1023 17 10000 4.63 60 20:44 09.04.2021
497 Clouds 20 1023 17 10000 4.63 60 20:23 09.04.2021
498 Clouds 19 1012 19 10000 2.85 68 19:56 09.04.2021
499 Clouds 19 1012 19 10000 2.85 68 19:37 09.04.2021
500 Clouds 19 1011 19 10000 3.45 69 19:19 09.04.2021
501 Clouds 19 1011 19 10000 3.45 69 18:41 09.04.2021
502 Clouds 21 1010 17 10000 4.95 91 18:19 09.04.2021
503 Clouds 21 1010 17 10000 4.95 91 17:40 09.04.2021
504 Clouds 24 1008 13 10000 6.87 114 16:56 09.04.2021
505 Clouds 24 1008 13 10000 6.87 114 16:36 09.04.2021
506 Clear 27 1006 10 10000 5.57 137 15:57 09.04.2021
507 Clear 27 1021 12 10000 2.06 90 15:37 09.04.2021
508 Clear 27 1021 12 10000 2.06 90 15:18 09.04.2021
509 Clear 27 1021 12 10000 2.06 90 14:40 09.04.2021
510 Clouds 27 1022 12 10000 2.06 110 13:53 09.04.2021
511 Clouds 26 1023 12 10000 4.12 140 13:26 09.04.2021
512 Clouds 26 1023 12 10000 4.12 140 12:58 09.04.2021
513 Clouds 26 1023 12 10000 4.12 140 12:37 09.04.2021
514 Clouds 25 1024 13 10000 2.57 210 11:46 09.04.2021
515 Clouds 25 1024 13 10000 2.57 210 11:23 09.04.2021
516 Clouds 25 1024 13 10000 2.57 210 11:23 09.04.2021
517 Clouds 25 1010 11 10000 2.99 203 10:48 09.04.2021
518 Clouds 22 1026 16 10000 4.12 100 10:30 09.04.2021
519 Clouds 22 1026 16 10000 4.12 100 09:50 09.04.2021
520 Clouds 22 1026 16 10000 4.12 100 09:24 09.04.2021
521 Clouds 21 1026 11 10000 1.03 30 08:52 09.04.2021
522 Clear 19 1015 14 10000 2.1 171 07:39 09.04.2021
523 Clear 17 1016 15 10000 1.13 189 06:56 09.04.2021
524 Clear 14 1016 18 10000 0.48 265 05:56 09.04.2021
525 Clear 13 1015 18 10000 0.39 359 03:53 09.04.2021
526 Clear 14 1015 17 10000 1 292 01:48 09.04.2021
527 Clear 14 1014 17 10000 0.89 275 00:37 09.04.2021
528 Clear 16 1026 18 10000 2.06 140 00:19 09.04.2021
529 Clear 16 1026 18 10000 2.06 140 23:24 08.04.2021
530 Clear 16 1026 18 10000 2.06 140 22:43 08.04.2021
531 Clear 18 1026 13 10000 3.09 30 22:22 08.04.2021
532 Clear 18 1026 15 10000 3.09 40 21:56 08.04.2021
533 Clear 18 1026 15 10000 3.09 40 21:37 08.04.2021
534 Clear 18 1026 15 10000 3.09 40 21:18 08.04.2021
535 Clear 17 1016 16 10000 2.28 72 20:52 08.04.2021
536 Clear 17 1015 15 10000 2.22 67 20:30 08.04.2021
537 Clouds 17 1015 15 10000 2.86 67 19:46 08.04.2021
538 Clouds 18 1015 15 10000 3.32 86 19:20 08.04.2021
539 Clouds 18 1015 15 10000 3.32 86 18:51 08.04.2021
540 Clouds 24 1024 20 10000 6.17 110 18:21 08.04.2021
541 Clouds 24 1024 20 10000 6.17 110 17:49 08.04.2021
542 Clouds 24 1024 20 10000 6.17 110 17:26 08.04.2021
543 Clouds 23 1011 14 10000 6.64 111 16:51 08.04.2021
544 Clouds 23 1011 14 10000 6.64 111 16:33 08.04.2021
545 Clouds 25 1009 13 10000 6.63 122 15:48 08.04.2021
546 Clouds 26 1023 19 10000 5.14 100 15:29 08.04.2021
547 Clouds 26 1023 19 10000 5.14 100 14:46 08.04.2021
548 Clouds 26 1023 19 10000 5.14 100 14:28 08.04.2021
549 Clouds 24 1024 22 10000 5.14 130 13:59 08.04.2021
550 Clouds 24 1024 22 10000 5.14 130 13:41 08.04.2021
551 Clouds 24 1024 22 10000 5.14 130 13:22 08.04.2021
552 Clouds 27 1009 10 10000 4.77 144 12:43 08.04.2021
553 Clouds 23 1026 23 10000 7.2 110 12:24 08.04.2021
554 Clouds 23 1026 23 10000 7.2 110 11:43 08.04.2021
555 Clouds 22 1027 26 10000 6.17 100 10:59 08.04.2021
556 Clouds 22 1027 26 10000 6.17 100 10:40 08.04.2021
557 Clouds 22 1027 26 10000 6.17 100 10:18 08.04.2021
558 Clouds 23 1015 15 10000 4.42 116 09:43 08.04.2021
559 Clouds 21 1016 17 10000 4.84 109 08:47 08.04.2021
560 Clouds 19 1017 19 10000 3.97 112 08:28 08.04.2021
561 Clouds 19 1017 19 10000 3.97 112 07:58 08.04.2021
562 Clouds 19 1017 19 10000 3.97 112 07:35 08.04.2021
563 Clouds 13 1025 33 10000 0.85 56 03:54 08.04.2021
564 Clouds 14 1026 24 10000 2.06 340 01:19 08.04.2021
565 Clouds 14 1027 24 10000 3.09 170 00:19 08.04.2021
566 Clouds 14 1017 24 10000 0.91 65 23:41 07.04.2021
567 Clouds 18 1028 15 10000 4.12 40 23:21 07.04.2021
568 Clouds 18 1028 15 10000 4.12 40 22:47 07.04.2021
569 Clouds 18 1028 15 10000 4.12 40 22:29 07.04.2021
570 Clouds 16 1018 22 10000 1.8 80 21:46 07.04.2021
571 Clouds 16 1018 21 10000 1.99 69 21:24 07.04.2021
572 Clouds 17 1018 21 10000 2.01 68 20:45 07.04.2021
573 Clouds 17 1017 19 10000 2.5 74 20:21 07.04.2021
574 Clouds 17 1017 19 10000 2.5 74 19:45 07.04.2021
575 Clouds 18 1016 18 10000 3.18 93 19:26 07.04.2021
576 Clouds 18 1016 18 10000 3.18 93 18:48 07.04.2021
577 Clouds 20 1014 16 10000 5.44 102 18:20 07.04.2021
578 Clouds 20 1014 16 10000 5.44 102 17:55 07.04.2021
579 Clouds 23 1012 15 10000 6.95 106 17:37 07.04.2021
580 Clouds 23 1012 15 10000 6.95 105 16:58 07.04.2021
581 Clouds 23 1012 15 10000 6.95 105 16:38 07.04.2021
582 Clouds 24 1011 15 10000 7.82 109 16:19 07.04.2021
583 Clouds 24 1011 15 10000 7.82 109 15:39 07.04.2021
584 Clouds 26 1010 16 10000 7.55 115 14:57 07.04.2021
585 Clouds 26 1026 19 10000 5.14 120 14:32 07.04.2021
586 Clear 26 1026 19 10000 5.14 120 13:52 07.04.2021
587 Clear 26 1026 19 10000 5.14 120 13:24 07.04.2021
588 Clear 26 1011 18 10000 6.31 113 12:53 07.04.2021
589 Clear 24 1028 25 10000 6.46 112 12:25 07.04.2021
590 Clear 24 1028 25 10000 6.46 112 11:55 07.04.2021
591 Clear 22 1029 30 10000 8.23 90 11:28 07.04.2021
592 Clear 22 1029 30 10000 8.23 90 10:53 07.04.2021
593 Clear 22 1029 30 10000 8.23 90 10:21 07.04.2021
594 Clear 21 1029 30 10000 7.2 90 09:43 07.04.2021
595 Clear 21 1029 30 10000 7.2 90 09:25 07.04.2021
596 Clear 19 1029 39 10000 7.2 90 08:42 07.04.2021
597 Clouds 19 1029 39 10000 7.2 90 08:21 07.04.2021
598 Clouds 19 1018 30 10000 5.32 102 07:43 07.04.2021
599 Clouds 17 1028 31 10000 3.72 95 07:24 07.04.2021
600 Clouds 17 1028 31 10000 1.5 44 06:27 07.04.2021
601 Clouds 16 1026 31 10000 3.09 110 04:23 07.04.2021
602 Clouds 15 1017 45 10000 0.96 26 00:21 07.04.2021
603 Clouds 15 1017 45 10000 0.96 26 23:46 06.04.2021
604 Clouds 16 1017 44 10000 1.15 76 23:21 06.04.2021
605 Clouds 16 1017 44 10000 1.15 76 22:40 06.04.2021
606 Clouds 16 1017 43 10000 2.34 99 22:19 06.04.2021
607 Clouds 16 1017 43 10000 2.34 99 21:41 06.04.2021
608 Clouds 17 1017 43 10000 3.1 89 21:22 06.04.2021
609 Clouds 17 1017 43 10000 3.1 89 20:54 06.04.2021
610 Clouds 17 1016 44 10000 3.43 86 20:24 06.04.2021
611 Clouds 17 1016 44 10000 3.36 88 19:56 06.04.2021
612 Clouds 17 1016 44 10000 3.36 88 19:34 06.04.2021
613 Clouds 18 1015 40 10000 4.26 92 18:57 06.04.2021
614 Clouds 23 1024 27 10000 9.26 90 18:38 06.04.2021
615 Clouds 23 1024 27 10000 9.26 90 18:18 06.04.2021
616 Clouds 23 1024 27 10000 9.26 90 17:40 06.04.2021
617 Clouds 23 1024 27 10000 9.26 90 17:18 06.04.2021
618 Clouds 22 1011 30 10000 7.78 100 16:42 06.04.2021
619 Clouds 24 1010 23 10000 8.2 101 15:53 06.04.2021
620 Clouds 27 1024 21 10000 7.2 100 15:25 06.04.2021
621 Clouds 25 1009 20 10000 7.79 107 14:43 06.04.2021
622 Clouds 26 1025 22 10000 7.2 120 14:24 06.04.2021
623 Clouds 26 1025 22 10000 7.2 120 13:46 06.04.2021
624 Clouds 26 1025 22 10000 7.2 120 13:25 06.04.2021
625 Clouds 25 1026 22 10000 5.66 120 12:45 06.04.2021
626 Clouds 25 1026 22 10000 5.66 120 12:26 06.04.2021
627 Clouds 25 1012 21 10000 3.24 136 11:55 06.04.2021
628 Clouds 24 1027 20 10000 7.2 100 11:36 06.04.2021
629 Clouds 24 1027 20 10000 7.2 100 11:18 06.04.2021
630 Clouds 24 1027 20 10000 7.2 100 10:39 06.04.2021
631 Clouds 20 1017 30 10000 2.07 133 10:19 06.04.2021
632 Clouds 20 1017 30 10000 2.07 133 09:43 06.04.2021
633 Clouds 21 1017 28 10000 2.99 127 08:50 06.04.2021
634 Clouds 18 1027 39 10000 2.06 100 08:19 06.04.2021
635 Clouds 14 1027 54 10000 2.06 120 06:57 06.04.2021
636 Clouds 14 1027 54 10000 2.06 120 06:24 06.04.2021
637 Clouds 15 1025 47 10000 2.06 210 03:54 06.04.2021
638 Clouds 18 1026 39 10000 3.6 70 00:48 06.04.2021
639 Clouds 18 1026 39 10000 3.6 70 00:21 06.04.2021
640 Clouds 18 1027 39 10000 3.6 70 23:50 05.04.2021
641 Clouds 18 1027 39 10000 3.6 70 23:28 05.04.2021
642 Clouds 18 1027 39 10000 6.69 70 22:53 05.04.2021
643 Clouds 18 1027 39 10000 6.69 70 22:33 05.04.2021
644 Clouds 16 1017 59 10000 2.09 39 21:47 05.04.2021
645 Clouds 16 1017 61 10000 2.33 8 21:23 05.04.2021
646 Clouds 16 1017 61 10000 2.33 8 20:49 05.04.2021
647 Clouds 17 1016 44 10000 1.92 23 20:30 05.04.2021
648 Clouds 18 1016 40 10000 2.34 44 19:45 05.04.2021
649 Clouds 19 1015 38 10000 3.04 72 19:25 05.04.2021
650 Clouds 19 1015 38 10000 3.04 72 18:57 05.04.2021
651 Clouds 19 1015 38 10000 3.04 72 18:38 05.04.2021
652 Clouds 20 1013 37 10000 4.75 90 18:19 05.04.2021
653 Clouds 20 1013 37 10000 4.75 90 17:46 05.04.2021
654 Clouds 22 1012 31 10000 6 100 17:21 05.04.2021
655 Clouds 22 1012 31 10000 6 100 17:21 05.04.2021
656 Clouds 22 1012 31 10000 6 100 16:44 05.04.2021
657 Clouds 24 1010 26 10000 6.75 108 16:21 05.04.2021
658 Clouds 24 1010 26 10000 6.75 108 15:56 05.04.2021
659 Clouds 24 1010 26 10000 6.75 108 15:30 05.04.2021
660 Clouds 25 1009 23 10000 6.67 114 14:58 05.04.2021
661 Clouds 25 1009 23 10000 6.67 114 14:35 05.04.2021
662 Clouds 26 1009 20 10000 6.49 119 13:40 05.04.2021
663 Clouds 26 1010 21 10000 6.28 121 13:22 05.04.2021
664 Clouds 26 1010 21 10000 6.28 121 12:45 05.04.2021
665 Clouds 25 1011 24 10000 6.33 119 12:22 05.04.2021
666 Clouds 25 1011 24 10000 6.33 119 11:45 05.04.2021
667 Clouds 24 1013 26 10000 6.37 116 11:27 05.04.2021
668 Clouds 24 1013 26 10000 6.4 116 10:45 05.04.2021
669 Clouds 23 1015 29 10000 5.81 112 10:27 05.04.2021
670 Clouds 23 1015 29 10000 5.81 112 09:48 05.04.2021
671 Clouds 21 1016 33 10000 4.92 110 09:24 05.04.2021
672 Clouds 21 1016 32 10000 4.95 110 08:45 05.04.2021
673 Clouds 17 1027 51 10000 2.06 80 08:26 05.04.2021
674 Clouds 17 1027 51 10000 2.06 80 07:37 05.04.2021
675 Clear 17 1017 46 10000 2.75 111 06:32 05.04.2021
676 Clouds 14 1016 59 10000 0.81 112 01:57 05.04.2021
677 Clouds 17 1026 51 10000 4.12 50 00:50 05.04.2021
678 Clouds 15 1016 54 10000 0.64 53 23:52 04.04.2021
679 Clouds 15 1016 52 10000 2.2 84 23:28 04.04.2021
680 Clouds 15 1016 52 10000 2.2 84 22:52 04.04.2021
681 Clouds 15 1016 52 10000 2.2 84 22:30 04.04.2021
682 Clouds 20 1025 37 10000 4.12 70 21:29 04.04.2021
683 Clouds 20 1025 37 10000 4.12 70 20:58 04.04.2021
684 Clouds 20 1025 37 10000 4.12 70 20:30 04.04.2021
685 Clouds 20 1025 37 10000 4.12 70 19:58 04.04.2021
686 Clouds 21 1025 35 10000 6.17 90 19:37 04.04.2021
687 Clouds 21 1025 35 10000 6.17 90 19:18 04.04.2021
688 Clouds 19 1015 44 10000 4.07 84 18:44 04.04.2021
689 Clouds 24 1023 31 10000 4.12 120 18:21 04.04.2021
690 Clouds 24 1023 31 10000 4.12 120 17:44 04.04.2021
691 Rain 24 1023 31 10000 4.12 120 17:23 04.04.2021
692 Rain 20 1013 39 10000 3.99 48 16:44 04.04.2021
693 Clouds 23 1011 30 10000 5.08 94 16:19 04.04.2021
694 Clouds 26 1024 24 10000 4.12 70 15:34 04.04.2021
695 Clouds 26 1024 24 10000 4.12 70 14:46 04.04.2021
696 Clouds 26 1024 24 10000 4.12 70 14:27 04.04.2021
697 Clouds 25 1025 27 10000 5.14 140 13:52 04.04.2021
698 Clouds 25 1025 27 10000 5.14 140 13:25 04.04.2021
699 Clouds 25 1025 27 10000 6.17 120 12:44 04.04.2021
700 Clouds 25 1025 27 10000 6.17 120 12:25 04.04.2021
701 Clouds 25 1026 27 10000 6.17 70 11:42 04.04.2021
702 Clouds 25 1026 27 10000 6.17 70 11:24 04.04.2021
703 Clouds 21 1027 35 10000 6.17 90 10:46 04.04.2021
704 Clouds 21 1028 37 10000 6.69 70 09:57 04.04.2021
705 Clouds 21 1028 37 10000 6.69 70 09:26 04.04.2021
706 Clouds 21 1028 37 10000 6.69 70 09:26 04.04.2021
707 Clouds 19 1017 35 10000 3.33 119 08:55 04.04.2021
708 Clouds 19 1017 35 10000 3.31 119 08:37 04.04.2021
709 Clouds 18 1018 36 10000 2.47 132 08:19 04.04.2021
710 Clouds 12 1026 50 10000 1.54 80 06:38 04.04.2021
711 Clouds 12 1026 50 10000 1.54 80 05:33 04.04.2021
712 Clouds 17 1026 27 10000 5.14 50 01:33 04.04.2021
713 Clouds 17 1026 27 10000 5.14 50 00:23 04.04.2021
714 Clouds 17 1026 27 10000 5.14 50 23:51 03.04.2021
715 Clouds 17 1026 27 10000 5.14 50 23:32 03.04.2021
716 Clouds 17 1027 27 10000 5.14 50 22:53 03.04.2021
717 Clouds 17 1027 27 10000 5.14 50 22:22 03.04.2021
718 Clouds 18 1026 25 10000 5.14 70 21:55 03.04.2021
719 Clouds 18 1026 25 10000 5.14 70 21:25 03.04.2021
720 Clouds 19 1026 24 10000 5.14 60 20:59 03.04.2021
721 Clouds 19 1026 24 10000 5.14 60 20:29 03.04.2021
722 Clouds 20 1025 22 10000 5.14 80 19:51 03.04.2021
723 Clouds 20 1025 22 10000 5.14 80 19:29 03.04.2021
724 Clouds 21 1025 21 10000 5.14 80 18:54 03.04.2021
725 Clouds 21 1025 21 10000 5.14 80 18:36 03.04.2021
726 Clouds 20 1013 26 10000 6.47 107 17:56 03.04.2021
727 Clouds 22 1011 23 10000 7.35 111 17:27 03.04.2021
728 Clouds 22 1011 23 10000 7.35 111 16:55 03.04.2021
729 Clouds 22 1011 23 10000 7.35 111 16:31 03.04.2021
730 Clouds 24 1009 18 10000 7.18 118 15:52 03.04.2021
731 Clouds 24 1009 18 10000 7.18 118 15:32 03.04.2021
732 Clouds 26 1009 15 10000 6.11 135 14:54 03.04.2021
733 Clouds 25 1025 16 10000 2.06 120 14:27 03.04.2021
734 Clouds 25 1025 16 10000 2.06 120 13:58 03.04.2021
735 Clouds 25 1025 16 10000 2.06 120 13:35 03.04.2021
736 Clouds 25 1025 16 10000 2.06 120 12:59 03.04.2021
737 Clouds 24 1026 17 10000 5.14 180 12:35 03.04.2021
738 Clouds 24 1026 17 10000 5.14 180 11:54 03.04.2021
739 Clouds 23 1027 16 10000 4.63 120 11:30 03.04.2021
740 Clouds 23 1027 16 10000 4.63 120 10:49 03.04.2021
741 Clouds 23 1027 16 10000 4.63 120 10:27 03.04.2021
742 Clouds 20 1028 19 10000 4.63 90 09:42 03.04.2021
743 Clouds 19 1028 22 10000 3.6 110 09:23 03.04.2021
744 Clouds 19 1028 22 10000 3.6 110 08:38 03.04.2021
745 Clouds 17 1028 27 10000 1.03 200 07:47 03.04.2021
746 Clouds 17 1028 27 10000 1.03 200 07:26 03.04.2021
747 Clouds 14 1025 30 10000 3.09 320 04:24 03.04.2021
748 Clouds 16 1025 25 10000 3.09 50 02:56 03.04.2021
749 Clouds 16 1025 25 10000 3.09 50 02:31 03.04.2021
750 Clouds 16 1026 25 10000 2.06 70 00:45 03.04.2021
751 Clouds 16 1026 25 10000 2.06 70 00:18 03.04.2021
752 Clouds 17 1027 23 10000 3.09 60 23:44 02.04.2021
753 Clouds 17 1027 23 10000 3.09 60 23:44 02.04.2021
754 Clear 17 1027 23 10000 3.09 60 23:18 02.04.2021
755 Clear 17 1027 23 10000 3.09 60 22:44 02.04.2021
756 Clear 17 1027 23 10000 3.09 60 22:25 02.04.2021
757 Clear 18 1026 22 10000 4.63 60 21:41 02.04.2021
758 Clear 18 1026 22 10000 4.63 60 21:19 02.04.2021
759 Clear 16 1017 22 10000 2.47 86 20:43 02.04.2021
760 Clouds 17 1016 19 10000 2.97 80 20:21 02.04.2021
761 Clouds 17 1016 19 10000 2.97 80 19:42 02.04.2021
762 Clouds 18 1016 18 10000 3.77 93 19:23 02.04.2021
763 Clouds 18 1016 18 10000 3.77 93 18:48 02.04.2021
764 Clouds 18 1016 18 10000 3.77 93 18:30 02.04.2021
765 Clouds 20 1014 17 10000 5.48 109 17:56 02.04.2021
766 Clouds 20 1014 17 10000 5.48 109 17:30 02.04.2021
767 Clouds 26 1024 13 10000 4.12 90 16:35 02.04.2021
768 Clouds 26 1024 13 10000 4.12 90 15:46 02.04.2021
769 Clouds 26 1024 13 10000 4.12 90 15:22 02.04.2021
770 Clouds 25 1025 16 10000 3.09 100 14:33 02.04.2021
771 Clouds 25 1025 16 10000 3.09 100 13:50 02.04.2021
772 Clouds 25 1025 16 10000 3.09 100 13:28 02.04.2021
773 Clouds 24 1026 17 10000 5.14 90 12:58 02.04.2021
774 Clouds 24 1026 17 10000 5.14 90 12:37 02.04.2021
775 Clouds 24 1026 17 10000 5.14 90 12:19 02.04.2021
776 Clear 24 1027 19 10000 5.14 180 11:44 02.04.2021
777 Clear 24 1027 19 10000 5.14 180 11:18 02.04.2021
778 Clear 23 1028 18 10000 5.14 90 10:42 02.04.2021
779 Clear 23 1028 18 10000 5.14 90 10:23 02.04.2021
780 Clear 22 1028 16 10000 7.2 110 09:39 02.04.2021
781 Clear 22 1028 16 10000 7.2 110 09:21 02.04.2021
782 Clear 22 1028 16 10000 7.2 110 09:21 02.04.2021
783 Clear 19 1028 22 10000 4.12 130 08:45 02.04.2021
784 Clear 19 1028 22 10000 4.12 130 08:26 02.04.2021
785 Clouds 18 1028 24 10000 3.09 50 07:20 02.04.2021
786 Clouds 13 1027 33 10000 2.06 340 06:34 02.04.2021
787 Clear 13 1018 32 10000 1.01 266 03:39 02.04.2021
788 Clouds 16 1026 29 10000 2.57 80 01:37 02.04.2021
789 Clouds 16 1026 29 10000 2.57 80 00:41 02.04.2021
790 Clear 15 1016 27 10000 0.47 13 23:44 01.04.2021
791 Clear 16 1017 26 10000 1.69 77 23:26 01.04.2021
792 Clear 16 1017 26 10000 2.06 70 22:22 01.04.2021
793 Clear 16 1017 26 10000 2.06 70 21:59 01.04.2021
794 Clear 16 1017 26 10000 2.06 70 21:41 01.04.2021
795 Clear 17 1017 26 10000 2.47 68 21:22 01.04.2021
796 Clear 17 1017 28 10000 2.47 64 20:40 01.04.2021
797 Clear 17 1016 29 10000 2.75 74 20:21 01.04.2021
798 Clear 17 1016 29 10000 2.75 74 19:41 01.04.2021
799 Clear 18 1015 28 10000 3.49 95 19:18 01.04.2021
800 Clear 18 1015 28 10000 3.49 95 18:43 01.04.2021
801 Clear 20 1013 25 10000 5.06 103 18:18 01.04.2021
802 Clear 20 1013 25 10000 5.06 103 17:39 01.04.2021
803 Clear 23 1011 18 10000 6.95 106 17:21 01.04.2021
804 Clear 23 1011 18 10000 6.95 106 16:48 01.04.2021
805 Clear 24 1010 13 10000 7.44 107 16:18 01.04.2021
806 Clear 24 1010 13 10000 7.44 107 15:39 01.04.2021
807 Clear 25 1009 12 10000 6.94 111 15:19 01.04.2021
808 Clear 26 1024 22 10000 5.66 120 14:39 01.04.2021
809 Clear 26 1024 22 10000 5.66 120 14:39 01.04.2021
810 Clouds 26 1024 22 10000 5.66 120 14:20 01.04.2021
811 Clouds 26 1009 13 10000 5.99 115 13:48 01.04.2021
812 Clouds 25 1010 15 10000 6 112 13:28 01.04.2021
813 Clouds 25 1010 15 10000 6 112 12:47 01.04.2021
814 Clouds 25 1012 17 10000 6.36 110 12:28 01.04.2021
815 Clouds 25 1012 17 10000 6.36 110 11:45 01.04.2021
816 Clouds 23 1027 23 10000 8.23 90 11:20 01.04.2021
817 Clouds 23 1027 23 10000 8.23 90 10:50 01.04.2021
818 Clouds 23 1027 23 10000 8.23 90 10:29 01.04.2021
819 Clouds 22 1027 26 10000 8.23 100 09:41 01.04.2021
820 Clear 19 1027 32 9000 4.12 100 09:22 01.04.2021
821 Clear 19 1027 32 9000 4.12 100 08:33 01.04.2021
822 Clouds 17 1027 42 10000 2.06 210 07:24 01.04.2021
823 Clouds 14 1026 51 10000 2.06 340 06:58 01.04.2021
824 Clouds 14 1026 51 10000 2.06 340 06:27 01.04.2021
825 Clouds 14 1015 46 10000 0.75 69 03:26 01.04.2021
826 Clouds 19 1026 34 10000 3.09 60 00:28 01.04.2021
827 Clouds 19 1026 34 10000 3.09 60 23:44 31.03.2021
828 Clouds 15 1017 43 10000 2.15 42 22:56 31.03.2021
829 Clouds 19 1026 34 10000 5.14 50 22:38 31.03.2021
830 Clouds 19 1026 34 10000 5.14 50 22:19 31.03.2021
831 Clouds 19 1026 34 10000 5.14 50 21:44 31.03.2021
832 Clouds 19 1026 34 10000 5.14 50 21:20 31.03.2021
833 Clouds 19 1026 34 10000 5.14 50 21:20 31.03.2021
834 Clouds 20 1025 32 10000 4.12 70 20:42 31.03.2021
835 Clouds 20 1025 32 10000 4.12 70 20:22 31.03.2021
836 Clouds 20 1024 32 10000 6.17 80 19:46 31.03.2021
837 Clouds 20 1024 32 10000 6.17 80 19:25 31.03.2021
838 Clouds 17 1015 38 10000 3.91 87 18:59 31.03.2021
839 Clouds 17 1015 38 10000 3.91 87 18:41 31.03.2021
840 Clouds 23 1023 31 10000 4.12 100 17:53 31.03.2021
841 Clouds 23 1023 31 10000 4.12 100 17:34 31.03.2021
842 Clouds 25 1023 27 10000 7.2 110 16:57 31.03.2021
843 Clouds 25 1023 27 10000 7.2 110 16:37 31.03.2021
844 Clouds 25 1023 27 10000 7.2 110 16:19 31.03.2021
845 Clouds 22 1011 31 10000 4.99 98 15:48 31.03.2021
846 Clouds 24 1023 29 10000 7.2 110 15:19 31.03.2021
847 Clouds 24 1023 29 10000 7.2 110 14:42 31.03.2021
848 Clouds 24 1023 29 10000 7.2 110 14:20 31.03.2021
849 Clouds 23 1010 27 10000 4.8 83 13:40 31.03.2021
850 Clouds 23 1011 27 10000 4.22 92 12:42 31.03.2021
851 Clouds 22 1013 30 10000 4.86 95 12:20 31.03.2021
852 Clouds 22 1013 30 10000 4.86 95 11:47 31.03.2021
853 Clouds 21 1014 31 10000 5.82 103 11:20 31.03.2021
854 Clouds 21 1014 31 10000 5.82 103 10:46 31.03.2021
855 Clouds 21 1015 31 10000 6.25 106 10:24 31.03.2021
856 Clouds 18 1027 42 10000 5.14 140 09:38 31.03.2021
857 Clouds 18 1027 42 10000 5.14 140 08:55 31.03.2021
858 Clouds 18 1027 42 10000 5.14 140 08:34 31.03.2021
859 Clouds 17 1027 42 10000 3.09 160 07:49 31.03.2021
860 Clouds 16 1026 48 10000 2.06 300 06:39 31.03.2021
861 Clouds 16 1024 44 10000 2.06 120 03:51 31.03.2021
862 Clouds 17 1024 42 10000 2.06 170 01:38 31.03.2021
863 Clouds 20 1025 37 10000 2.06 50 00:48 31.03.2021
864 Clouds 20 1025 37 10000 2.06 50 00:19 31.03.2021
865 Clouds 20 1025 37 10000 3.09 70 23:33 30.03.2021
866 Clouds 20 1025 37 10000 3.09 70 22:58 30.03.2021
867 Clouds 20 1025 37 10000 2.06 40 22:39 30.03.2021
868 Clouds 20 1025 37 10000 2.06 40 22:21 30.03.2021
869 Clouds 20 1025 37 10000 4.12 40 21:46 30.03.2021
870 Clouds 20 1025 37 10000 4.12 40 21:19 30.03.2021
871 Clouds 20 1025 37 10000 4.12 40 20:51 30.03.2021
872 Clouds 20 1025 37 10000 4.12 60 20:28 30.03.2021
873 Clouds 19 1014 41 10000 2.32 35 19:50 30.03.2021
874 Clouds 19 1013 40 10000 3.67 75 19:27 30.03.2021
875 Clouds 19 1013 40 10000 3.67 75 18:38 30.03.2021
876 Clouds 20 1012 38 10000 6.06 95 17:52 30.03.2021
877 Clouds 25 1022 27 10000 2.06 200 17:34 30.03.2021
878 Clouds 25 1022 27 10000 2.06 200 16:48 30.03.2021
879 Clouds 25 1022 27 10000 2.06 200 16:29 30.03.2021
880 Clouds 26 1022 27 10000 5.14 140 15:43 30.03.2021
881 Clouds 26 1022 27 10000 5.14 140 15:20 30.03.2021
882 Clouds 25 1022 29 10000 5.14 150 14:55 30.03.2021
883 Clouds 25 1022 29 10000 5.14 150 14:22 30.03.2021
884 Clouds 25 1023 29 10000 4.12 170 13:57 30.03.2021
885 Clouds 25 1023 29 10000 4.12 170 13:36 30.03.2021
886 Clouds 24 1024 31 10000 6.17 140 12:45 30.03.2021
887 Clouds 24 1024 31 10000 6.17 140 12:27 30.03.2021
888 Clouds 24 1011 27 10000 4.51 116 11:52 30.03.2021
889 Clouds 23 1012 29 10000 4.7 114 11:22 30.03.2021
890 Clouds 23 1012 29 10000 4.71 115 10:43 30.03.2021
891 Clouds 22 1014 32 10000 5.39 115 10:20 30.03.2021
892 Clouds 22 1014 32 10000 5.39 115 09:43 30.03.2021
893 Clouds 20 1015 36 10000 5.19 108 09:25 30.03.2021
894 Clouds 20 1015 36 10000 5.17 108 08:53 30.03.2021
895 Clouds 20 1015 36 10000 5.17 108 08:35 30.03.2021
896 Clouds 19 1016 38 10000 4.81 100 07:50 30.03.2021
897 Clouds 17 1016 39 10000 3.16 90 07:22 30.03.2021
898 Clouds 14 1016 42 10000 1.37 34 05:25 30.03.2021
899 Clouds 14 1016 42 10000 1.37 34 04:45 30.03.2021
900 Clouds 18 1025 32 10000 7.2 70 00:28 30.03.2021
901 Clouds 19 1026 30 10000 4.12 60 23:31 29.03.2021
902 Clouds 19 1026 30 10000 4.12 60 22:44 29.03.2021
903 Clouds 19 1026 30 10000 4.12 60 22:18 29.03.2021
904 Clouds 20 1026 28 10000 4.12 80 21:43 29.03.2021
905 Clouds 20 1026 28 10000 4.12 80 21:22 29.03.2021
906 Clouds 17 1016 31 10000 3.14 75 20:44 29.03.2021
907 Clouds 17 1015 31 10000 3.41 76 20:26 29.03.2021
908 Clouds 17 1015 31 10000 3.4 76 19:46 29.03.2021
909 Clouds 21 1024 24 10000 6.17 90 19:20 29.03.2021
910 Clouds 21 1024 24 10000 6.17 90 18:40 29.03.2021
911 Clouds 21 1024 24 10000 6.17 90 18:21 29.03.2021
912 Clouds 24 1023 20 10000 4.12 100 17:45 29.03.2021
913 Clouds 24 1023 20 10000 4.12 100 16:59 29.03.2021
914 Clouds 25 1022 19 10000 4.12 130 16:36 29.03.2021
915 Clouds 25 1022 19 10000 4.12 130 15:57 29.03.2021
916 Clouds 25 1023 19 10000 5.08 141 15:34 29.03.2021
917 Clouds 25 1009 18 10000 5.16 139 14:56 29.03.2021
918 Clouds 25 1009 18 10000 5.16 139 14:36 29.03.2021
919 Clouds 25 1010 18 10000 4.99 140 13:53 29.03.2021
920 Clouds 24 1011 18 10000 5.01 135 13:29 29.03.2021
921 Clouds 24 1011 18 10000 5.01 135 12:51 29.03.2021
922 Clouds 24 1011 18 10000 5.01 135 12:51 29.03.2021
923 Clouds 24 1012 18 10000 4.98 130 12:29 29.03.2021
924 Clouds 24 1012 18 10000 4.98 130 11:41 29.03.2021
925 Clouds 23 1014 19 10000 4.96 128 11:22 29.03.2021
926 Clouds 23 1014 19 10000 4.97 128 10:38 29.03.2021
927 Clouds 22 1016 20 10000 5.29 125 09:48 29.03.2021
928 Clouds 20 1016 21 10000 5.6 116 08:59 29.03.2021
929 Clouds 19 1017 21 10000 3.73 109 08:28 29.03.2021
930 Clouds 19 1017 21 10000 3.74 109 07:42 29.03.2021
931 Clouds 16 1018 24 10000 1.35 90 06:42 29.03.2021
932 Clouds 13 1017 29 10000 0.18 70 04:22 29.03.2021
933 Clouds 17 1026 23 10000 2.57 80 01:58 29.03.2021
934 Clouds 17 1027 23 10000 3.6 80 00:23 29.03.2021
935 Clouds 18 1028 22 10000 4.12 50 23:50 28.03.2021
936 Clouds 18 1028 22 10000 4.12 50 23:19 28.03.2021
937 Clouds 17 1028 23 10000 4.63 50 22:41 28.03.2021
938 Clouds 17 1028 23 10000 4.63 50 22:21 28.03.2021
939 Clouds 18 1028 22 10000 4.63 70 21:42 28.03.2021
940 Clouds 18 1028 22 10000 4.63 70 21:23 28.03.2021
941 Clouds 18 1027 22 10000 4.63 60 20:50 28.03.2021
942 Clouds 18 1027 22 10000 4.63 60 20:50 28.03.2021
943 Clouds 18 1027 22 10000 4.63 60 20:32 28.03.2021
944 Clouds 16 1017 30 10000 2.83 76 19:46 28.03.2021
945 Clouds 20 1026 21 10000 4.63 90 19:23 28.03.2021
946 Clouds 20 1026 21 10000 4.63 90 18:58 28.03.2021
947 Clouds 20 1026 21 10000 4.63 90 18:58 28.03.2021
948 Clouds 20 1026 21 10000 4.63 90 18:33 28.03.2021
949 Clouds 19 1014 23 10000 4.75 105 17:56 28.03.2021
950 Clouds 19 1014 23 10000 4.75 105 17:34 28.03.2021
951 Clouds 21 1012 20 10000 5.21 133 16:55 28.03.2021
952 Clouds 23 1011 19 10000 5.09 154 16:24 28.03.2021
953 Clouds 22 1011 19 10000 5.07 154 15:48 28.03.2021
954 Clouds 22 1025 20 10000 4.12 120 15:22 28.03.2021
955 Clouds 23 1011 18 10000 5.32 163 14:39 28.03.2021
956 Clouds 24 1010 17 10000 5.58 162 13:55 28.03.2021
957 Clouds 22 1026 18 10000 3.09 90 13:34 28.03.2021
958 Clouds 22 1026 18 10000 3.09 90 12:55 28.03.2021
959 Clouds 24 1011 17 10000 5.74 154 12:34 28.03.2021
960 Clouds 20 1028 18 10000 7.2 90 11:50 28.03.2021
961 Clouds 20 1028 18 10000 7.2 90 11:32 28.03.2021
962 Clouds 23 1014 20 10000 5.13 136 10:47 28.03.2021
963 Clouds 18 1028 27 10000 6.17 70 10:28 28.03.2021
964 Clouds 18 1028 27 10000 6.17 70 09:49 28.03.2021
965 Clouds 18 1028 27 10000 6.17 70 09:25 28.03.2021
966 Clouds 16 1028 29 10000 3.6 80 08:48 28.03.2021
967 Clouds 13 1028 33 10000 2.06 90 07:53 28.03.2021
968 Clouds 13 1028 33 10000 2.06 90 07:34 28.03.2021
969 Clouds 12 1026 32 10000 3.09 70 05:19 28.03.2021
970 Clouds 13 1017 33 10000 0.82 221 01:50 28.03.2021
971 Clouds 14 1016 33 10000 1.03 167 00:25 28.03.2021
972 Clouds 14 1016 33 10000 1.03 167 23:48 27.03.2021
973 Clouds 17 1027 23 10000 4.12 60 23:29 27.03.2021
974 Clouds 17 1027 23 10000 4.12 60 22:38 27.03.2021
975 Clouds 17 1027 23 10000 4.12 60 22:18 27.03.2021
976 Clouds 17 1027 27 10000 3.6 80 21:41 27.03.2021
977 Clouds 17 1027 27 10000 3.6 80 21:20 27.03.2021
978 Clouds 15 1017 32 10000 2.03 96 20:55 27.03.2021
979 Clouds 18 1027 24 10000 4.12 60 20:36 27.03.2021
980 Clouds 18 1027 24 10000 4.12 60 19:45 27.03.2021
981 Clouds 18 1027 24 10000 4.12 60 19:24 27.03.2021
982 Clear 16 1016 28 10000 3.07 82 18:56 27.03.2021
983 Clear 16 1016 28 10000 3.07 82 18:37 27.03.2021
984 Clear 17 1016 27 10000 4.33 83 18:18 27.03.2021
985 Clouds 23 1024 18 10000 6.17 100 17:28 27.03.2021
986 Clouds 23 1024 18 10000 6.17 100 16:53 27.03.2021
987 Clouds 23 1024 18 10000 6.17 100 16:31 27.03.2021
988 Clear 22 1012 18 10000 6.65 109 15:58 27.03.2021
989 Clear 21 1012 18 10000 6.64 109 15:36 27.03.2021
990 Clear 24 1010 12 10000 6.68 134 14:54 27.03.2021
991 Clear 25 1024 15 10000 10.29 150 14:19 27.03.2021
992 Clouds 25 1024 15 10000 10.29 150 13:27 27.03.2021
993 Clouds 26 1009 9 10000 4.62 162 12:59 27.03.2021
994 Clouds 26 1009 9 10000 4.47 163 12:33 27.03.2021
995 Clouds 24 1026 14 10000 3.09 110 11:47 27.03.2021
996 Clouds 24 1026 14 10000 3.09 110 11:27 27.03.2021
997 Clouds 23 1027 16 10000 5.14 100 10:48 27.03.2021
998 Clouds 23 1027 16 10000 5.14 100 10:25 27.03.2021
999 Clouds 23 1027 16 10000 6.17 80 09:30 27.03.2021
1000 Clouds 23 1027 16 10000 6.17 80 09:30 27.03.2021
1001 Clear 21 1028 16 10000 5.14 100 08:49 27.03.2021
1002 Clear 21 1028 16 10000 5.14 100 08:31 27.03.2021
1003 Clouds 18 1028 16 10000 2.06 110 07:36 27.03.2021
1004 Clouds 18 1028 16 10000 2.06 110 06:52 27.03.2021
1005 Clouds 14 1027 26 10000 2.06 220 06:33 27.03.2021
1006 Clouds 12 1019 25 10000 0.58 96 04:40 27.03.2021
1007 Clouds 13 1015 22 10000 0.14 0 00:55 27.03.2021
1008 Clouds 13 1015 22 10000 0.14 0 00:31 27.03.2021
1009 Clouds 13 1015 22 10000 1.01 66 23:55 26.03.2021
1010 Clouds 13 1016 21 10000 1.82 81 23:22 26.03.2021
1011 Clouds 13 1016 21 10000 1.82 81 22:35 26.03.2021
1012 Clouds 14 1017 20 10000 1.75 103 21:38 26.03.2021
1013 Clouds 14 1017 18 10000 2.21 103 21:20 26.03.2021
1014 Clouds 14 1017 18 10000 2.21 103 20:39 26.03.2021
1015 Clouds 15 1017 17 10000 2.47 83 20:20 26.03.2021
1016 Clouds 15 1017 17 10000 2.47 83 19:48 26.03.2021
1017 Clouds 16 1016 14 10000 2.74 81 19:29 26.03.2021
1018 Clouds 16 1016 14 10000 2.74 81 18:44 26.03.2021
1019 Clouds 17 1015 13 10000 3.21 97 18:26 26.03.2021
1020 Clouds 17 1015 13 10000 3.21 97 18:26 26.03.2021
1021 Clouds 17 1015 13 10000 3.21 97 17:47 26.03.2021
1022 Clouds 23 1023 10 10000 9.77 110 16:58 26.03.2021
1023 Clouds 23 1023 10 10000 9.77 110 16:33 26.03.2021
1024 Clouds 23 1023 10 10000 9.77 110 15:57 26.03.2021
1025 Clouds 24 1009 7 10000 6.94 109 15:23 26.03.2021
1026 Clouds 24 1009 7 10000 6.94 109 14:33 26.03.2021
1027 Clouds 26 1008 7 10000 6.81 115 13:41 26.03.2021
1028 Clouds 26 1024 13 10000 6.17 90 12:58 26.03.2021
1029 Clouds 26 1024 13 10000 6.17 90 12:33 26.03.2021
1030 Clouds 24 1026 16 10000 6.17 90 11:38 26.03.2021
1031 Clouds 24 1026 16 10000 6.17 90 11:18 26.03.2021
1032 Clouds 24 1026 16 10000 6.17 90 10:41 26.03.2021
1033 Clouds 23 1026 18 10000 5.14 70 09:56 26.03.2021
1034 Clouds 22 1014 11 10000 4.65 120 09:36 26.03.2021
1035 Clouds 22 1014 11 10000 4.68 120 08:44 26.03.2021
1036 Clouds 18 1027 19 10000 7.72 70 08:23 26.03.2021
1037 Clouds 18 1027 19 10000 7.72 70 07:40 26.03.2021
1038 Clouds 17 1027 20 10000 4.63 50 07:18 26.03.2021
1039 Clouds 17 1027 20 10000 4.63 50 06:53 26.03.2021
1040 Clouds 12 1026 26 10000 1.54 40 05:31 26.03.2021
1041 Clouds 13 1024 19 10000 5.14 50 02:31 26.03.2021
1042 Clear 14 1024 17 10000 3.09 50 00:32 26.03.2021
1043 Clear 14 1025 19 10000 4.12 40 23:45 25.03.2021
1044 Clear 14 1025 19 10000 4.12 40 23:20 25.03.2021
1045 Clear 15 1026 15 10000 6.17 160 22:37 25.03.2021
1046 Clear 15 1026 15 10000 6.17 160 21:53 25.03.2021
1047 Clear 15 1026 15 10000 6.17 160 21:34 25.03.2021
1048 Clear 16 1026 13 10000 6.17 160 20:45 25.03.2021
1049 Clear 16 1026 13 10000 6.17 160 20:26 25.03.2021
1050 Clear 19 1025 10 10000 6.17 70 19:49 25.03.2021
1051 Clear 19 1025 10 10000 6.17 70 19:49 25.03.2021
1052 Clear 19 1025 10 10000 6.17 70 19:49 25.03.2021
1053 Clear 19 1025 10 10000 6.17 70 19:49 25.03.2021
1054 Clear 19 1025 10 10000 6.17 70 19:31 25.03.2021
1055 Clear 20 1024 10 10000 6.17 60 18:51 25.03.2021
1056 Clear 20 1024 10 10000 6.17 60 18:28 25.03.2021
1057 Clear 21 1023 10 10000 6.17 80 17:57 25.03.2021
1058 Clear 21 1023 10 10000 6.17 80 17:37 25.03.2021
1059 Clear 24 1022 9 10000 8.75 70 16:56 25.03.2021
1060 Clear 24 1022 9 10000 8.75 70 16:33 25.03.2021
1061 Clear 26 1021 8 10000 10.29 100 15:49 25.03.2021
1062 Clear 27 1021 9 10000 8.23 100 15:25 25.03.2021
1063 Clear 27 1021 9 10000 8.23 100 14:49 25.03.2021
1064 Clear 27 1021 9 10000 8.23 100 14:29 25.03.2021
1065 Clear 28 1021 9 10000 7.2 100 13:26 25.03.2021
1066 Clear 27 1006 6 10000 6.38 126 12:46 25.03.2021
1067 Clear 27 1007 6 10000 5.3 137 12:22 25.03.2021
1068 Clear 27 1007 6 10000 5.3 137 12:22 25.03.2021
1069 Clear 27 1007 6 10000 5.26 136 11:57 25.03.2021
1070 Clear 27 1007 6 10000 5.25 137 11:39 25.03.2021
1071 Clear 26 1009 7 10000 3.7 145 11:21 25.03.2021
1072 Clear 26 1009 7 10000 3.7 145 10:45 25.03.2021
1073 Clear 25 1011 9 10000 3.04 142 10:19 25.03.2021
1074 Clear 25 1011 9 10000 3.04 142 09:43 25.03.2021
1075 Clear 21 1026 17 10000 4.63 80 09:23 25.03.2021
1076 Clear 21 1026 17 10000 4.63 80 08:31 25.03.2021
1077 Clear 18 1026 20 10000 4.63 80 07:29 25.03.2021
1078 Clear 11 1025 37 10000 2.06 340 06:43 25.03.2021
1079 Clear 11 1025 37 10000 2.06 340 06:22 25.03.2021
1080 Clear 13 1016 21 10000 1.08 44 04:51 25.03.2021
1081 Clear 13 1014 20 10000 1.13 42 01:25 25.03.2021
1082 Clear 13 1025 30 10000 2.57 40 00:19 25.03.2021
1083 Clear 13 1025 30 10000 2.57 40 23:40 24.03.2021
1084 Clear 13 1025 30 10000 2.57 40 23:19 24.03.2021
1085 Clear 15 1026 25 10000 4.12 80 22:39 24.03.2021
1086 Clear 16 1026 23 10000 3.6 70 21:51 24.03.2021
1087 Clear 16 1026 23 10000 3.6 70 21:32 24.03.2021
1088 Clear 16 1017 17 10000 2.01 68 20:59 24.03.2021
1089 Clear 16 1017 17 10000 2.01 68 20:41 24.03.2021
1090 Clear 19 1026 18 10000 5.66 70 20:18 24.03.2021
1091 Clear 19 1026 18 10000 5.66 70 19:33 24.03.2021
1092 Clear 20 1025 15 10000 5.14 80 18:53 24.03.2021
1093 Clouds 20 1025 15 10000 5.14 80 18:24 24.03.2021
1094 Clouds 21 1024 13 10000 8.75 100 17:53 24.03.2021
1095 Clouds 21 1024 13 10000 8.75 100 17:32 24.03.2021
1096 Clouds 24 1024 9 10000 9.26 100 16:57 24.03.2021
1097 Clouds 24 1024 9 10000 9.26 100 16:39 24.03.2021
1098 Clouds 24 1024 9 10000 9.26 100 16:19 24.03.2021
1099 Clouds 26 1023 10 10000 6.69 90 15:37 24.03.2021
1100 Clear 26 1023 10 10000 6.69 90 15:18 24.03.2021
1101 Clear 27 1022 9 10000 4.12 120 14:29 24.03.2021
1102 Clear 27 1022 9 10000 4.12 120 13:58 24.03.2021
1103 Clear 27 1022 9 10000 4.12 120 13:28 24.03.2021
1104 Clear 26 1023 12 10000 4.12 130 12:50 24.03.2021
1105 Clear 26 1023 12 10000 4.12 130 12:30 24.03.2021
1106 Clear 26 1025 13 10000 5.14 100 11:54 24.03.2021
1107 Clear 26 1025 13 10000 5.14 100 11:36 24.03.2021
1108 Clear 24 1026 16 10000 5.14 60 10:49 24.03.2021
1109 Clear 24 1026 16 10000 5.14 60 10:28 24.03.2021
1110 Clear 24 1026 16 10000 5.14 60 09:54 24.03.2021
1111 Clear 23 1027 17 10000 4.12 100 09:29 24.03.2021
1112 Clear 19 1028 22 10000 6.17 100 08:57 24.03.2021
1113 Clear 19 1028 22 10000 6.17 100 08:34 24.03.2021
1114 Clear 19 1028 24 10000 5.14 60 07:48 24.03.2021
1115 Clear 19 1028 24 10000 5.14 60 07:18 24.03.2021
1116 Clear 19 1017 18 10000 3.63 102 06:41 24.03.2021
1117 Clouds 14 1026 21 10000 2.06 120 02:18 24.03.2021
1118 Clear 13 1017 19 10000 1.69 55 00:40 24.03.2021
1119 Clear 13 1017 18 10000 1.77 77 23:46 23.03.2021
1120 Clear 14 1018 17 10000 1.84 85 23:19 23.03.2021
1121 Clear 14 1018 17 10000 1.84 85 22:47 23.03.2021
1122 Clear 14 1018 17 10000 1.9 80 22:24 23.03.2021
1123 Clear 14 1018 17 10000 1.9 80 21:45 23.03.2021
1124 Clear 15 1019 16 10000 2.44 79 21:25 23.03.2021
1125 Clear 15 1019 16 10000 2.44 79 20:45 23.03.2021
1126 Clear 18 1027 12 10000 4.12 50 20:25 23.03.2021
1127 Clear 18 1027 12 10000 4.12 50 19:47 23.03.2021
1128 Clouds 18 1027 12 10000 4.12 50 19:26 23.03.2021
1129 Clouds 19 1027 13 10000 7.2 50 18:44 23.03.2021
1130 Clouds 19 1027 13 10000 7.2 50 18:22 23.03.2021
1131 Clouds 16 1017 13 10000 3.12 73 17:46 23.03.2021
1132 Clouds 18 1015 12 10000 4.04 94 17:21 23.03.2021
1133 Clouds 18 1015 12 10000 4.04 94 16:42 23.03.2021
1134 Clouds 21 1013 10 10000 6.75 105 16:19 23.03.2021
1135 Clouds 21 1013 10 10000 6.75 105 15:40 23.03.2021
1136 Clouds 25 1024 9 10000 6.17 70 14:55 23.03.2021
1137 Clouds 25 1024 9 10000 6.17 70 14:21 23.03.2021
1138 Clouds 25 1024 9 10000 6.17 70 13:55 23.03.2021
1139 Clouds 26 1025 10 10000 3.09 150 13:37 23.03.2021
1140 Clouds 26 1025 10 10000 3.09 150 13:18 23.03.2021
1141 Clouds 26 1025 10 10000 3.09 150 12:41 23.03.2021
1142 Clouds 26 1025 10 10000 3.09 150 12:20 23.03.2021
1143 Clouds 24 1027 12 10000 6.17 100 11:44 23.03.2021
1144 Clouds 23 1027 14 10000 5.14 90 10:44 23.03.2021
1145 Clouds 23 1027 14 10000 5.14 90 10:25 23.03.2021
1146 Clouds 22 1028 15 10000 7.72 110 09:58 23.03.2021
1147 Clouds 22 1028 15 10000 7.72 110 09:38 23.03.2021
1148 Clouds 22 1028 15 10000 7.72 110 09:19 23.03.2021
1149 Clouds 20 1029 18 10000 5.14 100 08:39 23.03.2021
1150 Clouds 20 1029 18 10000 5.14 100 08:21 23.03.2021
1151 Clouds 18 1028 19 10000 3.6 80 07:28 23.03.2021
1152 Clouds 18 1028 19 10000 3.6 80 06:59 23.03.2021
1153 Clouds 16 1018 18 10000 2.55 91 06:24 23.03.2021
1154 Clear 11 1025 24 10000 3.09 80 03:21 23.03.2021
1155 Clear 11 1025 24 10000 3.09 110 01:34 23.03.2021
1156 Clear 15 1027 17 10000 3.6 60 23:33 22.03.2021
1157 Clear 15 1027 17 10000 2.57 80 22:46 22.03.2021
1158 Clear 15 1027 17 10000 2.57 80 22:24 22.03.2021
1159 Clear 16 1027 16 10000 5.14 80 21:57 22.03.2021
1160 Clear 16 1027 16 10000 5.14 80 21:36 22.03.2021
1161 Clear 16 1027 16 10000 5.14 80 21:18 22.03.2021
1162 Clear 17 1027 16 10000 6.17 70 20:38 22.03.2021
1163 Clear 17 1027 16 10000 6.17 70 20:19 22.03.2021
1164 Clear 17 1027 16 10000 6.17 70 19:48 22.03.2021
1165 Clouds 17 1027 16 10000 6.17 70 19:29 22.03.2021
1166 Clouds 18 1026 15 10000 7.2 70 18:46 22.03.2021
1167 Clouds 18 1026 15 10000 7.2 70 18:27 22.03.2021
1168 Clouds 15 1015 15 10000 3.34 85 17:57 22.03.2021
1169 Clouds 22 1024 9 10000 9.26 100 17:37 22.03.2021
1170 Clouds 22 1024 9 10000 9.26 100 17:18 22.03.2021
1171 Clouds 17 1013 13 10000 4.52 96 16:43 22.03.2021
1172 Clouds 21 1011 10 10000 6.08 102 15:59 22.03.2021
1173 Clouds 26 1023 8 10000 9.77 100 15:37 22.03.2021
1174 Clouds 26 1023 8 10000 9.77 100 15:18 22.03.2021
1175 Clouds 26 1023 8 10000 9.77 100 14:50 22.03.2021
1176 Clouds 26 1023 8 10000 9.77 100 14:29 22.03.2021
1177 Clouds 24 1010 7 10000 6.62 110 13:43 22.03.2021
1178 Clouds 26 1024 13 10000 8.75 110 13:22 22.03.2021
1179 Clouds 26 1024 13 10000 8.75 110 12:47 22.03.2021
1180 Clouds 26 1024 13 10000 8.75 110 12:23 22.03.2021
1181 Clouds 25 1011 9 10000 5.92 104 11:47 22.03.2021
1182 Clouds 24 1012 10 10000 5 105 11:25 22.03.2021
1183 Clouds 24 1012 10 10000 5 105 10:44 22.03.2021
1184 Clouds 23 1014 13 10000 3.64 103 10:24 22.03.2021
1185 Clouds 23 1014 13 10000 3.65 104 09:43 22.03.2021
1186 Clouds 22 1016 16 10000 2.95 101 09:22 22.03.2021
1187 Clouds 22 1016 16 10000 2.95 101 08:44 22.03.2021
1188 Clouds 17 1027 23 10000 7.2 70 08:24 22.03.2021
1189 Clouds 17 1027 23 10000 7.2 70 07:45 22.03.2021
1190 Clouds 17 1018 25 10000 2.46 105 06:57 22.03.2021
1191 Clouds 17 1018 25 10000 2.24 108 06:35 22.03.2021
1192 Clear 13 1024 28 10000 4.12 90 02:33 22.03.2021
1193 Clouds 16 1025 23 10000 3.09 60 00:33 22.03.2021
1194 Clouds 16 1025 23 10000 3.09 60 23:54 21.03.2021
1195 Clouds 16 1025 23 10000 3.09 60 23:19 21.03.2021
1196 Clouds 16 1025 23 10000 3.09 60 23:19 21.03.2021
1197 Clouds 17 1025 22 10000 3.09 60 22:56 21.03.2021
1198 Clouds 17 1025 22 10000 3.09 60 22:18 21.03.2021
1199 Clouds 17 1025 22 10000 6.17 50 21:40 21.03.2021
1200 Clouds 17 1025 22 10000 6.17 50 21:22 21.03.2021
1201 Clouds 17 1025 20 10000 5.14 60 20:43 21.03.2021
1202 Clouds 17 1025 20 10000 5.14 60 20:25 21.03.2021
1203 Clouds 17 1025 20 10000 4.12 60 19:53 21.03.2021
1204 Clouds 17 1025 20 10000 4.12 60 19:21 21.03.2021
1205 Clouds 19 1024 18 10000 4.63 70 18:48 21.03.2021
1206 Clouds 19 1024 18 10000 4.63 70 18:27 21.03.2021
1207 Clouds 20 1023 15 10000 7.72 80 17:48 21.03.2021
1208 Clouds 20 1023 15 10000 7.72 80 17:21 21.03.2021
1209 Clouds 23 1023 15 10000 7.72 70 16:58 21.03.2021
1210 Clouds 23 1023 15 10000 7.72 70 16:33 21.03.2021
1211 Clouds 24 1022 12 10000 7.72 100 15:58 21.03.2021
1212 Clouds 24 1022 12 10000 7.72 100 15:39 21.03.2021
1213 Clouds 24 1022 12 10000 7.72 100 15:19 21.03.2021
1214 Clouds 24 1022 12 10000 7.2 100 14:44 21.03.2021
1215 Clouds 24 1022 12 10000 7.2 100 14:26 21.03.2021
1216 Clouds 24 1022 14 10000 8.75 100 13:54 21.03.2021
1217 Clouds 24 1023 17 10000 11.32 110 13:00 21.03.2021
1218 Clouds 24 1023 17 10000 11.32 110 12:41 21.03.2021
1219 Clouds 24 1023 17 10000 11.32 110 12:22 21.03.2021
1220 Clouds 22 1025 33 10000 8.23 90 11:28 21.03.2021
1221 Clouds 22 1025 33 10000 8.23 90 10:59 21.03.2021
1222 Clouds 22 1025 33 10000 8.23 90 10:41 21.03.2021
1223 Clouds 22 1025 33 10000 8.23 90 10:22 21.03.2021
1224 Clouds 23 1012 14 10000 7.07 98 09:44 21.03.2021
1225 Clouds 21 1026 26 10000 14.4 90 09:26 21.03.2021
1226 Clouds 21 1026 26 10000 14.4 90 08:39 21.03.2021
1227 Clouds 21 1026 26 10000 14.4 90 08:21 21.03.2021
1228 Clouds 19 1025 26 10000 12.35 70 07:38 21.03.2021
1229 Clouds 17 1024 25 10000 7.2 80 06:52 21.03.2021
1230 Clouds 12 1024 47 10000 2.57 150 05:25 21.03.2021
1231 Clouds 14 1023 41 10000 2.57 60 01:54 21.03.2021
1232 Clear 13 1014 35 10000 2.21 55 00:41 21.03.2021
1233 Clouds 16 1024 36 10000 4.12 70 00:21 21.03.2021
1234 Clouds 16 1024 36 10000 4.12 70 23:47 20.03.2021
1235 Clouds 16 1024 36 10000 4.12 70 23:22 20.03.2021
1236 Clouds 16 1024 36 10000 4.12 70 23:22 20.03.2021
1237 Clouds 16 1025 36 10000 3.6 60 22:55 20.03.2021
1238 Clouds 16 1025 36 10000 3.6 60 22:22 20.03.2021
1239 Clouds 17 1025 34 10000 3.09 70 21:46 20.03.2021
1240 Clouds 17 1025 34 10000 3.09 70 21:24 20.03.2021
1241 Clouds 17 1025 29 10000 5.14 60 20:45 20.03.2021
1242 Clouds 17 1025 29 10000 5.14 60 20:23 20.03.2021
1243 Clear 15 1015 28 10000 3.37 66 19:50 20.03.2021
1244 Clouds 19 1024 26 10000 10.8 60 19:27 20.03.2021
1245 Clouds 19 1024 26 10000 10.8 60 18:50 20.03.2021
1246 Clouds 19 1024 26 10000 10.8 60 18:27 20.03.2021
1247 Clouds 20 1023 22 10000 12.35 70 17:55 20.03.2021
1248 Clouds 20 1023 22 10000 12.35 70 17:33 20.03.2021
1249 Clouds 22 1022 20 10000 8.75 90 16:56 20.03.2021
1250 Clouds 22 1022 20 10000 8.75 90 16:37 20.03.2021
1251 Clouds 22 1022 20 10000 8.75 90 16:18 20.03.2021
1252 Clouds 24 1021 22 10000 8.23 100 15:39 20.03.2021
1253 Clouds 25 1021 22 10000 8.23 90 14:49 20.03.2021
1254 Clouds 25 1021 22 10000 8.23 90 14:29 20.03.2021
1255 Clouds 25 1022 22 10000 7.2 110 13:43 20.03.2021
1256 Clouds 25 1022 22 10000 7.2 110 13:21 20.03.2021
1257 Clouds 24 1024 22 10000 7.72 100 12:28 20.03.2021
1258 Clouds 24 1024 22 10000 7.72 100 11:50 20.03.2021
1259 Clouds 24 1024 22 10000 7.72 100 11:31 20.03.2021
1260 Clouds 24 1011 17 10000 5.62 100 10:57 20.03.2021
1261 Clouds 22 1026 26 10000 8.23 100 10:38 20.03.2021
1262 Clouds 22 1026 26 10000 8.23 100 10:38 20.03.2021
1263 Clouds 22 1026 26 10000 8.23 100 10:19 20.03.2021
1264 Clouds 22 1026 26 10000 8.23 100 09:42 20.03.2021
1265 Clouds 22 1026 26 10000 8.23 100 09:21 20.03.2021
1266 Clouds 14 1026 44 10000 2.06 160 08:46 20.03.2021
1267 Clear 19 1015 24 10000 3.97 99 07:56 20.03.2021
1268 Clouds 14 1026 44 10000 2.06 160 07:37 20.03.2021
1269 Clouds 14 1026 44 10000 2.06 160 07:19 20.03.2021
1270 Clouds 14 1026 44 10000 2.06 160 06:27 20.03.2021
1271 Clear 12 1016 47 10000 0.87 37 04:41 20.03.2021
1272 Clear 12 1015 49 10000 0.92 42 03:42 20.03.2021
1273 Clear 12 1014 47 10000 0.97 45 00:42 20.03.2021
1274 Clouds 14 1015 45 10000 1.46 65 23:36 19.03.2021
1275 Clouds 14 1015 45 10000 1.47 65 22:59 19.03.2021
1276 Clouds 14 1015 45 10000 1.47 65 22:40 19.03.2021
1277 Clouds 17 1026 36 10000 5.14 70 22:22 19.03.2021
1278 Clouds 17 1026 36 10000 5.14 70 22:22 19.03.2021
1279 Clouds 17 1026 36 10000 5.14 70 21:36 19.03.2021
1280 Clouds 17 1026 36 10000 5.14 70 21:18 19.03.2021
1281 Clouds 15 1015 43 10000 2.47 67 20:42 19.03.2021
1282 Clear 15 1014 43 10000 3.2 68 20:24 19.03.2021
1283 Clear 15 1014 43 10000 3.2 68 19:47 19.03.2021
1284 Clouds 16 1013 42 10000 2.98 85 19:21 19.03.2021
1285 Clouds 15 1013 37 10000 3.26 72 18:46 19.03.2021
1286 Clouds 16 1012 34 10000 3.67 90 18:21 19.03.2021
1287 Clouds 16 1012 34 10000 3.67 90 17:56 19.03.2021
1288 Clouds 16 1012 34 10000 3.67 90 17:36 19.03.2021
1289 Clouds 18 1011 29 10000 5.33 96 16:57 19.03.2021
1290 Clouds 18 1011 29 10000 5.33 96 16:36 19.03.2021
1291 Clouds 21 1009 25 10000 6.34 99 16:18 19.03.2021
1292 Clouds 21 1009 25 10000 6.34 99 15:32 19.03.2021
1293 Clouds 23 1008 24 10000 5.46 103 14:49 19.03.2021
1294 Clouds 23 1008 25 10000 5.19 106 14:29 19.03.2021
1295 Clouds 23 1008 25 10000 5.19 106 13:45 19.03.2021
1296 Clouds 24 1023 25 10000 8.23 90 13:18 19.03.2021
1297 Clouds 24 1023 25 10000 8.23 90 12:38 19.03.2021
1298 Clouds 24 1024 29 10000 7.2 120 11:53 19.03.2021
1299 Clouds 23 1025 31 10000 6.17 90 10:59 19.03.2021
1300 Clouds 23 1025 31 10000 6.17 90 10:40 19.03.2021
1301 Clouds 23 1025 31 10000 6.17 90 10:40 19.03.2021
1302 Clouds 23 1025 31 10000 6.17 90 10:19 19.03.2021
1303 Clouds 22 1027 35 10000 3.09 110 09:43 19.03.2021
1304 Clouds 22 1027 35 10000 3.09 110 09:22 19.03.2021
1305 Clouds 20 1027 42 10000 3.09 110 08:47 19.03.2021
1306 Clouds 20 1027 42 10000 3.09 110 08:25 19.03.2021
1307 Clouds 20 1015 40 10000 2.91 113 07:43 19.03.2021
1308 Clouds 18 1015 46 10000 2.41 117 06:58 19.03.2021
1309 Clouds 13 1016 59 10000 1.23 59 05:26 19.03.2021
1310 Clouds 14 1013 55 10000 0.41 95 00:58 19.03.2021
1311 Clouds 14 1014 52 10000 0.41 131 23:51 18.03.2021
1312 Clouds 15 1014 50 10000 0.59 115 23:26 18.03.2021
1313 Clouds 15 1014 50 10000 0.59 115 22:44 18.03.2021
1314 Clouds 15 1014 48 10000 1.32 66 22:25 18.03.2021
1315 Clouds 15 1014 48 10000 1.32 66 21:40 18.03.2021
1316 Clouds 16 1014 48 10000 1.99 70 21:21 18.03.2021
1317 Clouds 18 1024 45 10000 4.12 80 20:39 18.03.2021
1318 Clouds 18 1024 45 10000 4.12 80 20:20 18.03.2021
1319 Clouds 18 1024 45 10000 4.12 80 19:42 18.03.2021
1320 Clouds 18 1024 45 10000 4.12 80 19:22 18.03.2021
1321 Clouds 17 1011 46 10000 3.29 79 18:39 18.03.2021
1322 Clouds 18 1010 45 10000 3.55 93 17:51 18.03.2021
1323 Clouds 20 1022 52 10000 1.03 30 17:26 18.03.2021
1324 Clouds 20 1022 52 10000 1.03 30 16:51 18.03.2021
1325 Clouds 20 1022 52 10000 1.03 30 16:32 18.03.2021
1326 Clouds 20 1008 41 10000 3.74 79 15:56 18.03.2021
1327 Clouds 23 1022 38 10000 4.12 120 15:37 18.03.2021
1328 Clouds 23 1022 38 10000 4.12 120 15:18 18.03.2021
1329 Clouds 23 1007 31 10000 5.4 94 14:40 18.03.2021
1330 Clouds 24 1007 27 10000 2.86 97 13:57 18.03.2021
1331 Clouds 24 1007 26 10000 1.74 71 13:27 18.03.2021
1332 Clouds 24 1007 26 10000 1.74 71 12:57 18.03.2021
1333 Clouds 24 1024 33 10000 5.14 150 12:36 18.03.2021
1334 Clouds 24 1024 33 10000 5.14 150 12:36 18.03.2021
1335 Clouds 24 1024 33 10000 5.14 150 12:18 18.03.2021
1336 Clouds 24 1024 33 10000 5.14 150 11:40 18.03.2021
1337 Clouds 22 1026 37 10000 6.17 110 10:57 18.03.2021
1338 Clouds 21 1027 40 10000 5.66 100 10:38 18.03.2021
1339 Clouds 21 1027 40 10000 5.66 100 10:20 18.03.2021
1340 Clouds 19 1027 48 10000 5.66 100 09:30 18.03.2021
1341 Clouds 19 1027 48 10000 5.66 100 08:59 18.03.2021
1342 Clouds 19 1027 48 10000 5.66 100 08:41 18.03.2021
1343 Clear 17 1027 51 10000 2.06 180 08:23 18.03.2021
1344 Clear 20 1014 39 10000 3.21 120 07:43 18.03.2021
1345 Clouds 18 1015 46 10000 2.69 126 06:40 18.03.2021
1346 Clouds 16 1016 51 10000 1.73 125 06:22 18.03.2021
1347 Clouds 13 1016 60 10000 1.14 89 05:25 18.03.2021
1348 Clouds 16 1025 55 10000 3.09 120 00:40 18.03.2021
1349 Clouds 16 1025 55 10000 3.09 90 23:19 17.03.2021
1350 Clouds 17 1026 48 10000 3.09 90 22:38 17.03.2021
1351 Clouds 15 1014 51 10000 1.43 113 22:20 17.03.2021
1352 Clouds 15 1014 51 10000 1.43 113 21:49 17.03.2021
1353 Clouds 15 1014 51 10000 1.43 113 21:30 17.03.2021
1354 Clouds 15 1014 51 10000 1.36 76 20:48 17.03.2021
1355 Clouds 16 1014 49 10000 2.02 72 20:26 17.03.2021
1356 Clouds 16 1014 49 10000 2.02 72 19:58 17.03.2021
1357 Clouds 16 1014 49 10000 2.02 72 19:58 17.03.2021
1358 Clouds 19 1024 42 10000 1.03 350 19:36 17.03.2021
1359 Clouds 19 1024 42 10000 1.03 350 19:18 17.03.2021
1360 Clouds 19 1024 42 10000 1.03 350 18:43 17.03.2021
1361 Clouds 19 1024 42 10000 1.03 350 18:25 17.03.2021
1362 Rain 20 1024 37 10000 5.14 340 17:32 17.03.2021
1363 Rain 21 1022 40 10000 5.14 310 16:57 17.03.2021
1364 Rain 19 1010 49 10000 2.05 101 16:38 17.03.2021
1365 Rain 20 1008 44 10000 2.44 103 16:19 17.03.2021
1366 Rain 20 1008 44 10000 2.44 103 15:41 17.03.2021
1367 Rain 25 1021 31 10000 10.29 100 14:57 17.03.2021
1368 Rain 25 1021 31 10000 10.29 100 14:36 17.03.2021
1369 Clouds 25 1021 31 10000 10.29 100 14:18 17.03.2021
1370 Clouds 25 1021 31 10000 10.29 100 14:18 17.03.2021
1371 Clouds 26 1022 29 10000 12.35 90 13:52 17.03.2021
1372 Clouds 26 1022 29 10000 12.35 90 13:22 17.03.2021
1373 Clouds 25 1022 31 10000 6.17 90 12:37 17.03.2021
1374 Clouds 25 1022 31 10000 6.17 90 12:19 17.03.2021
1375 Clouds 23 1024 33 10000 6.17 110 11:38 17.03.2021
1376 Clouds 23 1024 33 10000 6.17 110 11:20 17.03.2021
1377 Clouds 23 1024 33 10000 6.17 110 10:40 17.03.2021
1378 Clouds 23 1024 33 10000 6.17 110 10:19 17.03.2021
1379 Clouds 22 1026 35 10000 6.69 100 09:42 17.03.2021
1380 Clouds 22 1026 35 10000 6.69 100 09:20 17.03.2021
1381 Clouds 21 1013 39 10000 4.05 110 08:46 17.03.2021
1382 Clouds 19 1025 39 10000 4.12 80 08:26 17.03.2021
1383 Clouds 19 1025 39 10000 4.12 80 07:39 17.03.2021
1384 Clouds 17 1025 48 10000 4.12 70 06:52 17.03.2021
1385 Clouds 17 1025 48 10000 4.12 70 06:27 17.03.2021
1386 Clouds 15 1023 51 10000 2.06 80 03:32 17.03.2021
1387 Clouds 15 1023 51 10000 2.06 80 03:32 17.03.2021
1388 Clouds 14 1023 54 10000 1.03 230 02:37 17.03.2021
1389 Clouds 16 1023 48 10000 4.12 80 00:38 17.03.2021
1390 Clouds 17 1024 45 10000 6.69 70 23:27 16.03.2021
1391 Clear 15 1014 52 10000 2.47 75 22:45 16.03.2021
1392 Clear 16 1014 50 10000 2.73 66 22:27 16.03.2021
1393 Clear 16 1014 50 10000 2.73 66 21:44 16.03.2021
1394 Clouds 18 1025 36 10000 5.14 80 21:26 16.03.2021
1395 Clouds 18 1025 36 10000 5.14 80 20:57 16.03.2021
1396 Clouds 18 1025 36 10000 5.14 80 20:20 16.03.2021
1397 Clouds 19 1024 37 10000 2.06 90 19:51 16.03.2021
1398 Clouds 22 1023 28 10000 4.63 90 19:29 16.03.2021
1399 Clouds 22 1023 28 10000 4.63 90 18:57 16.03.2021
1400 Clouds 22 1023 28 10000 4.63 90 18:39 16.03.2021
1401 Clouds 22 1023 26 10000 6.69 100 17:59 16.03.2021
1402 Clouds 22 1023 26 10000 6.69 100 17:59 16.03.2021
1403 Clouds 22 1023 26 10000 6.69 100 17:40 16.03.2021
1404 Clouds 22 1023 26 10000 6.69 100 17:21 16.03.2021
1405 Clouds 25 1022 22 10000 8.23 110 16:47 16.03.2021
1406 Clouds 25 1022 22 10000 8.23 110 16:25 16.03.2021
1407 Clouds 25 1021 22 10000 8.23 110 15:46 16.03.2021
1408 Clouds 25 1021 22 10000 8.23 110 15:20 16.03.2021
1409 Clouds 26 1021 22 10000 6.69 100 14:57 16.03.2021
1410 Clouds 26 1021 22 10000 6.69 100 14:38 16.03.2021
1411 Clouds 26 1021 22 10000 6.69 100 14:18 16.03.2021
1412 Clouds 26 1022 25 10000 7.2 100 13:44 16.03.2021
1413 Clouds 26 1022 25 10000 7.2 100 13:21 16.03.2021
1414 Clear 26 1007 19 10000 6.22 102 12:46 16.03.2021
1415 Clear 26 1008 20 10000 5.14 101 12:27 16.03.2021
1416 Clear 26 1008 20 10000 5.15 101 11:38 16.03.2021
1417 Clear 25 1010 25 10000 4.55 97 10:59 16.03.2021
1418 Clear 23 1011 32 10000 4.46 98 10:27 16.03.2021
1419 Clear 23 1011 32 10000 4.44 98 09:48 16.03.2021
1420 Clouds 20 1025 45 10000 7.2 90 09:29 16.03.2021
1421 Clouds 20 1025 45 10000 7.2 90 08:58 16.03.2021
1422 Clouds 20 1025 45 10000 7.2 90 08:40 16.03.2021
1423 Clouds 20 1025 45 10000 7.2 90 08:18 16.03.2021
1424 Clouds 19 1025 52 10000 6.17 80 07:33 16.03.2021
1425 Clouds 18 1015 55 10000 4.77 100 06:39 16.03.2021
1426 Clouds 16 1015 63 10000 4.16 85 05:40 16.03.2021
1427 Clouds 15 1023 63 10000 4.63 70 05:21 16.03.2021
1428 Clouds 15 1023 55 10000 3.6 70 02:45 16.03.2021
1429 Clouds 15 1023 55 10000 3.6 70 02:23 16.03.2021
1430 Clouds 14 1013 62 10000 3.22 60 23:56 15.03.2021
1431 Clouds 14 1013 62 10000 3.22 60 23:56 15.03.2021
1432 Clouds 18 1025 39 10000 5.14 60 23:28 15.03.2021
1433 Clouds 18 1025 39 10000 5.14 60 22:51 15.03.2021
1434 Clouds 18 1025 39 10000 5.14 60 22:33 15.03.2021
1435 Clouds 15 1014 58 10000 2.26 58 21:54 15.03.2021
1436 Clouds 15 1014 58 10000 2.26 58 21:34 15.03.2021
1437 Clear 16 1013 55 10000 3.47 74 20:58 15.03.2021
1438 Clouds 20 1024 37 10000 3.47 74 20:39 15.03.2021
1439 Clouds 20 1024 37 10000 4.18 77 20:21 15.03.2021
1440 Clouds 20 1024 37 10000 4.18 77 19:49 15.03.2021
1441 Clouds 20 1024 37 10000 4.17 77 19:49 15.03.2021
1442 Clouds 20 1024 37 10000 2.99 72 19:31 15.03.2021
1443 Clouds 17 1012 53 10000 2.1 55 18:50 15.03.2021
1444 Rain 17 1010 56 10000 2.72 8 18:26 15.03.2021
1445 Rain 17 1010 56 10000 2.72 8 17:56 15.03.2021
1446 Rain 24 1021 25 10000 4.12 100 17:32 15.03.2021
1447 Rain 24 1021 25 10000 4.12 100 16:50 15.03.2021
1448 Rain 24 1021 25 10000 4.12 100 16:32 15.03.2021
1449 Clouds 25 1021 20 10000 9.26 10 15:45 15.03.2021
1450 Clouds 25 1021 20 10000 9.26 10 15:26 15.03.2021
1451 Clouds 26 1021 22 10000 8.23 90 14:44 15.03.2021
1452 Clouds 25 1006 27 10000 1.77 50 14:23 15.03.2021
1453 Clouds 25 1006 27 10000 1.77 50 13:47 15.03.2021
1454 Clouds 26 1022 27 10000 6.17 70 13:25 15.03.2021
1455 Clouds 26 1022 27 10000 6.17 70 12:49 15.03.2021
1456 Clouds 26 1022 27 10000 6.17 70 12:20 15.03.2021
1457 Clouds 25 1023 29 10000 5.14 110 11:52 15.03.2021
1458 Clouds 25 1023 29 10000 5.14 110 11:33 15.03.2021
1459 Clouds 23 1024 28 10000 6.17 110 10:56 15.03.2021
1460 Clouds 23 1024 28 10000 6.17 110 10:32 15.03.2021
1461 Clouds 23 1011 32 10000 2.94 117 09:53 15.03.2021
1462 Clouds 23 1011 32 10000 2.88 117 09:35 15.03.2021
1463 Clouds 22 1012 34 10000 3.77 115 08:54 15.03.2021
1464 Clouds 22 1012 34 10000 3.77 115 08:34 15.03.2021
1465 Clear 21 1014 38 10000 4.45 114 07:55 15.03.2021
1466 Clear 21 1014 38 10000 4.45 114 07:32 15.03.2021
1467 Clouds 19 1014 40 10000 3.96 105 06:40 15.03.2021
1468 Clouds 14 1014 56 10000 1.82 76 05:33 15.03.2021
1469 Clear 15 1012 51 10000 1.92 66 01:47 15.03.2021
1470 Clouds 15 1013 45 10000 2.14 80 23:58 14.03.2021
1471 Clouds 16 1013 42 10000 2.4 90 23:20 14.03.2021
1472 Clouds 16 1013 42 10000 2.4 90 22:47 14.03.2021
1473 Clouds 17 1013 39 10000 3.08 82 22:23 14.03.2021
1474 Clouds 17 1013 39 10000 3.08 82 21:45 14.03.2021
1475 Clouds 17 1013 37 10000 2.83 80 21:19 14.03.2021
1476 Clouds 17 1013 37 10000 2.83 80 20:49 14.03.2021
1477 Clouds 18 1013 34 10000 3.74 91 20:26 14.03.2021
1478 Clouds 18 1013 34 10000 3.74 91 20:26 14.03.2021
1479 Clouds 18 1013 34 10000 3.74 91 19:48 14.03.2021
1480 Clouds 19 1012 31 10000 4.11 88 19:24 14.03.2021
1481 Clouds 19 1012 32 10000 3.86 93 18:49 14.03.2021
1482 Clouds 19 1011 31 10000 3.89 89 18:27 14.03.2021
1483 Clouds 19 1011 31 10000 3.89 89 17:41 14.03.2021
1484 Clouds 20 1010 28 10000 3.97 94 17:22 14.03.2021
1485 Clouds 20 1010 28 10000 3.97 94 16:46 14.03.2021
1486 Clouds 23 1008 26 10000 5.7 100 16:27 14.03.2021
1487 Clouds 23 1008 26 10000 5.7 100 15:53 14.03.2021
1488 Clouds 23 1008 26 10000 5.7 100 15:34 14.03.2021
1489 Clouds 25 1007 23 10000 6.39 108 14:41 14.03.2021
1490 Clouds 26 1007 20 10000 6.06 116 14:23 14.03.2021
1491 Clouds 26 1007 20 10000 6.06 116 13:49 14.03.2021
1492 Clear 27 1007 20 10000 5.13 121 13:28 14.03.2021
1493 Clouds 26 1007 21 10000 4.8 125 12:47 14.03.2021
1494 Clouds 26 1008 22 10000 3.97 128 12:28 14.03.2021
1495 Clouds 26 1008 22 10000 3.97 128 11:54 14.03.2021
1496 Clouds 26 1008 22 10000 3.97 128 11:35 14.03.2021
1497 Clouds 25 1010 26 10000 3.31 122 10:56 14.03.2021
1498 Clouds 25 1010 26 10000 3.31 122 10:37 14.03.2021
1499 Clouds 24 1012 30 10000 3.64 117 10:18 14.03.2021
1500 Clouds 24 1012 30 10000 3.64 117 09:43 14.03.2021
1501 Clouds 22 1013 34 10000 4.12 117 09:22 14.03.2021
1502 Clouds 22 1013 34 10000 4.12 117 08:43 14.03.2021
1503 Clouds 19 1026 48 10000 5.14 80 08:23 14.03.2021
1504 Clouds 19 1026 48 10000 5.14 80 07:37 14.03.2021
1505 Clouds 18 1026 52 10000 4.12 80 06:47 14.03.2021
1506 Clear 14 1015 62 10000 1.51 60 04:51 14.03.2021
1507 Clear 15 1014 54 10000 1.92 78 00:51 14.03.2021
1508 Clear 17 1025 51 10000 2.7 99 00:19 14.03.2021
1509 Clear 17 1025 51 10000 2.69 99 23:48 13.03.2021
1510 Clear 17 1025 51 10000 3.02 92 23:25 13.03.2021
1511 Clear 16 1014 49 10000 3.02 92 22:53 13.03.2021
1512 Clouds 18 1026 45 10000 8.23 80 22:27 13.03.2021
1513 Clouds 18 1026 45 10000 8.23 80 21:44 13.03.2021
1514 Clouds 18 1026 45 10000 8.23 80 21:25 13.03.2021
1515 Clear 17 1014 43 10000 2.4 90 20:52 13.03.2021
1516 Clouds 20 1025 37 10000 5.14 90 20:31 13.03.2021
1517 Clouds 20 1025 37 10000 5.14 90 19:53 13.03.2021
1518 Clouds 20 1025 37 10000 5.14 90 19:30 13.03.2021
1519 Clouds 18 1013 35 10000 3.71 89 18:44 13.03.2021
1520 Clouds 22 1023 30 10000 6.17 90 18:23 13.03.2021
1521 Clouds 22 1023 30 10000 6.17 90 17:59 13.03.2021
1522 Clouds 22 1023 30 10000 6.17 90 17:40 13.03.2021
1523 Clouds 22 1023 30 10000 6.17 90 17:21 13.03.2021
1524 Clouds 24 1022 22 10000 9.26 100 16:43 13.03.2021
1525 Clouds 24 1022 22 10000 9.26 100 16:19 13.03.2021
1526 Clouds 24 1007 26 10000 6.55 98 15:26 13.03.2021
1527 Clouds 24 1007 26 10000 6.55 98 14:47 13.03.2021
1528 Clouds 25 1007 28 10000 6.06 105 14:28 13.03.2021
1529 Clouds 25 1007 28 10000 6.06 105 13:47 13.03.2021
1530 Clouds 26 1008 27 10000 5.7 115 13:24 13.03.2021
1531 Clouds 26 1008 27 10000 5.7 115 13:24 13.03.2021
1532 Clouds 25 1008 28 10000 4.41 126 12:43 13.03.2021
1533 Clouds 24 1024 33 10000 5.14 110 12:20 13.03.2021
1534 Clouds 24 1024 33 10000 5.14 110 11:46 13.03.2021
1535 Clouds 24 1024 33 10000 5.14 110 11:28 13.03.2021
1536 Clouds 24 1010 30 10000 3.08 122 10:50 13.03.2021
1537 Clouds 22 1026 37 10000 6.17 90 10:29 13.03.2021
1538 Clouds 22 1026 37 10000 6.17 90 09:47 13.03.2021
1539 Clouds 22 1013 37 10000 4.15 104 08:58 13.03.2021
1540 Clouds 22 1013 37 10000 4.15 104 08:39 13.03.2021
1541 Clear 21 1014 42 10000 4.56 109 08:19 13.03.2021
1542 Clear 21 1014 42 10000 4.56 109 07:41 13.03.2021
1543 Clouds 16 1015 49 10000 1.74 113 05:50 13.03.2021
1544 Clouds 14 1024 62 10000 2.06 70 02:43 13.03.2021
1545 Clouds 14 1024 58 10000 3.09 180 00:50 13.03.2021
1546 Clouds 16 1025 51 10000 3.09 100 23:51 12.03.2021
1547 Clouds 16 1025 51 10000 3.09 100 23:32 12.03.2021
1548 Clouds 18 1026 45 10000 4.12 100 22:42 12.03.2021
1549 Clouds 18 1026 45 10000 4.12 100 22:23 12.03.2021
1550 Clouds 18 1026 45 10000 2.57 100 21:43 12.03.2021
1551 Clouds 18 1026 45 10000 2.57 100 21:24 12.03.2021
1552 Clouds 19 1026 42 10000 4.12 70 20:55 12.03.2021
1553 Clouds 19 1026 42 10000 4.12 70 20:32 12.03.2021
1554 Clouds 20 1025 37 10000 4.12 70 19:56 12.03.2021
1555 Clouds 20 1025 37 10000 4.12 70 19:38 12.03.2021
1556 Clouds 20 1025 37 10000 4.12 70 19:18 12.03.2021
1557 Clouds 21 1024 35 10000 7.2 80 18:35 12.03.2021
1558 Clouds 22 1023 35 10000 7.72 90 17:49 12.03.2021
1559 Clouds 22 1023 35 10000 7.72 90 17:30 12.03.2021
1560 Rain 23 1022 35 10000 7.2 90 16:55 12.03.2021
1561 Rain 23 1022 35 10000 7.2 90 16:36 12.03.2021
1562 Clouds 26 1022 31 10000 7.2 110 15:52 12.03.2021
1563 Clouds 26 1022 31 10000 7.2 110 15:28 12.03.2021
1564 Clouds 26 1021 31 10000 6.17 110 14:48 12.03.2021
1565 Clouds 26 1021 31 10000 6.17 110 14:21 12.03.2021
1566 Clouds 24 1008 32 10000 2.81 120 13:44 12.03.2021
1567 Clouds 24 1008 30 10000 2.74 134 13:21 12.03.2021
1568 Clouds 24 1008 30 10000 2.75 132 12:57 12.03.2021
1569 Clouds 24 1008 30 10000 2.75 132 12:38 12.03.2021
1570 Clouds 24 1009 31 10000 2.68 137 12:19 12.03.2021
1571 Clouds 24 1009 31 10000 2.68 137 11:49 12.03.2021
1572 Clouds 23 1024 35 10000 4.12 100 11:21 12.03.2021
1573 Clouds 23 1024 35 10000 4.12 100 10:48 12.03.2021
1574 Clouds 23 1024 35 10000 4.12 100 10:24 12.03.2021
1575 Clouds 23 1025 35 10000 6.17 110 09:49 12.03.2021
1576 Clouds 23 1025 35 10000 6.17 110 09:20 12.03.2021
1577 Clouds 21 1025 40 10000 6.17 90 08:43 12.03.2021
1578 Clear 19 1025 52 10000 6.17 70 07:54 12.03.2021
1579 Clear 19 1025 52 10000 6.17 70 07:31 12.03.2021
1580 Clear 19 1015 42 10000 4.88 110 06:46 12.03.2021
1581 Clouds 14 1025 62 10000 2.06 50 05:57 12.03.2021
1582 Clear 14 1013 54 10000 1.4 122 01:42 12.03.2021
1583 Clear 15 1014 50 10000 1.28 105 23:59 11.03.2021
1584 Clear 16 1014 48 10000 2.06 93 23:19 11.03.2021
1585 Clear 16 1014 48 10000 2.06 93 22:41 11.03.2021
1586 Clear 16 1015 45 10000 2.43 84 22:21 11.03.2021
1587 Clear 16 1015 45 10000 2.42 85 21:46 11.03.2021
1588 Clear 17 1014 42 10000 2.79 83 21:26 11.03.2021
1589 Clear 17 1014 42 10000 2.79 83 20:49 11.03.2021
1590 Clear 17 1014 39 10000 3.22 82 20:23 11.03.2021
1591 Clear 17 1014 39 10000 3.22 82 19:56 11.03.2021
1592 Clear 17 1014 39 10000 3.22 82 19:36 11.03.2021
1593 Clouds 18 1013 36 10000 3.69 81 18:54 11.03.2021
1594 Clouds 22 1024 33 10000 5.14 90 18:35 11.03.2021
1595 Clouds 22 1024 33 10000 5.14 90 17:54 11.03.2021
1596 Clouds 22 1024 33 10000 5.14 90 17:36 11.03.2021
1597 Clouds 20 1011 33 10000 4.51 91 16:38 11.03.2021
1598 Clouds 25 1022 31 10000 7.2 100 16:19 11.03.2021
1599 Clouds 25 1022 31 10000 7.2 100 15:44 11.03.2021
1600 Clouds 25 1022 31 10000 7.2 100 15:20 11.03.2021
1601 Clouds 26 1022 31 10000 6.17 100 14:45 11.03.2021
1602 Clouds 26 1022 31 10000 6.17 100 14:18 11.03.2021
1603 Clouds 26 1022 31 10000 4.12 130 13:45 11.03.2021
1604 Clouds 26 1022 31 10000 4.12 130 13:22 11.03.2021
1605 Clouds 26 1023 29 10000 5.14 110 12:55 11.03.2021
1606 Clouds 26 1023 29 10000 5.14 110 12:30 11.03.2021
1607 Clouds 26 1024 29 10000 5.14 130 11:48 11.03.2021
1608 Clouds 26 1024 29 10000 5.14 130 11:30 11.03.2021
1609 Clouds 23 1011 33 10000 3.38 127 10:56 11.03.2021
1610 Clouds 22 1026 37 10000 6.17 100 10:27 11.03.2021
1611 Clouds 22 1026 37 10000 6.17 100 09:52 11.03.2021
1612 Clouds 22 1026 37 10000 6.17 100 09:32 11.03.2021
1613 Clouds 21 1026 40 10000 6.17 100 08:50 11.03.2021
1614 Clouds 21 1026 40 10000 6.17 100 08:32 11.03.2021
1615 Clouds 20 1015 39 10000 4.4 112 07:48 11.03.2021
1616 Clouds 15 1026 51 10000 2.06 90 07:21 11.03.2021
1617 Clouds 15 1026 51 10000 2.06 90 06:42 11.03.2021
1618 Clouds 15 1026 51 10000 2.06 90 06:22 11.03.2021
1619 Clouds 16 1024 44 10000 2.06 60 02:26 11.03.2021
1620 Clouds 17 1025 39 10000 3.09 70 00:29 11.03.2021
1621 Clouds 17 1025 36 10000 2.06 80 23:23 10.03.2021
1622 Clouds 18 1026 34 10000 3.09 70 22:42 10.03.2021
1623 Clouds 18 1026 34 10000 3.09 70 22:41 10.03.2021
1624 Clouds 18 1026 34 10000 3.09 70 22:41 10.03.2021
1625 Clouds 18 1026 34 10000 3.09 70 22:41 10.03.2021
1626 Clouds 18 1026 34 10000 3.09 70 22:41 10.03.2021
1627 Clouds 18 1026 34 10000 3.09 70 22:19 10.03.2021
1628 Clouds 18 1027 34 10000 2.06 120 21:41 10.03.2021
1629 Clouds 18 1027 34 10000 2.06 120 21:21 10.03.2021
1630 Clouds 18 1027 34 10000 2.06 120 21:21 10.03.2021
1631 Clouds 19 1026 30 10000 4.12 60 20:44 10.03.2021
1632 Clouds 19 1026 30 10000 4.12 60 20:26 10.03.2021
1633 Clouds 18 1014 31 10000 3.76 87 19:41 10.03.2021
1634 Clouds 20 1025 34 10000 8.23 70 19:21 10.03.2021
1635 Clouds 20 1025 34 10000 8.23 70 18:44 10.03.2021
1636 Clouds 20 1025 34 10000 8.23 70 18:24 10.03.2021
1637 Clouds 20 1025 34 10000 8.23 70 18:24 10.03.2021
1638 Clouds 22 1024 30 10000 7.2 90 17:46 10.03.2021
1639 Clouds 25 1024 27 10000 8.23 110 17:21 10.03.2021
1640 Clouds 25 1024 27 10000 8.23 110 16:57 10.03.2021
1641 Clouds 25 1024 27 10000 8.23 110 16:37 10.03.2021
1642 Clouds 25 1024 27 10000 8.23 110 16:19 10.03.2021
1643 Clouds 22 1010 27 10000 5.58 97 15:41 10.03.2021
1644 Clouds 26 1023 24 10000 4.63 110 15:21 10.03.2021
1645 Clouds 26 1023 24 10000 4.63 110 14:41 10.03.2021
1646 Clouds 26 1023 24 10000 4.63 110 14:41 10.03.2021
1647 Clouds 26 1023 24 10000 4.63 110 14:41 10.03.2021
1648 Clouds 26 1023 24 10000 4.63 110 14:19 10.03.2021
1649 Clouds 26 1023 25 10000 4.63 140 13:46 10.03.2021
1650 Clouds 26 1023 25 10000 4.63 140 13:24 10.03.2021
1651 Clouds 25 1024 27 10000 4.12 110 12:44 10.03.2021
1652 Clouds 25 1024 27 10000 4.12 110 12:18 10.03.2021
1653 Clouds 24 1025 29 10000 4.12 120 11:32 10.03.2021
1654 Clouds 23 1026 33 10000 5.14 80 10:57 10.03.2021
1655 Clouds 23 1026 33 10000 5.14 80 10:34 10.03.2021
1656 Clouds 23 1013 28 10000 3.46 117 09:59 10.03.2021
1657 Clouds 23 1013 28 10000 3.46 117 09:41 10.03.2021
1658 Clouds 20 1028 40 10000 5.14 110 09:21 10.03.2021
1659 Clouds 20 1028 40 10000 5.14 110 08:46 10.03.2021
1660 Clouds 20 1028 40 10000 5.14 110 08:28 10.03.2021
1661 Clouds 19 1028 39 10000 5.14 90 07:58 10.03.2021
1662 Clouds 19 1028 39 10000 5.14 90 07:30 10.03.2021
1663 Clouds 19 1028 39 10000 5.14 90 07:30 10.03.2021
1664 Clouds 18 1028 39 10000 4.12 70 06:56 10.03.2021
1665 Clouds 18 1028 39 10000 4.12 70 06:23 10.03.2021
1666 Clear 15 1014 43 10000 0.68 72 02:26 10.03.2021
1667 Clouds 15 1026 38 10000 2.57 90 23:49 09.03.2021
1668 Clouds 16 1015 43 10000 1.46 110 22:59 09.03.2021
1669 Clouds 16 1015 43 10000 1.46 110 22:38 09.03.2021
1670 Clouds 17 1015 40 10000 1.94 121 22:18 09.03.2021
1671 Clouds 17 1015 40 10000 1.94 121 21:45 09.03.2021
1672 Clouds 17 1015 38 10000 1.97 90 21:24 09.03.2021
1673 Clouds 17 1015 38 10000 1.97 90 20:58 09.03.2021
1674 Clouds 17 1015 38 10000 1.97 90 20:39 09.03.2021
1675 Clouds 19 1027 34 10000 4.12 60 20:20 09.03.2021
1676 Clouds 19 1027 34 10000 4.12 60 19:46 09.03.2021
1677 Clouds 19 1027 34 10000 4.12 60 19:25 09.03.2021
1678 Clouds 18 1015 35 10000 2.55 64 18:48 09.03.2021
1679 Clouds 18 1013 34 10000 3.21 69 18:25 09.03.2021
1680 Clouds 18 1013 34 10000 3.21 69 17:50 09.03.2021
1681 Clouds 20 1012 30 10000 4.38 91 17:29 09.03.2021
1682 Clouds 20 1012 30 10000 4.38 91 16:44 09.03.2021
1683 Clouds 25 1024 23 10000 6.17 120 16:26 09.03.2021
1684 Clouds 25 1024 23 10000 6.17 120 15:59 09.03.2021
1685 Clouds 25 1024 23 10000 6.17 120 15:30 09.03.2021
1686 Clouds 25 1024 22 10000 3.6 110 14:55 09.03.2021
1687 Clouds 25 1024 22 10000 3.6 110 14:28 09.03.2021
1688 Clouds 25 1024 22 10000 5.14 140 13:43 09.03.2021
1689 Clouds 25 1024 22 10000 5.14 140 13:22 09.03.2021
1690 Clouds 26 1010 19 10000 1.18 208 12:56 09.03.2021
1691 Clouds 26 1010 19 10000 1.18 208 12:38 09.03.2021
1692 Clouds 25 1010 20 10000 2.13 178 11:58 09.03.2021
1693 Clouds 23 1026 25 10000 2.57 110 11:39 09.03.2021
1694 Clouds 23 1026 25 10000 2.57 110 11:19 09.03.2021
1695 Clouds 23 1026 25 10000 2.57 110 10:41 09.03.2021
1696 Clouds 23 1026 25 10000 2.57 110 10:22 09.03.2021
1697 Clouds 22 1027 26 10000 4.12 130 09:47 09.03.2021
1698 Clouds 22 1027 26 10000 4.12 130 09:28 09.03.2021
1699 Clouds 22 1015 23 10000 2.73 148 08:58 09.03.2021
1700 Clouds 22 1015 23 10000 2.73 148 08:34 09.03.2021
1701 Clouds 20 1015 26 10000 2.77 130 07:47 09.03.2021
1702 Clear 18 1016 28 10000 2.7 121 07:28 09.03.2021
1703 Clear 18 1016 28 10000 2.7 121 07:28 09.03.2021
1704 Clear 18 1016 28 10000 2.7 121 07:28 09.03.2021
1705 Clear 18 1016 28 10000 2.7 121 06:59 09.03.2021
1706 Clouds 16 1016 32 10000 1.5 108 05:53 09.03.2021
1707 Clear 14 1024 35 10000 3.6 60 02:27 09.03.2021
1708 Clouds 15 1013 35 10000 1.05 119 23:59 08.03.2021
1709 Clouds 15 1013 35 10000 1.05 119 23:39 08.03.2021
1710 Clouds 15 1014 34 10000 1.74 119 23:20 08.03.2021
1711 Clouds 15 1014 34 10000 1.74 119 22:41 08.03.2021
1712 Clouds 16 1014 33 10000 1.52 142 22:23 08.03.2021
1713 Clouds 16 1014 33 10000 1.52 142 21:50 08.03.2021
1714 Clouds 16 1014 33 10000 1.52 142 21:30 08.03.2021
1715 Clouds 17 1014 32 10000 1.01 145 20:44 08.03.2021
1716 Clouds 19 1026 26 10000 4.12 60 20:23 08.03.2021
1717 Clouds 19 1026 26 10000 4.12 60 19:53 08.03.2021
1718 Clouds 19 1026 26 10000 4.12 60 19:27 08.03.2021
1719 Clouds 19 1025 26 10000 5.14 60 18:38 08.03.2021
1720 Clouds 19 1025 26 10000 5.14 60 18:19 08.03.2021
1721 Clouds 18 1012 29 10000 3.03 93 17:46 08.03.2021
1722 Clouds 23 1022 23 10000 6.17 100 17:24 08.03.2021
1723 Clouds 23 1022 23 10000 6.17 100 16:44 08.03.2021
1724 Clouds 23 1022 23 10000 6.17 100 16:25 08.03.2021
1725 Clouds 22 1009 25 10000 4.77 106 15:47 08.03.2021
1726 Clouds 24 1008 22 10000 4.23 130 15:24 08.03.2021
1727 Clouds 25 1008 21 10000 2.5 165 14:22 08.03.2021
1728 Clouds 25 1008 21 10000 2.5 165 13:58 08.03.2021
1729 Clear 25 1022 22 10000 4.12 210 13:24 08.03.2021
1730 Clear 25 1022 22 10000 4.12 210 12:59 08.03.2021
1731 Clear 25 1022 22 10000 4.12 210 12:40 08.03.2021
1732 Clear 25 1022 22 10000 4.12 210 12:20 08.03.2021
1733 Clear 24 1023 23 10000 4.12 210 11:35 08.03.2021
1734 Clear 23 1025 25 10000 3.09 210 10:58 08.03.2021
1735 Clear 23 1025 25 10000 3.09 210 10:40 08.03.2021
1736 Clear 23 1025 25 10000 3.09 210 10:19 08.03.2021
1737 Clear 21 1026 26 10000 3.09 110 09:30 08.03.2021
1738 Clear 20 1027 28 10000 4.12 90 08:54 08.03.2021
1739 Clear 20 1027 28 10000 4.12 90 08:25 08.03.2021
1740 Clouds 18 1027 32 10000 5.14 80 07:22 08.03.2021
1741 Clouds 17 1015 31 10000 2.63 117 06:33 08.03.2021
1742 Clouds 11 1024 46 10000 4.12 60 02:57 08.03.2021
1743 Clear 13 1014 42 10000 0.33 183 00:43 08.03.2021
1744 Clear 13 1014 41 10000 0.43 161 23:53 07.03.2021
1745 Clouds 16 1026 27 10000 3.09 60 23:22 07.03.2021
1746 Clouds 16 1026 27 10000 3.09 60 22:49 07.03.2021
1747 Clouds 16 1026 27 10000 3.09 60 22:29 07.03.2021
1748 Clouds 16 1026 33 10000 3.6 80 21:56 07.03.2021
1749 Clouds 16 1026 33 10000 3.6 80 21:34 07.03.2021
1750 Clouds 17 1026 31 10000 4.12 70 20:59 07.03.2021
1751 Clouds 17 1026 31 10000 4.12 70 20:41 07.03.2021
1752 Clouds 17 1026 31 10000 4.12 70 20:19 07.03.2021
1753 Clouds 17 1026 29 10000 4.12 60 19:55 07.03.2021
1754 Clouds 17 1026 29 10000 4.12 60 19:37 07.03.2021
1755 Clouds 17 1026 29 10000 4.12 60 19:19 07.03.2021
1756 Clouds 15 1014 34 10000 2.71 83 18:40 07.03.2021
1757 Clouds 16 1013 32 10000 3.03 90 18:18 07.03.2021
1758 Clouds 24 1024 20 10000 7.2 100 17:39 07.03.2021
1759 Clouds 24 1024 20 10000 7.2 100 17:20 07.03.2021
1760 Clouds 24 1024 20 10000 7.2 100 16:43 07.03.2021
1761 Clear 20 1010 26 10000 5.14 112 16:21 07.03.2021
1762 Clear 20 1010 26 10000 5.13 112 15:56 07.03.2021
1763 Clouds 24 1023 23 10000 5.66 140 15:38 07.03.2021
1764 Clouds 24 1023 23 10000 5.66 140 15:19 07.03.2021
1765 Clouds 24 1023 23 10000 5.66 140 14:29 07.03.2021
1766 Clouds 24 1023 23 10000 6.17 110 13:51 07.03.2021
1767 Clouds 24 1023 23 10000 6.17 110 13:31 07.03.2021
1768 Clear 24 1010 20 10000 4.22 152 12:59 07.03.2021
1769 Clear 24 1010 20 10000 4.22 152 12:40 07.03.2021
1770 Clear 23 1010 21 10000 3.64 158 12:20 07.03.2021
1771 Clear 23 1012 21 10000 3.32 163 11:24 07.03.2021
1772 Clear 23 1012 22 10000 3.3 163 10:56 07.03.2021
1773 Clouds 19 1027 32 10000 6.17 160 10:38 07.03.2021
1774 Clouds 19 1027 32 10000 6.17 160 09:56 07.03.2021
1775 Clouds 19 1027 32 10000 6.17 160 09:30 07.03.2021
1776 Clouds 18 1028 32 10000 6.17 110 08:59 07.03.2021
1777 Clouds 18 1028 32 10000 6.17 110 08:40 07.03.2021
1778 Clouds 18 1028 32 10000 6.17 110 08:21 07.03.2021
1779 Clouds 13 1027 50 10000 5.14 80 06:25 07.03.2021
1780 Clouds 11 1024 58 10000 2.06 100 02:39 07.03.2021
1781 Clouds 15 1025 44 10000 5.14 60 00:34 07.03.2021
1782 Clouds 16 1026 41 10000 6.17 50 23:40 06.03.2021
1783 Clouds 16 1026 41 10000 6.17 50 23:20 06.03.2021
1784 Clouds 16 1027 44 10000 6.17 60 22:45 06.03.2021
1785 Clouds 16 1027 44 10000 6.17 60 22:21 06.03.2021
1786 Clouds 16 1028 44 10000 6.69 60 21:47 06.03.2021
1787 Clouds 16 1028 44 10000 6.69 60 21:20 06.03.2021
1788 Clear 15 1017 42 10000 1.55 73 20:43 06.03.2021
1789 Clouds 17 1027 42 10000 6.69 70 20:18 06.03.2021
1790 Clouds 17 1027 42 10000 6.69 70 19:38 06.03.2021
1791 Clouds 17 1027 42 10000 6.69 70 19:18 06.03.2021
1792 Clouds 18 1026 39 10000 5.66 80 18:41 06.03.2021
1793 Clouds 18 1026 39 10000 5.66 80 18:21 06.03.2021
1794 Clouds 19 1026 37 10000 5.14 90 17:54 06.03.2021
1795 Clouds 19 1026 37 10000 5.14 90 17:32 06.03.2021
1796 Clouds 21 1025 32 10000 6.69 90 16:58 06.03.2021
1797 Clouds 21 1025 32 10000 6.69 90 16:33 06.03.2021
1798 Clouds 20 1012 34 10000 5.42 105 15:56 06.03.2021
1799 Clouds 24 1024 29 10000 6.69 90 15:38 06.03.2021
1800 Clouds 24 1024 29 10000 6.69 90 15:19 06.03.2021
1801 Clouds 24 1024 29 10000 6.69 90 14:33 06.03.2021
1802 Clouds 24 1024 29 10000 6.69 120 13:55 06.03.2021
1803 Clouds 24 1024 29 10000 6.69 120 13:37 06.03.2021
1804 Clouds 24 1025 27 10000 5.66 90 13:18 06.03.2021
1805 Clouds 24 1025 27 10000 5.66 90 12:42 06.03.2021
1806 Clouds 24 1025 27 10000 5.66 90 12:18 06.03.2021
1807 Clouds 22 1027 30 10000 6.17 80 11:38 06.03.2021
1808 Clouds 22 1027 30 10000 6.17 80 11:19 06.03.2021
1809 Clouds 22 1027 30 10000 6.17 80 10:43 06.03.2021
1810 Clouds 22 1028 30 10000 7.2 100 09:57 06.03.2021
1811 Clouds 22 1028 30 10000 7.2 100 09:26 06.03.2021
1812 Clouds 20 1017 38 10000 2.91 135 08:56 06.03.2021
1813 Clouds 20 1017 38 10000 2.91 135 08:31 06.03.2021
1814 Clouds 18 1018 44 10000 2.46 135 07:55 06.03.2021
1815 Clouds 13 1028 47 10000 2.06 120 07:22 06.03.2021
1816 Clouds 14 1018 60 10000 1.2 120 06:27 06.03.2021
1817 Clouds 13 1026 44 10000 2.06 100 03:49 06.03.2021
1818 Clouds 15 1028 47 10000 5.14 60 01:42 06.03.2021
1819 Clouds 12 1016 66 10000 0.94 131 00:46 06.03.2021
1820 Clouds 13 1016 64 10000 1.09 127 23:49 05.03.2021
1821 Clouds 13 1017 63 10000 1.07 104 23:19 05.03.2021
1822 Clouds 13 1017 63 10000 1.07 104 22:44 05.03.2021
1823 Clouds 16 1028 44 10000 2.06 60 22:22 05.03.2021
1824 Clouds 16 1028 44 10000 2.06 60 21:51 05.03.2021
1825 Clouds 16 1028 44 10000 2.06 60 21:31 05.03.2021
1826 Clouds 14 1017 60 10000 1.61 105 20:50 05.03.2021
1827 Clouds 17 1027 39 10000 6.17 60 20:26 05.03.2021
1828 Clouds 17 1027 39 10000 6.17 60 20:26 05.03.2021
1829 Clouds 17 1027 39 10000 6.17 60 19:54 05.03.2021
1830 Clouds 17 1027 39 10000 6.17 60 19:26 05.03.2021
1831 Clouds 15 1016 55 10000 2.24 82 18:55 05.03.2021
1832 Clouds 15 1016 54 10000 2.15 88 18:36 05.03.2021
1833 Clouds 16 1015 52 10000 2.4 102 18:18 05.03.2021
1834 Clouds 21 1026 35 10000 6.17 100 17:33 05.03.2021
1835 Clouds 21 1026 35 10000 6.17 100 16:45 05.03.2021
1836 Clouds 21 1026 35 10000 6.17 100 16:24 05.03.2021
1837 Clouds 19 1012 43 10000 5.24 107 15:56 05.03.2021
1838 Clouds 21 1012 40 10000 4.84 106 15:29 05.03.2021
1839 Clouds 21 1012 36 10000 6.15 114 14:58 05.03.2021
1840 Clouds 21 1012 36 10000 6.15 114 14:38 05.03.2021
1841 Clouds 22 1011 32 10000 6.23 110 13:46 05.03.2021
1842 Clouds 22 1026 35 10000 4.63 80 13:21 05.03.2021
1843 Clouds 23 1011 29 10000 5.83 108 12:48 05.03.2021
1844 Clouds 23 1026 33 10000 5.66 120 11:41 05.03.2021
1845 Clouds 23 1026 33 10000 5.66 120 11:41 05.03.2021
1846 Clouds 23 1026 33 10000 5.66 120 11:21 05.03.2021
1847 Clouds 21 1027 35 10000 6.17 110 10:59 05.03.2021
1848 Clouds 21 1027 35 10000 6.17 110 10:39 05.03.2021
1849 Clouds 21 1027 35 10000 6.17 110 10:20 05.03.2021
1850 Clouds 21 1015 31 10000 4.67 97 09:46 05.03.2021
1851 Clouds 20 1016 33 10000 4.81 99 09:26 05.03.2021
1852 Clouds 20 1016 33 10000 4.81 99 08:40 05.03.2021
1853 Clouds 19 1017 36 10000 4.53 103 08:21 05.03.2021
1854 Clouds 14 1028 44 10000 1.03 40 07:37 05.03.2021
1855 Clouds 14 1028 44 10000 1.03 40 06:45 05.03.2021
1856 Clouds 14 1028 44 10000 1.03 40 06:27 05.03.2021
1857 Clouds 12 1025 40 10000 1.54 310 01:40 05.03.2021
1858 Clouds 13 1026 38 10000 2.06 100 00:19 05.03.2021
1859 Clouds 15 1026 33 10000 2.06 100 23:26 04.03.2021
1860 Clear 14 1016 41 10000 1.64 87 22:37 04.03.2021
1861 Clouds 17 1027 27 10000 5.14 60 21:56 04.03.2021
1862 Clouds 17 1027 27 10000 5.14 60 21:34 04.03.2021
1863 Clouds 17 1027 27 10000 5.14 60 20:59 04.03.2021
1864 Clouds 17 1027 27 10000 5.14 60 20:59 04.03.2021
1865 Clouds 17 1027 29 10000 6.17 50 20:40 04.03.2021
1866 Clouds 17 1027 29 10000 6.17 50 20:21 04.03.2021
1867 Clouds 17 1027 29 10000 6.17 50 19:53 04.03.2021
1868 Clouds 18 1026 27 10000 6.17 60 19:26 04.03.2021
1869 Clouds 19 1026 27 10000 6.17 90 18:54 04.03.2021
1870 Clouds 20 1025 24 10000 7.2 90 18:30 04.03.2021
1871 Clouds 20 1025 24 10000 7.2 90 17:57 04.03.2021
1872 Clouds 20 1025 24 10000 7.2 90 17:39 04.03.2021
1873 Clouds 20 1025 24 10000 7.2 90 17:18 04.03.2021
1874 Clouds 22 1024 21 10000 7.72 110 16:42 04.03.2021
1875 Clouds 22 1024 21 10000 7.72 110 16:23 04.03.2021
1876 Clouds 23 1024 20 10000 7.72 110 15:45 04.03.2021
1877 Clouds 23 1024 20 10000 7.72 110 15:25 04.03.2021
1878 Clouds 22 1010 30 10000 5.46 110 14:42 04.03.2021
1879 Clouds 24 1024 23 10000 7.2 100 14:18 04.03.2021
1880 Clouds 24 1024 23 10000 7.2 100 13:40 04.03.2021
1881 Clouds 24 1024 23 10000 7.2 100 13:19 04.03.2021
1882 Clouds 24 1024 22 10000 7.2 90 12:42 04.03.2021
1883 Clouds 24 1024 22 10000 7.2 90 11:52 04.03.2021
1884 Clouds 23 1025 20 10000 6.17 120 11:32 04.03.2021
1885 Clouds 23 1026 25 10000 6.17 120 10:58 04.03.2021
1886 Clouds 23 1026 25 10000 6.17 120 10:36 04.03.2021
1887 Clear 21 1026 32 10000 7.2 80 09:53 04.03.2021
1888 Clear 21 1026 32 10000 7.2 80 09:27 04.03.2021
1889 Clear 20 1027 40 10000 6.17 60 08:51 04.03.2021
1890 Clear 20 1027 40 10000 6.17 60 08:25 04.03.2021
1891 Clear 17 1027 42 10000 4.12 30 07:36 04.03.2021
1892 Clouds 13 1026 54 10000 2.06 110 06:31 04.03.2021
1893 Clear 15 1017 46 10000 1.12 115 05:57 04.03.2021
1894 Clouds 14 1025 47 10000 3.6 90 02:38 04.03.2021
1895 Clouds 14 1015 49 10000 0.47 57 23:57 03.03.2021
1896 Clouds 17 1026 36 10000 6.17 70 22:39 03.03.2021
1897 Clouds 17 1026 36 10000 6.17 70 22:20 03.03.2021
1898 Clouds 15 1017 47 10000 1.97 94 21:41 03.03.2021
1899 Clear 15 1016 48 10000 2.05 94 21:23 03.03.2021
1900 Clear 15 1016 48 10000 2.05 94 20:53 03.03.2021
1901 Clouds 18 1026 36 10000 6.17 60 20:35 03.03.2021
1902 Clouds 18 1026 36 10000 6.17 60 19:48 03.03.2021
1903 Clouds 18 1026 36 10000 6.17 60 19:30 03.03.2021
1904 Clouds 16 1015 46 10000 2.29 89 18:55 03.03.2021
1905 Clouds 16 1015 46 10000 2.29 89 18:35 03.03.2021
1906 Clouds 17 1014 43 10000 2.59 87 17:58 03.03.2021
1907 Clouds 22 1024 24 10000 7.2 100 17:21 03.03.2021
1908 Clouds 22 1024 24 10000 7.2 100 16:52 03.03.2021
1909 Clouds 22 1024 24 10000 7.2 100 16:27 03.03.2021
1910 Clouds 23 1024 23 10000 7.2 90 15:53 03.03.2021
1911 Clouds 24 1024 22 10000 6.17 100 15:32 03.03.2021
1912 Clouds 24 1024 22 10000 6.17 100 14:45 03.03.2021
1913 Clouds 24 1024 22 10000 6.17 100 14:26 03.03.2021
1914 Clouds 24 1025 23 10000 7.2 90 13:42 03.03.2021
1915 Clouds 24 1025 23 10000 7.2 90 13:21 03.03.2021
1916 Clouds 23 1025 31 10000 6.69 90 12:43 03.03.2021
1917 Clouds 23 1025 31 10000 6.69 90 12:23 03.03.2021
1918 Clear 23 1012 32 10000 4.61 116 11:45 03.03.2021
1919 Clear 22 1014 32 10000 4.2 117 11:27 03.03.2021
1920 Clear 22 1014 32 10000 4.2 117 10:45 03.03.2021
1921 Clear 21 1015 34 10000 4.04 117 10:22 03.03.2021
1922 Clear 21 1015 34 10000 4.03 117 09:42 03.03.2021
1923 Clear 20 1016 38 10000 3.93 115 08:53 03.03.2021
1924 Clear 18 1017 43 10000 3.57 110 08:24 03.03.2021
1925 Clear 18 1017 43 10000 3.57 110 07:55 03.03.2021
1926 Clouds 15 1027 58 10000 4.12 120 07:28 03.03.2021
1927 Clouds 15 1027 58 10000 4.12 120 06:22 03.03.2021
1928 Clouds 12 1026 66 10000 4.12 110 05:44 03.03.2021
1929 Clouds 12 1026 66 10000 2.06 120 04:36 03.03.2021
1930 Clear 13 1016 61 10000 0.87 57 03:54 03.03.2021
1931 Clouds 15 1025 58 10000 4.12 80 00:34 03.03.2021
1932 Clouds 15 1026 58 10000 6.17 70 23:35 02.03.2021
1933 Clouds 16 1026 51 10000 6.17 70 22:53 02.03.2021
1934 Clouds 16 1026 51 10000 6.17 70 22:22 02.03.2021
1935 Clouds 16 1026 51 10000 6.17 70 21:54 02.03.2021
1936 Clouds 16 1027 51 10000 5.14 70 21:36 02.03.2021
1937 Clouds 17 1027 48 10000 6.17 70 20:56 02.03.2021
1938 Clouds 17 1027 48 10000 6.17 70 20:38 02.03.2021
1939 Clouds 17 1027 48 10000 6.17 70 20:20 02.03.2021
1940 Clouds 18 1026 45 10000 7.2 70 19:47 02.03.2021
1941 Clouds 19 1025 39 10000 5.14 60 19:28 02.03.2021
1942 Clouds 19 1025 39 10000 5.14 60 18:42 02.03.2021
1943 Clouds 19 1025 39 10000 5.14 60 18:22 02.03.2021
1944 Clouds 19 1025 39 10000 6.17 80 17:58 02.03.2021
1945 Clouds 19 1025 39 10000 6.17 80 17:39 02.03.2021
1946 Clouds 19 1025 39 10000 6.17 80 17:19 02.03.2021
1947 Clouds 19 1025 39 10000 6.17 80 17:19 02.03.2021
1948 Clouds 18 1013 48 10000 4.36 95 16:45 02.03.2021
1949 Clouds 19 1012 44 10000 4.92 93 15:54 02.03.2021
1950 Clouds 20 1012 41 10000 5.03 97 15:27 02.03.2021
1951 Clouds 20 1012 41 10000 5.03 97 14:49 02.03.2021
1952 Clouds 21 1012 38 10000 5.27 111 14:19 02.03.2021
1953 Clouds 21 1012 38 10000 5.27 111 13:44 02.03.2021
1954 Clouds 22 1012 36 10000 5.28 116 13:24 02.03.2021
1955 Clouds 22 1012 38 10000 5.14 117 12:47 02.03.2021
1956 Clouds 22 1025 37 10000 6.17 110 12:25 02.03.2021
1957 Clouds 22 1013 37 10000 4.92 118 11:45 02.03.2021
1958 Clouds 21 1014 40 10000 5.04 115 11:23 02.03.2021
1959 Clouds 21 1014 40 10000 5.04 115 10:49 02.03.2021
1960 Clouds 20 1028 42 10000 8.23 100 10:29 02.03.2021
1961 Clouds 20 1028 42 10000 8.23 100 09:41 02.03.2021
1962 Clouds 20 1028 42 10000 8.23 100 09:22 02.03.2021
1963 Clouds 20 1017 45 10000 5.05 115 08:43 02.03.2021
1964 Clouds 19 1028 48 10000 4.12 70 08:25 02.03.2021
1965 Clouds 18 1017 49 10000 4.44 115 07:43 02.03.2021
1966 Clouds 15 1027 63 10000 4.12 70 06:37 02.03.2021
1967 Clouds 12 1026 71 10000 2.57 100 05:47 02.03.2021
1968 Clouds 12 1026 71 10000 2.57 100 05:29 02.03.2021
1969 Clouds 14 1025 62 10000 2.57 110 03:29 02.03.2021
1970 Clouds 16 1025 55 10000 4.63 90 01:42 02.03.2021
1971 Clouds 16 1025 55 10000 4.63 90 01:19 02.03.2021
1972 Clouds 16 1026 55 10000 4.12 60 23:29 01.03.2021
1973 Clouds 17 1026 51 10000 4.12 50 22:43 01.03.2021
1974 Clouds 17 1026 51 10000 4.12 50 22:25 01.03.2021
1975 Clouds 17 1027 51 10000 6.17 70 21:52 01.03.2021
1976 Clouds 17 1027 51 10000 6.17 70 21:24 01.03.2021
1977 Clouds 18 1026 48 10000 5.14 70 20:59 01.03.2021
1978 Clouds 18 1026 48 10000 5.14 70 20:39 01.03.2021
1979 Clouds 16 1016 50 10000 3.22 71 20:18 01.03.2021
1980 Clouds 16 1016 50 10000 3.21 71 19:42 01.03.2021
1981 Clouds 16 1015 50 10000 3.68 77 19:18 01.03.2021
1982 Clouds 16 1015 50 10000 3.68 77 18:40 01.03.2021
1983 Clouds 20 1025 40 10000 6.17 20 18:21 01.03.2021
1984 Clouds 20 1025 40 10000 6.17 20 17:42 01.03.2021
1985 Clouds 20 1025 40 10000 6.17 20 17:20 01.03.2021
1986 Clouds 18 1013 45 10000 5.05 101 16:45 01.03.2021
1987 Clouds 20 1012 42 10000 5.37 105 16:26 01.03.2021
1988 Clouds 20 1012 42 10000 5.37 105 16:26 01.03.2021
1989 Clouds 20 1012 42 10000 5.37 105 15:42 01.03.2021
1990 Clouds 21 1012 40 10000 4.99 103 15:22 01.03.2021
1991 Clouds 21 1012 40 10000 4.99 103 14:55 01.03.2021
1992 Clouds 23 1023 35 10000 5.66 100 14:36 01.03.2021
1993 Clouds 22 1011 37 10000 4.36 100 13:44 01.03.2021
1994 Clouds 22 1011 35 10000 4.19 99 13:25 01.03.2021
1995 Clouds 22 1011 35 10000 4.19 99 12:59 01.03.2021
1996 Clouds 22 1011 36 10000 4.19 99 12:40 01.03.2021
1997 Clouds 22 1012 35 10000 4.23 104 12:19 01.03.2021
1998 Clouds 22 1012 35 10000 4.23 104 11:42 01.03.2021
1999 Clouds 22 1014 36 10000 4.15 104 10:57 01.03.2021
2000 Clouds 22 1014 36 10000 4.15 104 10:36 01.03.2021
2001 Clouds 21 1015 39 10000 4.7 111 10:18 01.03.2021
2002 Clouds 21 1015 39 10000 4.7 111 09:44 01.03.2021
2003 Clouds 20 1017 44 10000 4.79 115 09:23 01.03.2021
2004 Clouds 20 1017 44 10000 4.79 115 09:23 01.03.2021
2005 Clouds 20 1017 44 10000 4.79 115 08:53 01.03.2021
2006 Clouds 18 1017 51 10000 4.28 112 08:21 01.03.2021
2007 Rain 17 1017 57 10000 2.34 102 06:54 01.03.2021
2008 Clouds 15 1025 77 10000 1.45 74 05:39 01.03.2021
2009 Clouds 14 1015 72 10000 1.55 328 02:26 01.03.2021
2010 Rain 15 1016 69 10000 1.62 332 23:41 28.02.2021
2011 Rain 15 1017 69 10000 2.22 339 22:55 28.02.2021
2012 Rain 15 1017 70 10000 1.49 348 22:25 28.02.2021
2013 Rain 15 1017 70 10000 1.49 348 21:54 28.02.2021
2014 Rain 15 1017 70 10000 1.49 348 21:32 28.02.2021
2015 Rain 15 1017 68 10000 0.67 6 20:58 28.02.2021
2016 Rain 15 1017 68 10000 0.67 6 20:38 28.02.2021
2017 Rain 16 1017 64 10000 0.24 152 19:57 28.02.2021
2018 Rain 16 1017 64 10000 0.24 152 19:38 28.02.2021
2019 Rain 16 1016 63 10000 0.78 187 19:20 28.02.2021
2020 Clouds 17 1016 52 10000 1.07 5 18:43 28.02.2021
2021 Clouds 17 1015 50 10000 1.17 55 18:25 28.02.2021
2022 Clouds 17 1015 50 10000 1.17 55 18:24 28.02.2021
2023 Clouds 17 1015 50 10000 1.17 55 17:48 28.02.2021
2024 Clouds 22 1024 35 10000 3.09 130 17:28 28.02.2021
2025 Clouds 22 1024 35 10000 3.09 130 16:54 28.02.2021
2026 Clouds 22 1024 35 10000 3.09 130 16:36 28.02.2021
2027 Clouds 20 1013 43 10000 1.53 54 15:57 28.02.2021
2028 Clouds 20 1013 43 10000 1.53 54 15:37 28.02.2021
2029 Clouds 20 1013 42 10000 2.24 94 15:18 28.02.2021
2030 Clouds 20 1013 42 10000 2.24 94 14:48 28.02.2021
2031 Clouds 20 1012 39 10000 3.22 120 14:26 28.02.2021
2032 Clouds 20 1012 38 10000 3.26 117 13:52 28.02.2021
2033 Clouds 22 1025 40 10000 3.6 80 13:20 28.02.2021
2034 Clouds 22 1025 40 10000 3.6 80 12:56 28.02.2021
2035 Clouds 22 1025 40 10000 3.6 80 12:37 28.02.2021
2036 Clouds 22 1025 40 10000 3.6 80 12:19 28.02.2021
2037 Clouds 21 1025 40 10000 2.57 240 11:44 28.02.2021
2038 Clouds 21 1025 40 10000 2.57 240 11:25 28.02.2021
2039 Clouds 20 1026 52 10000 2.06 340 10:54 28.02.2021
2040 Clouds 17 1027 67 10000 2.06 350 10:28 28.02.2021
2041 Clouds 17 1027 67 10000 2.06 350 09:51 28.02.2021
2042 Clouds 17 1027 67 10000 2.06 350 09:32 28.02.2021
2043 Clouds 18 1017 48 10000 3.68 102 08:50 28.02.2021
2044 Clouds 18 1017 48 10000 3.68 102 08:31 28.02.2021
2045 Clouds 17 1017 49 10000 4.37 111 07:54 28.02.2021
2046 Rain 16 1018 56 10000 2.64 111 07:36 28.02.2021
2047 Rain 16 1018 56 10000 2.63 111 06:43 28.02.2021
2048 Rain 14 1025 82 6000 1.54 170 05:24 28.02.2021
2049 Rain 15 1025 77 10000 0.36 335 03:44 28.02.2021
2050 Rain 16 1024 67 7000 0.33 261 01:55 28.02.2021
2051 Clouds 18 1026 55 10000 2.57 330 00:52 28.02.2021
2052 Clouds 18 1026 55 10000 2.57 330 00:34 28.02.2021
2053 Clouds 16 1015 60 10000 0.32 219 23:45 27.02.2021
2054 Clouds 18 1026 55 10000 2.57 330 23:19 27.02.2021
2055 Clouds 18 1026 55 10000 2.57 330 22:45 27.02.2021
2056 Clouds 18 1026 55 10000 2.57 330 22:21 27.02.2021
2057 Clouds 18 1025 52 10000 2.06 330 21:46 27.02.2021
2058 Clouds 18 1025 52 10000 2.06 330 21:24 27.02.2021
2059 Clouds 17 1016 56 10000 1.19 193 20:49 27.02.2021
2060 Rain 16 1026 63 8000 1.15 99 20:28 27.02.2021
2061 Rain 16 1026 63 8000 1.15 99 19:46 27.02.2021
2062 Rain 16 1026 63 8000 2.63 87 19:27 27.02.2021
2063 Clouds 19 1025 48 10000 4.12 60 18:46 27.02.2021
2064 Clouds 19 1025 48 10000 4.12 60 18:22 27.02.2021
2065 Clouds 18 1014 54 10000 2.76 100 17:58 27.02.2021
2066 Clouds 23 1023 33 10000 6.17 100 17:38 27.02.2021
2067 Clouds 23 1023 33 10000 6.17 100 17:19 27.02.2021
2068 Clouds 23 1023 33 10000 6.17 100 16:49 27.02.2021
2069 Clouds 23 1023 33 10000 6.17 100 16:27 27.02.2021
2070 Clouds 20 1011 46 10000 3.92 76 15:44 27.02.2021
2071 Clouds 22 1010 40 10000 3.75 81 15:19 27.02.2021
2072 Clouds 22 1010 40 10000 3.75 81 14:40 27.02.2021
2073 Clouds 22 1010 37 10000 2.66 110 14:21 27.02.2021
2074 Clouds 22 1010 37 10000 2.66 110 13:40 27.02.2021
2075 Clouds 22 1010 38 10000 2.76 152 13:19 27.02.2021
2076 Clouds 22 1010 38 10000 2.76 152 12:45 27.02.2021
2077 Clouds 22 1010 38 10000 2.76 152 12:45 27.02.2021
2078 Clouds 22 1011 37 10000 3.12 150 12:24 27.02.2021
2079 Clouds 22 1011 37 10000 3.13 150 11:47 27.02.2021
2080 Clouds 22 1012 37 10000 3 144 11:29 27.02.2021
2081 Clouds 22 1012 37 10000 3 144 10:50 27.02.2021
2082 Clouds 22 1012 37 10000 3 144 10:32 27.02.2021
2083 Clouds 21 1013 39 10000 3.02 135 09:52 27.02.2021
2084 Clouds 21 1013 39 10000 3.02 135 09:31 27.02.2021
2085 Clouds 20 1015 44 10000 3.46 126 08:43 27.02.2021
2086 Clouds 19 1015 50 10000 3.64 119 08:22 27.02.2021
2087 Clouds 19 1015 50 10000 3.64 119 07:44 27.02.2021
2088 Clouds 17 1016 56 10000 3.2 113 06:55 27.02.2021
2089 Clouds 14 1024 67 10000 4.12 90 01:22 27.02.2021
2090 Clouds 14 1024 67 10000 4.12 90 01:22 27.02.2021
2091 Clouds 15 1024 63 10000 4.12 90 00:26 27.02.2021
2092 Clouds 16 1025 55 10000 3.09 70 23:40 26.02.2021
2093 Clouds 16 1025 55 10000 3.09 70 23:20 26.02.2021
2094 Clouds 17 1026 48 10000 5.14 70 22:33 26.02.2021
2095 Clouds 17 1026 48 10000 5.14 70 21:53 26.02.2021
2096 Clouds 17 1026 48 10000 5.14 70 21:35 26.02.2021
2097 Clouds 18 1026 39 10000 4.12 70 20:55 26.02.2021
2098 Clouds 18 1026 39 10000 4.12 70 20:36 26.02.2021
2099 Clouds 18 1026 39 10000 4.12 70 20:18 26.02.2021
2100 Clouds 19 1025 34 10000 4.12 80 19:26 26.02.2021
2101 Clouds 20 1024 28 10000 5.14 70 18:52 26.02.2021
2102 Clouds 20 1024 28 10000 5.14 70 18:24 26.02.2021
2103 Clouds 22 1024 26 10000 5.14 100 17:56 26.02.2021
2104 Clouds 22 1024 26 10000 5.14 100 17:36 26.02.2021
2105 Clouds 22 1024 26 10000 5.14 100 16:58 26.02.2021
2106 Clouds 24 1023 19 10000 4.12 100 16:40 26.02.2021
2107 Clouds 24 1023 19 10000 4.12 100 16:22 26.02.2021
2108 Clouds 26 1022 17 10000 4.12 90 15:43 26.02.2021
2109 Clouds 26 1022 17 10000 4.12 90 15:23 26.02.2021
2110 Clouds 26 1022 17 10000 4.12 90 14:52 26.02.2021
2111 Clouds 26 1023 19 10000 4.12 70 14:34 26.02.2021
2112 Clouds 25 1023 20 10000 3.87 155 13:49 26.02.2021
2113 Clouds 25 1023 20 10000 3.87 155 13:30 26.02.2021
2114 Clouds 24 1023 29 10000 5.14 110 12:48 26.02.2021
2115 Clouds 24 1023 29 10000 5.14 110 12:26 26.02.2021
2116 Clouds 23 1024 33 10000 3.09 130 11:40 26.02.2021
2117 Clouds 22 1025 35 10000 2.06 10 10:55 26.02.2021
2118 Clouds 22 1025 35 10000 2.06 10 10:24 26.02.2021
2119 Clouds 20 1026 42 10000 5.14 100 09:47 26.02.2021
2120 Clouds 20 1026 42 10000 5.14 100 09:27 26.02.2021
2121 Clear 19 1027 52 10000 5.14 100 08:33 26.02.2021
2122 Clear 15 1027 72 10000 5.14 70 07:56 26.02.2021
2123 Clear 16 1017 56 10000 2.18 124 07:20 26.02.2021
2124 Clear 14 1017 63 10000 1.43 123 06:28 26.02.2021
2125 Clouds 12 1025 71 10000 3.09 100 04:52 26.02.2021
2126 Clouds 13 1025 67 10000 3.09 90 02:38 26.02.2021
2127 Clouds 15 1026 58 10000 5.66 80 00:27 26.02.2021
2128 Clouds 15 1026 58 10000 5.66 80 23:39 25.02.2021
2129 Clouds 15 1027 58 10000 6.17 70 22:57 25.02.2021
2130 Clouds 15 1027 58 10000 6.17 70 22:37 25.02.2021
2131 Clouds 16 1027 44 10000 5.66 60 21:50 25.02.2021
2132 Clouds 16 1027 44 10000 5.66 60 21:31 25.02.2021
2133 Clear 15 1016 54 10000 1.8 104 20:44 25.02.2021
2134 Clear 15 1015 53 10000 2.15 102 20:25 25.02.2021
2135 Clear 15 1015 53 10000 2.15 102 19:58 25.02.2021
2136 Clouds 18 1025 25 10000 4.12 50 19:39 25.02.2021
2137 Clouds 18 1025 25 10000 4.12 50 19:19 25.02.2021
2138 Clouds 18 1025 25 10000 4.12 50 18:39 25.02.2021
2139 Clouds 16 1014 50 10000 2.34 103 17:59 25.02.2021
2140 Clouds 22 1023 26 10000 6.17 90 17:31 25.02.2021
2141 Clouds 22 1023 26 10000 6.17 90 16:55 25.02.2021
2142 Clouds 22 1023 26 10000 6.17 90 16:33 25.02.2021
2143 Clouds 23 1023 25 10000 7.2 110 15:39 25.02.2021
2144 Clouds 23 1023 25 10000 7.2 110 15:19 25.02.2021
2145 Clouds 23 1023 25 10000 7.2 110 15:19 25.02.2021
2146 Clouds 24 1023 23 10000 5.36 112 14:32 25.02.2021
2147 Clouds 24 1023 25 10000 4.7 117 13:57 25.02.2021
2148 Clouds 24 1023 25 10000 4.7 117 13:39 25.02.2021
2149 Clouds 24 1023 25 10000 4.22 120 13:18 25.02.2021
2150 Clouds 23 1024 28 10000 4.01 120 12:23 25.02.2021
2151 Clouds 22 1025 30 10000 4.01 120 11:51 25.02.2021
2152 Clouds 22 1025 30 10000 4.01 120 11:31 25.02.2021
2153 Clouds 21 1013 31 10000 4.01 119 10:47 25.02.2021
2154 Clouds 21 1027 37 10000 4.19 117 10:29 25.02.2021
2155 Clouds 21 1027 37 10000 4.2 117 09:45 25.02.2021
2156 Clouds 21 1027 37 10000 4.04 115 09:19 25.02.2021
2157 Clouds 19 1027 42 10000 5.66 80 08:28 25.02.2021
2158 Clear 18 1017 39 10000 3.88 115 07:58 25.02.2021
2159 Clouds 13 1027 62 10000 1.03 310 07:37 25.02.2021
2160 Clouds 13 1027 62 10000 1.03 310 06:57 25.02.2021
2161 Clouds 10 1025 66 10000 1.03 60 03:23 25.02.2021
2162 Clouds 14 1025 51 10000 4.63 70 01:39 25.02.2021
2163 Clouds 14 1026 58 10000 5.14 50 00:42 25.02.2021
2164 Clouds 13 1026 62 10000 3.6 70 23:54 24.02.2021
2165 Clouds 13 1026 62 10000 3.6 70 23:32 24.02.2021
2166 Clouds 14 1016 52 10000 1.46 98 22:46 24.02.2021
2167 Clouds 14 1016 52 10000 1.59 96 22:26 24.02.2021
2168 Clouds 14 1016 52 10000 1.59 96 22:26 24.02.2021
2169 Clouds 14 1016 52 10000 1.59 96 21:48 24.02.2021
2170 Clouds 14 1017 52 10000 1.76 102 21:24 24.02.2021
2171 Clouds 14 1017 52 10000 1.76 102 20:45 24.02.2021
2172 Clouds 16 1027 59 10000 4.12 80 20:22 24.02.2021
2173 Clouds 16 1027 59 10000 4.12 80 19:38 24.02.2021
2174 Clouds 16 1027 59 10000 4.12 80 19:18 24.02.2021
2175 Clouds 15 1016 47 10000 2.2 91 18:42 24.02.2021
2176 Clouds 16 1015 44 10000 2.84 100 18:22 24.02.2021
2177 Clouds 16 1015 44 10000 2.84 100 17:38 24.02.2021
2178 Clouds 17 1014 42 10000 3.71 108 17:19 24.02.2021
2179 Clouds 17 1014 42 10000 3.71 108 16:44 24.02.2021
2180 Clouds 19 1013 38 10000 4.7 112 16:19 24.02.2021
2181 Clouds 19 1013 38 10000 4.7 112 15:40 24.02.2021
2182 Clouds 20 1012 34 10000 4.69 112 14:57 24.02.2021
2183 Clouds 25 1024 23 10000 5.14 140 14:35 24.02.2021
2184 Clouds 25 1024 23 10000 5.14 140 13:59 24.02.2021
2185 Clouds 25 1024 23 10000 5.14 140 13:40 24.02.2021
2186 Clouds 25 1024 23 10000 5.14 140 13:21 24.02.2021
2187 Clouds 22 1012 25 10000 3.74 128 12:44 24.02.2021
2188 Clouds 22 1013 22 10000 3.14 123 12:24 24.02.2021
2189 Clouds 22 1013 22 10000 3.14 123 11:47 24.02.2021
2190 Clouds 21 1027 32 10000 5.14 140 10:57 24.02.2021
2191 Clouds 21 1027 32 10000 5.14 140 10:32 24.02.2021
2192 Clouds 21 1015 25 10000 2.91 111 09:46 24.02.2021
2193 Clouds 19 1016 29 10000 2.6 110 09:20 24.02.2021
2194 Clouds 19 1016 29 10000 2.6 110 08:34 24.02.2021
2195 Clear 18 1017 37 10000 1.81 111 07:57 24.02.2021
2196 Clouds 16 1018 48 10000 1.32 79 07:20 24.02.2021
2197 Clouds 16 1018 51 10000 1.04 92 06:31 24.02.2021
2198 Clouds 11 1025 71 10000 1.54 300 03:31 24.02.2021
2199 Clouds 14 1025 62 10000 5.14 60 00:26 24.02.2021
2200 Clouds 14 1027 62 10000 6.17 60 23:24 23.02.2021
2201 Clouds 14 1028 67 10000 4.12 60 22:40 23.02.2021
2202 Clouds 14 1028 67 10000 4.12 60 22:19 23.02.2021
2203 Clouds 14 1018 66 10000 0.57 26 21:44 23.02.2021
2204 Clouds 15 1028 63 10000 2.57 70 21:22 23.02.2021
2205 Clouds 15 1028 63 10000 2.57 70 20:48 23.02.2021
2206 Clouds 15 1028 63 10000 2.57 70 20:29 23.02.2021
2207 Clouds 15 1018 67 10000 1.68 92 19:48 23.02.2021
2208 Clouds 17 1027 55 10000 4.12 300 19:27 23.02.2021
2209 Clouds 17 1027 55 10000 4.12 300 18:56 23.02.2021
2210 Clouds 17 1027 55 10000 4.12 300 18:32 23.02.2021
2211 Clouds 15 1016 65 10000 2.73 109 17:54 23.02.2021
2212 Clouds 20 1025 45 10000 4.12 100 17:33 23.02.2021
2213 Rain 20 1025 45 10000 4.12 100 16:56 23.02.2021
2214 Rain 20 1025 45 10000 4.12 100 16:28 23.02.2021
2215 Rain 22 1025 43 10000 7.2 120 15:58 23.02.2021
2216 Rain 22 1025 43 10000 7.2 120 15:38 23.02.2021
2217 Rain 22 1025 43 10000 7.2 120 15:18 23.02.2021
2218 Rain 23 1024 40 10000 6.17 120 14:43 23.02.2021
2219 Rain 23 1024 40 10000 6.17 120 14:25 23.02.2021
2220 Rain 19 1012 53 8471 2.99 104 13:44 23.02.2021
2221 Rain 19 1013 50 10000 2.19 126 13:24 23.02.2021
2222 Rain 19 1013 50 10000 2.16 125 12:51 23.02.2021
2223 Clouds 19 1014 48 10000 1.98 134 12:20 23.02.2021
2224 Clouds 19 1014 48 10000 1.97 133 11:47 23.02.2021
2225 Clouds 20 1015 46 10000 1.87 119 11:21 23.02.2021
2226 Clouds 20 1015 46 10000 1.87 119 10:48 23.02.2021
2227 Clouds 19 1028 55 10000 3.09 150 10:30 23.02.2021
2228 Clouds 19 1028 55 10000 3.09 150 09:43 23.02.2021
2229 Clouds 19 1028 55 10000 3.09 150 09:24 23.02.2021
2230 Clouds 18 1028 55 10000 2.06 130 08:49 23.02.2021
2231 Clouds 18 1028 55 10000 2.06 130 08:22 23.02.2021
2232 Clouds 17 1018 57 10000 2.15 118 07:49 23.02.2021
2233 Clouds 13 1026 82 10000 1.54 330 05:31 23.02.2021
2234 Clouds 13 1026 82 10000 1.54 330 04:32 23.02.2021
2235 Clouds 13 1026 82 10000 1.03 330 02:34 23.02.2021
2236 Clouds 14 1026 77 10000 3.09 70 00:20 23.02.2021
2237 Clouds 14 1017 75 10000 0.94 150 23:47 22.02.2021
2238 Clouds 14 1017 73 10000 0.51 140 23:20 22.02.2021
2239 Clouds 14 1017 73 10000 0.51 140 22:40 22.02.2021
2240 Rain 15 1027 77 10000 3.09 90 22:20 22.02.2021
2241 Rain 15 1027 77 10000 3.09 90 21:40 22.02.2021
2242 Rain 15 1027 77 10000 3.09 90 21:22 22.02.2021
2243 Rain 14 1017 78 10000 0.98 255 20:51 22.02.2021
2244 Rain 16 1027 67 10000 5.66 70 20:27 22.02.2021
2245 Rain 16 1027 67 10000 5.66 70 19:51 22.02.2021
2246 Rain 16 1027 67 10000 5.66 70 19:31 22.02.2021
2247 Rain 17 1026 59 10000 7.72 70 18:56 22.02.2021
2248 Rain 17 1026 59 10000 7.72 70 18:37 22.02.2021
2249 Rain 17 1026 59 10000 7.72 70 18:18 22.02.2021
2250 Rain 19 1025 48 10000 6.17 80 17:22 22.02.2021
2251 Rain 19 1025 48 10000 6.17 80 17:22 22.02.2021
2252 Rain 19 1025 48 10000 6.17 80 17:22 22.02.2021
2253 Rain 21 1025 37 10000 5.66 90 16:54 22.02.2021
2254 Rain 21 1025 37 10000 5.66 90 16:31 22.02.2021
2255 Rain 21 1024 43 10000 7.72 100 15:42 22.02.2021
2256 Rain 21 1024 43 10000 7.72 100 15:21 22.02.2021
2257 Rain 23 1024 40 10000 7.2 100 14:44 22.02.2021
2258 Rain 23 1024 40 10000 7.2 100 14:22 22.02.2021
2259 Rain 23 1024 40 10000 6.17 90 13:45 22.02.2021
2260 Rain 19 1012 59 7722 3.17 126 12:56 22.02.2021
2261 Rain 22 1025 43 10000 5.14 90 12:23 22.02.2021
2262 Rain 22 1025 43 10000 5.14 90 11:57 22.02.2021
2263 Rain 22 1025 43 10000 5.14 90 11:38 22.02.2021
2264 Rain 22 1025 43 10000 5.14 90 11:20 22.02.2021
2265 Rain 21 1027 49 10000 5.14 110 10:41 22.02.2021
2266 Rain 21 1027 49 10000 5.14 110 10:21 22.02.2021
2267 Rain 19 1027 55 10000 5.14 100 09:40 22.02.2021
2268 Rain 19 1027 55 10000 5.14 100 09:22 22.02.2021
2269 Rain 18 1016 59 10000 3.06 132 08:49 22.02.2021
2270 Clouds 16 1028 77 10000 3.09 90 08:21 22.02.2021
2271 Clouds 16 1028 77 10000 3.09 90 07:50 22.02.2021
2272 Clouds 16 1028 77 10000 3.09 90 07:23 22.02.2021
2273 Clouds 15 1027 82 10000 1.08 90 06:28 22.02.2021
2274 Clouds 14 1017 88 10000 0.83 102 04:55 22.02.2021
2275 Clouds 14 1015 88 10000 2.06 90 03:23 22.02.2021
2276 Rain 14 1015 82 10000 2.06 120 01:59 22.02.2021
2277 Clouds 14 1016 82 10000 2.06 120 00:44 22.02.2021
2278 Clouds 14 1016 82 10000 2.06 120 00:18 22.02.2021
2279 Clouds 15 1016 72 10000 2.06 40 23:27 21.02.2021
2280 Clouds 15 1016 67 10000 1.54 30 22:37 21.02.2021
2281 Clouds 15 1017 67 10000 1.54 280 21:59 21.02.2021
2282 Clouds 15 1017 67 10000 1.54 280 21:35 21.02.2021
2283 Rain 17 1017 67 10000 4.12 90 20:58 21.02.2021
2284 Rain 17 1017 67 10000 4.12 90 20:39 21.02.2021
2285 Rain 17 1016 67 10000 4.12 90 20:18 21.02.2021
2286 Rain 17 1016 72 10000 4.12 80 19:46 21.02.2021
2287 Rain 17 1016 72 10000 4.12 80 19:26 21.02.2021
2288 Rain 18 1016 63 10000 4.63 70 18:39 21.02.2021
2289 Rain 18 1015 63 10000 4.63 70 18:21 21.02.2021
2290 Rain 18 1013 63 10000 4.63 70 17:29 21.02.2021
2291 Rain 18 1013 63 10000 4.63 70 17:29 21.02.2021
2292 Rain 20 1013 52 10000 5.14 110 16:55 21.02.2021
2293 Rain 20 1013 52 10000 5.14 110 16:33 21.02.2021
2294 Rain 21 1012 46 10000 7.2 110 15:54 21.02.2021
2295 Rain 21 1011 46 10000 7.2 110 15:21 21.02.2021
2296 Rain 22 1011 40 10000 3.09 130 14:42 21.02.2021
2297 Rain 22 1011 40 10000 3.09 130 14:42 21.02.2021
2298 Rain 22 1010 40 10000 3.09 130 14:22 21.02.2021
2299 Rain 22 1010 40 10000 7.2 100 13:46 21.02.2021
2300 Rain 22 1011 40 10000 7.2 100 13:23 21.02.2021
2301 Rain 21 1011 43 10000 5.14 150 12:31 21.02.2021
2302 Rain 21 1012 46 10000 3.09 100 11:45 21.02.2021
2303 Rain 19 1013 55 10000 4.12 90 10:59 21.02.2021
2304 Rain 19 1015 55 10000 4.12 90 10:24 21.02.2021
2305 Rain 19 1015 55 10000 3.09 110 09:55 21.02.2021
2306 Rain 19 1015 55 10000 3.09 110 09:31 21.02.2021
2307 Rain 19 1016 56 10000 2.43 139 08:58 21.02.2021
2308 Rain 15 1017 82 10000 3.6 90 08:23 21.02.2021
2309 Rain 15 1017 82 10000 3.6 90 07:35 21.02.2021
2310 Clouds 16 1017 63 10000 1.54 147 06:59 21.02.2021
2311 Clouds 14 1017 82 10000 2.57 50 04:44 21.02.2021
2312 Clouds 14 1016 82 10000 2.06 90 02:31 21.02.2021
2313 Clouds 14 1016 77 10000 0.92 282 00:47 21.02.2021
2314 Clouds 14 1016 78 10000 0.95 233 00:20 21.02.2021
2315 Rain 14 1017 79 10000 0.65 175 23:25 20.02.2021
2316 Rain 14 1017 79 10000 0.65 175 22:46 20.02.2021
2317 Rain 14 1017 80 10000 1.62 113 22:27 20.02.2021
2318 Rain 15 1027 67 10000 3.09 50 21:45 20.02.2021
2319 Rain 15 1027 67 10000 3.09 50 21:26 20.02.2021
2320 Rain 14 1017 82 10000 1.26 159 20:48 20.02.2021
2321 Rain 14 1017 82 10000 1.45 148 20:24 20.02.2021
2322 Rain 14 1017 82 10000 1.45 148 19:52 20.02.2021
2323 Rain 14 1017 82 10000 1.45 148 19:30 20.02.2021
2324 Rain 14 1017 82 10000 1.64 161 18:45 20.02.2021
2325 Rain 14 1016 82 10000 2.14 162 18:24 20.02.2021
2326 Rain 14 1016 82 10000 2.14 162 17:41 20.02.2021
2327 Rain 15 1025 82 8000 2.06 170 17:22 20.02.2021
2328 Rain 15 1025 82 8000 2.06 170 16:33 20.02.2021
2329 Rain 15 1014 81 7285 2.6 214 15:56 20.02.2021
2330 Rain 20 1014 56 10000 3.6 160 15:36 20.02.2021
2331 Rain 20 1013 56 10000 3.6 160 14:49 20.02.2021
2332 Rain 20 1012 56 10000 3.6 160 14:24 20.02.2021
2333 Rain 21 1012 56 10000 3.09 160 13:49 20.02.2021
2334 Rain 21 1013 56 10000 3.09 160 13:27 20.02.2021
2335 Rain 21 1013 56 10000 3.09 160 13:27 20.02.2021
2336 Rain 18 1013 61 10000 3.14 133 12:51 20.02.2021
2337 Rain 17 1013 72 10000 4.12 180 12:32 20.02.2021
2338 Rain 17 1014 72 10000 4.12 180 11:44 20.02.2021
2339 Rain 17 1015 72 10000 4.12 180 11:26 20.02.2021
2340 Rain 17 1015 72 10000 4.12 180 10:50 20.02.2021
2341 Rain 17 1016 65 10000 2.73 149 09:59 20.02.2021
2342 Rain 17 1016 65 10000 2.73 149 09:40 20.02.2021
2343 Rain 16 1017 77 10000 2.06 120 08:48 20.02.2021
2344 Rain 16 1018 77 10000 2.06 120 08:18 20.02.2021
2345 Rain 13 1026 94 9000 1.03 100 03:33 20.02.2021
2346 Rain 14 1017 83 10000 1.41 139 02:28 20.02.2021
2347 Rain 14 1017 83 10000 1.41 139 01:49 20.02.2021
2348 Rain 14 1017 81 10000 1.44 159 00:45 20.02.2021
2349 Rain 14 1017 80 10000 1.24 170 00:23 20.02.2021
2350 Rain 14 1018 81 10000 1.18 165 23:19 19.02.2021
2351 Rain 15 1028 82 10000 3.6 70 22:28 19.02.2021
2352 Rain 15 1028 82 10000 3.6 70 21:58 19.02.2021
2353 Rain 15 1028 82 10000 3.6 70 21:32 19.02.2021
2354 Rain 14 1018 83 10000 1.98 174 20:57 19.02.2021
2355 Rain 14 1018 83 10000 1.98 174 20:37 19.02.2021
2356 Rain 14 1018 85 6909 1.89 187 20:18 19.02.2021
2357 Rain 15 1028 72 10000 1.54 330 19:30 19.02.2021
2358 Rain 15 1028 72 10000 1.54 330 18:57 19.02.2021
2359 Rain 15 1028 72 10000 1.54 330 18:35 19.02.2021
2360 Rain 15 1016 78 4785 2.18 206 17:56 19.02.2021
2361 Rain 20 1024 52 10000 4.12 80 17:23 19.02.2021
2362 Rain 20 1024 52 10000 4.12 80 16:39 19.02.2021
2363 Rain 20 1024 52 10000 4.12 80 16:20 19.02.2021
2364 Rain 17 1013 69 10000 1.13 213 15:45 19.02.2021
2365 Rain 19 1012 55 10000 2.53 124 15:27 19.02.2021
2366 Rain 19 1012 54 10000 2.54 123 14:38 19.02.2021
2367 Rain 22 1011 42 10000 3.44 151 14:20 19.02.2021
2368 Rain 22 1011 42 10000 3.44 151 13:44 19.02.2021
2369 Clouds 22 1011 40 10000 4.2 153 13:24 19.02.2021
2370 Clouds 22 1011 40 10000 4.2 153 12:42 19.02.2021
2371 Clouds 21 1012 44 10000 3.79 151 12:23 19.02.2021
2372 Clouds 21 1012 44 10000 3.79 151 11:51 19.02.2021
2373 Rain 21 1013 45 10000 4.18 149 11:23 19.02.2021
2374 Rain 21 1013 45 10000 4.18 149 10:51 19.02.2021
2375 Clouds 20 1015 47 10000 3.92 153 10:22 19.02.2021
2376 Clouds 20 1015 47 10000 3.92 153 09:48 19.02.2021
2377 Clouds 16 1029 59 10000 3.09 90 09:26 19.02.2021
2378 Clouds 16 1029 59 10000 3.09 90 08:53 19.02.2021
2379 Clouds 16 1029 59 10000 3.09 90 08:24 19.02.2021
2380 Clouds 18 1018 57 10000 2.9 149 07:48 19.02.2021
2381 Clouds 16 1018 66 10000 2.54 153 07:29 19.02.2021
2382 Clouds 16 1018 64 10000 2.59 148 06:53 19.02.2021
2383 Clouds 13 1018 79 10000 0.84 147 05:28 19.02.2021
2384 Clouds 13 1018 79 10000 0.84 147 04:41 19.02.2021
2385 Clouds 13 1016 80 10000 0.54 48 01:47 19.02.2021
2386 Clouds 14 1026 82 10000 4.63 90 00:37 19.02.2021
2387 Clouds 14 1016 75 10000 1.8 151 23:55 18.02.2021
2388 Clouds 14 1016 75 10000 1.8 151 23:35 18.02.2021
2389 Clouds 14 1017 75 10000 1.71 127 22:50 18.02.2021
2390 Clouds 14 1017 72 10000 2.47 138 22:29 18.02.2021
2391 Clouds 14 1017 72 10000 2.47 138 21:48 18.02.2021
2392 Clouds 15 1017 69 10000 2.3 142 21:25 18.02.2021
2393 Clouds 15 1017 69 10000 2.3 142 20:43 18.02.2021
2394 Clouds 15 1017 66 10000 2.69 130 20:23 18.02.2021
2395 Clouds 15 1017 66 10000 2.69 130 19:47 18.02.2021
2396 Clouds 16 1016 62 10000 2.64 119 19:28 18.02.2021
2397 Clouds 16 1016 64 10000 2.58 114 18:53 18.02.2021
2398 Clouds 16 1016 64 10000 2.58 114 18:30 18.02.2021
2399 Clouds 17 1015 59 10000 2.38 110 17:53 18.02.2021
2400 Clouds 18 1013 54 10000 3.44 110 17:26 18.02.2021
2401 Clouds 18 1013 54 10000 3.44 110 16:56 18.02.2021
2402 Clouds 18 1013 54 10000 3.44 110 16:38 18.02.2021
2403 Clouds 20 1011 45 10000 5.98 105 16:18 18.02.2021
2404 Clouds 20 1011 45 10000 5.98 105 15:38 18.02.2021
2405 Clouds 22 1010 38 10000 6.19 117 15:19 18.02.2021
2406 Clouds 22 1010 38 10000 6.19 117 14:46 18.02.2021
2407 Clouds 23 1010 36 10000 5.82 127 14:27 18.02.2021
2408 Clouds 22 1010 36 10000 5.82 127 13:45 18.02.2021
2409 Clouds 22 1011 36 10000 5.72 132 13:18 18.02.2021
2410 Clouds 22 1011 36 10000 5.72 132 12:44 18.02.2021
2411 Clouds 22 1011 37 10000 6.01 125 12:22 18.02.2021
2412 Clouds 22 1011 37 10000 6.01 125 11:46 18.02.2021
2413 Clouds 23 1012 35 10000 5.64 122 11:25 18.02.2021
2414 Clouds 23 1012 35 10000 5.64 122 10:45 18.02.2021
2415 Clear 22 1013 35 10000 5.47 118 10:27 18.02.2021
2416 Clear 22 1013 35 10000 5.47 118 09:46 18.02.2021
2417 Clear 21 1015 36 10000 5.61 114 09:24 18.02.2021
2418 Clear 21 1015 36 10000 5.61 114 08:41 18.02.2021
2419 Clear 20 1016 38 10000 5.39 109 08:23 18.02.2021
2420 Clear 20 1016 38 10000 5.39 109 07:34 18.02.2021
2421 Clouds 18 1016 40 10000 4.08 106 06:53 18.02.2021
2422 Clouds 15 1014 48 10000 1.07 88 02:54 18.02.2021
2423 Clouds 16 1013 46 10000 0.81 352 23:55 17.02.2021
2424 Clouds 16 1013 45 10000 1.15 360 23:24 17.02.2021
2425 Clouds 16 1013 45 10000 1.15 360 22:52 17.02.2021
2426 Clouds 17 1014 43 10000 1.91 36 22:26 17.02.2021
2427 Clouds 17 1014 43 10000 1.89 36 21:56 17.02.2021
2428 Clouds 18 1014 39 10000 3.83 74 21:22 17.02.2021
2429 Clouds 18 1014 39 10000 3.83 74 20:49 17.02.2021
2430 Clouds 18 1014 39 10000 3.83 74 20:31 17.02.2021
2431 Clouds 18 1014 35 10000 4.63 81 19:50 17.02.2021
2432 Clouds 18 1014 35 10000 4.63 81 19:32 17.02.2021
2433 Clouds 19 1013 34 10000 4.07 75 18:46 17.02.2021
2434 Clouds 20 1012 32 10000 4.6 97 18:26 17.02.2021
2435 Clouds 20 1012 32 10000 4.6 97 17:42 17.02.2021
2436 Clouds 21 1010 28 10000 3.9 133 17:20 17.02.2021
2437 Clouds 21 1010 28 10000 3.9 133 16:47 17.02.2021
2438 Clouds 23 1009 22 10000 4.27 148 16:28 17.02.2021
2439 Clouds 23 1009 22 10000 4.27 148 15:45 17.02.2021
2440 Clouds 25 1008 19 10000 4.63 147 15:27 17.02.2021
2441 Clouds 25 1008 19 10000 4.63 147 14:50 17.02.2021
2442 Clouds 26 1008 18 10000 3.81 153 14:29 17.02.2021
2443 Clouds 26 1008 18 10000 3.81 153 13:50 17.02.2021
2444 Clouds 26 1008 18 10000 3.81 153 13:32 17.02.2021
2445 Clouds 25 1008 19 10000 3.9 162 12:50 17.02.2021
2446 Clouds 25 1009 21 10000 3.8 166 12:25 17.02.2021
2447 Clouds 25 1009 21 10000 3.8 166 11:46 17.02.2021
2448 Clouds 24 1010 23 10000 3.68 170 11:28 17.02.2021
2449 Clouds 24 1010 23 10000 3.68 170 10:49 17.02.2021
2450 Clouds 24 1010 23 10000 3.68 170 10:31 17.02.2021
2451 Clouds 23 1012 25 10000 3.1 170 09:56 17.02.2021
2452 Clouds 21 1026 32 10000 3.09 110 09:36 17.02.2021
2453 Clouds 21 1026 32 10000 3.09 110 08:45 17.02.2021
2454 Clouds 21 1026 32 10000 3.09 110 08:23 17.02.2021
2455 Clouds 20 1014 30 10000 2.31 134 07:37 17.02.2021
2456 Clouds 19 1015 32 10000 1.05 114 06:37 17.02.2021
2457 Clouds 14 1014 44 10000 0.92 332 03:52 17.02.2021
2458 Clouds 14 1014 43 10000 1.05 315 02:31 17.02.2021
2459 Clouds 15 1013 40 10000 0.34 350 01:34 17.02.2021
2460 Clouds 15 1013 38 10000 0.55 69 00:25 17.02.2021
2461 Clouds 15 1013 38 10000 0.55 69 23:39 16.02.2021
2462 Clouds 16 1013 37 10000 1.11 111 22:47 16.02.2021
2463 Clouds 17 1013 36 10000 1.68 104 22:26 16.02.2021
2464 Clouds 17 1013 36 10000 1.68 104 22:26 16.02.2021
2465 Clouds 17 1013 36 10000 1.68 104 21:59 16.02.2021
2466 Clouds 17 1013 36 10000 1.68 104 21:39 16.02.2021
2467 Clouds 17 1013 36 10000 1.68 104 21:39 16.02.2021
2468 Clouds 17 1013 36 10000 1.68 104 21:39 16.02.2021
2469 Clouds 17 1013 34 10000 2.52 93 21:21 16.02.2021
2470 Clouds 17 1013 34 10000 2.52 93 20:50 16.02.2021
2471 Clouds 18 1013 32 10000 3.19 82 20:24 16.02.2021
2472 Clouds 18 1013 32 10000 3.19 82 19:49 16.02.2021
2473 Clouds 18 1012 32 10000 3.43 81 19:29 16.02.2021
2474 Clouds 18 1012 32 10000 3.56 80 18:53 16.02.2021
2475 Clouds 19 1011 31 10000 3.87 92 18:26 16.02.2021
2476 Clouds 19 1011 31 10000 3.87 92 17:56 16.02.2021
2477 Clouds 19 1011 31 10000 3.87 92 17:37 16.02.2021
2478 Clouds 20 1009 25 10000 4.65 109 17:19 16.02.2021
2479 Clouds 20 1009 25 10000 4.65 109 16:42 16.02.2021
2480 Clouds 23 1008 21 10000 5.46 132 16:20 16.02.2021
2481 Clouds 23 1008 21 10000 5.46 132 15:36 16.02.2021
2482 Clouds 25 1007 18 10000 5.02 144 15:18 16.02.2021
2483 Clouds 25 1007 18 10000 5.03 145 14:41 16.02.2021
2484 Clouds 26 1007 18 10000 4.61 154 14:23 16.02.2021
2485 Clouds 26 1007 18 10000 4.61 154 13:47 16.02.2021
2486 Clouds 25 1008 18 10000 3.86 163 13:22 16.02.2021
2487 Clouds 25 1008 18 10000 3.86 162 12:43 16.02.2021
2488 Clouds 25 1009 19 10000 3.6 167 12:20 16.02.2021
2489 Clouds 25 1009 19 10000 3.6 167 11:44 16.02.2021
2490 Clouds 24 1010 21 10000 3.6 165 11:22 16.02.2021
2491 Clouds 24 1010 21 10000 3.6 165 10:49 16.02.2021
2492 Clouds 21 1026 28 10000 3.09 100 10:30 16.02.2021
2493 Clouds 21 1026 28 10000 3.09 100 09:55 16.02.2021
2494 Clouds 21 1026 28 10000 3.09 100 09:29 16.02.2021
2495 Clouds 22 1013 24 10000 3.57 144 08:53 16.02.2021
2496 Clouds 18 1026 34 10000 4.63 60 08:32 16.02.2021
2497 Clouds 18 1026 34 10000 4.63 60 07:59 16.02.2021
2498 Clouds 18 1026 34 10000 4.63 60 07:18 16.02.2021
2499 Clouds 18 1026 34 10000 4.63 60 07:18 16.02.2021
2500 Clouds 12 1024 47 10000 0.69 340 03:21 16.02.2021
2501 Clouds 15 1024 38 10000 3.6 100 00:43 16.02.2021
2502 Clouds 16 1025 36 10000 3.09 90 23:31 15.02.2021
2503 Clear 15 1014 37 10000 1.2 118 22:52 15.02.2021
2504 Clear 15 1014 37 10000 1.2 118 22:33 15.02.2021
2505 Clear 15 1014 36 10000 1.62 103 21:55 15.02.2021
2506 Clear 15 1014 36 10000 1.62 103 21:36 15.02.2021
2507 Clear 16 1015 36 10000 2.24 104 21:18 15.02.2021
2508 Clear 16 1015 36 10000 2.24 104 20:41 15.02.2021
2509 Clear 16 1014 36 10000 2.42 97 20:19 15.02.2021
2510 Clear 16 1014 36 10000 2.42 97 19:43 15.02.2021
2511 Clear 17 1014 33 10000 2.78 92 19:21 15.02.2021
2512 Clear 17 1014 33 10000 2.78 92 18:42 15.02.2021
2513 Clouds 18 1013 32 10000 2.98 94 18:21 15.02.2021
2514 Clouds 18 1013 32 10000 2.98 94 17:41 15.02.2021
2515 Clouds 20 1011 30 10000 4.45 108 17:21 15.02.2021
2516 Clouds 20 1011 30 10000 4.45 108 16:48 15.02.2021
2517 Clear 22 1010 26 10000 5.21 130 16:26 15.02.2021
2518 Clear 22 1010 26 10000 5.21 130 15:49 15.02.2021
2519 Clear 24 1010 24 10000 4.83 142 15:22 15.02.2021
2520 Clear 24 1010 24 10000 4.83 142 14:49 15.02.2021
2521 Clear 24 1009 23 10000 4.39 146 14:21 15.02.2021
2522 Clear 24 1009 23 10000 4.39 146 13:51 15.02.2021
2523 Clouds 24 1009 24 10000 4.04 148 13:28 15.02.2021
2524 Clouds 24 1009 24 10000 4.04 148 12:54 15.02.2021
2525 Clouds 24 1009 24 10000 4.04 148 12:36 15.02.2021
2526 Clouds 24 1010 25 10000 4.07 146 11:59 15.02.2021
2527 Clouds 24 1010 25 10000 4.07 146 11:39 15.02.2021
2528 Clouds 23 1012 27 10000 4.13 145 11:18 15.02.2021
2529 Clouds 23 1012 26 10000 4.14 145 10:42 15.02.2021
2530 Clouds 22 1013 28 10000 3.94 149 10:21 15.02.2021
2531 Clouds 22 1013 28 10000 3.94 149 09:52 15.02.2021
2532 Clouds 19 1027 32 10000 5.14 80 09:32 15.02.2021
2533 Clouds 19 1027 32 10000 5.14 80 09:32 15.02.2021
2534 Clouds 19 1027 32 10000 5.14 80 08:34 15.02.2021
2535 Clouds 17 1027 39 10000 3.09 80 07:34 15.02.2021
2536 Clouds 14 1027 51 10000 1.03 350 06:44 15.02.2021
2537 Clouds 13 1025 50 10000 0.84 144 04:59 15.02.2021
2538 Clouds 13 1025 50 10000 2.06 340 02:22 15.02.2021
2539 Clouds 15 1026 41 10000 4.12 70 00:32 15.02.2021
2540 Clouds 15 1015 44 10000 1.42 119 23:32 14.02.2021
2541 Clouds 16 1016 41 10000 2.09 126 22:52 14.02.2021
2542 Clouds 16 1016 41 10000 2.09 126 22:34 14.02.2021
2543 Clouds 17 1016 39 10000 1.1 132 21:56 14.02.2021
2544 Clouds 17 1016 39 10000 1.1 132 21:36 14.02.2021
2545 Clouds 17 1016 38 10000 2.16 101 20:56 14.02.2021
2546 Clouds 17 1016 38 10000 2.16 101 20:32 14.02.2021
2547 Clouds 17 1016 38 10000 1.92 102 19:59 14.02.2021
2548 Clouds 17 1016 38 10000 1.92 102 19:36 14.02.2021
2549 Clouds 17 1015 39 10000 2.6 97 18:47 14.02.2021
2550 Clouds 17 1014 38 10000 3.57 102 18:28 14.02.2021
2551 Clouds 17 1014 38 10000 3.57 102 17:45 14.02.2021
2552 Clouds 19 1012 35 10000 4.92 110 17:26 14.02.2021
2553 Clouds 19 1012 35 10000 4.92 110 16:40 14.02.2021
2554 Clouds 21 1011 30 10000 5.09 124 16:21 14.02.2021
2555 Clouds 21 1011 30 10000 5.09 124 15:45 14.02.2021
2556 Clouds 23 1010 27 10000 5.33 136 14:59 14.02.2021
2557 Clouds 23 1010 27 10000 5.33 136 14:33 14.02.2021
2558 Clouds 24 1010 25 10000 4.62 146 13:58 14.02.2021
2559 Clouds 24 1010 24 10000 4.6 142 13:32 14.02.2021
2560 Clear 24 1010 24 10000 4.37 145 12:54 14.02.2021
2561 Clear 24 1011 25 10000 4.26 143 12:22 14.02.2021
2562 Clear 24 1011 25 10000 4.26 143 11:51 14.02.2021
2563 Clear 23 1013 27 10000 4.12 138 11:26 14.02.2021
2564 Clear 23 1013 27 10000 4.12 138 10:53 14.02.2021
2565 Clear 22 1014 28 10000 4.12 135 09:59 14.02.2021
2566 Clear 22 1014 28 10000 4.12 135 09:40 14.02.2021
2567 Clear 21 1015 30 10000 4.06 135 09:21 14.02.2021
2568 Clear 21 1015 30 10000 4.06 135 08:43 14.02.2021
2569 Clear 19 1016 32 10000 3.6 134 07:58 14.02.2021
2570 Clear 18 1017 35 10000 2.57 133 06:54 14.02.2021
2571 Clear 16 1017 40 10000 1.26 101 05:43 14.02.2021
2572 Clouds 13 1016 46 10000 0.85 86 03:33 14.02.2021
2573 Clear 14 1015 45 10000 1.05 149 02:29 14.02.2021
2574 Clouds 14 1015 46 10000 1.13 137 00:49 14.02.2021
2575 Clouds 14 1015 46 10000 1.13 137 00:31 14.02.2021
2576 Clouds 14 1015 46 10000 1.13 137 00:31 14.02.2021
2577 Clouds 15 1015 45 10000 1.56 120 23:42 13.02.2021
2578 Clouds 16 1015 43 10000 1.89 121 23:21 13.02.2021
2579 Clouds 16 1015 43 10000 1.89 121 22:44 13.02.2021
2580 Clouds 16 1016 42 10000 2.32 128 22:20 13.02.2021
2581 Clouds 16 1016 42 10000 2.32 128 21:43 13.02.2021
2582 Clouds 18 1016 39 10000 2.17 115 21:22 13.02.2021
2583 Clouds 18 1016 39 10000 2.17 115 20:30 13.02.2021
2584 Clouds 18 1015 38 10000 2.48 122 19:58 13.02.2021
2585 Clouds 18 1015 38 10000 2.48 122 19:39 13.02.2021
2586 Clouds 19 1015 37 10000 2.27 126 19:21 13.02.2021
2587 Clouds 19 1015 36 10000 3.43 109 18:44 13.02.2021
2588 Clouds 19 1014 36 10000 2 78 18:23 13.02.2021
2589 Clouds 19 1014 36 10000 2 78 17:43 13.02.2021
2590 Clouds 20 1012 36 10000 2.17 341 17:23 13.02.2021
2591 Clouds 20 1012 36 10000 2.17 341 16:44 13.02.2021
2592 Clouds 20 1011 33 10000 2.95 310 16:26 13.02.2021
2593 Clouds 20 1011 33 10000 2.95 310 15:40 13.02.2021
2594 Clouds 22 1010 29 10000 1.8 254 14:58 13.02.2021
2595 Clouds 22 1010 29 10000 1.8 254 14:32 13.02.2021
2596 Clouds 23 1010 27 10000 2.42 179 13:48 13.02.2021
2597 Clouds 22 1011 30 10000 2.42 178 13:25 13.02.2021
2598 Clouds 22 1011 30 10000 2.42 178 12:50 13.02.2021
2599 Clouds 22 1012 31 10000 3.05 181 12:19 13.02.2021
2600 Clouds 22 1012 31 10000 3.05 181 11:45 13.02.2021
2601 Clouds 22 1012 31 10000 3.05 181 11:45 13.02.2021
2602 Clouds 21 1013 33 10000 3.59 177 11:20 13.02.2021
2603 Clouds 21 1013 33 10000 3.59 177 10:47 13.02.2021
2604 Clouds 20 1014 35 10000 3.73 176 10:26 13.02.2021
2605 Clouds 20 1014 35 10000 3.73 176 09:56 13.02.2021
2606 Clouds 20 1014 35 10000 3.73 176 09:30 13.02.2021
2607 Clouds 19 1016 37 10000 3.25 172 08:59 13.02.2021
2608 Clouds 19 1016 37 10000 3.25 172 08:39 13.02.2021
2609 Clouds 17 1027 48 10000 2.06 90 07:53 13.02.2021
2610 Clouds 14 1026 67 10000 0.51 300 06:41 13.02.2021
2611 Clouds 13 1025 67 10000 2.06 300 05:27 13.02.2021
2612 Clouds 13 1024 62 10000 1.03 10 03:59 13.02.2021
2613 Clouds 13 1014 54 10000 1.11 146 01:49 13.02.2021
2614 Clouds 14 1014 53 10000 1.25 138 00:51 13.02.2021
2615 Clouds 16 1014 49 10000 1.82 146 23:54 12.02.2021
2616 Clouds 16 1014 49 10000 1.59 160 23:28 12.02.2021
2617 Clouds 16 1014 49 10000 1.59 160 22:45 12.02.2021
2618 Clouds 16 1014 48 10000 1.58 141 22:26 12.02.2021
2619 Clouds 16 1014 48 10000 1.58 141 21:50 12.02.2021
2620 Clouds 17 1014 46 10000 2.19 104 21:29 12.02.2021
2621 Clouds 17 1014 46 10000 2.19 104 20:55 12.02.2021
2622 Clouds 17 1014 46 10000 2.19 104 20:37 12.02.2021
2623 Clouds 17 1014 46 10000 2.58 86 20:18 12.02.2021
2624 Clouds 17 1014 46 10000 2.58 86 19:43 12.02.2021
2625 Clouds 17 1014 47 10000 2.9 77 19:25 12.02.2021
2626 Clouds 17 1013 47 10000 3.02 79 18:30 12.02.2021
2627 Clouds 18 1012 44 10000 4.44 99 17:47 12.02.2021
2628 Clouds 20 1011 39 10000 5.38 120 17:25 12.02.2021
2629 Clouds 20 1011 39 10000 5.38 120 16:36 12.02.2021
2630 Clouds 22 1009 32 10000 3.71 136 15:47 12.02.2021
2631 Clouds 23 1008 29 10000 1.8 155 15:21 12.02.2021
2632 Clouds 23 1008 29 10000 1.8 155 14:43 12.02.2021
2633 Clouds 23 1008 29 10000 1.76 174 14:24 12.02.2021
2634 Clouds 23 1008 29 10000 1.76 174 13:41 12.02.2021
2635 Clouds 23 1008 30 10000 2.16 185 13:22 12.02.2021
2636 Clouds 23 1008 30 10000 2.16 185 12:49 12.02.2021
2637 Clouds 23 1010 30 10000 2.3 180 12:30 12.02.2021
2638 Clouds 23 1010 30 10000 2.3 181 11:42 12.02.2021
2639 Clouds 20 1025 42 10000 3.09 190 11:20 12.02.2021
2640 Clouds 20 1025 42 10000 3.09 190 10:44 12.02.2021
2641 Clouds 19 1027 45 10000 3.09 170 09:50 12.02.2021
2642 Clouds 19 1027 45 10000 3.09 170 09:29 12.02.2021
2643 Clouds 20 1015 38 10000 2.24 178 08:51 12.02.2021
2644 Clouds 15 1027 63 10000 1.03 220 08:29 12.02.2021
2645 Clouds 15 1027 63 10000 1.03 220 07:57 12.02.2021
2646 Clouds 15 1027 63 10000 1.03 220 07:35 12.02.2021
2647 Clouds 13 1027 71 10000 1.54 240 06:55 12.02.2021
2648 Clouds 11 1026 76 10000 1.54 330 05:48 12.02.2021
2649 Clouds 12 1025 76 10000 0.71 80 04:32 12.02.2021
2650 Clear 12 1015 57 10000 0.61 157 01:48 12.02.2021
2651 Clouds 14 1026 67 10000 5.14 70 23:41 11.02.2021
2652 Clouds 14 1026 67 10000 5.14 70 23:22 11.02.2021
2653 Clouds 14 1026 67 10000 3.09 50 22:57 11.02.2021
2654 Clouds 14 1026 67 10000 3.09 50 22:38 11.02.2021
2655 Clouds 14 1026 67 10000 3.09 50 22:20 11.02.2021
2656 Clouds 14 1015 50 10000 1.13 132 21:38 11.02.2021
2657 Clouds 15 1016 50 10000 1.43 107 21:19 11.02.2021
2658 Clouds 15 1016 50 10000 1.43 107 20:42 11.02.2021
2659 Clouds 15 1015 49 10000 1.92 105 20:22 11.02.2021
2660 Clouds 15 1015 49 10000 1.92 105 19:48 11.02.2021
2661 Clouds 15 1014 46 10000 2.45 88 19:29 11.02.2021
2662 Clouds 15 1014 46 10000 2.45 88 18:53 11.02.2021
2663 Clouds 16 1013 46 10000 2.85 92 18:29 11.02.2021
2664 Clouds 16 1013 46 10000 2.85 92 17:53 11.02.2021
2665 Clouds 17 1011 44 10000 4.25 113 17:22 11.02.2021
2666 Clouds 17 1011 44 10000 4.25 113 16:57 11.02.2021
2667 Clouds 17 1011 44 10000 4.25 113 16:39 11.02.2021
2668 Clouds 20 1010 36 10000 4.9 137 16:20 11.02.2021
2669 Clouds 20 1010 36 10000 4.9 137 15:41 11.02.2021
2670 Clouds 22 1023 43 10000 5.14 150 15:23 11.02.2021
2671 Clouds 22 1023 43 10000 5.14 150 14:44 11.02.2021
2672 Clouds 22 1023 43 10000 5.14 150 14:25 11.02.2021
2673 Clouds 23 1009 29 10000 2.12 187 13:38 11.02.2021
2674 Clouds 22 1009 31 10000 1.98 201 13:19 11.02.2021
2675 Clouds 22 1009 31 10000 1.98 201 12:47 11.02.2021
2676 Haze 20 1024 52 10000 5.14 170 12:23 11.02.2021
2677 Haze 20 1024 52 10000 5.14 170 11:45 11.02.2021
2678 Haze 20 1024 52 10000 5.14 170 11:21 11.02.2021
2679 Clouds 21 1012 35 10000 2.35 195 10:44 11.02.2021
2680 Haze 17 1026 63 10000 2.06 130 10:25 11.02.2021
2681 Haze 17 1026 63 10000 2.06 130 09:53 11.02.2021
2682 Haze 17 1026 63 10000 2.06 130 09:22 11.02.2021
2683 Clouds 19 1015 42 10000 1.85 196 08:51 11.02.2021
2684 Clouds 17 1017 48 10000 0.86 198 08:21 11.02.2021
2685 Clouds 15 1017 55 10000 1.07 177 06:52 11.02.2021
2686 Clouds 15 1017 55 10000 1.07 177 06:33 11.02.2021
2687 Clouds 11 1025 93 10000 2.06 280 04:55 11.02.2021
2688 Clouds 12 1025 87 10000 0.7 125 02:29 11.02.2021
2689 Clouds 13 1025 82 10000 3.6 90 00:47 11.02.2021
2690 Clouds 13 1025 82 10000 3.6 90 00:19 11.02.2021
2691 Clouds 13 1027 88 10000 4.12 70 23:39 10.02.2021
2692 Clouds 13 1027 88 10000 4.12 70 22:52 10.02.2021
2693 Clouds 13 1027 88 10000 4.12 70 22:28 10.02.2021
2694 Clouds 13 1016 69 10000 1.48 125 21:57 10.02.2021
2695 Clouds 13 1027 82 10000 4.12 80 21:37 10.02.2021
2696 Clouds 13 1027 82 10000 4.12 80 21:19 10.02.2021
2697 Clouds 13 1027 82 10000 4.12 80 20:40 10.02.2021
2698 Clouds 13 1027 82 10000 4.12 80 20:22 10.02.2021
2699 Clouds 14 1016 67 10000 1.86 103 19:44 10.02.2021
2700 Clouds 14 1016 63 10000 2.22 110 19:23 10.02.2021
2701 Clouds 14 1016 62 10000 2.65 110 18:40 10.02.2021
2702 Clouds 15 1015 57 10000 2.6 126 18:21 10.02.2021
2703 Clouds 15 1015 57 10000 2.56 125 17:50 10.02.2021
2704 Clouds 17 1025 63 10000 3.09 150 17:23 10.02.2021
2705 Clouds 17 1025 63 10000 3.09 150 16:52 10.02.2021
2706 Clouds 17 1025 63 10000 3.09 150 16:29 10.02.2021
2707 Clouds 19 1024 55 10000 5.14 150 15:47 10.02.2021
2708 Clouds 19 1024 55 10000 5.14 150 15:22 10.02.2021
2709 Clouds 19 1024 59 10000 5.14 160 14:42 10.02.2021
2710 Clouds 19 1024 59 10000 5.14 160 14:21 10.02.2021
2711 Clouds 19 1023 55 10000 4.63 170 13:50 10.02.2021
2712 Clouds 19 1023 55 10000 4.63 170 13:27 10.02.2021
2713 Clouds 20 1024 56 10000 3.09 170 12:48 10.02.2021
2714 Clouds 20 1024 56 10000 3.09 170 12:29 10.02.2021
2715 Clouds 21 1012 34 10000 3.5 192 11:47 10.02.2021
2716 Clouds 20 1014 39 10000 3.14 191 11:29 10.02.2021
2717 Clouds 20 1014 39 10000 3.13 190 10:49 10.02.2021
2718 Clouds 19 1016 45 10000 2.9 178 10:20 10.02.2021
2719 Clouds 19 1016 45 10000 2.9 178 09:43 10.02.2021
2720 Clouds 14 1028 72 10000 4.12 60 09:22 10.02.2021
2721 Clouds 14 1028 72 10000 4.12 60 08:50 10.02.2021
2722 Clouds 14 1028 72 10000 4.12 60 08:29 10.02.2021
2723 Clouds 13 1028 76 10000 4.63 50 07:22 10.02.2021
2724 Clouds 9 1026 93 10000 1.64 128 04:54 10.02.2021
2725 Clouds 10 1026 87 10000 1.26 144 01:20 10.02.2021
2726 Clouds 10 1018 81 10000 1.14 139 23:40 09.02.2021
2727 Clouds 11 1027 87 10000 4.12 60 23:19 09.02.2021
2728 Clouds 11 1027 87 10000 4.12 60 22:41 09.02.2021
2729 Clouds 11 1027 87 10000 4.12 60 22:23 09.02.2021
2730 Clear 11 1019 80 10000 1.26 103 21:40 09.02.2021
2731 Clear 11 1019 80 10000 1.33 119 21:19 09.02.2021
2732 Clear 11 1019 80 10000 1.33 119 20:41 09.02.2021
2733 Clear 12 1019 77 10000 1.94 145 20:23 09.02.2021
2734 Clear 12 1019 77 10000 1.94 145 19:40 09.02.2021
2735 Clouds 13 1018 72 10000 1.82 154 19:21 09.02.2021
2736 Clouds 13 1018 72 10000 1.82 154 18:42 09.02.2021
2737 Clouds 13 1018 69 10000 1.8 125 18:21 09.02.2021
2738 Clouds 13 1018 69 10000 1.8 125 17:45 09.02.2021
2739 Clouds 14 1017 65 10000 2.51 129 17:25 09.02.2021
2740 Clouds 14 1017 65 10000 2.5 129 16:50 09.02.2021
2741 Clouds 16 1015 56 10000 3.51 157 16:19 09.02.2021
2742 Clouds 16 1015 56 10000 3.51 157 15:50 09.02.2021
2743 Clouds 17 1014 51 10000 4.31 151 15:28 09.02.2021
2744 Clouds 17 1014 51 10000 4.28 151 14:57 09.02.2021
2745 Clouds 18 1014 49 10000 4.76 154 14:29 09.02.2021
2746 Clouds 18 1014 49 10000 4.76 154 13:55 09.02.2021
2747 Clouds 18 1014 48 10000 4.84 153 13:29 09.02.2021
2748 Clouds 18 1014 48 10000 4.84 153 12:59 09.02.2021
2749 Clouds 18 1014 48 10000 4.84 153 12:40 09.02.2021
2750 Clouds 18 1016 49 10000 4.29 152 12:21 09.02.2021
2751 Clouds 18 1016 49 10000 4.29 152 11:43 09.02.2021
2752 Clouds 14 1028 77 10000 6.69 100 11:21 09.02.2021
2753 Clouds 14 1028 77 10000 6.69 100 11:21 09.02.2021
2754 Clouds 14 1028 77 10000 6.69 100 10:55 09.02.2021
2755 Clouds 14 1028 77 10000 6.69 100 10:20 09.02.2021
2756 Clouds 15 1018 61 10000 3.7 142 09:44 09.02.2021
2757 Clouds 14 1019 66 10000 3.49 136 09:26 09.02.2021
2758 Clouds 14 1019 66 10000 3.49 136 08:52 09.02.2021
2759 Rain 12 1028 94 6000 3.6 110 08:27 09.02.2021
2760 Rain 12 1028 94 6000 3.6 110 07:36 09.02.2021
2761 Clouds 12 1018 85 10000 2.47 129 04:59 09.02.2021
2762 Clouds 12 1017 85 10000 2.4 133 03:42 09.02.2021
2763 Rain 12 1016 87 10000 2.02 124 01:20 09.02.2021
2764 Rain 12 1016 87 7141 1.98 170 23:58 08.02.2021
2765 Rain 13 1016 81 10000 2.14 127 23:22 08.02.2021
2766 Rain 13 1016 81 10000 2.14 127 22:56 08.02.2021
2767 Rain 13 1016 82 10000 2.45 124 22:38 08.02.2021
2768 Rain 13 1016 82 10000 2.45 124 22:20 08.02.2021
2769 Rain 13 1016 82 10000 2.45 124 21:38 08.02.2021
2770 Rain 14 1017 79 10000 3.25 125 21:19 08.02.2021
2771 Rain 14 1017 79 10000 3.25 125 20:44 08.02.2021
2772 Rain 14 1016 77 10000 3.35 123 20:23 08.02.2021
2773 Rain 14 1016 77 10000 3.35 123 19:49 08.02.2021
2774 Rain 14 1015 76 10000 2.69 113 19:27 08.02.2021
2775 Rain 14 1015 76 10000 2.69 113 18:50 08.02.2021
2776 Rain 14 1015 76 10000 2.69 113 18:50 08.02.2021
2777 Rain 14 1014 75 10000 2.5 87 18:25 08.02.2021
2778 Rain 14 1014 75 10000 2.5 87 17:47 08.02.2021
2779 Rain 16 1013 68 10000 3.89 103 17:27 08.02.2021
2780 Rain 16 1013 68 10000 3.89 103 16:57 08.02.2021
2781 Rain 16 1013 68 10000 3.89 103 16:39 08.02.2021
2782 Rain 18 1011 52 10000 4.12 150 16:18 08.02.2021
2783 Rain 18 1011 52 10000 4.12 150 15:37 08.02.2021
2784 Clouds 19 1023 59 10000 4.12 140 15:18 08.02.2021
2785 Clouds 19 1023 59 10000 4.12 140 14:48 08.02.2021
2786 Clouds 19 1023 59 10000 4.12 140 14:28 08.02.2021
2787 Clouds 21 1010 40 10000 5.34 158 13:46 08.02.2021
2788 Clouds 21 1010 41 10000 4.36 156 13:28 08.02.2021
2789 Clouds 21 1010 41 10000 4.41 158 12:39 08.02.2021
2790 Rain 20 1011 46 10000 4.23 164 12:19 08.02.2021
2791 Rain 20 1011 46 10000 4.23 164 11:38 08.02.2021
2792 Clouds 19 1012 52 10000 3.89 160 10:47 08.02.2021
2793 Rain 18 1014 58 10000 3.87 143 10:26 08.02.2021
2794 Rain 18 1014 58 10000 3.87 143 09:56 08.02.2021
2795 Rain 18 1014 58 10000 3.87 143 09:36 08.02.2021
2796 Rain 17 1016 60 10000 4.13 142 08:57 08.02.2021
2797 Rain 16 1017 64 10000 3.54 138 08:26 08.02.2021
2798 Rain 16 1017 64 10000 3.54 138 07:42 08.02.2021
2799 Rain 15 1017 69 10000 2.93 134 06:38 08.02.2021
2800 Rain 11 1024 100 9000 1.03 40 05:18 08.02.2021
2801 Rain 12 1023 94 5000 2.06 110 02:27 08.02.2021
2802 Rain 12 1024 87 10000 2.57 40 00:25 08.02.2021
2803 Rain 12 1015 86 10000 1.74 130 23:55 07.02.2021
2804 Rain 13 1015 81 10000 2.12 143 23:28 07.02.2021
2805 Rain 13 1015 81 10000 2.12 143 22:58 07.02.2021
2806 Rain 13 1015 81 10000 2.12 143 22:40 07.02.2021
2807 Rain 12 1015 82 10000 1.94 156 22:21 07.02.2021
2808 Rain 12 1015 82 10000 1.93 156 21:50 07.02.2021
2809 Rain 13 1016 80 10000 1.6 107 21:25 07.02.2021
2810 Rain 13 1016 80 10000 1.6 107 21:25 07.02.2021
2811 Rain 13 1016 80 10000 1.6 107 20:50 07.02.2021
2812 Rain 13 1015 79 10000 2.1 95 20:29 07.02.2021
2813 Rain 13 1015 79 10000 2.1 95 19:52 07.02.2021
2814 Rain 13 1014 77 10000 2.21 104 19:29 07.02.2021
2815 Rain 13 1014 77 10000 2.21 104 18:49 07.02.2021
2816 Rain 14 1013 71 10000 2.69 93 18:29 07.02.2021
2817 Rain 14 1013 71 10000 2.69 93 17:58 07.02.2021
2818 Rain 14 1013 71 10000 2.69 93 17:39 07.02.2021
2819 Rain 16 1012 65 10000 3.77 110 17:18 07.02.2021
2820 Rain 16 1012 65 10000 3.77 110 16:42 07.02.2021
2821 Rain 18 1011 53 10000 4.5 132 16:21 07.02.2021
2822 Rain 18 1011 53 10000 4.5 132 15:44 07.02.2021
2823 Clouds 21 1010 39 10000 4.15 166 15:22 07.02.2021
2824 Clouds 21 1010 39 10000 4.15 166 14:46 07.02.2021
2825 Clouds 21 1009 38 10000 3.94 184 14:27 07.02.2021
2826 Clouds 21 1009 38 10000 3.94 184 13:52 07.02.2021
2827 Clouds 21 1009 38 10000 3.94 184 13:30 07.02.2021
2828 Clouds 21 1009 39 10000 3.77 183 12:43 07.02.2021
2829 Clouds 20 1011 43 10000 3.76 178 12:22 07.02.2021
2830 Clouds 20 1011 43 10000 3.76 178 11:46 07.02.2021
2831 Clouds 20 1011 43 10000 3.76 178 11:46 07.02.2021
2832 Clouds 19 1012 50 10000 2.86 168 11:26 07.02.2021
2833 Clouds 19 1012 50 10000 2.86 168 10:48 07.02.2021
2834 Clouds 16 1014 60 10000 2.48 144 10:24 07.02.2021
2835 Clouds 16 1014 60 10000 2.48 144 09:46 07.02.2021
2836 Clouds 16 1026 63 10000 3.09 100 09:21 07.02.2021
2837 Clouds 16 1026 63 10000 3.09 100 08:22 07.02.2021
2838 Clouds 13 1026 71 10000 3.09 130 06:34 07.02.2021
2839 Clouds 13 1025 71 10000 1.03 130 05:57 07.02.2021
2840 Clouds 12 1016 80 10000 1.35 120 03:50 07.02.2021
2841 Clouds 11 1014 81 10000 1.32 106 01:27 07.02.2021
2842 Clouds 12 1015 76 10000 1.48 91 00:35 07.02.2021
2843 Clouds 11 1015 80 10000 1.52 112 23:44 06.02.2021
2844 Clouds 12 1015 76 10000 2.18 133 22:40 06.02.2021
2845 Clouds 13 1015 72 10000 1.92 120 21:40 06.02.2021
2846 Clouds 14 1015 67 10000 2.05 119 21:21 06.02.2021
2847 Clouds 14 1015 67 10000 2.05 119 20:51 06.02.2021
2848 Clouds 14 1015 62 10000 2.25 112 20:25 06.02.2021
2849 Clouds 14 1015 62 10000 2.25 112 19:57 06.02.2021
2850 Clouds 14 1015 62 10000 2.25 112 19:31 06.02.2021
2851 Clouds 15 1014 53 10000 2.52 74 18:49 06.02.2021
2852 Clouds 15 1014 53 10000 2.52 74 18:31 06.02.2021
2853 Clouds 16 1013 50 10000 3.06 74 17:48 06.02.2021
2854 Clouds 18 1012 41 10000 4.99 107 17:22 06.02.2021
2855 Clouds 18 1012 41 10000 4.99 107 16:59 06.02.2021
2856 Clouds 18 1012 41 10000 4.99 107 16:40 06.02.2021
2857 Clouds 21 1010 31 10000 6.25 135 16:22 06.02.2021
2858 Clouds 21 1010 31 10000 6.25 135 15:45 06.02.2021
2859 Clouds 23 1010 24 10000 4.94 162 15:21 06.02.2021
2860 Clouds 23 1010 24 10000 4.94 162 14:45 06.02.2021
2861 Clear 24 1009 20 10000 3.57 185 14:25 06.02.2021
2862 Clear 24 1009 20 10000 3.56 186 13:49 06.02.2021
2863 Clouds 24 1009 20 10000 3.79 194 13:21 06.02.2021
2864 Clouds 24 1010 20 10000 3.67 199 12:22 06.02.2021
2865 Clouds 24 1010 20 10000 3.67 199 11:48 06.02.2021
2866 Clouds 23 1012 22 10000 3.64 191 11:22 06.02.2021
2867 Clouds 23 1012 22 10000 3.64 191 10:57 06.02.2021
2868 Clouds 23 1012 22 10000 3.64 191 10:39 06.02.2021
2869 Clouds 21 1013 24 10000 3.54 182 09:59 06.02.2021
2870 Clouds 21 1013 24 10000 3.54 182 09:37 06.02.2021
2871 Clouds 20 1015 27 10000 3.24 179 09:18 06.02.2021
2872 Clouds 20 1015 27 10000 3.24 179 08:33 06.02.2021
2873 Clear 19 1016 30 10000 2.73 175 08:00 06.02.2021
2874 Clear 15 1017 44 10000 1.08 116 05:44 06.02.2021
2875 Clear 13 1017 51 10000 0.56 43 04:36 06.02.2021
2876 Clear 14 1015 50 10000 0.47 264 02:26 06.02.2021
2877 Clouds 15 1015 48 10000 0.39 351 00:48 06.02.2021
2878 Clouds 15 1015 48 10000 0.39 351 00:48 06.02.2021
2879 Clouds 15 1015 47 10000 0.65 80 00:20 06.02.2021
2880 Clouds 15 1015 47 10000 0.65 80 23:44 05.02.2021
2881 Clouds 16 1015 45 10000 1.52 126 23:26 05.02.2021
2882 Clouds 16 1015 45 10000 1.52 126 22:47 05.02.2021
2883 Clouds 17 1015 44 10000 1.05 165 22:23 05.02.2021
2884 Clouds 17 1015 44 10000 1.05 165 21:49 05.02.2021
2885 Clouds 17 1016 41 10000 0.43 254 21:28 05.02.2021
2886 Clouds 17 1016 41 10000 0.43 254 20:47 05.02.2021
2887 Clouds 18 1015 37 10000 2.69 137 19:53 05.02.2021
2888 Clouds 19 1015 33 10000 3.11 118 19:21 05.02.2021
2889 Clouds 19 1015 33 10000 3.11 118 18:54 05.02.2021
2890 Clouds 20 1014 29 10000 1.65 337 18:28 05.02.2021
2891 Clouds 20 1014 29 10000 1.65 337 17:47 05.02.2021
2892 Clouds 20 1014 29 10000 1.65 337 17:47 05.02.2021
2893 Clouds 21 1012 27 10000 2.02 285 17:27 05.02.2021
2894 Clouds 21 1012 27 10000 2.02 285 16:50 05.02.2021
2895 Clouds 23 1011 24 10000 2.28 271 16:28 05.02.2021
2896 Clouds 23 1011 24 10000 2.28 271 15:58 05.02.2021
2897 Clouds 24 1010 22 10000 3.12 269 15:27 05.02.2021
2898 Clouds 24 1010 22 10000 3.12 269 14:55 05.02.2021
2899 Clouds 24 1010 22 10000 3.12 269 14:36 05.02.2021
2900 Clouds 25 1010 20 10000 3.48 280 14:18 05.02.2021
2901 Clouds 25 1010 20 10000 3.48 281 14:18 05.02.2021
2902 Clouds 25 1010 20 10000 3.48 280 13:39 05.02.2021
2903 Clouds 25 1010 18 10000 3.8 256 13:18 05.02.2021
2904 Clouds 25 1010 18 10000 3.81 255 12:40 05.02.2021
2905 Clouds 25 1010 18 10000 3.7 241 11:58 05.02.2021
2906 Clouds 25 1010 18 10000 3.7 241 11:37 05.02.2021
2907 Clouds 24 1011 19 10000 3.5 233 11:18 05.02.2021
2908 Clouds 24 1011 19 10000 3.5 233 10:41 05.02.2021
2909 Clouds 23 1013 21 10000 3.16 232 10:21 05.02.2021
2910 Clouds 23 1013 21 10000 3.21 230 09:41 05.02.2021
2911 Clouds 21 1015 22 10000 2.28 226 09:21 05.02.2021
2912 Clouds 15 1027 33 10000 2.06 150 08:36 05.02.2021
2913 Clouds 15 1027 33 10000 2.06 150 07:39 05.02.2021
2914 Clouds 18 1017 26 10000 0.94 165 06:58 05.02.2021
2915 Clouds 11 1027 40 10000 2.06 310 05:40 05.02.2021
2916 Clouds 12 1017 37 10000 0.34 355 04:50 05.02.2021
2917 Clouds 13 1015 35 10000 0.3 307 02:25 05.02.2021
2918 Clear 12 1025 37 10000 2.06 340 00:41 05.02.2021
2919 Clear 12 1025 37 10000 2.06 340 00:21 05.02.2021
2920 Clear 13 1016 35 10000 0.17 5 23:59 04.02.2021
2921 Clear 13 1016 35 10000 0.17 5 23:40 04.02.2021
2922 Clear 13 1016 35 10000 0.17 5 23:40 04.02.2021
2923 Clear 13 1016 34 10000 0.36 231 23:21 04.02.2021
2924 Clear 13 1016 34 10000 0.36 231 22:52 04.02.2021
2925 Clear 14 1017 34 10000 0.72 122 22:29 04.02.2021
2926 Clear 14 1017 34 10000 0.72 122 21:43 04.02.2021
2927 Clear 14 1017 32 10000 1.59 116 21:22 04.02.2021
2928 Clear 14 1017 32 10000 1.59 116 20:54 04.02.2021
2929 Clear 14 1017 32 10000 1.59 116 20:34 04.02.2021
2930 Clear 15 1016 32 10000 0.81 100 19:49 04.02.2021
2931 Clouds 15 1016 31 10000 1.84 74 19:21 04.02.2021
2932 Clouds 15 1016 31 10000 1.69 64 18:39 04.02.2021
2933 Clouds 15 1016 31 10000 1.69 64 18:39 04.02.2021
2934 Clouds 16 1015 30 10000 2.61 79 18:20 04.02.2021
2935 Clouds 16 1015 30 10000 2.61 79 17:44 04.02.2021
2936 Clouds 17 1013 27 10000 3.48 97 17:21 04.02.2021
2937 Clouds 17 1013 27 10000 3.48 97 16:46 04.02.2021
2938 Clouds 22 1012 21 10000 4.72 137 16:19 04.02.2021
2939 Clouds 22 1012 21 10000 4.72 137 15:41 04.02.2021
2940 Clouds 24 1011 18 10000 3.8 170 15:21 04.02.2021
2941 Clouds 24 1011 18 10000 3.8 170 14:56 04.02.2021
2942 Clouds 24 1011 18 10000 3.8 170 14:37 04.02.2021
2943 Clouds 24 1010 18 10000 3.15 183 14:19 04.02.2021
2944 Clouds 24 1010 18 10000 3.19 181 13:41 04.02.2021
2945 Clear 24 1011 18 10000 3.01 189 12:57 04.02.2021
2946 Clear 24 1012 19 10000 2.95 189 12:21 04.02.2021
2947 Clear 24 1012 19 10000 2.95 189 11:50 04.02.2021
2948 Clear 24 1012 19 10000 2.95 189 11:32 04.02.2021
2949 Clear 23 1013 20 10000 2.88 180 10:45 04.02.2021
2950 Clear 21 1014 21 10000 2.97 164 10:18 04.02.2021
2951 Clear 21 1014 21 10000 2.97 164 09:43 04.02.2021
2952 Clear 20 1016 23 10000 2.94 148 09:19 04.02.2021
2953 Clear 20 1016 23 10000 2.94 148 08:41 04.02.2021
2954 Clouds 18 1017 25 10000 2.53 142 08:20 04.02.2021
2955 Clouds 18 1017 25 10000 2.53 142 07:42 04.02.2021
2956 Clear 16 1019 29 10000 1.83 158 06:55 04.02.2021
2957 Clear 16 1019 29 10000 1.83 158 06:37 04.02.2021
2958 Clear 11 1018 41 10000 0.15 92 03:54 04.02.2021
2959 Clear 11 1017 40 10000 0.26 81 02:26 04.02.2021
2960 Clear 11 1017 40 10000 0.05 7 00:48 04.02.2021
2961 Clear 12 1018 39 10000 0.47 238 23:40 03.02.2021
2962 Clear 12 1018 38 10000 0.48 211 22:44 03.02.2021
2963 Clear 13 1018 37 10000 0.8 144 22:23 03.02.2021
2964 Clear 13 1018 37 10000 0.8 144 21:58 03.02.2021
2965 Clear 13 1018 37 10000 0.8 144 21:38 03.02.2021
2966 Clear 13 1018 36 10000 1.09 131 21:20 03.02.2021
2967 Clear 13 1018 36 10000 1.09 131 21:20 03.02.2021
2968 Clear 13 1018 36 10000 1.09 131 20:46 03.02.2021
2969 Clear 14 1018 35 10000 1.52 86 20:26 03.02.2021
2970 Clear 14 1018 35 10000 1.52 86 19:46 03.02.2021
2971 Clear 14 1018 33 10000 2.43 68 19:23 03.02.2021
2972 Clear 14 1017 33 10000 2.37 76 18:49 03.02.2021
2973 Clear 15 1017 32 10000 2.87 80 18:21 03.02.2021
2974 Clear 15 1017 32 10000 2.87 80 17:53 03.02.2021
2975 Clear 15 1017 32 10000 2.87 80 17:33 03.02.2021
2976 Clear 16 1015 29 10000 3.5 95 16:59 03.02.2021
2977 Clear 16 1015 29 10000 3.5 95 16:35 03.02.2021
2978 Clear 20 1013 24 10000 5.84 112 15:50 03.02.2021
2979 Clear 20 1013 24 10000 5.84 112 15:30 03.02.2021
2980 Clear 22 1012 21 10000 5.44 130 14:54 03.02.2021
2981 Clear 22 1012 21 10000 5.41 131 14:30 03.02.2021
2982 Clear 23 1012 20 10000 4.4 144 13:56 03.02.2021
2983 Clouds 23 1012 19 10000 4.03 152 13:29 03.02.2021
2984 Clouds 23 1012 19 10000 4.03 152 12:55 03.02.2021
2985 Clouds 23 1012 19 10000 4.02 147 12:36 03.02.2021
2986 Clouds 23 1013 20 10000 3.88 149 12:18 03.02.2021
2987 Clouds 23 1013 20 10000 3.88 149 11:38 03.02.2021
2988 Clouds 22 1014 21 10000 3.86 142 10:59 03.02.2021
2989 Clear 21 1016 22 10000 3.83 134 10:23 03.02.2021
2990 Clear 21 1016 22 10000 3.83 134 09:53 03.02.2021
2991 Clear 21 1016 22 10000 3.83 134 09:34 03.02.2021
2992 Clear 20 1017 25 10000 3.91 131 08:55 03.02.2021
2993 Clear 20 1017 25 10000 3.93 131 08:36 03.02.2021
2994 Clear 18 1019 28 10000 3.63 127 07:43 03.02.2021
2995 Clear 16 1020 32 10000 2.71 118 06:42 03.02.2021
2996 Clear 10 1020 44 10000 0.94 82 04:55 03.02.2021
2997 Clear 10 1020 44 10000 0.94 82 04:34 03.02.2021
2998 Clear 10 1019 43 10000 0.96 102 03:48 03.02.2021
2999 Clear 11 1018 42 10000 1.21 103 02:38 03.02.2021
3000 Clear 11 1028 43 10000 0.88 112 01:21 03.02.2021
3001 Clear 12 1018 39 10000 0.88 130 00:23 03.02.2021
3002 Clear 12 1018 39 10000 0.88 130 23:41 02.02.2021
3003 Clear 12 1018 39 10000 0.88 130 23:41 02.02.2021
3004 Clear 12 1019 39 10000 0.7 122 23:22 02.02.2021
3005 Clear 12 1019 39 10000 0.7 122 22:39 02.02.2021
3006 Clear 13 1019 38 10000 0.79 112 22:19 02.02.2021
3007 Clear 13 1019 38 10000 0.79 112 21:44 02.02.2021
3008 Clear 13 1019 37 10000 0.94 99 21:23 02.02.2021
3009 Clear 13 1019 37 10000 0.94 99 20:48 02.02.2021
3010 Clear 14 1019 35 10000 1.54 105 20:21 02.02.2021
3011 Clear 14 1019 35 10000 1.54 105 19:50 02.02.2021
3012 Clear 14 1019 35 10000 1.54 105 19:32 02.02.2021
3013 Clear 14 1018 34 10000 2.36 102 18:54 02.02.2021
3014 Clear 14 1018 34 10000 2.36 102 18:36 02.02.2021
3015 Clear 15 1017 32 10000 2.8 92 18:18 02.02.2021
3016 Clear 15 1017 32 10000 2.8 92 17:37 02.02.2021
3017 Clear 17 1015 30 10000 3.39 102 17:19 02.02.2021
3018 Clear 17 1015 30 10000 3.39 102 16:43 02.02.2021
3019 Clear 20 1013 25 10000 5.78 110 16:24 02.02.2021
3020 Clear 20 1013 25 10000 5.78 110 15:42 02.02.2021
3021 Clear 22 1012 22 10000 6.19 122 15:23 02.02.2021
3022 Clear 22 1012 22 10000 6.19 122 14:50 02.02.2021
3023 Clear 22 1012 22 10000 6.19 122 14:31 02.02.2021
3024 Clear 24 1012 19 10000 5.17 139 13:56 02.02.2021
3025 Clear 24 1012 19 10000 5.17 139 13:37 02.02.2021
3026 Clouds 24 1012 18 10000 3.69 154 13:19 02.02.2021
3027 Clouds 24 1012 18 10000 3.93 152 12:41 02.02.2021
3028 Clouds 24 1014 19 10000 3.34 152 11:45 02.02.2021
3029 Clouds 23 1015 20 10000 3.21 143 11:24 02.02.2021
3030 Clouds 23 1015 20 10000 3.21 143 10:56 02.02.2021
3031 Clouds 21 1017 22 10000 3.48 131 10:27 02.02.2021
3032 Clouds 21 1017 22 10000 3.48 131 09:47 02.02.2021
3033 Clouds 20 1018 25 10000 3.57 126 09:26 02.02.2021
3034 Clouds 20 1018 25 10000 3.57 126 08:55 02.02.2021
3035 Clouds 18 1020 28 10000 3.61 119 08:28 02.02.2021
3036 Clouds 18 1020 28 10000 3.61 119 07:31 02.02.2021
3037 Clouds 16 1020 32 10000 2.75 114 06:43 02.02.2021
3038 Clouds 13 1021 38 10000 1.58 87 05:53 02.02.2021
3039 Clouds 11 1021 46 10000 1.9 64 04:57 02.02.2021
3040 Clouds 11 1019 44 10000 2.01 72 02:44 02.02.2021
3041 Clouds 11 1018 43 10000 2.06 80 02:23 02.02.2021
3042 Clouds 12 1018 41 10000 1.73 92 00:35 02.02.2021
3043 Clear 13 1019 38 10000 1.03 100 23:20 01.02.2021
3044 Clear 13 1019 38 10000 1.03 100 22:51 01.02.2021
3045 Clear 13 1019 38 10000 1.03 100 22:32 01.02.2021
3046 Clear 13 1019 37 10000 0.95 62 21:53 01.02.2021
3047 Clear 13 1019 37 10000 0.95 62 21:34 01.02.2021
3048 Clear 14 1019 35 10000 1.84 77 20:57 01.02.2021
3049 Clear 14 1019 35 10000 1.84 77 20:37 01.02.2021
3050 Clear 14 1019 34 10000 2.33 75 20:19 01.02.2021
3051 Clear 14 1019 34 10000 2.33 75 19:38 01.02.2021
3052 Clear 15 1018 32 10000 2.75 72 19:19 01.02.2021
3053 Clouds 15 1018 32 10000 2.89 74 18:47 01.02.2021
3054 Clouds 15 1017 30 10000 3.15 86 18:27 01.02.2021
3055 Clouds 15 1017 30 10000 3.15 86 17:47 01.02.2021
3056 Clouds 17 1015 27 10000 3.12 98 17:23 01.02.2021
3057 Clouds 17 1015 27 10000 3.12 98 16:47 01.02.2021
3058 Clouds 20 1013 22 10000 4.67 105 16:28 01.02.2021
3059 Clouds 20 1013 22 10000 4.67 105 15:43 01.02.2021
3060 Clouds 20 1013 22 10000 4.67 105 15:43 01.02.2021
3061 Clouds 22 1012 20 10000 6.68 108 15:19 01.02.2021
3062 Clouds 22 1012 20 10000 6.68 108 14:52 01.02.2021
3063 Clouds 22 1012 20 10000 6.68 108 14:33 01.02.2021
3064 Clouds 23 1011 19 10000 6.61 112 13:49 01.02.2021
3065 Clouds 24 1011 19 10000 6.12 113 13:26 01.02.2021
3066 Clouds 24 1011 19 10000 6.25 113 12:45 01.02.2021
3067 Clouds 24 1012 19 10000 5.74 114 12:25 01.02.2021
3068 Clouds 24 1012 19 10000 5.74 114 11:51 01.02.2021
3069 Clouds 23 1014 20 10000 5.18 114 11:22 01.02.2021
3070 Clouds 23 1014 20 10000 5.18 114 10:55 01.02.2021
3071 Clouds 23 1014 20 10000 5.16 114 10:36 01.02.2021
3072 Clouds 22 1015 22 10000 4.81 114 10:18 01.02.2021
3073 Clouds 22 1015 22 10000 4.81 114 09:42 01.02.2021
3074 Clouds 20 1017 25 10000 4.3 113 08:56 01.02.2021
3075 Clouds 20 1017 25 10000 4.3 113 08:56 01.02.2021
3076 Clouds 18 1018 30 10000 3.78 111 08:27 01.02.2021
3077 Clouds 18 1018 30 10000 3.78 111 07:34 01.02.2021
3078 Clear 10 1019 51 10000 1.51 77 05:27 01.02.2021
3079 Clear 11 1018 49 10000 1.67 73 02:40 01.02.2021
3080 Clear 13 1026 50 10000 5.14 70 00:26 01.02.2021
3081 Clear 12 1017 42 10000 1.28 98 23:26 31.01.2021
3082 Clear 12 1017 42 10000 1.28 99 22:41 31.01.2021
3083 Clear 13 1018 40 10000 1.33 94 22:22 31.01.2021
3084 Clear 13 1018 40 10000 1.33 94 21:47 31.01.2021
3085 Clear 13 1018 39 10000 1.49 89 21:21 31.01.2021
3086 Clear 13 1018 39 10000 1.49 89 20:44 31.01.2021
3087 Clear 14 1018 37 10000 2.03 78 20:21 31.01.2021
3088 Clear 14 1018 37 10000 2.03 78 19:41 31.01.2021
3089 Clouds 14 1016 35 10000 2.74 69 19:23 31.01.2021
3090 Clouds 14 1016 35 10000 2.74 69 19:23 31.01.2021
3091 Clouds 14 1016 35 10000 2.74 69 18:56 31.01.2021
3092 Clouds 14 1016 35 10000 2.74 69 18:38 31.01.2021
3093 Clouds 15 1015 34 10000 3.14 78 18:19 31.01.2021
3094 Clouds 15 1015 34 10000 3.14 78 17:43 31.01.2021
3095 Clouds 21 1025 21 10000 5.14 80 17:22 31.01.2021
3096 Clouds 21 1025 21 10000 5.14 80 16:42 31.01.2021
3097 Clouds 21 1025 21 10000 5.14 80 16:22 31.01.2021
3098 Clouds 20 1011 26 10000 4.88 104 15:50 31.01.2021
3099 Clouds 23 1024 17 10000 6.55 108 15:28 31.01.2021
3100 Clouds 23 1024 17 10000 6.55 108 14:40 31.01.2021
3101 Clouds 23 1024 17 10000 6.52 112 14:19 31.01.2021
3102 Clouds 23 1024 18 10000 6.17 100 13:48 31.01.2021
3103 Clear 23 1024 18 10000 6.17 100 13:23 31.01.2021
3104 Clear 23 1025 23 10000 6.69 100 12:47 31.01.2021
3105 Clear 23 1025 23 10000 6.69 100 12:21 31.01.2021
3106 Clear 22 1026 24 10000 6.69 90 11:41 31.01.2021
3107 Clear 22 1026 24 10000 6.69 90 11:21 31.01.2021
3108 Clear 23 1012 20 10000 4.47 122 10:48 31.01.2021
3109 Clear 23 1012 20 10000 4.47 122 10:30 31.01.2021
3110 Clear 21 1014 23 10000 4.12 119 09:49 31.01.2021
3111 Clear 20 1016 26 10000 3.95 116 08:59 31.01.2021
3112 Clear 16 1028 48 10000 6.17 70 08:32 31.01.2021
3113 Clouds 14 1027 54 10000 4.63 70 06:55 31.01.2021
3114 Clouds 11 1026 66 10000 3.6 80 05:31 31.01.2021
3115 Clouds 11 1016 47 10000 1.04 109 00:40 31.01.2021
3116 Clouds 11 1016 50 10000 0.83 122 00:21 31.01.2021
3117 Clouds 12 1016 49 10000 1.18 112 23:28 30.01.2021
3118 Clouds 12 1016 49 10000 1.18 112 22:56 30.01.2021
3119 Clouds 12 1017 48 10000 1.32 116 22:29 30.01.2021
3120 Clouds 12 1017 48 10000 1.32 116 21:40 30.01.2021
3121 Clouds 13 1017 48 10000 1.13 107 21:20 30.01.2021
3122 Clouds 13 1017 48 10000 1.13 107 21:20 30.01.2021
3123 Clouds 13 1017 48 10000 1.13 107 20:44 30.01.2021
3124 Clear 13 1017 47 10000 1.85 81 20:26 30.01.2021
3125 Clear 13 1017 47 10000 1.85 81 19:44 30.01.2021
3126 Clouds 14 1017 44 10000 3.12 82 19:25 30.01.2021
3127 Clouds 14 1016 42 10000 2.91 82 18:42 30.01.2021
3128 Clouds 15 1015 39 10000 3.44 87 18:21 30.01.2021
3129 Clouds 15 1015 39 10000 3.44 87 17:57 30.01.2021
3130 Clouds 17 1014 35 10000 3.46 100 17:19 30.01.2021
3131 Clouds 17 1014 35 10000 3.48 98 16:44 30.01.2021
3132 Clouds 19 1012 27 10000 5.54 110 16:24 30.01.2021
3133 Clouds 19 1012 27 10000 5.54 110 15:55 30.01.2021
3134 Clouds 19 1012 27 10000 5.54 110 15:37 30.01.2021
3135 Clouds 22 1011 23 10000 6.03 119 15:19 30.01.2021
3136 Clouds 22 1011 23 10000 6.03 119 14:42 30.01.2021
3137 Clouds 23 1010 21 10000 5.69 127 14:19 30.01.2021
3138 Clouds 23 1010 21 10000 5.69 127 13:30 30.01.2021
3139 Clouds 24 1011 21 10000 5.28 136 12:49 30.01.2021
3140 Clouds 24 1012 21 10000 4.71 142 12:28 30.01.2021
3141 Clouds 24 1012 21 10000 4.71 142 11:56 30.01.2021
3142 Clouds 23 1013 22 10000 3.8 140 11:26 30.01.2021
3143 Clouds 23 1013 22 10000 3.8 140 10:47 30.01.2021
3144 Clouds 21 1014 24 10000 3.53 128 09:48 30.01.2021
3145 Clouds 20 1016 28 10000 3.67 120 09:29 30.01.2021
3146 Clouds 20 1016 28 10000 3.67 120 08:47 30.01.2021
3147 Clouds 18 1017 32 10000 3.73 119 07:48 30.01.2021
3148 Clouds 16 1018 37 10000 3.56 118 06:49 30.01.2021
3149 Clouds 11 1018 47 10000 1.41 97 04:59 30.01.2021
3150 Clouds 12 1017 46 10000 1.21 93 03:35 30.01.2021
3151 Clear 12 1016 43 10000 1.42 91 02:24 30.01.2021
3152 Clear 12 1016 43 10000 0.92 93 01:29 30.01.2021
3153 Clear 12 1016 42 10000 1 91 00:37 30.01.2021
3154 Clear 13 1016 42 10000 1.01 90 00:18 30.01.2021
3155 Clear 13 1016 42 10000 1.01 90 23:44 29.01.2021
3156 Clear 13 1017 41 10000 1.6 109 23:20 29.01.2021
3157 Clear 13 1017 41 10000 1.6 109 22:40 29.01.2021
3158 Clear 14 1017 38 10000 2.14 109 22:18 29.01.2021
3159 Clear 15 1017 37 10000 2.54 99 21:28 29.01.2021
3160 Clear 15 1017 37 10000 2.54 99 20:45 29.01.2021
3161 Clear 15 1017 36 10000 2.46 86 20:25 29.01.2021
3162 Clear 15 1017 36 10000 2.46 86 19:43 29.01.2021
3163 Clouds 16 1016 35 10000 2.82 85 19:22 29.01.2021
3164 Clouds 16 1016 36 10000 2.95 85 18:58 29.01.2021
3165 Clouds 16 1015 36 10000 3.03 92 18:18 29.01.2021
3166 Clouds 16 1015 36 10000 3.03 92 17:37 29.01.2021
3167 Clouds 17 1013 35 10000 3.61 99 17:18 29.01.2021
3168 Clouds 17 1013 35 10000 3.61 99 16:44 29.01.2021
3169 Clouds 20 1012 29 10000 6.22 113 16:23 29.01.2021
3170 Clouds 20 1012 29 10000 6.22 113 15:42 29.01.2021
3171 Clouds 23 1011 22 10000 6.42 133 15:23 29.01.2021
3172 Clouds 23 1011 22 10000 6.42 133 14:31 29.01.2021
3173 Clouds 25 1010 19 10000 4.77 156 13:59 29.01.2021
3174 Clouds 25 1010 19 10000 4.77 156 13:36 29.01.2021
3175 Clouds 25 1011 18 10000 3.35 168 12:49 29.01.2021
3176 Clouds 24 1012 19 10000 2.38 164 12:22 29.01.2021
3177 Clouds 24 1012 19 10000 2.38 164 11:46 29.01.2021
3178 Clouds 23 1014 20 10000 1.93 156 11:18 29.01.2021
3179 Clouds 24 1014 20 10000 1.95 157 10:47 29.01.2021
3180 Clouds 22 1015 22 10000 2.01 145 10:26 29.01.2021
3181 Clouds 22 1015 22 10000 2.01 145 09:44 29.01.2021
3182 Clouds 20 1017 25 10000 2.58 133 08:52 29.01.2021
3183 Clouds 18 1018 29 10000 2.76 128 08:28 29.01.2021
3184 Clouds 18 1018 29 10000 2.76 128 07:54 29.01.2021
3185 Clouds 13 1029 44 10000 0.51 60 07:35 29.01.2021
3186 Clouds 13 1029 44 10000 0.51 60 06:58 29.01.2021
3187 Clouds 11 1028 50 10000 3.09 330 05:19 29.01.2021
3188 Clouds 12 1017 42 10000 0.83 64 02:48 29.01.2021
3189 Clouds 12 1016 41 10000 0.75 84 00:38 29.01.2021
3190 Clouds 13 1017 40 10000 0.67 89 00:19 29.01.2021
3191 Clouds 13 1017 40 10000 0.67 89 23:41 28.01.2021
3192 Clouds 13 1017 40 10000 0.67 89 23:41 28.01.2021
3193 Clouds 13 1017 39 10000 1.25 89 23:23 28.01.2021
3194 Clouds 13 1017 39 10000 1.25 89 22:45 28.01.2021
3195 Clouds 14 1017 37 10000 1.9 100 22:26 28.01.2021
3196 Clouds 14 1017 37 10000 1.9 100 21:53 28.01.2021
3197 Clouds 14 1017 37 10000 1.9 100 21:33 28.01.2021
3198 Clouds 14 1018 36 10000 1.53 110 20:55 28.01.2021
3199 Clouds 14 1018 36 10000 1.53 110 20:37 28.01.2021
3200 Clouds 15 1017 35 10000 1.82 91 20:18 28.01.2021
3201 Clouds 15 1017 34 10000 1.82 90 19:40 28.01.2021
3202 Clear 15 1016 33 10000 2.68 79 19:19 28.01.2021
3203 Clear 15 1016 33 10000 2.68 79 18:43 28.01.2021
3204 Clear 16 1015 32 10000 3.37 83 18:20 28.01.2021
3205 Clear 16 1015 32 10000 3.37 83 17:44 28.01.2021
3206 Clear 17 1013 30 10000 3.2 97 17:26 28.01.2021
3207 Clear 17 1013 30 10000 3.2 97 16:44 28.01.2021
3208 Clear 20 1011 24 10000 5.09 110 16:22 28.01.2021
3209 Clear 20 1011 24 10000 5.09 110 16:22 28.01.2021
3210 Clear 20 1011 24 10000 5.09 110 15:41 28.01.2021
3211 Clear 23 1010 21 10000 5.78 121 14:59 28.01.2021
3212 Clear 23 1010 21 10000 5.78 121 14:41 28.01.2021
3213 Clear 24 1010 19 10000 5.38 131 14:23 28.01.2021
3214 Clear 24 1010 19 10000 5.41 130 13:45 28.01.2021
3215 Clouds 24 1010 18 10000 4.06 156 12:54 28.01.2021
3216 Clouds 24 1010 18 10000 4.06 156 12:35 28.01.2021
3217 Clouds 24 1011 19 10000 3.38 162 11:59 28.01.2021
3218 Clouds 24 1011 19 10000 3.38 162 11:40 28.01.2021
3219 Clouds 23 1013 20 10000 2.87 157 11:20 28.01.2021
3220 Clouds 23 1013 20 10000 2.87 157 10:52 28.01.2021
3221 Clouds 23 1013 20 10000 2.87 157 10:33 28.01.2021
3222 Clouds 22 1014 22 10000 2.66 142 09:48 28.01.2021
3223 Clouds 20 1016 24 10000 2.87 131 09:23 28.01.2021
3224 Clouds 20 1016 24 10000 2.87 131 08:54 28.01.2021
3225 Clouds 18 1017 28 10000 2.84 122 08:19 28.01.2021
3226 Clear 18 1017 27 10000 2.64 126 07:44 28.01.2021
3227 Clouds 16 1018 31 10000 2.2 116 06:50 28.01.2021
3228 Clouds 13 1018 38 10000 1.48 79 06:25 28.01.2021
3229 Clouds 11 1017 42 10000 1.82 69 04:27 28.01.2021
3230 Clear 11 1016 40 10000 1.75 92 01:38 28.01.2021
3231 Clear 12 1017 37 10000 1.1 99 23:48 27.01.2021
3232 Clear 12 1017 37 10000 0.63 97 23:24 27.01.2021
3233 Clear 12 1017 37 10000 0.63 97 22:42 27.01.2021
3234 Clear 13 1017 36 10000 0.81 82 22:22 27.01.2021
3235 Clear 13 1017 36 10000 0.81 82 21:43 27.01.2021
3236 Clear 13 1017 35 10000 1.76 86 21:23 27.01.2021
3237 Clear 13 1017 35 10000 1.76 86 21:23 27.01.2021
3238 Clear 13 1017 35 10000 1.76 86 20:52 27.01.2021
3239 Clear 14 1017 34 10000 2.46 94 20:27 27.01.2021
3240 Clear 14 1017 34 10000 2.46 94 19:50 27.01.2021
3241 Clear 15 1016 34 10000 2.5 87 19:23 27.01.2021
3242 Clear 15 1016 33 10000 2.5 90 18:46 27.01.2021
3243 Clear 15 1015 32 10000 2.5 81 18:26 27.01.2021
3244 Clear 15 1015 32 10000 2.5 81 17:56 27.01.2021
3245 Clear 15 1015 32 10000 2.5 81 17:38 27.01.2021
3246 Clear 17 1013 29 10000 2.72 98 16:58 27.01.2021
3247 Clear 17 1013 29 10000 2.72 98 16:39 27.01.2021
3248 Clear 20 1011 24 10000 4.85 111 16:21 27.01.2021
3249 Clear 20 1011 24 10000 4.85 111 15:49 27.01.2021
3250 Clear 20 1011 24 10000 4.85 111 15:49 27.01.2021
3251 Clear 22 1010 20 10000 5.78 117 15:29 27.01.2021
3252 Clear 22 1010 20 10000 5.78 117 14:38 27.01.2021
3253 Clear 24 1010 18 10000 5.46 122 14:18 27.01.2021
3254 Clear 24 1010 18 10000 5.46 122 13:35 27.01.2021
3255 Clear 24 1010 18 10000 4.73 129 12:42 27.01.2021
3256 Clear 24 1010 18 10000 4.73 129 12:42 27.01.2021
3257 Clear 24 1012 18 10000 4.1 134 12:24 27.01.2021
3258 Clear 23 1012 18 10000 4.08 134 11:50 27.01.2021
3259 Clear 23 1013 19 10000 3.77 132 11:26 27.01.2021
3260 Clear 23 1013 19 10000 3.84 132 10:48 27.01.2021
3261 Clear 21 1015 22 10000 3.7 128 10:26 27.01.2021
3262 Clear 21 1015 22 10000 3.7 128 09:56 27.01.2021
3263 Clear 20 1016 24 10000 3.64 126 09:28 27.01.2021
3264 Clear 20 1016 24 10000 3.64 126 08:45 27.01.2021
3265 Clear 18 1017 27 10000 3.21 121 07:57 27.01.2021
3266 Clear 13 1027 22 10000 2.06 70 07:37 27.01.2021
3267 Clear 13 1027 22 10000 2.06 70 06:38 27.01.2021
3268 Clear 10 1027 29 10000 2.06 50 05:55 27.01.2021
3269 Clear 10 1027 29 10000 2.06 50 05:34 27.01.2021
3270 Clear 11 1017 40 10000 1.86 78 02:46 27.01.2021
3271 Clear 11 1016 38 10000 1.85 86 02:20 27.01.2021
3272 Clear 11 1016 37 10000 1.57 88 00:58 27.01.2021
3273 Clear 11 1016 36 10000 0.87 80 00:22 27.01.2021
3274 Clear 11 1016 36 10000 0.87 80 23:38 26.01.2021
3275 Clear 12 1017 36 10000 0.66 63 23:19 26.01.2021
3276 Clear 12 1017 36 10000 0.66 63 22:38 26.01.2021
3277 Clear 12 1018 35 10000 0.83 105 22:19 26.01.2021
3278 Clear 12 1018 35 10000 0.83 105 21:51 26.01.2021
3279 Clear 12 1018 35 10000 0.94 121 21:23 26.01.2021
3280 Clear 12 1018 35 10000 0.94 121 20:43 26.01.2021
3281 Clear 12 1018 35 10000 0.94 121 20:43 26.01.2021
3282 Clear 13 1017 34 10000 1.33 115 20:23 26.01.2021
3283 Clear 13 1017 34 10000 1.33 115 19:51 26.01.2021
3284 Clear 13 1017 34 10000 1.33 115 19:30 26.01.2021
3285 Clouds 14 1017 33 10000 2.17 106 18:58 26.01.2021
3286 Clouds 14 1017 33 10000 2.17 106 18:58 26.01.2021
3287 Clouds 14 1016 33 10000 2.35 107 18:40 26.01.2021
3288 Clouds 15 1015 32 10000 2.63 92 18:21 26.01.2021
3289 Clouds 15 1015 32 10000 2.63 92 17:47 26.01.2021
3290 Clouds 16 1014 31 10000 3.05 96 17:22 26.01.2021
3291 Clouds 16 1014 31 10000 3.05 96 16:43 26.01.2021
3292 Clouds 19 1012 27 10000 4.61 102 16:21 26.01.2021
3293 Clouds 19 1012 27 10000 4.61 102 15:51 26.01.2021
3294 Clouds 23 1024 20 10000 7.2 90 15:33 26.01.2021
3295 Clouds 23 1024 20 10000 7.2 90 14:49 26.01.2021
3296 Clouds 23 1024 20 10000 7.2 90 14:30 26.01.2021
3297 Clouds 23 1024 20 10000 7.2 90 14:30 26.01.2021
3298 Clouds 22 1010 22 10000 6.86 114 13:42 26.01.2021
3299 Clouds 23 1010 20 10000 6.3 122 13:24 26.01.2021
3300 Clouds 23 1010 20 10000 6.31 122 12:45 26.01.2021
3301 Clouds 24 1011 20 10000 5.4 129 12:25 26.01.2021
3302 Clouds 24 1011 20 10000 5.4 129 11:59 26.01.2021
3303 Clouds 24 1011 20 10000 5.4 129 11:39 26.01.2021
3304 Clouds 23 1013 21 10000 4.38 128 10:50 26.01.2021
3305 Clouds 23 1013 21 10000 4.38 128 10:31 26.01.2021
3306 Clouds 22 1015 23 10000 3.82 121 09:48 26.01.2021
3307 Clear 20 1016 28 10000 3.71 115 09:28 26.01.2021
3308 Clear 20 1016 28 10000 3.71 115 08:53 26.01.2021
3309 Clear 20 1016 28 10000 3.71 115 08:33 26.01.2021
3310 Clear 18 1017 34 10000 3.17 116 07:50 26.01.2021
3311 Clouds 10 1027 66 10000 1.03 200 06:24 26.01.2021
3312 Clouds 10 1026 66 10000 1.03 100 05:44 26.01.2021
3313 Clouds 10 1026 66 10000 1.03 100 05:23 26.01.2021
3314 Clear 11 1017 60 10000 1.02 97 02:46 26.01.2021
3315 Clear 12 1017 58 10000 1.57 98 00:58 26.01.2021
3316 Clouds 13 1016 60 10000 1.51 96 23:40 25.01.2021
3317 Clouds 13 1017 60 10000 1.28 122 23:18 25.01.2021
3318 Clouds 13 1017 60 10000 1.28 122 22:39 25.01.2021
3319 Clouds 14 1017 58 10000 1.02 123 21:58 25.01.2021
3320 Clouds 14 1017 58 10000 1.02 123 21:39 25.01.2021
3321 Clouds 14 1017 58 10000 1.46 113 20:53 25.01.2021
3322 Clouds 14 1017 58 10000 1.46 113 20:33 25.01.2021
3323 Clouds 15 1017 55 10000 2.06 104 19:52 25.01.2021
3324 Clouds 15 1017 55 10000 2.06 104 19:32 25.01.2021
3325 Clouds 15 1017 53 10000 2.68 91 18:59 25.01.2021
3326 Clouds 15 1016 47 10000 2.71 93 18:41 25.01.2021
3327 Clouds 16 1015 47 10000 3.12 89 18:21 25.01.2021
3328 Clouds 16 1015 47 10000 3.12 89 17:42 25.01.2021
3329 Clouds 17 1014 44 10000 3.26 92 17:23 25.01.2021
3330 Clouds 17 1014 44 10000 3.26 92 16:41 25.01.2021
3331 Clouds 19 1012 37 10000 5.06 102 16:23 25.01.2021
3332 Clouds 19 1012 37 10000 5.06 102 15:53 25.01.2021
3333 Clouds 19 1012 37 10000 5.06 102 15:32 25.01.2021
3334 Clouds 21 1011 30 10000 6.1 110 14:51 25.01.2021
3335 Clouds 23 1011 26 10000 6.17 118 14:20 25.01.2021
3336 Clouds 23 1011 26 10000 6.17 118 13:54 25.01.2021
3337 Clouds 23 1011 26 10000 6.17 118 13:35 25.01.2021
3338 Clouds 24 1011 23 10000 5.33 123 12:49 25.01.2021
3339 Clouds 23 1012 24 10000 4.17 124 12:24 25.01.2021
3340 Clouds 23 1012 24 10000 4.17 124 11:58 25.01.2021
3341 Clouds 22 1013 27 10000 3.71 120 11:22 25.01.2021
3342 Clouds 22 1013 27 10000 3.71 120 10:44 25.01.2021
3343 Clouds 21 1014 30 10000 3.7 117 10:21 25.01.2021
3344 Clouds 21 1014 30 10000 3.75 117 09:47 25.01.2021
3345 Clouds 20 1016 34 10000 3.62 116 09:28 25.01.2021
3346 Clear 18 1017 39 10000 3.67 117 08:33 25.01.2021
3347 Clear 18 1017 39 10000 3.6 117 07:46 25.01.2021
3348 Clouds 16 1018 44 10000 2.98 106 07:27 25.01.2021
3349 Clouds 12 1027 54 10000 2.06 80 06:23 25.01.2021
3350 Clear 12 1016 51 10000 1.65 91 01:35 25.01.2021
3351 Clouds 12 1017 48 10000 1.67 100 00:35 25.01.2021
3352 Clouds 13 1017 47 10000 1.29 95 23:20 24.01.2021
3353 Clouds 13 1017 47 10000 1.29 95 22:47 24.01.2021
3354 Clouds 13 1017 46 10000 1.33 96 22:28 24.01.2021
3355 Clouds 13 1017 46 10000 1.33 96 22:27 24.01.2021
3356 Clouds 13 1017 46 10000 1.33 96 22:27 24.01.2021
3357 Clouds 13 1017 46 10000 1.33 96 22:27 24.01.2021
3358 Clouds 13 1017 46 10000 1.33 96 21:55 24.01.2021
3359 Clouds 14 1017 45 10000 1.66 107 21:27 24.01.2021
3360 Clouds 14 1017 45 10000 1.66 107 20:46 24.01.2021
3361 Clouds 14 1017 43 10000 2.03 107 20:23 24.01.2021
3362 Clouds 14 1017 43 10000 2.03 108 20:23 24.01.2021
3363 Clouds 14 1017 43 10000 2.03 108 19:56 24.01.2021
3364 Clouds 14 1017 43 10000 2.03 108 19:36 24.01.2021
3365 Clouds 15 1016 42 10000 2.51 93 19:18 24.01.2021
3366 Clouds 15 1016 41 10000 2.53 95 18:41 24.01.2021
3367 Clouds 16 1015 40 10000 2.88 94 18:21 24.01.2021
3368 Clouds 16 1015 40 10000 2.88 94 17:57 24.01.2021
3369 Clouds 16 1015 40 10000 2.88 94 17:38 24.01.2021
3370 Clouds 17 1013 38 10000 3.04 102 17:18 24.01.2021
3371 Clouds 17 1013 38 10000 3.04 102 16:41 24.01.2021
3372 Clouds 19 1011 32 10000 5.31 109 16:20 24.01.2021
3373 Clouds 19 1011 32 10000 5.31 109 15:45 24.01.2021
3374 Clouds 22 1011 26 10000 6.21 120 15:20 24.01.2021
3375 Clouds 22 1011 26 10000 6.21 120 14:51 24.01.2021
3376 Clouds 23 1010 22 10000 5.43 128 14:26 24.01.2021
3377 Clouds 23 1010 22 10000 5.43 128 13:36 24.01.2021
3378 Clouds 24 1011 20 10000 4.44 138 12:51 24.01.2021
3379 Clouds 23 1011 21 10000 3.8 141 12:23 24.01.2021
3380 Clouds 23 1011 21 10000 3.8 141 11:56 24.01.2021
3381 Clouds 22 1013 22 10000 3.31 136 11:27 24.01.2021
3382 Clouds 22 1013 22 10000 3.31 136 10:59 24.01.2021
3383 Clouds 22 1013 22 10000 3.31 136 10:35 24.01.2021
3384 Clouds 21 1014 24 10000 3.1 128 09:47 24.01.2021
3385 Clouds 21 1014 24 10000 3.1 128 09:47 24.01.2021
3386 Clear 20 1016 27 10000 3.11 126 09:19 24.01.2021
3387 Clear 20 1016 27 10000 3.11 126 08:47 24.01.2021
3388 Clouds 11 1025 58 10000 2.57 330 04:23 24.01.2021
3389 Clouds 12 1016 43 10000 1.25 76 02:20 24.01.2021
3390 Clouds 11 1026 54 10000 2.57 90 00:57 24.01.2021
3391 Clouds 11 1026 54 10000 2.57 90 00:21 24.01.2021
3392 Clouds 12 1016 42 10000 1.24 107 23:42 23.01.2021
3393 Clouds 13 1016 41 10000 1.04 104 23:22 23.01.2021
3394 Clouds 13 1016 41 10000 1.04 104 22:41 23.01.2021
3395 Clouds 13 1016 40 10000 1.26 105 22:20 23.01.2021
3396 Clouds 14 1016 39 10000 1.65 107 21:24 23.01.2021
3397 Clouds 14 1016 39 10000 1.65 107 20:59 23.01.2021
3398 Clouds 14 1016 39 10000 1.65 107 20:39 23.01.2021
3399 Clouds 15 1016 38 10000 2.39 99 20:21 23.01.2021
3400 Clouds 15 1016 38 10000 2.39 99 19:45 23.01.2021
3401 Clouds 15 1016 37 10000 2.62 91 19:20 23.01.2021
3402 Clouds 15 1016 37 10000 2.62 91 18:43 23.01.2021
3403 Clouds 16 1015 37 10000 3.07 93 18:24 23.01.2021
3404 Clouds 16 1015 37 10000 3.07 93 17:44 23.01.2021
3405 Clouds 17 1013 35 10000 3.16 95 17:25 23.01.2021
3406 Clouds 17 1013 35 10000 3.16 95 16:46 23.01.2021
3407 Clouds 17 1013 35 10000 3.16 95 16:46 23.01.2021
3408 Clouds 19 1011 30 10000 4.84 104 16:24 23.01.2021
3409 Clouds 19 1011 30 10000 4.84 104 15:31 23.01.2021
3410 Clouds 21 1010 26 10000 5.74 114 14:53 23.01.2021
3411 Clouds 22 1010 24 10000 5.31 119 14:28 23.01.2021
3412 Clouds 22 1010 24 10000 5.31 119 13:50 23.01.2021
3413 Clouds 22 1010 24 10000 5.31 119 13:50 23.01.2021
3414 Clouds 22 1010 24 10000 5.31 119 13:32 23.01.2021
3415 Clouds 23 1010 24 10000 4.69 121 12:49 23.01.2021
3416 Clouds 22 1011 25 10000 4.43 122 12:26 23.01.2021
3417 Clouds 22 1011 25 10000 4.43 122 11:45 23.01.2021
3418 Clouds 22 1012 27 10000 4.2 122 11:19 23.01.2021
3419 Clouds 21 1014 29 10000 4.25 126 10:29 23.01.2021
3420 Clouds 21 1014 29 10000 4.25 126 09:57 23.01.2021
3421 Clouds 21 1014 29 10000 4.25 126 09:32 23.01.2021
3422 Clouds 19 1015 32 10000 4.08 126 08:45 23.01.2021
3423 Clouds 18 1017 33 10000 3.76 123 07:57 23.01.2021
3424 Clouds 16 1018 33 10000 2.79 124 07:18 23.01.2021
3425 Clouds 10 1025 46 10000 2 75 03:35 23.01.2021
3426 Clear 11 1025 40 10000 3.09 140 00:34 23.01.2021
3427 Clear 12 1016 40 10000 1.26 107 23:36 22.01.2021
3428 Clear 12 1016 40 10000 0.62 88 22:45 22.01.2021
3429 Clear 12 1016 39 10000 0.87 75 22:22 22.01.2021
3430 Clear 12 1016 39 10000 0.87 75 21:45 22.01.2021
3431 Clear 12 1016 39 10000 0.87 75 21:45 22.01.2021
3432 Clear 13 1017 38 10000 0.99 79 21:25 22.01.2021
3433 Clear 13 1017 38 10000 0.99 79 20:54 22.01.2021
3434 Clear 13 1017 38 10000 0.99 79 20:32 22.01.2021
3435 Clear 13 1017 37 10000 1.79 87 19:48 22.01.2021
3436 Clouds 14 1016 36 10000 2.35 93 19:21 22.01.2021
3437 Clouds 14 1016 36 10000 2.35 93 18:50 22.01.2021
3438 Clouds 15 1015 34 10000 2.62 96 18:27 22.01.2021
3439 Clouds 15 1015 34 10000 2.62 96 17:56 22.01.2021
3440 Clouds 15 1015 34 10000 2.62 96 17:38 22.01.2021
3441 Clouds 16 1013 32 10000 2.86 101 16:56 22.01.2021
3442 Clouds 16 1013 32 10000 2.86 101 16:31 22.01.2021
3443 Clouds 19 1011 27 10000 3.44 104 15:53 22.01.2021
3444 Clouds 21 1011 24 10000 5.05 101 15:25 22.01.2021
3445 Clouds 20 1011 24 10000 5.05 101 15:25 22.01.2021
3446 Clouds 21 1011 24 10000 5.05 101 14:37 22.01.2021
3447 Clouds 22 1011 22 10000 5.86 104 14:18 22.01.2021
3448 Clouds 22 1011 22 10000 5.84 104 13:36 22.01.2021
3449 Clouds 22 1011 22 10000 5.7 104 12:59 22.01.2021
3450 Clouds 22 1011 22 10000 5.97 103 12:28 22.01.2021
3451 Clouds 22 1011 22 10000 5.97 103 11:51 22.01.2021
3452 Clouds 22 1011 22 10000 5.97 103 11:32 22.01.2021
3453 Clouds 22 1013 23 10000 5.9 104 10:48 22.01.2021
3454 Clouds 22 1013 23 10000 5.9 104 10:48 22.01.2021
3455 Clouds 21 1014 25 10000 5.88 109 10:23 22.01.2021
3456 Clouds 21 1014 25 10000 5.88 109 09:43 22.01.2021
3457 Clouds 20 1016 28 10000 5.28 111 08:57 22.01.2021
3458 Clouds 20 1016 28 10000 5.28 111 08:32 22.01.2021
3459 Clouds 20 1016 28 10000 5.28 111 08:32 22.01.2021
3460 Clouds 18 1017 30 10000 4.92 113 07:45 22.01.2021
3461 Clouds 10 1026 46 10000 3.09 70 04:59 22.01.2021
3462 Clouds 11 1017 43 10000 1.4 109 01:54 22.01.2021
3463 Clouds 12 1017 42 10000 0.8 95 00:29 22.01.2021
3464 Clouds 12 1017 42 10000 0.8 95 23:48 21.01.2021
3465 Clouds 12 1017 41 10000 0.95 94 23:20 21.01.2021
3466 Clouds 12 1017 41 10000 0.95 94 22:47 21.01.2021
3467 Clear 13 1017 40 10000 1.56 97 21:58 21.01.2021
3468 Clear 13 1017 40 10000 1.56 97 21:38 21.01.2021
3469 Clear 13 1018 38 10000 2.12 97 21:18 21.01.2021
3470 Clear 13 1018 38 10000 2.12 97 20:43 21.01.2021
3471 Clear 14 1018 37 10000 2.35 108 20:21 21.01.2021
3472 Clear 14 1018 37 10000 2.35 108 19:47 21.01.2021
3473 Clouds 15 1017 35 10000 2.43 109 19:25 21.01.2021
3474 Clouds 15 1017 36 10000 2.43 109 18:43 21.01.2021
3475 Clouds 16 1016 34 10000 2.52 100 18:21 21.01.2021
3476 Clouds 16 1016 34 10000 2.52 100 17:57 21.01.2021
3477 Clouds 17 1015 32 10000 2.45 94 17:21 21.01.2021
3478 Clouds 17 1015 32 10000 2.45 94 16:58 21.01.2021
3479 Clouds 16 1015 33 10000 2.44 94 16:38 21.01.2021
3480 Clouds 19 1013 30 10000 2.84 103 16:20 21.01.2021
3481 Clouds 19 1013 30 10000 2.84 103 15:47 21.01.2021
3482 Clouds 21 1011 28 10000 4.69 109 15:24 21.01.2021
3483 Clouds 20 1011 28 10000 4.68 109 14:45 21.01.2021
3484 Clouds 22 1011 27 10000 5.63 114 14:23 21.01.2021
3485 Clouds 22 1011 27 10000 5.63 114 13:43 21.01.2021
3486 Clouds 23 1012 25 10000 5.46 117 13:23 21.01.2021
3487 Clouds 23 1012 25 10000 5.46 117 13:23 21.01.2021
3488 Clouds 23 1012 25 10000 5.46 117 12:43 21.01.2021
3489 Clouds 23 1013 26 10000 5.05 121 12:24 21.01.2021
3490 Clouds 23 1013 26 10000 5.05 121 11:51 21.01.2021
3491 Clouds 22 1013 27 10000 4.45 120 11:30 21.01.2021
3492 Clouds 22 1013 27 10000 4.47 120 10:52 21.01.2021
3493 Clouds 22 1013 27 10000 4.47 120 10:33 21.01.2021
3494 Clouds 21 1015 29 10000 4.09 119 09:47 21.01.2021
3495 Clouds 19 1016 32 10000 3.81 122 09:26 21.01.2021
3496 Clouds 19 1016 32 10000 3.81 122 08:55 21.01.2021
3497 Clouds 18 1018 35 10000 3.27 124 08:27 21.01.2021
3498 Clouds 18 1018 35 10000 3.27 124 07:43 21.01.2021
3499 Clouds 12 1028 54 10000 2.06 90 07:20 21.01.2021
3500 Clouds 9 1027 66 10000 2.06 70 05:50 21.01.2021
3501 Clouds 9 1027 66 10000 3.6 80 04:28 21.01.2021
3502 Clouds 11 1027 58 10000 5.14 60 01:25 21.01.2021
3503 Clouds 12 1017 49 10000 1.18 123 00:40 21.01.2021
3504 Clouds 12 1017 49 10000 1.3 139 23:39 20.01.2021
3505 Clouds 13 1017 49 10000 1.16 152 23:21 20.01.2021
3506 Clouds 13 1017 49 10000 1.16 152 22:48 20.01.2021
3507 Clouds 13 1017 48 10000 0.95 140 22:28 20.01.2021
3508 Clouds 13 1017 48 10000 0.95 140 22:28 20.01.2021
3509 Clouds 13 1017 48 10000 0.95 140 21:43 20.01.2021
3510 Clouds 14 1017 47 10000 1.45 120 21:22 20.01.2021
3511 Clouds 14 1017 47 10000 1.45 120 20:50 20.01.2021
3512 Clouds 15 1017 44 10000 1.93 108 20:19 20.01.2021
3513 Clouds 15 1017 44 10000 1.93 108 19:46 20.01.2021
3514 Clouds 15 1016 42 10000 2.28 101 19:27 20.01.2021
3515 Clouds 15 1016 42 10000 2.28 101 18:42 20.01.2021
3516 Clouds 15 1015 39 10000 2.73 101 18:19 20.01.2021
3517 Clouds 15 1015 39 10000 2.73 101 17:42 20.01.2021
3518 Clouds 17 1014 36 10000 3.2 107 17:23 20.01.2021
3519 Clouds 17 1014 36 10000 3.2 107 16:44 20.01.2021
3520 Clouds 19 1013 31 10000 4.74 110 15:55 20.01.2021
3521 Clouds 19 1013 31 10000 4.75 109 15:36 20.01.2021
3522 Clear 21 1011 27 10000 4.88 118 14:51 20.01.2021
3523 Clear 23 1011 26 10000 4.8 121 14:28 20.01.2021
3524 Clear 23 1011 26 10000 4.8 121 13:59 20.01.2021
3525 Clear 23 1011 26 10000 4.8 121 13:36 20.01.2021
3526 Clouds 23 1012 26 10000 4.36 128 12:48 20.01.2021
3527 Clouds 23 1013 26 10000 3.94 142 12:21 20.01.2021
3528 Clouds 23 1013 26 10000 3.94 142 11:39 20.01.2021
3529 Clouds 22 1014 28 10000 3.71 149 11:18 20.01.2021
3530 Clouds 22 1014 28 10000 3.71 149 10:43 20.01.2021
3531 Clouds 20 1015 32 10000 3.39 145 10:18 20.01.2021
3532 Clouds 20 1015 32 10000 3.39 145 09:31 20.01.2021
3533 Clouds 19 1016 38 10000 3.53 136 08:59 20.01.2021
3534 Clouds 19 1016 38 10000 3.53 136 08:34 20.01.2021
3535 Clouds 17 1017 43 10000 3.13 131 07:59 20.01.2021
3536 Clouds 17 1017 43 10000 3.13 131 07:37 20.01.2021
3537 Clouds 15 1018 48 10000 2.34 126 06:56 20.01.2021
3538 Clouds 11 1018 53 10000 0.68 108 03:30 20.01.2021
3539 Clouds 11 1016 50 10000 1.03 143 01:50 20.01.2021
3540 Clouds 13 1026 62 10000 3.09 90 00:47 20.01.2021
3541 Clouds 12 1017 49 10000 0.63 131 23:50 19.01.2021
3542 Clear 12 1017 49 10000 0.54 95 23:27 19.01.2021
3543 Clear 12 1017 49 10000 0.54 95 22:57 19.01.2021
3544 Clear 12 1017 49 10000 0.54 95 22:37 19.01.2021
3545 Clear 13 1017 50 10000 0.62 66 22:19 19.01.2021
3546 Clear 13 1017 50 10000 0.62 66 21:51 19.01.2021
3547 Clear 13 1017 52 10000 1.41 88 21:27 19.01.2021
3548 Clear 13 1017 52 10000 1.41 88 20:47 19.01.2021
3549 Clear 14 1016 51 10000 2.04 101 20:24 19.01.2021
3550 Clear 14 1016 51 10000 2.04 101 19:55 19.01.2021
3551 Clear 14 1016 51 10000 2.04 101 19:30 19.01.2021
3552 Clear 14 1016 50 10000 2.43 96 18:49 19.01.2021
3553 Clear 14 1016 50 10000 2.43 96 18:30 19.01.2021
3554 Clear 15 1015 47 10000 2.85 94 17:47 19.01.2021
3555 Clear 16 1014 43 10000 2.99 96 17:29 19.01.2021
3556 Clear 16 1014 43 10000 2.99 96 16:50 19.01.2021
3557 Clear 16 1014 43 10000 2.99 96 16:31 19.01.2021
3558 Clear 19 1012 35 10000 5.14 104 15:59 19.01.2021
3559 Clear 19 1012 35 10000 5.14 104 15:40 19.01.2021
3560 Clear 22 1011 25 10000 5.58 113 15:19 19.01.2021
3561 Clear 22 1011 25 10000 5.58 113 14:41 19.01.2021
3562 Clear 23 1011 21 10000 4.6 118 14:22 19.01.2021
3563 Clear 23 1011 21 10000 4.6 118 13:41 19.01.2021
3564 Clear 23 1011 21 10000 3.7 123 13:21 19.01.2021
3565 Clear 23 1011 21 10000 3.7 123 12:48 19.01.2021
3566 Clouds 22 1013 22 10000 2.97 132 12:29 19.01.2021
3567 Clouds 22 1013 22 10000 2.97 132 11:43 19.01.2021
3568 Clouds 21 1014 26 10000 2.71 136 11:24 19.01.2021
3569 Clouds 21 1014 26 10000 2.71 136 10:51 19.01.2021
3570 Clouds 21 1014 26 10000 2.71 136 10:31 19.01.2021
3571 Clouds 20 1015 30 10000 2.49 134 09:53 19.01.2021
3572 Clouds 16 1028 55 10000 5.14 90 09:30 19.01.2021
3573 Clouds 16 1028 55 10000 5.14 90 08:56 19.01.2021
3574 Clouds 16 1028 55 10000 5.14 90 08:24 19.01.2021
3575 Clouds 16 1018 39 10000 2.52 119 07:47 19.01.2021
3576 Clouds 14 1019 45 10000 1.66 118 06:53 19.01.2021
3577 Clouds 11 1025 66 10000 2.57 60 02:32 19.01.2021
3578 Clouds 11 1026 58 10000 5.14 60 00:55 19.01.2021
3579 Clouds 11 1017 51 10000 0.8 103 23:58 18.01.2021
3580 Clouds 11 1017 51 10000 0.8 103 23:32 18.01.2021
3581 Clouds 11 1017 51 10000 1.1 85 22:51 18.01.2021
3582 Clouds 12 1017 50 10000 1.44 92 22:26 18.01.2021
3583 Clouds 12 1017 50 10000 1.44 92 21:55 18.01.2021
3584 Clouds 12 1017 50 10000 1.44 92 21:37 18.01.2021
3585 Clouds 12 1017 50 10000 1.35 84 21:19 18.01.2021
3586 Clouds 12 1017 50 10000 1.35 84 20:39 18.01.2021
3587 Clouds 13 1017 49 10000 1.84 80 20:20 18.01.2021
3588 Clouds 13 1017 49 10000 1.84 80 19:48 18.01.2021
3589 Clouds 13 1016 47 10000 2.59 83 19:29 18.01.2021
3590 Clouds 13 1016 47 10000 2.59 83 18:44 18.01.2021
3591 Clouds 14 1015 46 10000 3.13 89 18:22 18.01.2021
3592 Clouds 14 1015 46 10000 3.13 89 17:41 18.01.2021
3593 Clouds 15 1014 42 10000 3.75 98 17:19 18.01.2021
3594 Clouds 15 1014 42 10000 3.74 98 16:46 18.01.2021
3595 Clouds 18 1012 34 10000 5.02 102 16:20 18.01.2021
3596 Clouds 18 1012 34 10000 5.02 102 15:42 18.01.2021
3597 Clouds 21 1011 27 10000 6.09 102 15:20 18.01.2021
3598 Clouds 21 1011 27 10000 6.09 102 14:43 18.01.2021
3599 Clouds 22 1011 22 10000 5.39 113 14:25 18.01.2021
3600 Clouds 22 1011 22 10000 5.39 113 13:46 18.01.2021
3601 Clouds 23 1011 20 10000 3.52 129 13:26 18.01.2021
3602 Clouds 23 1011 20 10000 3.52 129 12:52 18.01.2021
3603 Clouds 23 1012 21 10000 2.66 137 12:20 18.01.2021
3604 Clouds 23 1012 21 10000 2.66 137 12:20 18.01.2021
3605 Clouds 23 1012 21 10000 2.66 137 11:56 18.01.2021
3606 Clouds 23 1012 21 10000 2.66 137 11:37 18.01.2021
3607 Clouds 22 1013 22 10000 2.42 139 11:18 18.01.2021
3608 Clouds 22 1013 22 10000 2.42 139 10:39 18.01.2021
3609 Clouds 20 1014 25 10000 1.96 142 09:43 18.01.2021
3610 Clouds 18 1016 29 10000 2.05 151 09:24 18.01.2021
3611 Clouds 18 1016 29 10000 2.03 151 08:50 18.01.2021
3612 Clouds 16 1017 36 10000 2.09 155 07:56 18.01.2021
3613 Clouds 12 1027 58 10000 2.06 310 07:27 18.01.2021
3614 Clouds 10 1017 59 10000 0.87 100 04:59 18.01.2021
3615 Clouds 10 1026 66 10000 3.09 70 04:33 18.01.2021
3616 Clouds 10 1026 66 10000 3.09 70 03:59 18.01.2021
3617 Clouds 10 1026 66 10000 3.09 70 03:39 18.01.2021
3618 Clouds 10 1026 66 10000 3.09 70 03:19 18.01.2021
3619 Clouds 11 1016 57 10000 0.86 120 02:37 18.01.2021
3620 Clouds 12 1025 54 10000 6.69 80 00:46 18.01.2021
3621 Clouds 12 1025 54 10000 6.69 80 00:27 18.01.2021
3622 Clouds 12 1015 56 10000 0.33 255 23:46 17.01.2021
3623 Clouds 12 1016 56 10000 0.62 184 23:20 17.01.2021
3624 Clouds 12 1016 56 10000 0.62 184 22:39 17.01.2021
3625 Clouds 12 1016 56 10000 0.62 184 22:39 17.01.2021
3626 Clouds 13 1016 56 10000 0.89 130 22:19 17.01.2021
3627 Clouds 13 1016 56 10000 0.89 130 21:39 17.01.2021
3628 Clouds 13 1016 55 10000 1.73 97 21:21 17.01.2021
3629 Clouds 13 1016 55 10000 1.73 97 20:48 17.01.2021
3630 Clouds 14 1016 55 10000 2.27 97 20:27 17.01.2021
3631 Clouds 14 1016 55 10000 2.27 97 19:42 17.01.2021
3632 Clouds 14 1015 53 10000 2.1 85 19:22 17.01.2021
3633 Clouds 14 1015 48 10000 2.35 87 18:41 17.01.2021
3634 Clouds 15 1014 45 10000 2.55 96 18:21 17.01.2021
3635 Clouds 15 1014 45 10000 2.55 96 17:47 17.01.2021
3636 Clouds 17 1012 42 10000 3.82 106 17:26 17.01.2021
3637 Clouds 17 1012 42 10000 3.82 106 16:44 17.01.2021
3638 Clouds 19 1011 38 10000 3.16 110 16:20 17.01.2021
3639 Clouds 19 1011 38 10000 3.16 110 15:43 17.01.2021
3640 Clouds 21 1010 34 10000 0.61 127 15:24 17.01.2021
3641 Clouds 21 1010 34 10000 0.61 127 14:49 17.01.2021
3642 Clouds 21 1010 32 10000 1.01 227 14:26 17.01.2021
3643 Clouds 21 1010 32 10000 1.01 227 13:45 17.01.2021
3644 Clouds 22 1009 32 10000 1.21 215 13:27 17.01.2021
3645 Clouds 22 1009 30 10000 1.05 205 12:53 17.01.2021
3646 Clouds 22 1009 30 10000 1.05 205 12:31 17.01.2021
3647 Clouds 21 1010 32 10000 1.17 197 11:56 17.01.2021
3648 Clouds 21 1011 31 10000 1.66 191 11:23 17.01.2021
3649 Clouds 21 1011 31 10000 1.66 191 10:48 17.01.2021
3650 Clouds 21 1013 33 10000 1.72 194 10:21 17.01.2021
3651 Clouds 18 1026 34 10000 2.06 90 09:26 17.01.2021
3652 Clouds 18 1026 34 10000 2.06 90 08:44 17.01.2021
3653 Clouds 13 1026 54 10000 2.06 310 06:52 17.01.2021
3654 Clouds 12 1016 54 10000 0.17 143 04:28 17.01.2021
3655 Clouds 11 1024 62 10000 0.36 309 02:46 17.01.2021
3656 Clear 12 1014 57 10000 0.47 152 00:48 17.01.2021
3657 Clear 12 1014 56 10000 0.7 232 00:18 17.01.2021
3658 Clear 12 1014 56 10000 0.7 232 23:49 16.01.2021
3659 Clear 13 1014 55 10000 0.53 204 23:19 16.01.2021
3660 Clear 13 1014 55 10000 0.53 204 22:36 16.01.2021
3661 Clear 13 1015 54 10000 1.1 106 21:58 16.01.2021
3662 Clear 14 1015 53 10000 2 104 21:25 16.01.2021
3663 Clear 14 1015 53 10000 2 104 20:59 16.01.2021
3664 Clear 14 1015 53 10000 2 104 20:41 16.01.2021
3665 Clear 14 1015 53 10000 2.1 92 20:19 16.01.2021
3666 Clear 14 1015 53 10000 2.11 93 19:42 16.01.2021
3667 Clouds 14 1015 53 10000 2.22 66 19:24 16.01.2021
3668 Clouds 14 1014 51 10000 2.18 65 18:42 16.01.2021
3669 Clouds 15 1013 50 10000 2.56 86 18:24 16.01.2021
3670 Clouds 15 1013 50 10000 2.56 86 17:46 16.01.2021
3671 Clouds 23 1023 31 10000 4.12 130 17:28 16.01.2021
3672 Clouds 23 1023 31 10000 4.12 130 16:45 16.01.2021
3673 Clouds 23 1023 31 10000 4.12 130 16:26 16.01.2021
3674 Clouds 23 1023 31 10000 4.12 130 16:26 16.01.2021
3675 Clouds 19 1010 40 10000 3.49 132 15:48 16.01.2021
3676 Clouds 20 1009 35 10000 3.18 154 15:20 16.01.2021
3677 Clouds 20 1009 35 10000 2.28 158 14:21 16.01.2021
3678 Clouds 20 1009 35 10000 2.28 158 13:48 16.01.2021
3679 Clouds 20 1009 35 10000 2.21 162 13:21 16.01.2021
3680 Clouds 20 1010 37 10000 1.53 137 12:39 16.01.2021
3681 Clouds 20 1011 35 10000 1.66 161 12:20 16.01.2021
3682 Clouds 20 1011 35 10000 1.66 161 11:48 16.01.2021
3683 Clouds 21 1012 35 10000 1.95 163 11:24 16.01.2021
3684 Clouds 21 1012 35 10000 1.95 163 10:46 16.01.2021
3685 Clouds 20 1013 38 10000 2.43 143 10:21 16.01.2021
3686 Clouds 20 1013 38 10000 2.43 143 09:33 16.01.2021
3687 Clouds 15 1026 44 10000 3.09 100 08:35 16.01.2021
3688 Clouds 15 1026 44 10000 3.09 100 07:32 16.01.2021
3689 Clouds 12 1026 58 10000 2.06 60 06:43 16.01.2021
3690 Clouds 12 1025 58 10000 1.03 350 04:39 16.01.2021
3691 Clouds 12 1015 53 10000 0.75 140 02:56 16.01.2021
3692 Clear 12 1014 53 10000 0.54 146 00:50 16.01.2021
3693 Clear 13 1014 52 10000 0.98 122 00:28 16.01.2021
3694 Clear 13 1014 52 10000 0.98 122 23:55 15.01.2021
3695 Clear 13 1014 50 10000 1.28 125 22:56 15.01.2021
3696 Clear 14 1014 49 10000 1.38 126 22:24 15.01.2021
3697 Clear 14 1014 49 10000 1.38 126 21:46 15.01.2021
3698 Clear 14 1015 48 10000 1.67 114 20:59 15.01.2021
3699 Clear 14 1015 48 10000 1.67 114 20:40 15.01.2021
3700 Clear 14 1015 47 10000 2 91 20:21 15.01.2021
3701 Clear 14 1015 47 10000 2 91 19:40 15.01.2021
3702 Clouds 15 1014 45 10000 2.48 78 19:22 15.01.2021
3703 Clouds 15 1014 46 10000 2.46 78 18:43 15.01.2021
3704 Clouds 16 1013 43 10000 2.68 93 18:19 15.01.2021
3705 Clouds 16 1013 43 10000 2.68 93 17:51 15.01.2021
3706 Clouds 18 1012 39 10000 1.98 126 17:25 15.01.2021
3707 Clouds 18 1012 39 10000 1.98 126 16:54 15.01.2021
3708 Clouds 20 1011 36 10000 0.45 72 16:25 15.01.2021
3709 Clouds 20 1011 36 10000 0.45 72 15:43 15.01.2021
3710 Clouds 21 1010 34 10000 0.4 73 15:23 15.01.2021
3711 Clouds 21 1010 34 10000 0.4 73 14:51 15.01.2021
3712 Clouds 21 1010 34 10000 0.32 148 14:28 15.01.2021
3713 Clouds 21 1010 34 10000 0.32 148 13:46 15.01.2021
3714 Clouds 21 1010 34 10000 0.81 167 13:24 15.01.2021
3715 Clouds 21 1010 35 10000 0.36 182 12:59 15.01.2021
3716 Clouds 21 1010 35 10000 0.36 182 12:37 15.01.2021
3717 Clouds 21 1011 34 10000 1.03 180 12:18 15.01.2021
3718 Clouds 21 1011 34 10000 1.03 180 11:42 15.01.2021
3719 Clouds 21 1012 35 10000 1.51 177 10:58 15.01.2021
3720 Clouds 21 1012 35 10000 1.51 177 10:39 15.01.2021
3721 Clouds 20 1013 38 10000 1.47 164 10:19 15.01.2021
3722 Clouds 20 1013 38 10000 1.47 164 09:47 15.01.2021
3723 Clouds 18 1015 42 10000 1.46 145 09:27 15.01.2021
3724 Clouds 17 1027 42 10000 1.54 110 08:27 15.01.2021
3725 Clouds 17 1027 42 10000 1.54 110 07:42 15.01.2021
3726 Clouds 17 1027 42 10000 1.54 110 07:21 15.01.2021
3727 Clouds 12 1026 62 10000 1.54 350 05:56 15.01.2021
3728 Clouds 12 1025 58 10000 2.06 320 02:26 15.01.2021
3729 Clouds 12 1014 54 10000 0.54 192 00:32 15.01.2021
3730 Clouds 13 1015 51 10000 0.64 98 23:29 14.01.2021
3731 Clouds 13 1015 51 10000 0.64 98 22:50 14.01.2021
3732 Clouds 14 1015 50 10000 1.3 113 22:27 14.01.2021
3733 Clouds 14 1015 50 10000 1.3 113 21:56 14.01.2021
3734 Clouds 14 1015 50 10000 1.3 113 21:38 14.01.2021
3735 Clouds 14 1015 49 10000 1.42 111 21:19 14.01.2021
3736 Clouds 14 1015 49 10000 1.42 111 20:42 14.01.2021
3737 Clouds 15 1015 47 10000 1.5 118 19:57 14.01.2021
3738 Clouds 15 1015 47 10000 1.5 118 19:36 14.01.2021
3739 Clouds 15 1014 46 10000 1.74 85 18:58 14.01.2021
3740 Clouds 15 1014 46 10000 1.74 85 18:39 14.01.2021
3741 Clouds 16 1013 41 10000 2.01 78 17:57 14.01.2021
3742 Clouds 16 1013 41 10000 2.01 78 17:30 14.01.2021
3743 Clouds 18 1012 35 10000 2.72 107 16:54 14.01.2021
3744 Clouds 18 1012 35 10000 2.72 107 16:31 14.01.2021
3745 Clouds 21 1011 28 10000 3.36 143 15:54 14.01.2021
3746 Clouds 21 1011 28 10000 3.36 143 15:30 14.01.2021
3747 Clear 22 1010 24 10000 2.71 165 14:45 14.01.2021
3748 Clear 23 1009 24 10000 2.26 169 14:24 14.01.2021
3749 Clear 23 1009 24 10000 2.26 169 13:56 14.01.2021
3750 Clouds 23 1010 25 10000 2.15 176 13:24 14.01.2021
3751 Clouds 23 1010 25 10000 2.15 176 12:57 14.01.2021
3752 Clouds 22 1011 28 10000 2.19 184 12:22 14.01.2021
3753 Clouds 22 1011 27 10000 2.19 183 11:58 14.01.2021
3754 Clouds 22 1011 27 10000 2.19 183 11:38 14.01.2021
3755 Clouds 19 1026 37 10000 3.09 170 11:18 14.01.2021
3756 Clouds 19 1026 37 10000 3.09 170 10:40 14.01.2021
3757 Clouds 19 1026 37 10000 3.09 170 10:18 14.01.2021
3758 Clouds 20 1014 34 10000 2.67 160 09:42 14.01.2021
3759 Clouds 19 1015 37 10000 2.2 143 09:20 14.01.2021
3760 Clouds 19 1015 37 10000 2.2 143 08:33 14.01.2021
3761 Clouds 17 1017 40 10000 2.26 134 07:57 14.01.2021
3762 Clouds 12 1027 66 10000 2.06 190 07:31 14.01.2021
3763 Clouds 12 1027 66 10000 2.06 190 06:37 14.01.2021
3764 Clouds 11 1017 60 10000 0.41 74 04:57 14.01.2021
3765 Clouds 12 1016 59 10000 0.63 190 00:27 14.01.2021
3766 Clouds 12 1016 59 10000 0.63 190 23:31 13.01.2021
3767 Clouds 12 1016 58 10000 0.77 206 22:49 13.01.2021
3768 Clouds 13 1016 56 10000 0.59 134 22:23 13.01.2021
3769 Clouds 13 1016 56 10000 0.59 134 21:43 13.01.2021
3770 Clouds 13 1017 56 10000 1.31 91 21:22 13.01.2021
3771 Clouds 13 1017 56 10000 1.31 91 20:51 13.01.2021
3772 Clouds 14 1017 55 10000 1.48 103 20:26 13.01.2021
3773 Clouds 14 1017 55 10000 1.48 103 19:52 13.01.2021
3774 Clouds 14 1016 54 10000 1.53 111 19:27 13.01.2021
3775 Clouds 14 1016 54 10000 1.53 111 18:52 13.01.2021
3776 Clouds 14 1016 57 10000 1.26 69 18:33 13.01.2021
3777 Clouds 15 1015 54 10000 2.01 84 17:51 13.01.2021
3778 Clouds 16 1014 48 10000 2.88 122 17:18 13.01.2021
3779 Clouds 16 1014 48 10000 2.88 122 16:46 13.01.2021
3780 Clouds 19 1013 38 10000 2.85 154 16:21 13.01.2021
3781 Clouds 19 1013 38 10000 2.85 154 15:49 13.01.2021
3782 Clouds 19 1013 38 10000 2.85 154 15:31 13.01.2021
3783 Clouds 21 1012 33 10000 1.86 164 14:33 13.01.2021
3784 Clouds 21 1012 33 10000 1.6 161 13:49 13.01.2021
3785 Clouds 21 1012 35 10000 2.05 161 13:25 13.01.2021
3786 Clouds 21 1012 35 10000 2.48 163 12:46 13.01.2021
3787 Clouds 20 1013 38 10000 2.79 165 12:27 13.01.2021
3788 Clouds 20 1013 38 10000 2.79 165 11:53 13.01.2021
3789 Clouds 20 1013 38 10000 2.79 165 11:34 13.01.2021
3790 Clouds 20 1014 42 10000 3.03 160 10:50 13.01.2021
3791 Clouds 20 1014 42 10000 3.03 160 10:30 13.01.2021
3792 Clear 19 1015 46 10000 3.34 157 09:51 13.01.2021
3793 Clear 19 1015 46 10000 3.34 157 09:30 13.01.2021
3794 Clear 17 1016 50 10000 3.16 156 08:49 13.01.2021
3795 Clear 16 1017 55 10000 2.65 157 08:25 13.01.2021
3796 Clouds 12 1017 76 10000 1.03 70 07:32 13.01.2021
3797 Clouds 12 1019 76 10000 1.03 70 06:51 13.01.2021
3798 Clouds 11 1018 76 10000 1.03 280 04:20 13.01.2021
3799 Clouds 11 1018 76 10000 1.03 330 03:44 13.01.2021
3800 Clouds 11 1017 76 10000 1.03 330 03:24 13.01.2021
3801 Clouds 12 1017 71 10000 3.09 60 01:19 13.01.2021
3802 Clouds 12 1017 80 10000 1.2 144 23:54 12.01.2021
3803 Clouds 12 1017 78 10000 1.33 136 23:22 12.01.2021
3804 Clouds 12 1017 78 10000 1.33 136 22:45 12.01.2021
3805 Clouds 13 1018 75 10000 1.31 107 22:23 12.01.2021
3806 Clouds 13 1018 75 10000 1.31 107 21:49 12.01.2021
3807 Rain 13 1018 76 10000 1.63 107 21:28 12.01.2021
3808 Rain 13 1018 76 10000 1.63 107 20:49 12.01.2021
3809 Rain 13 1018 77 10000 2.24 111 20:27 12.01.2021
3810 Rain 13 1018 77 10000 2.24 111 19:48 12.01.2021
3811 Rain 14 1017 73 10000 2.04 113 19:27 12.01.2021
3812 Rain 14 1017 67 10000 2.32 150 18:44 12.01.2021
3813 Clouds 15 1016 62 10000 1.98 119 18:23 12.01.2021
3814 Clouds 15 1016 62 10000 1.98 119 17:40 12.01.2021
3815 Clouds 16 1014 58 10000 2.62 95 17:22 12.01.2021
3816 Clouds 16 1014 58 10000 2.62 95 16:43 12.01.2021
3817 Rain 17 1013 52 10000 3.16 112 16:23 12.01.2021
3818 Rain 17 1013 52 10000 3.16 112 15:40 12.01.2021
3819 Clouds 18 1013 46 10000 4.38 129 15:21 12.01.2021
3820 Clouds 18 1013 46 10000 4.38 129 14:42 12.01.2021
3821 Clouds 19 1012 43 10000 4.57 151 14:21 12.01.2021
3822 Clouds 19 1012 43 10000 4.57 151 13:52 12.01.2021
3823 Clouds 20 1012 40 10000 3.77 162 12:54 12.01.2021
3824 Clouds 20 1013 39 10000 3.03 165 12:22 12.01.2021
3825 Clouds 20 1013 39 10000 3.03 165 11:41 12.01.2021
3826 Clouds 19 1014 43 10000 2.79 159 10:52 12.01.2021
3827 Clouds 18 1015 49 10000 3.1 152 10:25 12.01.2021
3828 Clouds 18 1015 49 10000 3.1 152 09:58 12.01.2021
3829 Clouds 17 1017 53 10000 3.23 149 09:28 12.01.2021
3830 Clouds 17 1017 53 10000 3.23 149 08:54 12.01.2021
3831 Clear 15 1018 58 10000 2.92 141 08:26 12.01.2021
3832 Clear 15 1018 58 10000 2.92 141 07:37 12.01.2021
3833 Clouds 14 1018 62 10000 2.54 138 06:39 12.01.2021
3834 Clouds 11 1026 76 10000 3.09 110 05:34 12.01.2021
3835 Rain 12 1025 76 10000 3.09 110 03:27 12.01.2021
3836 Clouds 13 1025 71 10000 3.6 100 02:21 12.01.2021
3837 Clouds 13 1025 71 10000 3.6 60 01:31 12.01.2021
3838 Clouds 13 1025 71 10000 3.6 60 01:31 12.01.2021
3839 Clouds 11 1017 78 10000 1.34 142 23:57 11.01.2021
3840 Clouds 11 1017 78 10000 1.34 142 23:36 11.01.2021
3841 Clouds 12 1017 73 10000 1.23 155 23:18 11.01.2021
3842 Clouds 12 1017 73 10000 1.23 155 22:44 11.01.2021
3843 Clouds 13 1017 70 10000 1.81 110 22:26 11.01.2021
3844 Clouds 13 1017 70 10000 1.81 110 21:42 11.01.2021
3845 Rain 13 1017 69 10000 2.32 116 21:23 11.01.2021
3846 Clouds 12 1017 74 10000 1.71 143 20:47 11.01.2021
3847 Clouds 13 1016 69 10000 2.05 146 20:28 11.01.2021
3848 Clouds 13 1016 69 10000 2.05 146 19:57 11.01.2021
3849 Clouds 13 1016 69 10000 2.05 146 19:33 11.01.2021
3850 Clouds 14 1016 69 10000 1.53 118 18:46 11.01.2021
3851 Clouds 14 1015 67 10000 2.19 82 18:27 11.01.2021
3852 Clouds 14 1015 67 10000 2.19 82 17:56 11.01.2021
3853 Clouds 14 1015 67 10000 2.19 82 17:38 11.01.2021
3854 Rain 15 1014 66 10000 2.19 54 17:19 11.01.2021
3855 Rain 15 1014 66 10000 2.19 54 16:40 11.01.2021
3856 Rain 16 1013 59 10000 0.37 74 16:21 11.01.2021
3857 Rain 16 1013 59 10000 0.37 74 15:49 11.01.2021
3858 Clouds 18 1012 48 10000 2.09 193 15:27 11.01.2021
3859 Clouds 18 1012 48 10000 2.09 193 14:40 11.01.2021
3860 Clouds 19 1012 43 10000 3.04 154 13:58 11.01.2021
3861 Clouds 19 1012 43 10000 3.04 154 13:38 11.01.2021
3862 Clouds 18 1012 44 10000 3.79 148 13:18 11.01.2021
3863 Clouds 19 1011 42 10000 3.46 150 12:36 11.01.2021
3864 Clouds 19 1012 44 10000 3.74 150 11:57 11.01.2021
3865 Clouds 19 1012 44 10000 3.74 150 11:36 11.01.2021
3866 Clouds 19 1013 45 10000 3.54 151 10:53 11.01.2021
3867 Clouds 18 1014 49 10000 3.19 145 10:26 11.01.2021
3868 Clouds 18 1014 49 10000 3.19 145 09:44 11.01.2021
3869 Clouds 17 1015 57 10000 2.74 132 09:22 11.01.2021
3870 Clouds 17 1015 56 10000 2.74 131 08:46 11.01.2021
3871 Clouds 14 1016 68 10000 1.98 109 08:19 11.01.2021
3872 Clouds 12 1016 75 10000 1.06 89 07:29 11.01.2021
3873 Clouds 12 1016 75 10000 1.06 89 06:59 11.01.2021
3874 Clouds 12 1016 73 10000 1.18 98 06:23 11.01.2021
3875 Clouds 12 1015 81 10000 1.06 126 01:46 11.01.2021
3876 Rain 12 1015 81 10000 1.35 124 00:38 11.01.2021
3877 Clouds 11 1015 77 10000 0.68 132 23:36 10.01.2021
3878 Clouds 12 1015 76 10000 1.33 170 22:49 10.01.2021
3879 Clouds 12 1015 74 10000 1.48 154 22:27 10.01.2021
3880 Clouds 12 1015 74 10000 1.48 154 21:46 10.01.2021
3881 Rain 13 1016 71 10000 0.99 135 21:21 10.01.2021
3882 Rain 13 1016 71 10000 0.99 135 20:57 10.01.2021
3883 Rain 13 1016 71 10000 0.99 135 20:33 10.01.2021
3884 Clouds 13 1016 70 10000 0.96 121 19:58 10.01.2021
3885 Clouds 13 1016 70 10000 0.96 121 19:36 10.01.2021
3886 Rain 14 1015 65 10000 2.5 119 19:18 10.01.2021
3887 Clouds 15 1015 61 10000 1.97 87 18:41 10.01.2021
3888 Clouds 15 1014 61 10000 1.93 85 18:19 10.01.2021
3889 Clouds 15 1013 59 10000 1.51 103 17:22 10.01.2021
3890 Clouds 15 1013 59 10000 1.51 103 16:37 10.01.2021
3891 Clouds 16 1011 53 10000 1.7 112 16:18 10.01.2021
3892 Clouds 17 1011 50 10000 2.8 128 15:25 10.01.2021
3893 Clouds 17 1011 50 10000 2.8 128 14:52 10.01.2021
3894 Clouds 17 1011 50 10000 2.8 128 14:33 10.01.2021
3895 Clouds 18 1010 46 10000 3.28 165 13:55 10.01.2021
3896 Clouds 21 1022 37 10000 4.12 160 13:37 10.01.2021
3897 Clouds 21 1022 37 10000 4.12 160 13:18 10.01.2021
3898 Clouds 21 1022 37 10000 4.12 160 12:50 10.01.2021
3899 Clouds 21 1022 37 10000 4.12 160 12:31 10.01.2021
3900 Clouds 21 1023 40 10000 3.6 180 11:44 10.01.2021
3901 Clouds 21 1023 40 10000 3.6 180 11:19 10.01.2021
3902 Clouds 20 1024 42 10000 4.12 170 10:42 10.01.2021
3903 Clouds 18 1025 48 10000 3.6 180 10:21 10.01.2021
3904 Clouds 19 1014 41 10000 1.9 176 09:28 10.01.2021
3905 Clouds 16 1015 47 10000 1.52 167 08:22 10.01.2021
3906 Clouds 16 1015 47 10000 1.52 167 07:33 10.01.2021
3907 Clouds 13 1016 58 10000 0.37 120 06:20 10.01.2021
3908 Clouds 13 1016 58 10000 0.37 120 05:38 10.01.2021
3909 Clouds 11 1015 66 10000 0.25 104 03:55 10.01.2021
3910 Clouds 11 1014 66 10000 0.92 79 01:29 10.01.2021
3911 Clouds 12 1014 64 10000 0.53 162 23:55 09.01.2021
3912 Clouds 12 1014 64 10000 0.53 162 23:36 09.01.2021
3913 Clouds 12 1014 63 10000 0.64 181 22:49 09.01.2021
3914 Clouds 13 1015 63 10000 0.92 163 22:19 09.01.2021
3915 Clouds 13 1015 63 10000 0.92 163 21:57 09.01.2021
3916 Clouds 13 1015 63 10000 0.92 163 21:39 09.01.2021
3917 Clouds 13 1015 62 10000 0.89 145 21:19 09.01.2021
3918 Clouds 13 1015 62 10000 0.89 145 20:44 09.01.2021
3919 Clouds 14 1015 61 10000 1.3 141 19:45 09.01.2021
3920 Clouds 14 1014 62 10000 0.98 165 19:24 09.01.2021
3921 Clouds 14 1014 62 10000 0.98 165 18:59 09.01.2021
3922 Clouds 15 1014 51 10000 0.7 86 18:35 09.01.2021
3923 Clouds 15 1013 51 10000 0.79 104 17:50 09.01.2021
3924 Clouds 15 1013 51 10000 0.79 104 17:32 09.01.2021
3925 Clouds 16 1012 46 10000 1.67 99 16:36 09.01.2021
3926 Clouds 18 1011 40 10000 1.58 139 15:53 09.01.2021
3927 Clouds 18 1011 40 10000 1.58 139 15:34 09.01.2021
3928 Clouds 19 1010 37 10000 2.52 235 14:42 09.01.2021
3929 Clouds 21 1010 32 10000 2.91 243 14:21 09.01.2021
3930 Clouds 21 1010 32 10000 2.91 243 13:50 09.01.2021
3931 Clouds 21 1010 32 10000 2.91 243 13:31 09.01.2021
3932 Clouds 21 1010 30 10000 2.16 223 12:59 09.01.2021
3933 Clouds 21 1011 30 10000 2.35 202 12:27 09.01.2021
3934 Clouds 21 1011 30 10000 2.35 202 11:57 09.01.2021
3935 Clouds 21 1011 30 10000 2.35 202 11:36 09.01.2021
3936 Clouds 21 1012 32 10000 2.44 192 10:56 09.01.2021
3937 Clouds 21 1012 32 10000 2.44 192 10:37 09.01.2021
3938 Clouds 19 1013 35 10000 2.14 180 09:59 09.01.2021
3939 Clouds 19 1013 35 10000 2.14 180 09:40 09.01.2021
3940 Clouds 18 1015 38 10000 1.99 168 09:18 09.01.2021
3941 Clouds 16 1016 42 10000 2.1 162 07:46 09.01.2021
3942 Clouds 15 1016 43 10000 1.69 159 06:41 09.01.2021
3943 Clouds 13 1016 50 10000 0.84 118 06:22 09.01.2021
3944 Clear 10 1015 59 10000 0.61 122 03:47 09.01.2021
3945 Clear 11 1014 59 10000 1.29 156 02:39 09.01.2021
3946 Clear 11 1014 58 10000 0.51 124 02:19 09.01.2021
3947 Clouds 11 1013 57 10000 0.35 172 00:46 09.01.2021
3948 Clouds 12 1014 57 10000 1.14 196 00:22 09.01.2021
3949 Clouds 12 1014 57 10000 1.14 196 23:30 08.01.2021
3950 Clouds 12 1014 56 10000 0.76 182 22:38 08.01.2021
3951 Clouds 13 1014 54 10000 1.1 127 21:47 08.01.2021
3952 Clear 13 1014 54 10000 0.91 137 20:58 08.01.2021
3953 Clear 13 1014 54 10000 0.91 137 20:33 08.01.2021
3954 Clear 14 1014 53 10000 1.54 115 19:57 08.01.2021
3955 Clouds 14 1013 51 10000 2.4 95 19:23 08.01.2021
3956 Clouds 14 1013 50 10000 2.01 92 18:50 08.01.2021
3957 Clouds 14 1013 50 10000 2.01 92 18:30 08.01.2021
3958 Clouds 15 1012 48 10000 2.22 90 17:50 08.01.2021
3959 Clouds 16 1011 43 10000 3.18 109 17:22 08.01.2021
3960 Clouds 16 1011 43 10000 3.18 109 16:44 08.01.2021
3961 Clouds 19 1009 35 10000 4.23 133 15:44 08.01.2021
3962 Clouds 22 1008 27 10000 3.73 167 15:18 08.01.2021
3963 Clouds 22 1008 27 10000 3.73 167 14:36 08.01.2021
3964 Clouds 23 1008 25 10000 3.39 191 13:47 08.01.2021
3965 Clear 23 1008 25 10000 3.32 198 13:18 08.01.2021
3966 Clear 23 1008 25 10000 3.3 199 12:49 08.01.2021
3967 Clear 23 1009 26 10000 3.11 202 12:20 08.01.2021
3968 Clear 23 1009 26 10000 3.11 202 11:45 08.01.2021
3969 Clear 22 1010 29 10000 2.73 196 11:27 08.01.2021
3970 Clear 22 1010 29 10000 2.73 196 10:52 08.01.2021
3971 Clear 22 1010 29 10000 2.73 196 10:32 08.01.2021
3972 Clear 20 1012 32 10000 2.61 181 09:45 08.01.2021
3973 Clear 19 1013 36 10000 2.53 170 09:27 08.01.2021
3974 Clear 19 1013 36 10000 2.53 170 08:33 08.01.2021
3975 Clear 15 1015 46 10000 2.07 159 07:26 08.01.2021
3976 Clear 13 1016 53 10000 1.32 161 05:51 08.01.2021
3977 Clear 12 1014 61 10000 0.42 283 23:47 07.01.2021
3978 Clear 12 1014 60 10000 0.4 139 23:29 07.01.2021
3979 Clear 12 1014 60 10000 0.4 139 22:46 07.01.2021
3980 Clear 13 1014 59 10000 1.23 115 22:26 07.01.2021
3981 Clear 13 1014 59 10000 1.23 115 21:45 07.01.2021
3982 Clear 13 1014 58 10000 1.37 134 21:26 07.01.2021
3983 Clear 13 1014 58 10000 1.37 134 20:47 07.01.2021
3984 Clear 14 1014 57 10000 1.13 104 20:28 07.01.2021
3985 Clear 14 1014 57 10000 1.13 104 19:45 07.01.2021
3986 Clear 14 1014 56 10000 2.01 70 19:21 07.01.2021
3987 Clear 14 1013 59 10000 2.04 71 18:30 07.01.2021
3988 Clear 15 1013 57 10000 2.43 86 17:56 07.01.2021
3989 Clouds 16 1011 53 10000 2.85 102 17:28 07.01.2021
3990 Clouds 16 1011 53 10000 2.85 102 16:53 07.01.2021
3991 Clouds 19 1010 42 10000 5.06 118 16:28 07.01.2021
3992 Clouds 19 1010 42 10000 5.06 118 15:41 07.01.2021
3993 Clear 23 1009 28 10000 4.37 145 15:22 07.01.2021
3994 Clear 24 1009 24 10000 2.6 181 14:27 07.01.2021
3995 Clear 24 1009 24 10000 2.6 181 13:46 07.01.2021
3996 Clear 24 1009 25 10000 2.28 188 13:18 07.01.2021
3997 Clear 24 1009 25 10000 2.28 188 12:43 07.01.2021
3998 Clear 23 1010 27 10000 2.16 189 11:57 07.01.2021
3999 Clear 23 1010 27 10000 2.16 189 11:57 07.01.2021
4000 Clear 23 1010 27 10000 2.16 189 11:36 07.01.2021
4001 Clear 22 1011 30 10000 2.01 184 10:51 07.01.2021
4002 Clear 22 1011 30 10000 2.01 184 10:31 07.01.2021
4003 Clear 21 1013 34 10000 1.83 173 09:48 07.01.2021
4004 Clear 19 1015 39 10000 1.92 161 09:22 07.01.2021
4005 Clear 19 1015 39 10000 1.92 161 08:30 07.01.2021
4006 Clear 17 1016 45 10000 1.88 163 07:53 07.01.2021
4007 Clear 17 1016 45 10000 1.88 163 07:32 07.01.2021
4008 Clear 10 1018 74 10000 0.37 116 05:26 07.01.2021
4009 Clear 11 1017 76 10000 0.14 61 00:32 07.01.2021
4010 Clear 11 1017 73 10000 0.3 158 23:51 06.01.2021
4011 Clear 11 1017 72 10000 0.84 120 22:47 06.01.2021
4012 Clear 12 1017 70 10000 1.27 113 21:59 06.01.2021
4013 Clear 12 1017 70 10000 1.27 113 21:41 06.01.2021
4014 Clear 12 1017 68 10000 1.27 123 21:21 06.01.2021
4015 Clear 12 1017 68 10000 1.27 123 20:39 06.01.2021
4016 Clear 13 1017 65 10000 1.66 86 20:18 06.01.2021
4017 Clear 13 1017 65 10000 1.66 86 19:41 06.01.2021
4018 Clouds 13 1017 63 10000 2.52 76 19:22 06.01.2021
4019 Clouds 13 1017 59 10000 2.52 76 18:42 06.01.2021
4020 Clouds 14 1016 57 10000 2.9 84 18:24 06.01.2021
4021 Clouds 14 1016 57 10000 2.9 84 17:43 06.01.2021
4022 Clouds 15 1014 54 10000 3.45 97 17:25 06.01.2021
4023 Clouds 15 1014 54 10000 3.45 97 16:45 06.01.2021
4024 Clouds 18 1013 46 10000 5.5 112 16:20 06.01.2021
4025 Clouds 18 1013 46 10000 5.5 112 15:54 06.01.2021
4026 Clouds 18 1013 46 10000 5.5 112 15:32 06.01.2021
4027 Clouds 21 1011 34 10000 5.8 134 14:52 06.01.2021
4028 Clouds 23 1011 27 10000 4.15 161 14:21 06.01.2021
4029 Clouds 23 1011 27 10000 4.15 161 13:47 06.01.2021
4030 Clear 23 1011 25 10000 3.02 178 13:24 06.01.2021
4031 Clear 23 1011 26 10000 3.29 176 12:49 06.01.2021
4032 Clear 22 1012 27 10000 2.7 181 12:26 06.01.2021
4033 Clear 22 1012 27 10000 2.7 181 11:39 06.01.2021
4034 Clear 21 1013 29 10000 2.47 173 11:20 06.01.2021
4035 Clear 20 1015 32 10000 2.49 156 10:29 06.01.2021
4036 Clear 20 1015 32 10000 2.49 156 09:52 06.01.2021
4037 Clear 18 1016 35 10000 2.76 147 09:21 06.01.2021
4038 Clear 18 1016 35 10000 2.76 147 08:41 06.01.2021
4039 Clear 17 1018 39 10000 2.49 141 07:59 06.01.2021
4040 Clouds 11 1028 50 10000 1 170 07:18 06.01.2021
4041 Clouds 12 1019 49 10000 1.34 146 05:51 06.01.2021
4042 Clouds 9 1026 66 10000 2.1 20 04:35 06.01.2021
4043 Clouds 10 1017 54 10000 0.42 99 02:47 06.01.2021
4044 Clouds 11 1017 54 10000 0.16 70 02:26 06.01.2021
4045 Clouds 11 1017 53 10000 0.33 349 01:23 06.01.2021
4046 Clear 11 1017 56 10000 0.2 154 23:32 05.01.2021
4047 Clear 11 1017 55 10000 0.54 152 22:45 05.01.2021
4048 Clear 11 1017 54 10000 0.93 125 22:21 05.01.2021
4049 Clear 11 1017 54 10000 0.93 125 21:56 05.01.2021
4050 Clear 12 1018 52 10000 1.62 122 20:58 05.01.2021
4051 Clear 13 1018 50 10000 1.62 115 20:27 05.01.2021
4052 Clear 13 1018 50 10000 1.62 115 19:44 05.01.2021
4053 Clear 13 1017 48 10000 1.79 92 19:21 05.01.2021
4054 Clear 13 1017 48 10000 1.79 92 18:44 05.01.2021
4055 Clear 14 1016 46 10000 2.36 95 18:25 05.01.2021
4056 Clear 14 1016 46 10000 2.36 95 17:50 05.01.2021
4057 Clear 14 1016 46 10000 2.36 95 17:31 05.01.2021
4058 Clear 15 1014 43 10000 3.24 106 16:53 05.01.2021
4059 Clear 21 1024 30 10000 8.2 100 16:22 05.01.2021
4060 Clear 21 1024 30 10000 8.2 100 15:51 05.01.2021
4061 Clouds 21 1024 30 10000 8.2 100 15:26 05.01.2021
4062 Clouds 20 1011 33 10000 6.21 108 14:46 05.01.2021
4063 Clouds 22 1011 28 10000 5.5 118 13:51 05.01.2021
4064 Clouds 22 1011 28 10000 5.5 118 13:32 05.01.2021
4065 Clear 23 1011 24 10000 4.52 130 12:50 05.01.2021
4066 Clear 23 1011 23 10000 3.63 140 12:29 05.01.2021
4067 Clear 23 1011 23 10000 3.63 140 11:41 05.01.2021
4068 -273 0 0 0 0 0 11:22 05.01.2021
4069 -273 0 0 0 0 0 11:22 05.01.2021
4070 Clear 22 1012 24 10000 2.96 138 10:44 05.01.2021
4071 Clear 20 1014 27 10000 2.92 133 09:58 05.01.2021
4072 Clear 20 1014 27 10000 2.92 133 09:38 05.01.2021
4073 Clear 19 1016 29 10000 2.93 127 08:42 05.01.2021
4074 Clear 17 1017 33 10000 2.73 124 08:18 05.01.2021
4075 Clouds 10 1018 49 10000 0.76 86 05:29 05.01.2021
4076 Clouds 11 1017 48 10000 0.36 88 02:37 05.01.2021
4077 Clear 11 1016 45 10000 0.09 270 00:22 05.01.2021
4078 Clear 11 1016 45 10000 0.09 270 23:39 04.01.2021
4079 Clear 12 1016 45 10000 0.36 49 23:20 04.01.2021
4080 Clear 12 1016 45 10000 0.36 49 22:44 04.01.2021
4081 Clear 12 1016 44 10000 0.54 117 21:57 04.01.2021
4082 Clear 12 1016 44 10000 0.54 117 21:39 04.01.2021
4083 Clear 12 1017 44 10000 1.3 97 20:58 04.01.2021
4084 Clear 12 1017 44 10000 1.3 97 20:34 04.01.2021
4085 Clear 13 1017 43 10000 2.03 93 19:59 04.01.2021
4086 Clear 13 1017 43 10000 2.03 93 19:40 04.01.2021
4087 Clouds 14 1016 43 10000 2.5 92 19:19 04.01.2021
4088 Clouds 14 1016 41 10000 2.62 89 18:40 04.01.2021
4089 Clouds 14 1015 40 10000 2.8 101 17:47 04.01.2021
4090 Clouds 15 1013 39 10000 3.26 107 17:28 04.01.2021
4091 Clouds 15 1013 39 10000 3.26 107 16:57 04.01.2021
4092 Clouds 15 1013 39 10000 3.26 107 16:38 04.01.2021
4093 Clouds 18 1012 36 10000 5.28 107 16:20 04.01.2021
4094 Clouds 18 1012 36 10000 5.28 107 15:41 04.01.2021
4095 Clouds 21 1011 29 10000 5.86 119 14:54 04.01.2021
4096 Clouds 23 1011 24 10000 4.63 140 13:56 04.01.2021
4097 Clouds 23 1011 24 10000 4.63 140 13:35 04.01.2021
4098 Clear 23 1011 24 10000 3.33 147 12:51 04.01.2021
4099 Clear 22 1011 25 10000 2.68 142 12:25 04.01.2021
4100 Clear 22 1011 25 10000 2.68 142 11:39 04.01.2021
4101 Clear 22 1013 27 10000 2.7 135 11:18 04.01.2021
4102 Clear 22 1013 27 10000 2.7 135 10:42 04.01.2021
4103 Clear 20 1014 29 10000 3.08 129 10:21 04.01.2021
4104 Clear 19 1016 31 10000 3.54 127 09:25 04.01.2021
4105 Clear 19 1016 31 10000 3.54 127 08:50 04.01.2021
4106 Clear 18 1017 33 10000 3.3 124 08:22 04.01.2021
4107 Clear 18 1017 33 10000 3.3 124 07:46 04.01.2021
4108 Clouds 13 1018 44 10000 1.45 65 05:36 04.01.2021
4109 Clouds 11 1018 53 10000 1.09 60 04:56 04.01.2021
4110 Clear 11 1025 76 10000 2.1 330 01:31 04.01.2021
4111 Clear 12 1016 60 10000 0.61 127 23:57 03.01.2021
4112 Clear 12 1016 60 10000 0.61 127 23:34 03.01.2021
4113 Clear 12 1016 61 10000 1.25 148 22:57 03.01.2021
4114 Clear 12 1016 61 10000 1.25 148 22:39 03.01.2021
4115 Clear 13 1016 62 10000 1.05 117 22:20 03.01.2021
4116 Clear 13 1016 62 10000 1.05 117 21:37 03.01.2021
4117 Clear 13 1016 62 10000 1.46 113 20:56 03.01.2021
4118 Clear 13 1016 62 10000 1.46 113 20:38 03.01.2021
4119 Clear 13 1016 61 10000 1.62 91 19:59 03.01.2021
4120 Clear 13 1016 61 10000 1.62 91 19:37 03.01.2021
4121 Clouds 14 1016 60 10000 2.08 88 19:19 03.01.2021
4122 Clouds 14 1016 60 10000 2.08 88 18:42 03.01.2021
4123 Clouds 15 1015 54 10000 2.73 95 18:21 03.01.2021
4124 Clouds 15 1015 54 10000 2.73 95 17:49 03.01.2021
4125 Clouds 16 1014 51 10000 3.17 101 17:26 03.01.2021
4126 Clouds 16 1014 51 10000 3.17 101 16:44 03.01.2021
4127 Clouds 18 1012 44 10000 4.62 105 16:20 03.01.2021
4128 Clouds 18 1012 44 10000 4.62 105 15:48 03.01.2021
4129 Clouds 21 1011 33 10000 4.67 122 15:29 03.01.2021
4130 Clouds 21 1011 33 10000 4.67 122 14:57 03.01.2021
4131 Clouds 21 1011 33 10000 4.67 122 14:30 03.01.2021
4132 Clouds 23 1011 25 10000 3.01 144 13:45 03.01.2021
4133 Clouds 23 1011 25 10000 2.47 142 13:23 03.01.2021
4134 Clouds 23 1011 23 10000 2.33 149 12:36 03.01.2021
4135 Clouds 22 1012 25 10000 1.98 135 11:43 03.01.2021
4136 Clouds 21 1014 27 10000 2.21 112 11:24 03.01.2021
4137 Clouds 21 1014 27 10000 2.21 112 10:45 03.01.2021
4138 Clouds 20 1015 30 10000 2.84 111 10:18 03.01.2021
4139 Clouds 20 1015 30 10000 2.84 111 09:41 03.01.2021
4140 Clouds 18 1028 48 10000 5.1 90 09:22 03.01.2021
4141 Clouds 16 1028 59 10000 5.7 70 07:50 03.01.2021
4142 Clouds 11 1028 71 10000 3.6 30 05:58 03.01.2021
4143 Clouds 12 1016 55 10000 0.61 129 02:28 03.01.2021
4144 Clouds 12 1016 55 10000 0.61 129 01:45 03.01.2021
4145 Clouds 13 1016 55 10000 0.43 121 00:19 03.01.2021
4146 Clouds 13 1016 55 10000 0.43 121 23:30 02.01.2021
4147 Clouds 13 1017 53 10000 1.34 134 22:55 02.01.2021
4148 Clouds 13 1017 53 10000 1.34 134 22:32 02.01.2021
4149 Clouds 14 1017 50 10000 1.21 144 21:51 02.01.2021
4150 Clouds 14 1017 50 10000 1.21 144 21:31 02.01.2021
4151 Clouds 15 1017 49 10000 1.4 198 20:50 02.01.2021
4152 Clouds 15 1017 50 10000 0.96 205 20:29 02.01.2021
4153 Clouds 15 1017 50 10000 0.96 205 19:59 02.01.2021
4154 Clouds 15 1017 48 10000 2.22 85 19:20 02.01.2021
4155 Clouds 15 1017 48 10000 2.22 85 18:56 02.01.2021
4156 Clouds 15 1016 48 10000 2.44 91 18:38 02.01.2021
4157 Clouds 15 1015 48 10000 3 93 18:19 02.01.2021
4158 Clouds 15 1015 48 10000 3 93 17:38 02.01.2021
4159 Clouds 16 1014 46 10000 3.5 101 16:53 02.01.2021
4160 Clouds 18 1012 43 10000 5.43 105 16:23 02.01.2021
4161 Clouds 18 1012 43 10000 5.43 105 15:54 02.01.2021
4162 Clouds 18 1012 43 10000 5.43 105 15:31 02.01.2021
4163 Clouds 21 1011 36 10000 5.8 114 14:55 02.01.2021
4164 Clouds 22 1010 31 10000 5.08 129 14:35 02.01.2021
4165 Clouds 22 1010 31 10000 5.08 129 13:49 02.01.2021
4166 Clouds 23 1011 26 10000 4.32 138 13:18 02.01.2021
4167 Clouds 23 1011 26 10000 4.32 138 12:43 02.01.2021
4168 Clouds 23 1011 26 10000 2.92 140 12:24 02.01.2021
4169 Clouds 23 1011 26 10000 2.92 140 11:43 02.01.2021
4170 Clouds 23 1013 29 10000 2.42 134 11:21 02.01.2021
4171 Clouds 23 1013 29 10000 2.42 134 10:42 02.01.2021
4172 Clouds 21 1014 33 10000 1.87 125 10:24 02.01.2021
4173 Clouds 21 1014 33 10000 1.87 125 09:43 02.01.2021
4174 Clouds 20 1015 38 10000 1.78 127 09:21 02.01.2021
4175 Clouds 20 1015 38 10000 1.78 127 08:49 02.01.2021
4176 Clouds 18 1017 44 10000 1.93 131 08:19 02.01.2021
4177 Clouds 16 1018 50 10000 1.65 141 07:25 02.01.2021
4178 Clouds 16 1018 50 10000 1.65 141 06:58 02.01.2021
4179 Clouds 14 1018 57 10000 0.83 146 06:24 02.01.2021
4180 Clouds 10 1026 61 10000 1 30 04:27 02.01.2021
4181 Clear 12 1016 65 10000 0.48 105 00:53 02.01.2021
4182 Clear 12 1016 64 10000 0.82 113 00:33 02.01.2021
4183 Clear 12 1016 63 10000 0.51 139 23:43 01.01.2021
4184 Clouds 12 1026 58 10000 2.6 110 23:19 01.01.2021
4185 Clear 13 1016 62 10000 0.76 126 22:47 01.01.2021
4186 Clear 13 1015 61 10000 1.08 117 22:22 01.01.2021
4187 Clear 13 1015 61 10000 1.08 117 21:43 01.01.2021
4188 Clouds 16 1026 48 10000 5.1 50 21:21 01.01.2021
4189 Clouds 16 1026 48 10000 5.1 50 20:51 01.01.2021
4190 Clouds 16 1026 48 10000 5.1 50 20:19 01.01.2021
4191 Clouds 16 1026 48 10000 5.1 60 19:42 01.01.2021
4192 Clouds 16 1026 48 10000 5.1 60 19:23 01.01.2021
4193 Clouds 14 1015 60 10000 1 69 18:49 01.01.2021
4194 Clouds 15 1015 56 10000 0.48 146 18:31 01.01.2021
4195 Clouds 15 1014 56 10000 1.37 46 17:59 01.01.2021
4196 Clouds 15 1014 56 10000 1.37 46 17:40 01.01.2021
4197 Clouds 20 1024 40 10000 5.1 100 17:18 01.01.2021
4198 Clouds 20 1024 40 10000 5.1 100 16:36 01.01.2021
4199 Clouds 19 1011 44 10000 5.36 110 15:45 01.01.2021
4200 Clouds 21 1010 38 10000 4.02 135 14:52 01.01.2021
4201 Clouds 21 1010 38 10000 4.02 135 14:33 01.01.2021
4202 Clouds 21 1009 36 10000 3.1 149 13:45 01.01.2021
4203 Clouds 21 1010 36 10000 2.83 148 13:24 01.01.2021
4204 Clouds 22 1009 34 10000 2.25 149 12:39 01.01.2021
4205 Clouds 22 1010 34 10000 2.24 134 12:18 01.01.2021
4206 Clouds 22 1010 34 10000 2.24 134 11:39 01.01.2021
4207 Clouds 22 1011 35 10000 2.66 123 11:18 01.01.2021
4208 Clouds 22 1011 35 10000 2.66 123 10:35 01.01.2021
4209 Clouds 21 1013 38 10000 2.83 117 09:47 01.01.2021
4210 Clouds 19 1014 43 10000 3.01 118 09:20 01.01.2021
4211 Clouds 17 1015 49 10000 3.05 114 08:25 01.01.2021
4212 Clouds 11 1025 81 10000 2.1 350 04:53 01.01.2021
4213 Clouds 11 1025 87 10000 2.1 340 02:39 01.01.2021
4214 Clouds 11 1025 81 10000 2.6 340 01:35 01.01.2021
4215 Clouds 12 1025 81 10000 2.1 100 00:28 01.01.2021
4216 Clouds 12 1025 81 10000 2.1 100 23:22 31.12.2020
4217 Clouds 13 1015 71 10000 1.04 130 22:58 31.12.2020
4218 Clouds 13 1015 71 10000 1.04 130 22:38 31.12.2020
4219 Clouds 14 1015 71 10000 1.55 131 22:19 31.12.2020
4220 Clouds 14 1015 71 10000 1.55 131 21:47 31.12.2020
4221 Clouds 14 1015 71 10000 1.55 131 21:47 31.12.2020
4222 Clouds 14 1015 70 10000 1.93 132 21:23 31.12.2020
4223 Clouds 14 1015 70 10000 1.93 132 20:49 31.12.2020
4224 Rain 15 1015 71 10000 2.21 118 20:18 31.12.2020
4225 Rain 15 1015 71 10000 2.21 118 19:46 31.12.2020
4226 Rain 15 1014 71 10000 2.02 104 19:28 31.12.2020
4227 Rain 15 1014 71 10000 2.02 104 18:49 31.12.2020
4228 Rain 15 1014 70 10000 2.67 93 18:24 31.12.2020
4229 Rain 15 1014 70 10000 2.67 93 17:44 31.12.2020
4230 Clouds 16 1012 65 10000 2.89 99 17:23 31.12.2020
4231 Clouds 16 1012 65 10000 2.89 99 16:43 31.12.2020
4232 Clouds 16 1012 65 10000 2.89 99 16:43 31.12.2020
4233 Clouds 16 1012 65 10000 2.89 99 16:43 31.12.2020
4234 Rain 18 1011 54 10000 2.98 94 16:23 31.12.2020
4235 Rain 18 1011 54 10000 2.98 94 15:49 31.12.2020
4236 Rain 20 1010 46 10000 2.5 93 15:22 31.12.2020
4237 Rain 20 1010 46 10000 2.5 93 15:22 31.12.2020
4238 Rain 20 1010 46 10000 2.5 93 14:57 31.12.2020
4239 Rain 20 1010 46 10000 2.5 93 14:38 31.12.2020
4240 Rain 21 1009 42 10000 1.52 107 14:20 31.12.2020
4241 Rain 21 1009 42 10000 1.52 107 13:39 31.12.2020
4242 Clouds 21 1010 41 10000 1.48 149 13:20 31.12.2020
4243 Clouds 21 1009 41 10000 2.03 145 12:53 31.12.2020
4244 Clouds 21 1009 41 10000 2.03 145 12:35 31.12.2020
4245 Clouds 21 1011 39 10000 2.24 150 11:52 31.12.2020
4246 Clouds 21 1011 39 10000 2.24 150 11:32 31.12.2020
4247 Clouds 22 1012 39 10000 2.17 149 11:32 31.12.2020
4248 Clouds 21 1011 39 10000 2.24 150 11:32 31.12.2020
4249 Clouds 22 1012 39 10000 2.17 149 10:50 31.12.2020
4250 Clear 21 1013 42 10000 2.42 145 10:29 31.12.2020
4251 Clear 21 1013 42 10000 2.42 145 09:58 31.12.2020
4252 Clear 21 1013 42 10000 2.42 145 09:36 31.12.2020
4253 Rain 19 1015 48 10000 2.59 139 09:18 31.12.2020
4254 Rain 19 1015 48 10000 2.59 139 08:45 31.12.2020
4255 Clear 18 1016 55 10000 2.37 145 08:27 31.12.2020
4256 Clear 18 1016 55 10000 2.37 145 07:33 31.12.2020
4257 Clear 14 1017 75 10000 1.13 128 06:29 31.12.2020
4258 Clear 11 1017 82 10000 1.02 122 05:29 31.12.2020
4259 Clear 11 1015 80 10000 0.55 89 02:57 31.12.2020
4260 Clear 12 1015 81 10000 0.53 86 02:25 31.12.2020
4261 Clear 12 1015 81 10000 0.53 86 01:48 31.12.2020
4262 Clouds 12 1015 82 10000 0.35 103 01:28 31.12.2020
4263 Clouds 12 1015 82 10000 0.75 144 00:48 31.12.2020
4264 Rain 13 1015 82 10000 1 142 23:53 30.12.2020
4265 Rain 13 1015 82 10000 1.35 139 23:20 30.12.2020
4266 Rain 13 1015 82 10000 1.35 139 22:51 30.12.2020
4267 Rain 13 1015 82 10000 1.35 139 22:31 30.12.2020
4268 Rain 13 1015 81 10000 1.33 141 21:47 30.12.2020
4269 Rain 14 1015 80 10000 1.21 140 21:25 30.12.2020
4270 Rain 14 1015 80 10000 1.21 140 20:51 30.12.2020
4271 Clouds 14 1015 77 10000 1.22 117 20:22 30.12.2020
4272 Clouds 14 1015 77 10000 1.22 117 19:42 30.12.2020
4273 Clouds 15 1015 76 10000 1.82 104 19:23 30.12.2020
4274 Clouds 15 1015 76 10000 1.82 104 18:49 30.12.2020
4275 Clouds 14 1015 77 10000 1.84 99 18:30 30.12.2020
4276 Clouds 15 1014 75 10000 2.23 95 17:52 30.12.2020
4277 Clouds 15 1014 75 10000 2.23 95 17:33 30.12.2020
4278 Rain 16 1013 69 10000 2.49 108 16:59 30.12.2020
4279 Rain 16 1013 69 10000 2.49 108 16:35 30.12.2020
4280 Rain 17 1011 61 10000 3.24 108 15:48 30.12.2020
4281 Rain 20 1010 49 10000 4.61 108 15:26 30.12.2020
4282 Rain 20 1010 49 10000 4.61 108 14:44 30.12.2020
4283 Clouds 21 1010 40 10000 4.01 116 14:25 30.12.2020
4284 Clouds 21 1010 40 10000 4.01 116 13:48 30.12.2020
4285 Clouds 22 1010 36 10000 3.68 128 12:44 30.12.2020
4286 Clouds 22 1011 34 10000 3.35 137 12:22 30.12.2020
4287 Clouds 22 1011 34 10000 3.35 137 11:38 30.12.2020
4288 Clouds 22 1012 36 10000 3.23 134 11:19 30.12.2020
4289 Clouds 22 1012 36 10000 3.23 134 10:49 30.12.2020
4290 Clouds 22 1012 36 10000 3.23 134 10:49 30.12.2020
4291 Clouds 21 1013 40 10000 3.38 129 10:29 30.12.2020
4292 Clouds 21 1013 40 10000 3.38 129 09:50 30.12.2020
4293 Clear 20 1014 47 10000 3.39 126 09:30 30.12.2020
4294 Clear 20 1014 47 10000 3.39 126 08:35 30.12.2020
4295 Clear 16 1016 62 10000 2.62 118 07:31 30.12.2020
4296 Clear 16 1017 60 10000 2.73 118 06:53 30.12.2020
4297 Clear 16 1017 60 10000 2.73 118 06:32 30.12.2020
4298 Clear 13 1017 68 10000 1.47 98 05:44 30.12.2020
4299 Clear 11 1017 77 10000 1.34 86 05:25 30.12.2020
4300 Clear 11 1015 75 10000 1.2 101 03:28 30.12.2020
4301 Clear 11 1015 75 10000 1.2 101 03:28 30.12.2020
4302 Clear 11 1015 75 10000 1.2 101 02:42 30.12.2020
4303 Clear 12 1015 73 10000 0.96 90 01:58 30.12.2020
4304 Clear 12 1015 73 10000 0.96 90 01:33 30.12.2020
4305 Clouds 12 1015 70 10000 1.11 91 00:50 30.12.2020
4306 Clouds 12 1015 68 10000 1.36 88 00:30 30.12.2020
4307 Clouds 12 1015 68 10000 1.36 88 23:56 29.12.2020
4308 Clouds 12 1015 68 10000 1.36 88 23:37 29.12.2020
4309 Clouds 12 1016 67 10000 1.33 89 23:18 29.12.2020
4310 Clouds 12 1016 67 10000 1.33 89 22:40 29.12.2020
4311 Clouds 13 1016 66 10000 1.2 89 22:22 29.12.2020
4312 Clouds 13 1016 66 10000 1.2 89 21:46 29.12.2020
4313 Clouds 13 1016 65 10000 1.51 85 21:26 29.12.2020
4314 Clouds 13 1016 65 10000 1.51 85 20:48 29.12.2020
4315 Clouds 14 1016 63 10000 2.29 87 20:26 29.12.2020
4316 Clouds 14 1016 63 10000 2.29 87 19:56 29.12.2020
4317 Clouds 14 1016 63 10000 2.29 87 19:37 29.12.2020
4318 Clear 14 1015 60 10000 2.87 86 19:18 29.12.2020
4319 Clear 14 1015 57 10000 2.73 86 18:39 29.12.2020
4320 Clear 15 1014 55 10000 3.07 81 18:18 29.12.2020
4321 Clear 15 1014 55 10000 3.07 81 17:38 29.12.2020
4322 Clear 15 1014 55 10000 3.07 81 17:38 29.12.2020
4323 Clear 16 1013 49 10000 2.89 85 17:19 29.12.2020
4324 Clear 16 1013 49 10000 2.89 85 16:36 29.12.2020
4325 Clear 18 1012 40 10000 3.8 108 15:56 29.12.2020
4326 Clouds 21 1010 32 10000 5.54 123 15:34 29.12.2020
4327 Clouds 21 1010 32 10000 5.54 123 14:58 29.12.2020
4328 Clouds 21 1010 32 10000 5.54 123 14:36 29.12.2020
4329 Clouds 23 1010 26 10000 5.03 131 14:18 29.12.2020
4330 Clouds 23 1010 26 10000 5.03 131 14:18 29.12.2020
4331 Clouds 23 1010 26 10000 5.03 131 13:39 29.12.2020
4332 Clouds 23 1010 25 10000 4.11 135 13:18 29.12.2020
4333 Clouds 23 1009 24 10000 4.03 136 12:37 29.12.2020
4334 Clear 23 1011 24 10000 3.74 134 12:19 29.12.2020
4335 Clear 23 1011 24 10000 3.74 134 11:51 29.12.2020
4336 Clear 23 1011 24 10000 3.74 134 11:31 29.12.2020
4337 Clear 21 1014 30 10000 3.43 129 10:22 29.12.2020
4338 Clear 21 1014 30 10000 3.43 129 09:47 29.12.2020
4339 Clear 19 1016 34 10000 3.35 129 09:19 29.12.2020
4340 Clear 19 1016 34 10000 3.35 129 08:50 29.12.2020
4341 Clear 18 1017 39 10000 2.97 125 07:58 29.12.2020
4342 Clear 15 1018 45 10000 2.32 118 07:26 29.12.2020
4343 Clear 13 1018 51 10000 1.31 85 06:19 29.12.2020
4344 Clear 10 1025 61 10000 1 320 03:18 29.12.2020
4345 Clear 10 1016 53 10000 0.85 107 00:44 29.12.2020
4346 Clear 11 1016 47 10000 0.99 116 23:41 28.12.2020
4347 Clear 11 1017 45 10000 1.02 104 22:58 28.12.2020
4348 Clear 12 1017 43 10000 0.88 100 22:23 28.12.2020
4349 Clear 12 1017 43 10000 0.88 100 21:44 28.12.2020
4350 Clear 12 1017 42 10000 0.85 79 21:23 28.12.2020
4351 Clear 12 1017 42 10000 0.85 79 20:40 28.12.2020
4352 Clear 12 1017 41 10000 1.59 78 20:22 28.12.2020
4353 Clear 12 1017 41 10000 1.59 78 19:42 28.12.2020
4354 Clear 13 1017 40 10000 2.4 86 19:23 28.12.2020
4355 Clear 13 1017 40 10000 2.4 86 18:50 28.12.2020
4356 Clouds 14 1016 38 10000 2.91 80 18:28 28.12.2020
4357 Clouds 14 1016 38 10000 2.91 80 17:43 28.12.2020
4358 Clouds 15 1014 35 10000 2.86 92 17:25 28.12.2020
4359 Clouds 15 1014 35 10000 2.86 92 16:43 28.12.2020
4360 Clouds 22 1024 21 10000 5.1 90 16:23 28.12.2020
4361 Clouds 22 1024 21 10000 5.1 90 15:46 28.12.2020
4362 Clouds 21 1011 23 10000 5.28 120 14:57 28.12.2020
4363 Clouds 22 1010 20 10000 5.14 128 13:56 28.12.2020
4364 Clouds 22 1010 20 10000 5.14 128 13:32 28.12.2020
4365 Clouds 23 1010 19 10000 4.4 141 12:51 28.12.2020
4366 Clouds 23 1011 19 10000 3.96 147 12:23 28.12.2020
4367 Clouds 23 1011 19 10000 3.96 147 11:47 28.12.2020
4368 Clouds 22 1012 20 10000 3.42 149 11:24 28.12.2020
4369 Clouds 22 1012 20 10000 3.42 149 10:49 28.12.2020
4370 Clouds 21 1014 22 10000 3.15 145 10:27 28.12.2020
4371 Clouds 21 1014 22 10000 3.15 145 09:46 28.12.2020
4372 Clouds 19 1015 24 10000 2.77 143 09:20 28.12.2020
4373 Clouds 17 1017 27 10000 2.22 145 07:40 28.12.2020
4374 Clouds 15 1018 31 10000 1.38 145 06:50 28.12.2020
4375 Clouds 7 1026 56 10000 2.1 300 04:37 28.12.2020
4376 Clear 9 1016 46 10000 0.74 46 02:27 28.12.2020
4377 Clear 8 1025 47 10000 1.5 320 00:53 28.12.2020
4378 Clear 9 1026 46 10000 2.1 330 23:46 27.12.2020
4379 Clear 9 1026 45 10000 2.1 330 23:19 27.12.2020
4380 Clear 10 1017 44 10000 0.82 135 21:58 27.12.2020
4381 Clear 11 1017 42 10000 0.92 131 21:26 27.12.2020
4382 Clear 11 1017 42 10000 0.92 131 20:47 27.12.2020
4383 Clear 12 1017 41 10000 0.88 69 19:46 27.12.2020
4384 Clear 12 1017 40 10000 1.7 76 19:22 27.12.2020
4385 Clear 12 1017 40 10000 1.9 76 18:42 27.12.2020
4386 Clear 13 1016 38 10000 2.25 95 18:19 27.12.2020
4387 Clear 13 1016 38 10000 2.25 95 17:44 27.12.2020
4388 Clouds 14 1014 35 10000 2.56 114 17:24 27.12.2020
4389 Clouds 14 1014 35 10000 2.56 114 16:37 27.12.2020
4390 Clouds 17 1012 29 10000 3.17 133 15:56 27.12.2020
4391 Clouds 20 1011 24 10000 4.4 133 14:59 27.12.2020
4392 Clouds 20 1011 24 10000 4.4 133 14:41 27.12.2020
4393 Clouds 22 1010 22 10000 4.78 137 14:19 27.12.2020
4394 Clear 22 1011 22 10000 4.46 142 13:22 27.12.2020
4395 Clear 22 1011 22 10000 4.46 142 12:47 27.12.2020
4396 Clear 22 1012 25 10000 3.41 152 12:18 27.12.2020
4397 Clear 22 1012 25 10000 3.41 152 11:39 27.12.2020
4398 Clear 21 1013 28 10000 3 152 10:52 27.12.2020
4399 Clear 19 1015 32 10000 2.85 148 10:25 27.12.2020
4400 Clear 19 1015 32 10000 2.85 148 09:53 27.12.2020
4401 Clear 14 1028 50 10000 2.1 160 08:50 27.12.2020
4402 Clear 14 1028 50 10000 2.1 160 08:25 27.12.2020
4403 Clouds 10 1028 61 10000 2.1 260 07:26 27.12.2020
4404 Clouds 11 1019 63 10000 0.77 130 05:45 27.12.2020
4405 Clouds 8 1018 70 10000 1.02 137 04:25 27.12.2020
4406 Clouds 9 1017 66 10000 1.01 132 03:20 27.12.2020
4407 Clouds 8 1025 75 10000 1.23 117 01:34 27.12.2020
4408 Clouds 10 1017 60 10000 1.14 138 00:24 27.12.2020
4409 Clouds 10 1017 60 10000 1.14 138 23:32 26.12.2020
4410 Clouds 11 1017 58 10000 0.96 145 22:57 26.12.2020
4411 Clouds 11 1028 62 10000 4.1 90 22:36 26.12.2020
4412 Clouds 11 1028 62 10000 4.1 90 22:18 26.12.2020
4413 Clouds 11 1028 62 10000 4.1 90 22:18 26.12.2020
4414 Clouds 11 1028 62 10000 4.1 90 21:43 26.12.2020
4415 Clouds 11 1028 62 10000 4.1 90 21:22 26.12.2020
4416 Clouds 11 1017 57 10000 0.78 104 20:42 26.12.2020
4417 Clouds 11 1017 56 10000 1.36 91 20:19 26.12.2020
4418 Clouds 12 1017 53 10000 2.14 96 19:27 26.12.2020
4419 Clouds 12 1017 53 10000 2.14 96 18:53 26.12.2020
4420 Clouds 13 1015 50 10000 2.72 97 18:29 26.12.2020
4421 Clouds 13 1015 50 10000 2.72 97 17:42 26.12.2020
4422 Clouds 14 1014 46 10000 2.93 106 17:21 26.12.2020
4423 Clouds 14 1014 46 10000 2.93 106 16:37 26.12.2020
4424 Clouds 16 1012 42 10000 4.14 113 15:38 26.12.2020
4425 Clouds 19 1011 36 10000 5.91 118 15:18 26.12.2020
4426 Clouds 21 1010 33 10000 5.76 128 14:29 26.12.2020
4427 Clouds 21 1010 33 10000 5.76 128 13:53 26.12.2020
4428 Clouds 21 1010 33 10000 5.76 128 13:32 26.12.2020
4429 Clear 22 1011 32 10000 4.96 133 12:49 26.12.2020
4430 Clear 22 1011 32 10000 4.96 133 12:30 26.12.2020
4431 Clear 22 1011 31 10000 4.33 139 11:51 26.12.2020
4432 Clear 21 1012 32 10000 3.59 144 11:24 26.12.2020
4433 Clear 21 1012 32 10000 3.59 144 10:55 26.12.2020
4434 Clear 18 1027 42 10000 4.1 100 10:28 26.12.2020
4435 Clear 18 1027 42 10000 4.1 100 09:52 26.12.2020
4436 Clear 18 1027 42 10000 4.1 100 09:32 26.12.2020
4437 Clear 17 1027 45 10000 5.1 90 08:39 26.12.2020
4438 Clear 17 1016 44 10000 2.71 135 07:56 26.12.2020
4439 Clouds 13 1026 66 10000 1 110 06:47 26.12.2020
4440 Clear 10 1016 65 10000 0.7 89 03:52 26.12.2020
4441 Clouds 11 1024 71 10000 0.47 148 01:49 26.12.2020
4442 Clear 11 1015 61 10000 0.74 197 00:27 26.12.2020
4443 Clear 11 1015 61 10000 0.74 197 23:41 25.12.2020
4444 Clear 11 1015 61 10000 0.74 197 23:41 25.12.2020
4445 Clouds 12 1015 60 10000 0.45 119 23:23 25.12.2020
4446 Clouds 12 1015 60 10000 0.45 119 22:48 25.12.2020
4447 Clouds 12 1015 59 10000 0.98 89 22:23 25.12.2020
4448 Clouds 12 1015 59 10000 0.98 89 21:35 25.12.2020
4449 Clouds 13 1016 57 10000 1.21 108 20:59 25.12.2020
4450 Clouds 13 1016 57 10000 1.21 108 20:37 25.12.2020
4451 Clouds 13 1016 54 10000 1.66 104 19:50 25.12.2020
4452 Clouds 13 1016 54 10000 1.66 104 19:30 25.12.2020
4453 Clouds 17 1025 51 10000 4.6 80 18:39 25.12.2020
4454 Clouds 17 1025 51 10000 4.6 80 17:54 25.12.2020
4455 Clouds 17 1025 51 10000 4.6 80 17:34 25.12.2020
4456 Clouds 20 1024 40 10000 4.1 140 16:38 25.12.2020
4457 Clouds 20 1024 40 10000 4.1 140 16:19 25.12.2020
4458 Clouds 22 1023 35 10000 4.1 140 15:36 25.12.2020
4459 Clouds 20 1010 34 10000 5.21 126 14:58 25.12.2020
4460 Clouds 22 1010 27 10000 4.13 145 14:30 25.12.2020
4461 Clouds 22 1010 27 10000 4.13 145 13:46 25.12.2020
4462 Clouds 23 1010 25 10000 2.67 173 13:26 25.12.2020
4463 Clear 23 1010 25 10000 2.21 178 12:47 25.12.2020
4464 Clear 22 1024 26 10000 3.1 190 12:24 25.12.2020
4465 Clear 22 1024 26 10000 3.1 190 11:45 25.12.2020
4466 Clear 22 1024 26 10000 3.1 190 11:20 25.12.2020
4467 Clear 19 1026 39 10000 6.2 80 10:30 25.12.2020
4468 Clear 19 1026 39 10000 6.2 80 09:47 25.12.2020
4469 Clear 17 1027 42 10000 5.1 110 08:49 25.12.2020
4470 Clear 17 1027 42 10000 5.1 110 08:28 25.12.2020
4471 Clouds 14 1026 50 10000 1 360 06:48 25.12.2020
4472 Clouds 8 1025 75 10000 1 320 04:47 25.12.2020
4473 Clouds 9 1024 66 10000 1.5 270 02:19 25.12.2020
4474 Clouds 9 1024 70 10000 1.5 90 00:19 25.12.2020
4475 Clear 12 1015 66 10000 0.7 93 23:28 24.12.2020
4476 Clear 12 1015 66 10000 0.7 93 22:53 24.12.2020
4477 Clear 12 1015 65 10000 1.02 103 22:22 24.12.2020
4478 Clear 12 1015 65 10000 1.02 103 21:42 24.12.2020
4479 Clear 12 1015 63 10000 1.32 104 20:48 24.12.2020
4480 Clouds 13 1015 60 10000 2.22 75 19:20 24.12.2020
4481 Clouds 17 1025 42 10000 5.1 90 18:21 24.12.2020
4482 Clouds 17 1025 42 10000 5.1 90 17:37 24.12.2020
4483 Clouds 15 1013 52 10000 2.91 102 16:59 24.12.2020
4484 Clouds 17 1011 46 10000 3.87 118 16:23 24.12.2020
4485 Clouds 17 1011 46 10000 3.87 118 15:43 24.12.2020
4486 Clouds 20 1010 39 10000 2.33 146 15:20 24.12.2020
4487 Clouds 20 1010 39 10000 2.33 146 14:51 24.12.2020
4488 Clouds 21 1010 35 10000 1.28 203 14:24 24.12.2020
4489 Clouds 21 1010 35 10000 1.28 203 13:49 24.12.2020
4490 Clouds 21 1010 35 10000 1.28 203 13:30 24.12.2020
4491 Clouds 21 1010 33 10000 1.87 182 12:45 24.12.2020
4492 Clouds 22 1024 30 10000 4.1 130 12:22 24.12.2020
4493 Clouds 22 1024 30 10000 4.1 130 11:59 24.12.2020
4494 Clouds 22 1024 30 10000 4.1 130 11:37 24.12.2020
4495 Clouds 22 1024 30 10000 4.1 130 11:18 24.12.2020
4496 Clouds 21 1025 32 10000 6.2 130 10:42 24.12.2020
4497 Clouds 20 1026 34 10000 3.1 120 09:53 24.12.2020
4498 Clouds 20 1026 34 10000 3.1 120 09:32 24.12.2020
4499 Clouds 19 1015 39 10000 1.93 139 08:44 24.12.2020
4500 Clouds 16 1027 44 10000 1 220 07:43 24.12.2020
4501 Clouds 16 1027 44 10000 1 220 07:21 24.12.2020
4502 Clouds 10 1026 66 10000 0.5 300 05:56 24.12.2020
4503 Clear 11 1016 61 10000 0.43 68 02:50 24.12.2020
4504 Clouds 10 1025 66 10000 1 360 01:47 24.12.2020
4505 Clear 11 1015 60 10000 0.53 296 01:18 24.12.2020
4506 Clear 11 1015 60 10000 0.36 32 00:23 24.12.2020
4507 Clear 11 1015 60 10000 0.36 32 23:49 23.12.2020
4508 Clear 11 1015 60 10000 0.36 32 23:31 23.12.2020
4509 Clear 12 1016 59 10000 0.78 69 22:59 23.12.2020
4510 Clear 12 1016 59 10000 0.78 69 22:40 23.12.2020
4511 Clear 12 1016 58 10000 1.05 77 22:18 23.12.2020
4512 Clear 12 1016 58 10000 1.05 77 21:31 23.12.2020
4513 Clear 12 1016 57 10000 1.4 74 20:57 23.12.2020
4514 Clear 12 1016 57 10000 1.4 74 20:37 23.12.2020
4515 Clear 12 1016 56 10000 1.91 74 20:19 23.12.2020
4516 Clear 12 1016 56 10000 1.91 74 19:41 23.12.2020
4517 Clouds 13 1016 56 10000 2.18 76 19:22 23.12.2020
4518 Clouds 13 1016 56 10000 2.07 82 18:51 23.12.2020
4519 Clouds 13 1016 56 10000 2.07 82 18:33 23.12.2020
4520 Clouds 13 1015 56 10000 2.34 92 17:43 23.12.2020
4521 Clouds 14 1014 55 10000 2.74 105 17:22 23.12.2020
4522 Clouds 14 1014 55 10000 2.74 105 16:52 23.12.2020
4523 Clouds 14 1014 55 10000 2.74 105 16:30 23.12.2020
4524 Clouds 17 1013 51 10000 3.43 110 15:59 23.12.2020
4525 Clouds 17 1013 51 10000 3.43 110 15:39 23.12.2020
4526 Clouds 19 1011 46 10000 3.85 115 15:20 23.12.2020
4527 Clouds 19 1011 46 10000 3.85 115 14:42 23.12.2020
4528 Clouds 20 1011 42 10000 3.41 118 14:22 23.12.2020
4529 Clouds 20 1011 42 10000 3.41 118 13:46 23.12.2020
4530 Clouds 20 1011 41 10000 2.96 131 13:20 23.12.2020
4531 Clouds 21 1011 41 10000 2.8 122 12:58 23.12.2020
4532 Clouds 20 1011 41 10000 2.96 131 12:36 23.12.2020
4533 Clouds 20 1012 40 10000 3.07 139 12:18 23.12.2020
4534 Clouds 20 1012 40 10000 3.07 139 11:43 23.12.2020
4535 Clouds 20 1027 49 10000 5.1 110 10:57 23.12.2020
4536 Clouds 20 1027 49 10000 5.1 110 10:39 23.12.2020
4537 Clouds 17 1028 59 10000 5.1 100 09:39 23.12.2020
4538 Clouds 17 1028 59 10000 5.1 100 08:58 23.12.2020
4539 Clouds 17 1028 59 10000 5.1 100 08:33 23.12.2020
4540 Clouds 17 1016 50 10000 3.01 129 07:49 23.12.2020
4541 Clouds 15 1018 56 10000 2.26 139 06:53 23.12.2020
4542 Clouds 15 1018 56 10000 2.26 139 06:34 23.12.2020
4543 Clouds 9 1026 87 10000 2.1 360 05:24 23.12.2020
4544 Clouds 12 1016 66 10000 0.79 119 01:59 23.12.2020
4545 Clouds 12 1016 66 10000 0.57 119 00:33 23.12.2020
4546 Clouds 12 1016 68 10000 0.33 76 23:45 22.12.2020
4547 Clouds 12 1017 70 10000 0.46 52 23:23 22.12.2020
4548 Clouds 12 1017 70 10000 0.46 52 22:43 22.12.2020
4549 Clouds 12 1017 71 10000 0.81 83 22:24 22.12.2020
4550 Clouds 12 1017 71 10000 0.81 83 21:54 22.12.2020
4551 Clouds 12 1017 72 10000 1.4 94 21:21 22.12.2020
4552 Clouds 12 1017 72 10000 1.4 94 20:55 22.12.2020
4553 Clouds 12 1017 72 10000 1.4 94 20:37 22.12.2020
4554 Clouds 13 1017 71 10000 2.01 94 20:18 22.12.2020
4555 Clouds 13 1017 71 10000 2.01 94 19:41 22.12.2020
4556 Clouds 13 1017 71 10000 2.52 85 19:20 22.12.2020
4557 Clouds 13 1017 68 10000 2.42 81 18:47 22.12.2020
4558 Clouds 14 1016 67 10000 2.64 85 18:27 22.12.2020
4559 Clouds 14 1016 67 10000 2.64 85 17:41 22.12.2020
4560 Clouds 15 1015 62 10000 2.74 98 17:18 22.12.2020
4561 Clouds 15 1015 62 10000 2.74 98 17:18 22.12.2020
4562 Clouds 15 1015 62 10000 2.74 98 16:47 22.12.2020
4563 Clouds 17 1013 53 10000 3.19 103 16:21 22.12.2020
4564 Clouds 17 1013 53 10000 3.19 103 15:49 22.12.2020
4565 Clouds 20 1012 43 10000 4.89 104 15:31 22.12.2020
4566 Clouds 20 1012 43 10000 4.89 104 14:58 22.12.2020
4567 Clouds 20 1012 43 10000 4.89 104 14:40 22.12.2020
4568 Clouds 21 1012 40 10000 4.84 111 14:21 22.12.2020
4569 Clouds 21 1012 40 10000 4.84 111 13:45 22.12.2020
4570 Clouds 21 1012 41 10000 4.7 113 13:19 22.12.2020
4571 Clouds 21 1012 41 10000 4.7 113 12:53 22.12.2020
4572 Clouds 21 1012 41 10000 4.56 112 12:34 22.12.2020
4573 Clouds 21 1013 43 10000 4.81 115 11:58 22.12.2020
4574 Clouds 21 1013 43 10000 4.81 115 11:58 22.12.2020
4575 Clouds 21 1013 43 10000 4.81 115 11:39 22.12.2020
4576 Clouds 21 1014 42 10000 4.91 114 11:20 22.12.2020
4577 Clouds 21 1014 42 10000 4.91 114 10:53 22.12.2020
4578 Clouds 20 1015 44 10000 4.82 111 10:24 22.12.2020
4579 Clouds 20 1015 44 10000 4.82 111 09:57 22.12.2020
4580 Clouds 19 1017 50 10000 4.48 110 09:24 22.12.2020
4581 Clouds 19 1017 50 10000 4.48 110 08:53 22.12.2020
4582 Clouds 19 1017 50 10000 4.48 110 08:53 22.12.2020
4583 Clouds 14 1029 82 10000 5.1 80 08:32 22.12.2020
4584 Clouds 14 1029 82 10000 5.1 80 07:56 22.12.2020
4585 Clear 15 1019 64 10000 2.83 112 07:19 22.12.2020
4586 Clouds 11 1028 93 10000 5.1 50 05:48 22.12.2020
4587 Clouds 11 1028 93 10000 5.1 50 05:48 22.12.2020
4588 Clouds 9 1027 100 10000 3.6 50 03:46 22.12.2020
4589 Clouds 11 1027 93 10000 2.1 340 01:35 22.12.2020
4590 Clear 11 1018 84 10000 0.09 347 23:56 21.12.2020
4591 Clear 11 1018 84 10000 0.09 347 23:37 21.12.2020
4592 Clear 11 1018 84 10000 0.61 54 22:59 21.12.2020
4593 Clear 11 1018 84 10000 0.61 54 22:36 21.12.2020
4594 Clear 11 1019 84 10000 1.04 70 22:18 21.12.2020
4595 Clear 11 1019 84 10000 1.04 70 21:41 21.12.2020
4596 Clear 12 1019 84 10000 1.39 94 21:22 21.12.2020
4597 Clear 12 1019 84 10000 1.39 94 20:40 21.12.2020
4598 Clear 12 1019 83 10000 1.91 94 20:19 21.12.2020
4599 Clear 12 1019 83 10000 1.91 94 19:45 21.12.2020
4600 Clouds 13 1018 83 10000 2.34 72 19:20 21.12.2020
4601 Clouds 13 1018 84 10000 1.99 76 18:53 21.12.2020
4602 Clouds 13 1018 84 10000 1.99 76 18:34 21.12.2020
4603 Clouds 13 1018 82 10000 2.45 88 17:56 21.12.2020
4604 Clouds 13 1018 82 10000 2.45 88 17:37 21.12.2020
4605 Rain 14 1016 77 10000 2.65 99 17:19 21.12.2020
4606 Rain 14 1016 77 10000 2.65 99 16:38 21.12.2020
4607 Rain 16 1015 71 10000 2.86 107 16:18 21.12.2020
4608 Rain 16 1015 71 10000 2.86 107 15:40 21.12.2020
4609 Rain 17 1013 62 10000 3.79 114 14:57 21.12.2020
4610 Rain 18 1013 58 10000 3.7 119 14:22 21.12.2020
4611 Rain 18 1013 58 10000 3.7 119 13:45 21.12.2020
4612 Rain 19 1013 51 10000 3.34 128 13:27 21.12.2020
4613 Rain 17 1014 62 10000 2.11 86 12:47 21.12.2020
4614 Rain 17 1014 59 10000 2.61 111 12:25 21.12.2020
4615 Rain 17 1014 59 10000 2.61 111 11:58 21.12.2020
4616 Rain 17 1014 59 10000 2.61 111 11:40 21.12.2020
4617 Clouds 15 1015 66 10000 0.96 115 11:22 21.12.2020
4618 Clouds 15 1015 66 10000 0.96 115 10:49 21.12.2020
4619 Clouds 15 1015 66 10000 0.96 115 10:30 21.12.2020
4620 Clouds 14 1016 71 10000 1.79 111 09:49 21.12.2020
4621 Rain 13 1017 77 10000 1.68 99 09:26 21.12.2020
4622 Rain 13 1017 77 10000 1.68 99 08:54 21.12.2020
4623 Clouds 14 1018 76 10000 2.31 110 07:56 21.12.2020
4624 Clouds 14 1018 73 10000 2.13 99 06:47 21.12.2020
4625 Clouds 13 1027 82 10000 3.6 80 04:58 21.12.2020
4626 Clouds 13 1026 82 10000 6.2 50 02:31 21.12.2020
4627 Clouds 12 1027 81 10000 3.1 60 00:34 21.12.2020
4628 Clouds 12 1027 81 10000 3.1 60 23:37 20.12.2020
4629 Clouds 12 1027 81 10000 3.1 60 23:18 20.12.2020
4630 Clouds 12 1017 81 10000 1.11 119 22:42 20.12.2020
4631 Clouds 13 1018 79 10000 1.39 100 22:22 20.12.2020
4632 Clouds 13 1018 79 10000 1.39 100 21:40 20.12.2020
4633 Clouds 16 1028 67 10000 5.1 80 21:21 20.12.2020
4634 Clouds 16 1028 67 10000 5.1 80 20:52 20.12.2020
4635 Clouds 16 1028 67 10000 5.1 80 20:26 20.12.2020
4636 Clouds 15 1017 69 10000 2.25 101 19:51 20.12.2020
4637 Clouds 15 1017 67 10000 2.56 99 19:33 20.12.2020
4638 Clouds 14 1017 71 10000 2.5 87 18:59 20.12.2020
4639 Clouds 14 1017 71 10000 2.5 87 18:40 20.12.2020
4640 Clouds 14 1016 68 10000 2.86 95 18:22 20.12.2020
4641 Clouds 14 1016 68 10000 2.86 95 17:44 20.12.2020
4642 Clouds 15 1015 65 10000 3.11 103 17:23 20.12.2020
4643 Clouds 15 1015 65 10000 3.11 103 16:45 20.12.2020
4644 Clouds 17 1013 57 10000 3.91 103 16:27 20.12.2020
4645 Clouds 17 1013 57 10000 3.91 103 15:49 20.12.2020
4646 Clouds 20 1025 42 10000 5.1 100 15:25 20.12.2020
4647 Clouds 20 1025 42 10000 5.1 100 14:54 20.12.2020
4648 Clouds 20 1025 42 10000 5.1 100 14:33 20.12.2020
4649 Clouds 20 1025 40 10000 4.1 110 13:47 20.12.2020
4650 Clouds 20 1025 40 10000 4.1 110 13:28 20.12.2020
4651 Clouds 22 1012 37 10000 5.22 115 12:58 20.12.2020
4652 Clouds 21 1026 40 10000 5.1 80 12:39 20.12.2020
4653 Clouds 21 1026 40 10000 5.1 80 12:20 20.12.2020
4654 Clear 22 1012 33 10000 4.7 123 11:43 20.12.2020
4655 Clear 22 1014 33 10000 4.23 128 11:18 20.12.2020
4656 Clear 22 1014 33 10000 4.23 128 10:45 20.12.2020
4657 Clear 21 1015 37 10000 3.79 131 10:20 20.12.2020
4658 Clear 21 1015 37 10000 3.79 131 09:45 20.12.2020
4659 Clear 19 1017 44 10000 3.54 132 09:27 20.12.2020
4660 Clear 19 1017 44 10000 3.54 132 08:56 20.12.2020
4661 Clear 16 1028 55 10000 5.1 80 08:37 20.12.2020
4662 Clear 16 1028 55 10000 5.1 80 07:24 20.12.2020
4663 Clear 13 1019 62 10000 0.95 115 05:44 20.12.2020
4664 Clear 11 1026 66 10000 3.1 70 01:46 20.12.2020
4665 Clear 10 1017 67 10000 0.58 129 00:38 20.12.2020
4666 Clear 11 1018 60 10000 0.91 129 23:20 19.12.2020
4667 Clear 11 1018 60 10000 0.91 129 22:57 19.12.2020
4668 Clear 11 1018 60 10000 0.91 129 22:38 19.12.2020
4669 Clear 12 1018 57 10000 0.9 107 22:19 19.12.2020
4670 Clear 13 1028 58 10000 3.1 90 21:42 19.12.2020
4671 Clear 13 1028 58 10000 3.1 90 21:24 19.12.2020
4672 Clear 13 1028 58 10000 3.1 90 20:45 19.12.2020
4673 Clouds 13 1028 58 10000 3.1 90 20:21 19.12.2020
4674 Clouds 15 1027 51 10000 5.1 60 19:53 19.12.2020
4675 Clouds 15 1027 51 10000 5.1 60 19:34 19.12.2020
4676 Clouds 13 1017 54 10000 2.71 82 18:42 19.12.2020
4677 Clouds 17 1026 42 10000 4.1 90 18:24 19.12.2020
4678 Clouds 17 1026 42 10000 4.1 90 17:48 19.12.2020
4679 Clouds 17 1026 42 10000 4.1 90 17:25 19.12.2020
4680 Clouds 18 1025 39 10000 5.7 90 16:55 19.12.2020
4681 Clouds 18 1025 39 10000 5.7 90 16:36 19.12.2020
4682 Clouds 18 1025 39 10000 5.7 90 16:18 19.12.2020
4683 Clouds 21 1025 30 10000 5.1 100 15:47 19.12.2020
4684 Clouds 22 1024 24 10000 3.1 120 14:44 19.12.2020
4685 Clouds 22 1024 24 10000 3.1 120 14:23 19.12.2020
4686 Clouds 22 1024 24 10000 5.1 80 13:42 19.12.2020
4687 Clear 22 1024 24 10000 5.1 80 13:21 19.12.2020
4688 Clear 22 1011 22 10000 3.64 135 12:54 19.12.2020
4689 Clear 21 1025 26 10000 5.1 90 12:36 19.12.2020
4690 Clear 21 1025 26 10000 5.1 90 12:18 19.12.2020
4691 Clear 21 1025 26 10000 5.1 90 11:40 19.12.2020
4692 Clear 21 1013 24 10000 3.43 133 10:47 19.12.2020
4693 Clear 20 1014 25 10000 3.69 128 10:27 19.12.2020
4694 Clear 20 1014 25 10000 3.69 128 09:59 19.12.2020
4695 Clear 17 1027 36 10000 5.1 90 09:39 19.12.2020
4696 Clear 17 1027 36 10000 5.1 90 08:56 19.12.2020
4697 Clear 15 1028 44 10000 2.1 50 07:56 19.12.2020
4698 Clear 15 1028 44 10000 2.1 50 07:19 19.12.2020
4699 Clear 15 1018 33 10000 3.1 115 06:39 19.12.2020
4700 Clear 10 1019 47 10000 0.9 67 05:20 19.12.2020
4701 Clear 10 1017 48 10000 0.39 56 03:29 19.12.2020
4702 Clouds 10 1016 46 10000 0.48 159 00:41 19.12.2020
4703 Clouds 11 1017 45 10000 0.31 119 00:20 19.12.2020
4704 Clouds 11 1017 45 10000 0.31 119 23:49 18.12.2020
4705 Clear 11 1017 44 10000 0.9 107 23:25 18.12.2020
4706 Clear 11 1017 44 10000 0.9 107 22:49 18.12.2020
4707 Clear 12 1017 43 10000 0.94 94 22:25 18.12.2020
4708 Clear 12 1017 43 10000 0.94 94 21:59 18.12.2020
4709 Clear 12 1017 43 10000 0.94 94 21:38 18.12.2020
4710 Clear 12 1017 42 10000 1.08 71 21:20 18.12.2020
4711 Clear 13 1017 41 10000 1.68 74 20:24 18.12.2020
4712 Clear 13 1017 41 10000 1.68 74 19:47 18.12.2020
4713 Clear 13 1017 40 10000 2.24 73 19:23 18.12.2020
4714 Clear 13 1016 42 10000 2.08 79 18:46 18.12.2020
4715 Clear 14 1016 40 10000 2.56 71 18:26 18.12.2020
4716 Clear 14 1016 40 10000 2.56 71 17:50 18.12.2020
4717 Clear 15 1014 36 10000 2.84 88 17:20 18.12.2020
4718 Clear 15 1014 36 10000 2.84 88 16:45 18.12.2020
4719 Clear 17 1013 30 10000 3.79 116 16:21 18.12.2020
4720 Clear 17 1013 30 10000 3.79 116 15:52 18.12.2020
4721 Clear 17 1013 30 10000 3.79 116 15:34 18.12.2020
4722 Clear 21 1011 23 10000 4.09 145 14:57 18.12.2020
4723 Clear 22 1011 21 10000 3.33 165 14:26 18.12.2020
4724 Clear 22 1011 21 10000 3.33 165 13:53 18.12.2020
4725 Clear 22 1024 19 10000 3.1 120 13:33 18.12.2020
4726 Clouds 22 1024 19 10000 3.1 120 12:59 18.12.2020
4727 Clouds 22 1024 19 10000 3.1 120 12:38 18.12.2020
4728 Clouds 21 1013 23 10000 2.37 170 11:29 18.12.2020
4729 Clouds 21 1013 23 10000 2.37 170 10:45 18.12.2020
4730 Clouds 20 1015 25 10000 2.6 150 10:24 18.12.2020
4731 Clouds 20 1015 25 10000 2.6 150 10:00 18.12.2020
4732 Clouds 20 1015 25 10000 2.6 150 09:37 18.12.2020
4733 Clouds 18 1016 28 10000 2.66 138 09:19 18.12.2020
4734 Clouds 18 1016 28 10000 2.66 138 08:46 18.12.2020
4735 Clouds 17 1018 32 10000 2.6 131 08:20 18.12.2020
4736 Clouds 15 1019 37 10000 1.96 120 07:20 18.12.2020
4737 Clouds 15 1019 36 10000 2.07 118 06:59 18.12.2020
4738 Clouds 7 1026 75 10000 1.5 360 05:45 18.12.2020
4739 Clouds 7 1026 70 10000 1.5 40 05:23 18.12.2020
4740 Clouds 7 1026 70 10000 1.5 40 04:42 18.12.2020
4741 Clouds 10 1025 61 10000 1.5 80 01:47 18.12.2020
4742 Clear 10 1026 61 10000 1.5 340 00:31 18.12.2020
4743 Clear 10 1017 50 10000 0.46 128 23:53 17.12.2020
4744 Clear 10 1017 50 10000 0.84 120 23:25 17.12.2020
4745 Clear 10 1017 50 10000 0.84 120 22:49 17.12.2020
4746 Clear 11 1017 50 10000 0.96 125 22:28 17.12.2020
4747 Clear 11 1017 50 10000 0.96 125 21:46 17.12.2020
4748 Clear 11 1017 49 10000 1.12 125 21:22 17.12.2020
4749 Clear 11 1017 49 10000 1.12 125 20:55 17.12.2020
4750 Clear 11 1017 49 10000 1.12 125 20:36 17.12.2020
4751 Clear 12 1017 48 10000 1.4 111 20:18 17.12.2020
4752 Clear 12 1017 48 10000 1.4 111 19:41 17.12.2020
4753 Clouds 12 1017 45 10000 1.96 91 19:22 17.12.2020
4754 Clouds 13 1017 44 10000 1.84 93 18:41 17.12.2020
4755 Clouds 13 1016 41 10000 2.44 81 18:21 17.12.2020
4756 Clouds 13 1016 41 10000 2.44 81 17:49 17.12.2020
4757 Clouds 13 1016 41 10000 2.44 81 17:31 17.12.2020
4758 Clouds 14 1014 37 10000 2.76 98 16:42 17.12.2020
4759 Clouds 17 1013 32 10000 3.41 114 16:23 17.12.2020
4760 Clouds 17 1013 32 10000 3.41 114 15:51 17.12.2020
4761 Clouds 20 1011 24 10000 4.64 126 15:30 17.12.2020
4762 Clouds 20 1011 24 10000 4.64 126 14:54 17.12.2020
4763 Clouds 22 1011 20 10000 4.08 140 14:29 17.12.2020
4764 Clouds 22 1011 20 10000 4.08 140 13:51 17.12.2020
4765 Clouds 22 1011 20 10000 3.63 146 13:27 17.12.2020
4766 Clear 22 1011 20 10000 3.52 151 12:44 17.12.2020
4767 Clear 22 1012 20 10000 3.22 153 12:24 17.12.2020
4768 Clear 22 1012 20 10000 3.22 153 11:44 17.12.2020
4769 Clear 21 1013 22 10000 2.99 150 11:23 17.12.2020
4770 Clear 21 1013 22 10000 2.99 150 10:49 17.12.2020
4771 Clear 19 1027 29 10000 4.1 110 09:43 17.12.2020
4772 Clear 19 1027 29 10000 4.1 110 09:24 17.12.2020
4773 Clear 17 1018 30 10000 2.55 146 07:50 17.12.2020
4774 Clear 17 1018 30 10000 2.55 146 07:31 17.12.2020
4775 Clear 15 1018 35 10000 1.87 141 06:53 17.12.2020
4776 Clear 9 1027 49 10000 3.6 70 06:32 17.12.2020
4777 Clear 9 1027 49 10000 3.6 70 06:32 17.12.2020
4778 Clear 8 1026 49 10000 1 320 04:45 17.12.2020
4779 Clear 10 1027 53 10000 2.1 310 00:38 17.12.2020
4780 Clear 10 1027 53 10000 2.1 310 23:52 16.12.2020
4781 Clear 11 1018 48 10000 0.63 223 23:19 16.12.2020
4782 Clear 11 1018 48 10000 0.63 223 22:54 16.12.2020
4783 Clear 12 1028 58 10000 4.1 80 22:34 16.12.2020
4784 Clear 12 1028 58 10000 4.1 80 21:50 16.12.2020
4785 Clear 12 1028 58 10000 4.1 80 21:32 16.12.2020
4786 Clear 12 1019 46 10000 0.51 153 20:55 16.12.2020
4787 Clear 12 1018 45 10000 0.8 133 20:21 16.12.2020
4788 Clear 12 1018 45 10000 0.8 133 19:52 16.12.2020
4789 Clear 13 1017 43 10000 1.8 94 19:19 16.12.2020
4790 Clear 13 1017 43 10000 1.8 94 18:53 16.12.2020
4791 Clear 14 1016 38 10000 2.45 85 18:27 16.12.2020
4792 Clear 14 1016 38 10000 2.45 85 17:44 16.12.2020
4793 Clear 15 1015 36 10000 2.54 97 17:18 16.12.2020
4794 Clear 15 1015 36 10000 2.54 97 16:39 16.12.2020
4795 Clear 17 1013 31 10000 3.47 113 16:20 16.12.2020
4796 Clear 17 1013 31 10000 3.47 113 15:49 16.12.2020
4797 Clouds 21 1012 23 10000 5.26 128 15:26 16.12.2020
4798 Clouds 21 1012 23 10000 5.26 128 14:47 16.12.2020
4799 Clouds 23 1011 20 10000 3.95 150 14:28 16.12.2020
4800 Clouds 23 1011 20 10000 3.95 150 13:46 16.12.2020
4801 Clouds 23 1011 20 10000 2.88 160 13:27 16.12.2020
4802 Clouds 23 1011 20 10000 2.88 160 12:55 16.12.2020
4803 Clouds 23 1011 20 10000 2.82 158 12:34 16.12.2020
4804 Clouds 23 1012 20 10000 2.32 158 11:39 16.12.2020
4805 Clouds 22 1013 22 10000 1.95 155 11:20 16.12.2020
4806 Clouds 22 1013 22 10000 1.95 155 10:43 16.12.2020
4807 Clouds 21 1015 24 10000 1.65 155 10:19 16.12.2020
4808 Clouds 21 1015 24 10000 1.65 155 09:40 16.12.2020
4809 Clouds 17 1018 30 10000 1.9 138 08:27 16.12.2020
4810 Clouds 17 1018 30 10000 1.9 138 07:49 16.12.2020
4811 Clear 12 1027 40 10000 1 60 07:30 16.12.2020
4812 Clouds 12 1027 40 10000 1 60 06:41 16.12.2020
4813 Clear 9 1026 42 10000 2.1 330 02:24 16.12.2020
4814 Clear 11 1017 50 10000 0.29 231 00:20 16.12.2020
4815 Clear 11 1017 50 10000 0.29 231 23:42 15.12.2020
4816 Clear 11 1017 50 10000 0.56 187 22:44 15.12.2020
4817 Clear 12 1018 49 10000 0.67 194 22:24 15.12.2020
4818 Clear 12 1018 49 10000 0.67 194 21:50 15.12.2020
4819 Clear 12 1018 47 10000 0.45 170 21:24 15.12.2020
4820 Clear 12 1018 47 10000 0.45 170 20:57 15.12.2020
4821 Clear 12 1018 47 10000 0.45 170 20:37 15.12.2020
4822 Clear 12 1018 47 10000 0.45 170 20:37 15.12.2020
4823 Clear 13 1018 46 10000 0.91 99 20:18 15.12.2020
4824 Clear 13 1018 46 10000 0.91 99 19:35 15.12.2020
4825 Clouds 13 1017 41 10000 1.91 75 18:59 15.12.2020
4826 Clouds 13 1017 41 10000 1.91 75 18:39 15.12.2020
4827 Clouds 14 1016 39 10000 2.72 73 18:20 15.12.2020
4828 Clouds 14 1016 39 10000 2.72 73 17:42 15.12.2020
4829 Clouds 15 1015 35 10000 2.83 90 17:22 15.12.2020
4830 Clouds 15 1015 35 10000 2.83 90 16:37 15.12.2020
4831 Clouds 17 1013 30 10000 3.9 111 16:19 15.12.2020
4832 Clouds 17 1013 30 10000 3.9 111 15:37 15.12.2020
4833 Clouds 21 1012 23 10000 4.56 132 14:56 15.12.2020
4834 Clouds 21 1012 23 10000 4.56 132 14:37 15.12.2020
4835 Clouds 23 1011 20 10000 3.5 154 14:19 15.12.2020
4836 Clouds 23 1011 20 10000 3.5 154 13:47 15.12.2020
4837 Clouds 23 1011 20 10000 2.86 164 13:22 15.12.2020
4838 Clear 23 1011 20 10000 2.79 165 12:44 15.12.2020
4839 Clear 23 1012 20 10000 2.61 163 12:18 15.12.2020
4840 Clear 23 1012 20 10000 2.61 163 11:49 15.12.2020
4841 Clear 23 1012 20 10000 2.61 163 11:49 15.12.2020
4842 Clear 22 1013 21 10000 2.25 159 11:20 15.12.2020
4843 Clear 22 1013 21 10000 2.25 159 10:44 15.12.2020
4844 Clear 21 1014 23 10000 1.91 156 10:19 15.12.2020
4845 Clear 21 1014 23 10000 1.91 156 09:40 15.12.2020
4846 Clear 19 1016 26 10000 1.89 148 09:21 15.12.2020
4847 Clear 19 1016 26 10000 1.89 148 08:37 15.12.2020
4848 Clear 17 1017 29 10000 2.03 140 08:19 15.12.2020
4849 Clear 17 1017 29 10000 2.03 140 07:40 15.12.2020
4850 Clear 16 1017 32 10000 1.92 132 06:51 15.12.2020
4851 Clear 10 1018 46 10000 0.97 60 05:27 15.12.2020
4852 Clear 10 1026 53 10000 3.1 320 00:38 15.12.2020
4853 Clear 10 1026 53 10000 3.1 320 23:48 14.12.2020
4854 Clear 10 1026 53 10000 3.1 320 23:19 14.12.2020
4855 Clear 11 1016 50 10000 0.74 70 22:39 14.12.2020
4856 Clear 11 1017 51 10000 0.82 69 21:56 14.12.2020
4857 Clear 11 1017 51 10000 0.82 69 21:36 14.12.2020
4858 Clear 12 1017 51 10000 0.98 76 21:18 14.12.2020
4859 Clear 12 1017 51 10000 0.98 76 20:43 14.12.2020
4860 Clear 12 1017 51 10000 1.64 81 20:24 14.12.2020
4861 Clear 12 1017 51 10000 1.64 81 19:39 14.12.2020
4862 Clear 13 1017 50 10000 2.21 81 19:21 14.12.2020
4863 Clouds 13 1016 49 10000 2.24 83 18:42 14.12.2020
4864 Clouds 14 1016 47 10000 2.25 87 18:22 14.12.2020
4865 Clouds 14 1016 47 10000 2.25 87 17:38 14.12.2020
4866 Clouds 15 1014 44 10000 2.3 108 17:19 14.12.2020
4867 Clouds 15 1014 44 10000 2.3 108 16:40 14.12.2020
4868 Clouds 17 1013 39 10000 3.35 117 16:22 14.12.2020
4869 Clouds 17 1013 39 10000 3.35 117 15:33 14.12.2020
4870 Clouds 17 1013 39 10000 3.35 117 15:33 14.12.2020
4871 Clouds 20 1011 30 10000 5.08 121 14:50 14.12.2020
4872 Clouds 22 1011 23 10000 4.57 132 14:29 14.12.2020
4873 Clouds 22 1011 23 10000 4.57 132 13:56 14.12.2020
4874 Clouds 22 1011 23 10000 4.57 132 13:34 14.12.2020
4875 Clouds 22 1011 22 10000 3.2 153 12:56 14.12.2020
4876 Clouds 22 1011 22 10000 3.2 153 12:32 14.12.2020
4877 Clouds 22 1012 22 10000 2.46 163 11:56 14.12.2020
4878 Clouds 22 1013 24 10000 2.02 161 11:23 14.12.2020
4879 Clouds 20 1015 27 10000 2.04 147 10:28 14.12.2020
4880 Clouds 20 1015 27 10000 2.04 147 09:53 14.12.2020
4881 Clouds 19 1016 32 10000 2.52 136 08:57 14.12.2020
4882 Clouds 19 1016 32 10000 2.52 136 08:39 14.12.2020
4883 Clouds 17 1017 38 10000 2.44 132 07:59 14.12.2020
4884 Clouds 13 1028 58 10000 2.1 300 07:22 14.12.2020
4885 Clouds 13 1028 58 10000 2.1 300 06:43 14.12.2020
4886 Clouds 9 1026 66 10000 1.5 360 03:58 14.12.2020
4887 Clouds 10 1026 57 10000 1.5 70 02:23 14.12.2020
4888 Clouds 12 1026 54 10000 1.5 360 00:49 14.12.2020
4889 Clouds 12 1026 54 10000 1.5 360 00:27 14.12.2020
4890 Clouds 12 1026 50 10000 4.6 70 23:44 13.12.2020
4891 Clouds 11 1017 60 10000 0.7 75 22:58 13.12.2020
4892 Clouds 11 1017 60 10000 0.7 75 22:39 13.12.2020
4893 Clouds 11 1017 61 10000 0.81 90 22:18 13.12.2020
4894 Clouds 11 1017 61 10000 0.81 90 21:41 13.12.2020
4895 Clouds 11 1017 61 10000 0.8 102 20:55 13.12.2020
4896 Clear 12 1017 59 10000 1.28 104 20:28 13.12.2020
4897 Clear 12 1017 59 10000 1.28 104 19:48 13.12.2020
4898 Clear 15 1027 58 10000 9.3 70 19:24 13.12.2020
4899 Clear 15 1027 58 10000 9.3 70 18:56 13.12.2020
4900 Clear 15 1027 58 10000 9.3 70 18:36 13.12.2020
4901 Clear 15 1027 58 10000 9.3 70 18:18 13.12.2020
4902 Clear 13 1016 52 10000 2.47 93 17:45 13.12.2020
4903 Clear 14 1015 49 10000 2.59 100 17:18 13.12.2020
4904 Clear 14 1015 49 10000 2.59 100 16:46 13.12.2020
4905 Clear 16 1013 43 10000 3.37 106 16:28 13.12.2020
4906 Clear 16 1013 43 10000 3.37 106 15:45 13.12.2020
4907 Clear 20 1011 33 10000 5.5 109 15:26 13.12.2020
4908 Clear 20 1011 33 10000 5.5 109 14:47 13.12.2020
4909 Clear 22 1010 25 10000 4.32 117 14:28 13.12.2020
4910 Clear 22 1010 25 10000 4.32 117 13:48 13.12.2020
4911 Clear 22 1010 25 10000 4.32 117 13:30 13.12.2020
4912 Clear 23 1011 22 10000 3.35 120 12:56 13.12.2020
4913 Clear 22 1012 21 10000 2.6 131 12:24 13.12.2020
4914 Clear 22 1012 21 10000 2.6 131 11:58 13.12.2020
4915 Clear 22 1012 21 10000 2.6 131 11:31 13.12.2020
4916 Clear 21 1013 23 10000 2.53 129 10:43 13.12.2020
4917 Clear 20 1015 26 10000 2.53 127 10:21 13.12.2020
4918 Clear 20 1015 26 10000 2.53 127 09:39 13.12.2020
4919 Clear 18 1016 34 10000 2.7 124 08:47 13.12.2020
4920 Clear 16 1018 43 10000 2.73 131 08:28 13.12.2020
4921 Clouds 9 1027 76 10000 1.5 350 06:28 13.12.2020
4922 Clouds 9 1025 81 10000 2.1 70 02:44 13.12.2020
4923 Clear 10 1017 80 10000 0.99 113 02:20 13.12.2020
4924 Clear 10 1017 80 10000 0.99 113 01:34 13.12.2020
4925 Clear 10 1017 80 10000 0.36 137 00:44 13.12.2020
4926 Clouds 11 1027 76 10000 1.5 90 23:37 12.12.2020
4927 Clouds 11 1027 76 10000 1.5 90 23:19 12.12.2020
4928 Clear 11 1018 78 10000 0.54 107 22:29 12.12.2020
4929 Clear 11 1018 78 10000 0.54 107 21:46 12.12.2020
4930 Clear 12 1018 77 10000 1.03 95 21:20 12.12.2020
4931 Clear 12 1018 77 10000 1.03 95 20:45 12.12.2020
4932 Clear 12 1018 76 10000 1.59 89 20:21 12.12.2020
4933 Clear 12 1018 76 10000 1.59 89 19:52 12.12.2020
4934 Clouds 13 1019 73 10000 2.16 91 19:33 12.12.2020
4935 Clouds 13 1019 73 10000 2.16 91 19:33 12.12.2020
4936 Clouds 13 1018 67 10000 2.09 87 18:56 12.12.2020
4937 Clouds 13 1018 67 10000 2.09 87 18:37 12.12.2020
4938 Clouds 13 1017 64 10000 2.52 100 18:18 12.12.2020
4939 Clouds 13 1017 64 10000 2.52 100 17:40 12.12.2020
4940 Clouds 19 1026 45 10000 5.7 110 16:42 12.12.2020
4941 Clouds 19 1026 45 10000 5.7 110 15:57 12.12.2020
4942 Clouds 16 1014 53 10000 3.92 116 15:39 12.12.2020
4943 Clouds 19 1012 43 10000 5.64 120 14:54 12.12.2020
4944 Clouds 21 1012 34 10000 5.34 132 14:21 12.12.2020
4945 Clouds 21 1012 34 10000 5.34 132 13:41 12.12.2020
4946 Clouds 23 1012 28 10000 4.4 148 13:22 12.12.2020
4947 Clouds 23 1012 26 10000 3.32 156 12:33 12.12.2020
4948 Clouds 22 1013 28 10000 2.38 159 11:19 12.12.2020
4949 Clouds 22 1013 28 10000 2.38 159 10:45 12.12.2020
4950 Clouds 19 1016 38 10000 1.99 147 09:23 12.12.2020
4951 Clouds 17 1017 45 10000 2.11 144 07:42 12.12.2020
4952 Clouds 10 1027 76 10000 3.1 70 01:39 12.12.2020
4953 Clouds 11 1018 66 10000 0.49 98 23:21 11.12.2020
4954 Clouds 12 1019 63 10000 0.91 107 20:57 11.12.2020
4955 Clouds 12 1019 61 10000 1.51 85 19:42 11.12.2020
4956 Clouds 15 1016 49 10000 2.41 100 16:49 11.12.2020
4957 Clouds 20 1013 32 10000 4.62 115 14:37 11.12.2020
4958 Clouds 22 1013 25 10000 4.85 116 13:42 11.12.2020
4959 Clouds 22 1014 22 10000 3.86 122 12:22 11.12.2020
4960 Clouds 22 1014 22 10000 3.86 122 11:52 11.12.2020
4961 Clouds 22 1014 22 10000 3.86 122 11:30 11.12.2020
4962 Clouds 22 1015 22 10000 3.18 128 10:34 11.12.2020
4963 Clouds 13 1029 50 10000 1.5 320 07:28 11.12.2020
4964 Clouds 8 1028 65 10000 3.1 30 05:20 11.12.2020
4965 Clouds 10 1019 49 10000 0.73 65 02:58 11.12.2020
4966 Clouds 10 1018 46 10000 0.44 52 00:40 11.12.2020
4967 Clouds 11 1018 45 10000 0.66 26 23:25 10.12.2020
4968 Clouds 11 1019 45 10000 1.12 33 21:37 10.12.2020
4969 Clear 12 1019 44 10000 1.73 45 20:50 10.12.2020
4970 Clear 12 1019 45 10000 2.37 62 19:53 10.12.2020
4971 Clouds 12 1019 45 10000 2.66 69 19:21 10.12.2020
4972 Clouds 12 1019 44 10000 2.56 69 18:45 10.12.2020
4973 Clouds 14 1016 42 10000 3 85 17:23 10.12.2020
4974 Clouds 16 1015 38 10000 3.51 100 15:52 10.12.2020
4975 Clouds 19 1014 32 10000 5.59 107 14:59 10.12.2020
4976 Clouds 19 1014 32 10000 5.59 107 14:39 10.12.2020
4977 Clouds 22 1013 24 10000 4.83 110 13:26 10.12.2020
4978 Clear 22 1014 23 10000 4.22 111 11:51 10.12.2020
4979 Clear 20 1016 26 10000 3.79 123 10:29 10.12.2020
4980 Clear 17 1020 34 10000 3.12 124 08:19 10.12.2020
4981 Clouds 13 1029 47 10000 2.6 70 06:57 10.12.2020
4982 Clouds 10 1028 76 10000 1 40 05:26 10.12.2020
4983 Clouds 12 1027 58 10000 3.1 320 02:31 10.12.2020
4984 Clouds 12 1027 58 10000 3.1 320 01:18 10.12.2020
4985 Clouds 10 1019 51 10000 0.65 9 23:35 09.12.2020
4986 Clouds 11 1020 55 10000 1.75 59 20:37 09.12.2020
4987 Clouds 11 1020 55 10000 2.38 74 19:38 09.12.2020
4988 Clouds 12 1018 55 10000 3.32 83 18:21 09.12.2020
4989 Clouds 14 1017 51 10000 3.51 90 16:54 09.12.2020
4990 Clouds 16 1015 46 10000 4.45 100 16:25 09.12.2020
4991 Clouds 16 1015 46 10000 4.45 100 15:41 09.12.2020
4992 Clouds 19 1013 37 10000 5.43 101 14:49 09.12.2020
4993 Clouds 20 1013 33 10000 5.74 100 14:25 09.12.2020
4994 Clouds 22 1026 28 10000 7.2 110 13:19 09.12.2020
4995 Clouds 22 1026 28 10000 7.2 110 12:57 09.12.2020
4996 Clouds 22 1026 28 10000 7.2 110 12:22 09.12.2020
4997 Clouds 21 1027 30 10000 5.7 100 11:32 09.12.2020
4998 Clouds 20 1016 32 10000 4.19 113 09:51 09.12.2020
4999 Clouds 19 1017 36 10000 3.35 109 08:34 09.12.2020
5000 Clouds 13 1020 62 10000 1.21 109 06:29 09.12.2020
5001 Clouds 10 1020 71 10000 0.88 80 04:49 09.12.2020
5002 Clouds 10 1019 73 10000 0.83 87 02:30 09.12.2020
5003 Clouds 11 1019 64 10000 0.64 70 00:24 09.12.2020
5004 Clouds 11 1019 64 10000 1.06 49 23:28 08.12.2020
5005 Clear 12 1019 65 10000 1.57 57 21:54 08.12.2020
5006 Clear 12 1020 68 10000 2.46 70 20:23 08.12.2020
5007 Clear 13 1020 65 10000 3.39 79 19:25 08.12.2020
5008 Clear 13 1020 59 10000 2.92 73 18:31 08.12.2020
5009 Clouds 16 1016 46 10000 4.45 96 16:28 08.12.2020
5010 Clear 19 1014 39 10000 6.1 100 14:46 08.12.2020
5011 Clouds 20 1014 38 10000 5.94 102 13:44 08.12.2020
5012 Clouds 21 1014 37 10000 5.86 106 12:37 08.12.2020
5013 Clouds 21 1015 34 10000 5.32 109 11:52 08.12.2020
5014 Clouds 21 1016 31 10000 4.52 105 10:52 08.12.2020
5015 Clouds 21 1016 31 10000 4.52 105 10:31 08.12.2020
5016 Clouds 18 1030 48 10000 8.2 90 09:35 08.12.2020
5017 Clouds 17 1019 44 10000 3.51 109 07:34 08.12.2020
5018 Clouds 10 1029 81 10000 1.35 84 04:22 08.12.2020
5019 Clouds 10 1028 81 10000 2.1 100 01:48 08.12.2020
5020 Clouds 10 1028 81 10000 2.1 90 00:44 08.12.2020
5021 Clouds 11 1029 81 10000 6.7 60 22:56 07.12.2020
5022 Clouds 11 1029 81 10000 6.7 60 22:18 07.12.2020
5023 Clear 12 1020 82 10000 1.29 87 20:47 07.12.2020
5024 Clouds 13 1020 78 10000 2.29 97 18:58 07.12.2020
5025 Clouds 14 1018 74 10000 2.59 97 17:31 07.12.2020
5026 Clouds 15 1017 68 10000 3.25 103 16:59 07.12.2020
5027 Clouds 16 1015 61 10000 4.33 106 16:19 07.12.2020
5028 Clouds 19 1014 53 10000 5.57 107 15:24 07.12.2020
5029 Clouds 21 1013 46 10000 5.25 111 14:28 07.12.2020
5030 Clouds 21 1013 46 10000 5.25 111 13:35 07.12.2020
5031 Clouds 22 1014 38 10000 3.41 124 11:52 07.12.2020
5032 Clouds 22 1014 38 10000 3.41 124 11:32 07.12.2020
5033 Clouds 20 1016 43 10000 3.37 116 10:23 07.12.2020
5034 Clouds 17 1030 55 10000 2.6 110 08:37 07.12.2020
5035 Clouds 17 1030 55 10000 2.6 110 07:23 07.12.2020
5036 Clouds 11 1028 76 10000 0.96 79 05:26 07.12.2020
5037 Clear 11 1018 74 10000 0.73 80 03:43 07.12.2020
5038 Clouds 12 1017 70 10000 0.7 67 00:33 07.12.2020
5039 Clouds 14 1017 64 10000 1.24 89 22:46 06.12.2020
5040 Clouds 14 1018 65 10000 1.45 80 21:44 06.12.2020
5041 Clouds 14 1018 65 10000 1.72 67 20:35 06.12.2020
5042 Clouds 14 1018 63 10000 2.04 71 19:57 06.12.2020
5043 Clouds 14 1017 58 10000 2.51 76 18:53 06.12.2020
5044 Clouds 16 1015 53 10000 3.75 86 17:24 06.12.2020
5045 Clouds 16 1015 53 10000 3.75 86 16:33 06.12.2020
5046 Clouds 20 1013 41 10000 3.28 107 14:46 06.12.2020
5047 Clouds 21 1012 39 10000 2.49 88 12:53 06.12.2020
5048 Clouds 21 1013 36 10000 2.7 87 12:27 06.12.2020
5049 Clouds 21 1013 36 10000 2.7 87 11:40 06.12.2020
5050 Clouds 21 1014 36 10000 2.61 98 11:21 06.12.2020
5051 Clouds 21 1014 36 10000 2.61 98 10:32 06.12.2020
5052 Clear 20 1016 41 10000 3.27 117 08:57 06.12.2020
5053 Clouds 16 1028 59 10000 2.1 40 07:20 06.12.2020
5054 Clouds 12 1027 76 10000 2.1 340 03:50 06.12.2020
5055 Clouds 13 1017 68 10000 0.64 184 00:43 06.12.2020
5056 Clouds 14 1027 67 10000 3.1 60 00:25 06.12.2020
5057 Clouds 14 1027 67 10000 3.1 60 23:44 05.12.2020
5058 Clouds 14 1017 65 10000 1.15 81 22:23 05.12.2020
5059 Clouds 14 1017 65 10000 1.15 81 21:51 05.12.2020
5060 Clouds 14 1017 65 10000 1.34 80 21:27 05.12.2020
5061 Clouds 14 1017 64 10000 1.7 77 19:49 05.12.2020
5062 Clouds 15 1016 63 10000 1.88 73 18:45 05.12.2020
5063 Clouds 15 1016 61 10000 2.47 69 17:35 05.12.2020
5064 Clouds 16 1015 56 10000 3.1 77 16:43 05.12.2020
5065 Clouds 19 1013 46 10000 3.78 95 16:20 05.12.2020
5066 Clouds 25 1025 31 10000 3.1 160 14:30 05.12.2020
5067 Clouds 23 1012 28 10000 1.1 216 12:32 05.12.2020
5068 Clouds 24 1013 28 10000 0.88 207 11:49 05.12.2020
5069 Clouds 23 1026 38 10000 2.1 210 10:33 05.12.2020
5070 Clear 18 1017 45 10000 2.21 120 07:49 05.12.2020
5071 Clear 14 1028 62 10000 2.1 310 07:25 05.12.2020
5072 Clear 10 1027 81 10000 1.5 330 04:46 05.12.2020
5073 Clear 12 1017 73 10000 0.96 67 23:56 04.12.2020
5074 Clear 13 1018 72 10000 1.3 75 22:39 04.12.2020
5075 Clear 14 1018 72 10000 2.32 79 20:29 04.12.2020
5076 Clouds 14 1018 69 10000 2.41 71 18:53 04.12.2020
5077 Clouds 14 1017 67 10000 2.79 79 18:21 04.12.2020
5078 Clouds 14 1017 67 10000 2.79 79 17:41 04.12.2020
5079 Clouds 17 1014 55 10000 3.82 99 15:54 04.12.2020
5080 Clear 21 1012 39 10000 4.6 116 13:58 04.12.2020
5081 Clear 21 1012 39 10000 4.6 116 13:31 04.12.2020
5082 Clouds 22 1012 37 10000 4 126 12:55 04.12.2020
5083 Clouds 22 1013 33 10000 3 123 11:33 04.12.2020
5084 Clouds 21 1016 34 10000 2.68 108 10:28 04.12.2020
5085 Clouds 17 1018 49 10000 3.2 110 07:53 04.12.2020
5086 Clouds 16 1019 54 10000 2.84 105 06:39 04.12.2020
5087 Clouds 11 1019 57 10000 1.11 75 04:50 04.12.2020
5088 Clear 12 1017 49 10000 0.75 48 23:51 03.12.2020
5089 Clouds 15 1028 58 10000 6.2 70 22:47 03.12.2020
5090 Clouds 16 1028 59 10000 4.1 70 21:20 03.12.2020
5091 Clear 13 1018 52 10000 2.14 51 19:49 03.12.2020
5092 Clear 13 1017 53 10000 2.54 60 19:20 03.12.2020
5093 Clear 13 1017 50 10000 2.5 59 18:39 03.12.2020
5094 Clear 14 1016 48 10000 3.4 83 17:20 03.12.2020
5095 Clear 16 1014 46 10000 3.8 96 15:59 03.12.2020
5096 Clear 22 1025 33 10000 6.2 120 15:31 03.12.2020
5097 Clear 22 1025 33 10000 6.2 120 14:48 03.12.2020
5098 Clear 20 1012 36 10000 5.35 101 13:50 03.12.2020
5099 Clouds 22 1012 29 10000 4.56 105 12:33 03.12.2020
5100 Clouds 22 1013 28 10000 4.14 106 11:59 03.12.2020
5101 Clouds 21 1015 28 10000 4.04 105 10:38 03.12.2020
5102 Clouds 19 1017 37 10000 3.91 107 08:38 03.12.2020
5103 Clouds 11 1026 81 10000 0.98 86 03:42 03.12.2020
5104 Clouds 11 1027 76 10000 2.1 320 01:41 03.12.2020
5105 Clouds 12 1018 65 10000 0.96 56 23:51 02.12.2020
5106 Clouds 14 1028 67 10000 40.1 50 22:41 02.12.2020
5107 Clouds 12 1018 69 10000 1.83 70 21:37 02.12.2020
5108 Clouds 12 1018 71 10000 2.04 73 20:48 02.12.2020
5109 Clouds 13 1018 71 10000 2.17 72 20:30 02.12.2020
5110 Clouds 13 1018 71 10000 2.17 72 19:39 02.12.2020
5111 Clouds 13 1016 73 10000 2.55 81 17:48 02.12.2020
5112 Clouds 18 1025 63 10000 5.1 100 17:29 02.12.2020
5113 Clouds 21 1024 49 10000 6.2 110 15:43 02.12.2020
5114 Clouds 22 1024 46 10000 5.1 100 13:20 02.12.2020
5115 Clouds 20 1013 42 10000 3.68 107 11:20 02.12.2020
5116 Clouds 19 1027 52 10000 6.2 110 10:24 02.12.2020
5117 Clear 18 1017 51 10000 3.97 110 07:42 02.12.2020
5118 Clouds 15 1027 67 10000 4.6 70 23:22 01.12.2020
5119 Clouds 15 1027 67 10000 4.6 70 22:20 01.12.2020
5120 Rain 14 1017 74 10000 2.44 88 19:36 01.12.2020
5121 Rain 14 1016 73 10000 2.53 83 18:55 01.12.2020
5122 Rain 15 1014 69 10000 2.97 85 16:47 01.12.2020
5123 Rain 20 1011 49 10000 3.53 118 14:53 01.12.2020
5124 Clouds 22 1025 43 10000 4.1 150 12:45 01.12.2020
5125 Clouds 22 1025 43 10000 4.1 150 11:29 01.12.2020
5126 Clouds 20 1013 48 10000 3.27 135 10:52 01.12.2020
5127 Clouds 20 1014 48 10000 3.57 137 10:26 01.12.2020
5128 Clouds 17 1027 59 10000 4.6 90 07:40 01.12.2020
5129 Clouds 12 1026 76 10000 1.5 320 02:57 01.12.2020
5130 Clouds 12 1026 76 10000 1.5 320 02:57 01.12.2020
5131 Clouds 14 1016 59 10000 0.87 193 00:57 01.12.2020
5132 Clouds 13 1016 61 10000 0.51 157 00:29 01.12.2020
5133 Clouds 14 1016 60 10000 0.8 129 23:20 30.11.2020
5134 Clouds 14 1016 60 10000 0.8 129 22:40 30.11.2020
5135 Clouds 14 1017 62 10000 0.86 118 22:22 30.11.2020
5136 Clear 14 1017 67 10000 1.9 88 19:46 30.11.2020
5137 Clouds 14 1016 68 10000 2.38 85 18:54 30.11.2020
5138 Clouds 14 1016 67 10000 2.49 88 18:21 30.11.2020
5139 Clouds 14 1016 67 10000 2.49 88 17:45 30.11.2020
5140 Clouds 15 1014 64 10000 2.85 99 16:52 30.11.2020
5141 Clouds 20 1012 44 10000 3.87 126 14:47 30.11.2020
5142 Clouds 22 1011 35 10000 2.93 143 13:55 30.11.2020
5143 Clear 23 1011 32 10000 2.04 158 12:57 30.11.2020
5144 Clear 22 1012 35 10000 1.94 146 12:25 30.11.2020
5145 Clouds 21 1026 46 10000 4.1 180 10:59 30.11.2020
5146 Clouds 21 1026 46 10000 4.1 180 10:21 30.11.2020
5147 Clear 19 1016 44 10000 2.16 124 08:52 30.11.2020
5148 Clear 12 1016 75 10000 0.34 202 01:25 30.11.2020
5149 Clouds 15 1027 67 10000 5.1 70 23:26 29.11.2020
5150 Clouds 15 1027 67 10000 5.1 70 23:26 29.11.2020
5151 Clear 12 1017 79 10000 0.86 111 21:44 29.11.2020
5152 Clear 12 1017 81 10000 1.26 90 21:25 29.11.2020
5153 Clouds 13 1016 81 10000 2.45 92 19:19 29.11.2020
5154 Clouds 14 1015 79 10000 2.66 89 17:34 29.11.2020
5155 Clouds 20 1010 48 10000 4.71 112 13:37 29.11.2020
5156 Clouds 21 1011 44 10000 4.3 121 12:44 29.11.2020
5157 Clouds 25 1025 41 10000 5.1 130 11:36 29.11.2020
5158 Clouds 17 1028 67 10000 3.6 70 08:53 29.11.2020
5159 Clouds 17 1028 67 10000 3.6 70 08:34 29.11.2020
5160 Clouds 14 1025 93 10000 2.1 70 02:31 29.11.2020
5161 Clouds 15 1027 77 10000 2.1 90 22:59 28.11.2020
5162 Clouds 15 1027 77 10000 2.1 90 22:18 28.11.2020
5163 Clouds 14 1016 82 10000 1.75 84 19:58 28.11.2020
5164 Rain 14 1016 80 10000 2.19 92 19:27 28.11.2020
5165 Rain 14 1016 80 10000 2.19 92 18:56 28.11.2020
5166 Rain 15 1015 76 10000 2.45 90 18:19 28.11.2020
5167 Clouds 18 1024 63 10000 5.1 100 16:56 28.11.2020
5168 Rain 19 1010 62 9050 3.18 101 14:58 28.11.2020
5169 Rain 20 1010 56 10000 3.29 102 13:47 28.11.2020
5170 Clouds 21 1026 49 10000 4.6 120 11:25 28.11.2020
5171 Rain 20 1015 56 10000 2.99 130 09:25 28.11.2020
5172 Clouds 13 1025 54 10000 4.1 50 03:39 28.11.2020
5173 Clouds 13 1026 54 10000 1.5 130 01:52 28.11.2020
5174 Clouds 13 1026 54 10000 1.5 130 01:52 28.11.2020
5175 Clouds 14 1017 79 10000 1.41 59 23:19 27.11.2020
5176 Clouds 14 1017 78 10000 1.25 89 22:23 27.11.2020
5177 Clouds 14 1017 78 10000 1.46 82 20:39 27.11.2020
5178 Clouds 14 1017 78 10000 2.29 68 19:33 27.11.2020
5179 Clouds 14 1016 76 10000 2.53 75 18:57 27.11.2020
5180 Rain 17 1011 65 10000 3.22 104 16:27 27.11.2020
5181 Rain 21 1009 52 10000 3.49 104 14:23 27.11.2020
5182 Rain 21 1009 49 10000 3.18 119 13:18 27.11.2020
5183 Rain 21 1009 49 10000 3.18 119 12:46 27.11.2020
5184 Clouds 22 1026 49 10000 4.6 140 10:53 27.11.2020
5185 Clouds 22 1026 49 10000 4.6 140 10:32 27.11.2020
5186 Rain 21 1013 51 10000 3.27 139 09:31 27.11.2020
5187 Clouds 13 1015 79 10000 0.68 174 23:18 26.11.2020
5188 Clouds 13 1015 78 10000 0.61 195 22:24 26.11.2020
5189 Clouds 13 1015 78 10000 0.61 195 21:42 26.11.2020
5190 Clouds 14 1015 75 10000 0.65 130 20:43 26.11.2020
5191 Rain 15 1014 75 10000 1.98 82 18:36 26.11.2020
5192 Rain 16 1012 71 10000 3.12 76 17:20 26.11.2020
5193 Clouds 21 1009 46 10000 2.33 150 13:44 26.11.2020
5194 Clouds 20 1009 47 10000 2.92 141 12:56 26.11.2020
5195 Clouds 21 1010 43 10000 3 147 12:29 26.11.2020
5196 Clouds 22 1011 41 10000 2.67 143 10:40 26.11.2020
5197 Clouds 21 1013 44 10000 2.66 146 10:18 26.11.2020
5198 Clouds 21 1013 44 10000 2.66 146 09:34 26.11.2020
5199 Clear 20 1014 49 10000 2.61 152 08:47 26.11.2020
5200 Clouds 18 1016 57 10000 2.1 155 08:28 26.11.2020
5201 Clouds 12 1015 82 10000 0.22 60 02:18 26.11.2020
5202 Rain 13 1016 82 10000 0.65 141 21:54 25.11.2020
5203 Rain 13 1016 80 10000 1.05 142 20:32 25.11.2020
5204 Rain 14 1015 80 10000 1.76 103 18:59 25.11.2020
5205 Rain 15 1014 74 10000 2.93 72 17:28 25.11.2020
5206 Rain 17 1012 64 10000 2.77 86 15:43 25.11.2020
5207 Rain 19 1011 52 10000 3.15 117 14:57 25.11.2020
5208 Clouds 22 1023 43 10000 4.1 170 13:45 25.11.2020
5209 Clouds 22 1024 43 10000 5.1 160 12:47 25.11.2020
5210 Clouds 22 1025 43 10000 4.1 140 11:23 25.11.2020
5211 Clouds 19 1015 48 10000 2.1 174 09:21 25.11.2020
5212 Clouds 19 1015 48 10000 2.1 174 08:50 25.11.2020
5213 Clouds 17 1028 59 10000 3.6 100 07:21 25.11.2020
5214 Clouds 12 1026 81 10000 2.1 60 03:49 25.11.2020
5215 Clouds 14 1025 67 10000 1 260 01:49 25.11.2020
5216 Clouds 14 1025 67 10000 1.5 330 00:19 25.11.2020
5217 Clouds 12 1016 71 10000 0.59 165 23:35 24.11.2020
5218 Clouds 12 1016 69 10000 0.6 143 22:39 24.11.2020
5219 Clouds 12 1016 69 10000 0.6 143 22:39 24.11.2020
5220 Clouds 13 1017 67 10000 0.9 81 21:35 24.11.2020
5221 Clouds 13 1017 64 10000 1.71 71 20:58 24.11.2020
5222 Clear 13 1016 61 10000 1.97 80 19:48 24.11.2020
5223 Clouds 15 1015 56 10000 2.62 78 17:32 24.11.2020
5224 Clouds 17 1014 48 10000 3.56 93 16:58 24.11.2020
5225 Clouds 17 1014 48 10000 3.56 93 16:37 24.11.2020
5226 Clouds 18 1013 42 10000 3.88 100 15:56 24.11.2020
5227 Clouds 20 1011 39 10000 3.08 113 15:19 24.11.2020
5228 Clouds 20 1011 39 10000 3.08 113 14:44 24.11.2020
5229 Clouds 22 1010 32 10000 2.16 168 13:34 24.11.2020
5230 Clouds 22 1010 29 10000 2.22 193 12:38 24.11.2020
5231 Clouds 23 1011 28 10000 2.15 192 11:59 24.11.2020
5232 Clear 23 1012 28 10000 2.21 174 11:24 24.11.2020
5233 Clear 22 1014 30 10000 1.94 167 10:25 24.11.2020
5234 Clear 22 1014 30 10000 1.94 167 09:39 24.11.2020
5235 Clear 20 1015 34 10000 1.76 172 08:58 24.11.2020
5236 Clouds 11 1027 57 10000 2.1 350 05:53 24.11.2020
5237 Clouds 11 1017 53 10000 0.49 234 00:41 24.11.2020
5238 Clouds 16 1028 44 10000 5.1 60 22:24 23.11.2020
5239 Clouds 12 1019 46 10000 1.19 53 21:29 23.11.2020
5240 Clouds 13 1018 44 10000 1.68 55 20:29 23.11.2020
5241 Clouds 13 1018 44 10000 1.68 55 19:56 23.11.2020
5242 Clear 14 1017 38 10000 2.72 69 17:53 23.11.2020
5243 Clouds 20 1026 40 10000 5.1 130 16:56 23.11.2020
5244 Clear 21 1012 24 10000 3.5 124 14:50 23.11.2020
5245 Clear 23 1012 21 10000 2.75 172 13:58 23.11.2020
5246 Clouds 24 1011 20 10000 2.48 176 12:41 23.11.2020
5247 Clouds 23 1012 20 10000 2.05 178 11:59 23.11.2020
5248 Clouds 23 1012 20 10000 2.05 178 11:40 23.11.2020
5249 Clouds 22 1015 23 10000 1.64 151 10:19 23.11.2020
5250 Clouds 20 1016 26 10000 2.01 144 08:59 23.11.2020
5251 Clouds 18 1018 29 10000 1.93 146 08:18 23.11.2020
5252 Clouds 10 1028 46 10000 2.1 360 05:22 23.11.2020
5253 Clouds 10 1018 45 10000 0.49 36 23:59 22.11.2020
5254 Clouds 11 1018 44 10000 0.75 54 22:40 22.11.2020
5255 Clear 12 1019 41 10000 1.46 77 21:26 22.11.2020
5256 Clear 12 1019 41 10000 1.46 77 20:35 22.11.2020
5257 Clear 12 1019 40 10000 2.03 74 19:36 22.11.2020
5258 Clear 13 1017 37 10000 2.68 78 18:25 22.11.2020
5259 Clear 14 1015 35 10000 2.81 95 16:36 22.11.2020
5260 Clear 20 1011 25 10000 3.97 124 15:28 22.11.2020
5261 Clear 22 1010 22 10000 3.22 140 13:44 22.11.2020
5262 Clouds 23 1011 21 10000 3.06 136 12:43 22.11.2020
5263 Clear 23 1011 21 10000 3.37 133 11:55 22.11.2020
5264 Clouds 22 1013 22 10000 3.54 130 10:54 22.11.2020
5265 Clouds 22 1013 22 10000 3.54 130 10:36 22.11.2020
5266 Clear 15 1028 51 10000 3.1 11 07:43 22.11.2020
5267 Clear 10 1016 52 10000 0.41 179 01:47 22.11.2020
5268 Clouds 11 1017 49 10000 0.38 97 22:52 21.11.2020
5269 Clouds 12 1017 48 10000 1.08 133 21:32 21.11.2020
5270 Clouds 12 1017 48 10000 0.92 101 20:54 21.11.2020
5271 Clouds 13 1017 48 10000 1.55 89 20:28 21.11.2020
5272 Clouds 13 1017 48 10000 1.55 89 19:50 21.11.2020
5273 Clear 13 1016 47 10000 1.99 81 19:20 21.11.2020
5274 Clear 14 1015 47 10000 2.51 79 17:54 21.11.2020
5275 Clear 15 1014 45 10000 2.79 98 16:47 21.11.2020
5276 Clear 16 1013 42 10000 3.4 104 15:43 21.11.2020
5277 Clear 20 1011 35 10000 4.83 112 15:21 21.11.2020
5278 Clear 20 1011 35 10000 4.83 112 14:42 21.11.2020
5279 Clouds 23 1010 29 10000 4.45 123 12:59 21.11.2020
5280 Clouds 23 1011 29 10000 4.03 125 12:23 21.11.2020
5281 Clouds 23 1011 29 10000 4.03 125 11:50 21.11.2020
5282 Clouds 21 1014 31 10000 3.9 120 10:28 21.11.2020
5283 Clouds 20 1016 33 10000 3.87 120 09:19 21.11.2020
5284 Clouds 20 1016 33 10000 3.87 120 08:44 21.11.2020
5285 Clear 14 1018 39 10000 0.76 96 05:42 21.11.2020
5286 Clear 10 1018 49 10000 0.23 15 03:36 21.11.2020
5287 Clear 11 1017 46 10000 0.36 310 00:22 21.11.2020
5288 Clear 11 1017 46 10000 0.32 221 23:19 20.11.2020
5289 Clear 11 1018 44 10000 0.77 201 21:46 20.11.2020
5290 Clear 12 1018 43 10000 0.55 117 21:22 20.11.2020
5291 Clear 12 1018 43 10000 0.55 117 20:41 20.11.2020
5292 Clouds 13 1017 41 10000 2.05 64 19:28 20.11.2020
5293 Clouds 13 1016 40 10000 2.46 74 18:27 20.11.2020
5294 Clouds 13 1016 40 10000 2.46 74 17:31 20.11.2020
5295 Clouds 14 1014 39 10000 2.85 86 16:47 20.11.2020
5296 Clouds 16 1013 37 10000 3.64 94 16:27 20.11.2020
5297 Clouds 16 1013 37 10000 3.64 94 15:42 20.11.2020
5298 Clouds 22 1011 26 10000 4.53 120 13:57 20.11.2020
5299 Clouds 22 1011 24 10000 3.5 131 13:20 20.11.2020
5300 Clouds 22 1011 24 10000 3.74 133 12:50 20.11.2020
5301 Clouds 22 1012 24 10000 3.3 139 11:52 20.11.2020
5302 Clouds 21 1013 26 10000 3.18 139 11:21 20.11.2020
5303 Clouds 20 1014 29 10000 3.19 135 09:47 20.11.2020
5304 Clouds 17 1017 36 10000 3.07 132 08:29 20.11.2020
5305 Clouds 17 1017 36 10000 3.07 132 07:47 20.11.2020
5306 Clear 10 1019 49 10000 0.58 96 05:18 20.11.2020
5307 Clear 10 1017 48 10000 0.51 327 23:38 19.11.2020
5308 Clear 11 1017 47 10000 0.33 328 22:30 19.11.2020
5309 Clear 11 1017 46 10000 0.22 43 21:52 19.11.2020
5310 Clear 11 1018 45 10000 0.9 58 20:53 19.11.2020
5311 Clear 12 1017 44 10000 1.68 74 20:19 19.11.2020
5312 Clear 12 1017 43 10000 2.04 80 19:26 19.11.2020
5313 Clouds 12 1017 42 10000 2.07 74 18:47 19.11.2020
5314 Clouds 13 1015 39 10000 2.61 95 17:21 19.11.2020
5315 Clouds 15 1013 37 10000 3.79 107 16:32 19.11.2020
5316 Clouds 19 1011 32 10000 4.89 116 15:29 19.11.2020
5317 Clouds 20 1011 29 10000 4.93 122 13:51 19.11.2020
5318 Clouds 20 1011 29 10000 4.93 122 13:33 19.11.2020
5319 Clouds 21 1011 28 10000 4.95 121 12:52 19.11.2020
5320 Clouds 21 1011 28 10000 4.95 121 12:33 19.11.2020
5321 Clouds 22 1011 29 10000 4.73 125 11:40 19.11.2020
5322 Clouds 21 1013 29 10000 4.21 134 11:21 19.11.2020
5323 Clouds 21 1013 29 10000 4.21 134 10:31 19.11.2020
5324 Clouds 20 1014 31 10000 3.68 141 09:47 19.11.2020
5325 Clouds 19 1015 34 10000 3.31 145 09:27 19.11.2020
5326 Clear 17 1016 37 10000 2.89 143 08:21 19.11.2020
5327 Clear 17 1016 37 10000 2.89 143 07:30 19.11.2020
5328 Clear 10 1016 51 10000 0.42 84 01:46 19.11.2020
5329 Clouds 10 1016 51 10000 0.32 9 00:32 19.11.2020
5330 Clouds 11 1017 50 10000 0.35 347 23:31 18.11.2020
5331 Clouds 11 1017 50 10000 0.35 347 22:58 18.11.2020
5332 Clouds 11 1017 49 10000 0.35 355 22:27 18.11.2020
5333 Clouds 11 1017 49 10000 0.35 355 21:43 18.11.2020
5334 Clouds 11 1017 49 10000 0.78 37 21:24 18.11.2020
5335 Clouds 12 1017 47 10000 1.63 57 20:31 18.11.2020
5336 Clouds 12 1017 47 10000 1.63 57 19:37 18.11.2020
5337 Clouds 12 1017 46 10000 2.28 66 18:57 18.11.2020
5338 Clouds 12 1017 45 10000 2.13 66 18:38 18.11.2020
5339 Clouds 13 1016 44 10000 2.65 70 17:41 18.11.2020
5340 Clouds 21 1024 26 10000 5.1 100 16:25 18.11.2020
5341 Clouds 21 1024 26 10000 5.1 100 15:57 18.11.2020
5342 Clouds 22 1024 26 10000 5.1 90 14:41 18.11.2020
5343 Clouds 20 1011 30 10000 5.19 106 13:46 18.11.2020
5344 Clouds 20 1011 30 10000 5.19 106 13:46 18.11.2020
5345 Clouds 21 1011 28 10000 5.1 108 13:21 18.11.2020
5346 Clouds 21 1011 28 10000 5.1 108 12:42 18.11.2020
5347 Clouds 21 1012 26 10000 5.26 109 11:41 18.11.2020
5348 Clouds 20 1026 28 10000 5.1 110 10:54 18.11.2020
5349 Clouds 20 1026 28 10000 5.1 110 10:27 18.11.2020
5350 Clouds 18 1027 34 10000 4.1 90 08:23 18.11.2020
5351 Clear 14 1027 54 10000 2.1 90 06:36 18.11.2020
5352 Clear 9 1017 52 10000 0.95 22 00:58 18.11.2020
5353 Clear 9 1017 52 10000 1.14 44 23:47 17.11.2020
5354 Clear 14 1026 47 10000 2.1 80 22:53 17.11.2020
5355 Clear 14 1026 47 10000 2.1 80 22:29 17.11.2020
5356 Clear 14 1027 47 10000 7.2 70 21:52 17.11.2020
5357 Clear 14 1027 47 10000 7.2 70 21:30 17.11.2020
5358 Clear 15 1027 38 10000 7.2 70 20:50 17.11.2020
5359 Clear 15 1027 38 10000 8.2 70 20:27 17.11.2020
5360 Clear 15 1027 38 10000 8.2 70 19:56 17.11.2020
5361 Clear 11 1017 44 10000 2.58 69 18:34 17.11.2020
5362 Clear 12 1016 42 10000 2.88 68 17:44 17.11.2020
5363 Clear 13 1015 40 10000 3.12 76 16:54 17.11.2020
5364 Clear 15 1014 35 10000 3.79 93 16:20 17.11.2020
5365 Clear 15 1014 35 10000 3.79 93 15:41 17.11.2020
5366 Clear 18 1012 28 10000 4.6 102 15:22 17.11.2020
5367 Clear 18 1012 28 10000 4.6 102 14:54 17.11.2020
5368 Clear 20 1011 25 10000 5.22 106 14:28 17.11.2020
5369 Clear 20 1011 25 10000 5.22 106 13:36 17.11.2020
5370 Clear 21 1011 24 10000 5.42 110 12:48 17.11.2020
5371 Clouds 22 1012 23 10000 4.85 110 12:24 17.11.2020
5372 Clouds 22 1012 23 10000 4.85 110 11:42 17.11.2020
5373 Clouds 19 1028 37 10000 4.1 130 10:46 17.11.2020
5374 Clear 19 1028 37 10000 4.1 130 10:23 17.11.2020
5375 Clear 19 1028 37 10000 4.1 130 09:49 17.11.2020
5376 Clear 19 1028 37 10000 4.1 130 09:24 17.11.2020
5377 Clear 18 1028 39 10000 3.6 100 08:22 17.11.2020
5378 Clear 17 1018 31 10000 2.7 125 07:43 17.11.2020
5379 Clear 12 1027 62 10000 3.1 30 05:21 17.11.2020
5380 Clear 12 1026 62 10000 2.6 320 03:31 17.11.2020
5381 Clear 12 1026 58 10000 1.5 130 02:31 17.11.2020
5382 Clear 10 1018 48 10000 0.51 2 00:57 17.11.2020
5383 Clear 10 1019 47 10000 0.82 1 00:20 17.11.2020
5384 Clear 10 1019 47 10000 0.82 1 23:41 16.11.2020
5385 Clear 10 1019 46 10000 0.97 12 23:19 16.11.2020
5386 Clear 11 1019 45 10000 0.87 9 22:29 16.11.2020
5387 Clear 11 1019 45 10000 0.87 9 21:59 16.11.2020
5388 Clear 11 1019 45 10000 0.87 9 21:40 16.11.2020
5389 Clear 11 1019 44 10000 1.22 26 21:20 16.11.2020
5390 Clear 12 1019 43 10000 1.93 49 20:26 16.11.2020
5391 Clear 12 1019 43 10000 1.93 49 19:55 16.11.2020
5392 Clear 17 1027 42 10000 5.1 80 19:30 16.11.2020
5393 Clouds 17 1027 42 10000 5.1 80 18:52 16.11.2020
5394 Clear 17 1027 42 10000 5.1 80 18:21 16.11.2020
5395 Clear 19 1026 37 10000 3.1 90 17:36 16.11.2020
5396 Clear 19 1026 37 10000 3.1 90 17:18 16.11.2020
5397 Clear 14 1015 38 10000 3.34 78 16:49 16.11.2020
5398 Clear 15 1013 35 10000 3.85 96 16:26 16.11.2020
5399 Clear 15 1013 35 10000 3.85 96 15:45 16.11.2020
5400 Clear 19 1011 31 10000 4.68 104 15:27 16.11.2020
5401 Clear 19 1011 31 10000 4.68 104 14:48 16.11.2020
5402 Clear 21 1011 28 10000 5.31 105 13:50 16.11.2020
5403 Clouds 21 1011 27 10000 5.35 106 13:18 16.11.2020
5404 Clouds 22 1011 26 10000 5.21 110 12:30 16.11.2020
5405 Clouds 22 1011 26 10000 5.21 110 11:41 16.11.2020
5406 Clear 22 1013 27 10000 4.26 110 11:21 16.11.2020
5407 Clear 22 1013 27 10000 4.26 110 10:44 16.11.2020
5408 Clear 21 1014 28 10000 3.75 112 10:26 16.11.2020
5409 Clear 21 1014 28 10000 3.75 112 09:50 16.11.2020
5410 Clear 19 1016 30 10000 3.6 115 09:25 16.11.2020
5411 Clear 19 1016 30 10000 3.6 115 08:42 16.11.2020
5412 Clear 18 1017 34 10000 3.21 117 08:18 16.11.2020
5413 Clear 16 1018 39 10000 2.59 117 06:56 16.11.2020
5414 Clouds 12 1027 62 10000 1 80 06:38 16.11.2020
5415 Clouds 12 1027 62 10000 1 80 05:22 16.11.2020
5416 Clouds 10 1025 66 10000 5.1 70 03:54 16.11.2020
5417 Clouds 10 1026 66 10000 3.1 30 01:44 16.11.2020
5418 Clouds 14 1026 50 10000 1 300 00:26 16.11.2020
5419 Clouds 14 1026 50 10000 5.1 50 23:28 15.11.2020
5420 Clear 11 1018 47 10000 0.93 18 22:57 15.11.2020
5421 Clear 11 1018 46 10000 1.32 23 22:22 15.11.2020
5422 Clear 11 1018 46 10000 1.32 23 21:51 15.11.2020
5423 Clear 11 1018 47 10000 1.9 41 21:27 15.11.2020
5424 Clear 11 1018 47 10000 1.9 41 20:48 15.11.2020
5425 Clouds 16 1027 44 10000 6.2 60 20:28 15.11.2020
5426 Clouds 16 1027 44 10000 6.2 60 19:54 15.11.2020
5427 Clouds 16 1027 44 10000 6.2 60 19:36 15.11.2020
5428 Clouds 16 1027 44 10000 6.2 60 19:18 15.11.2020
5429 Clouds 16 1027 44 10000 6.2 60 18:41 15.11.2020
5430 Clouds 16 1027 44 10000 6.2 60 18:23 15.11.2020
5431 Clouds 18 1025 36 10000 5.7 70 17:47 15.11.2020
5432 Clouds 18 1025 36 10000 5.7 70 17:25 15.11.2020
5433 Clouds 20 1025 32 10000 5.7 90 16:51 15.11.2020
5434 Clouds 20 1025 32 10000 5.7 90 16:22 15.11.2020
5435 Clouds 21 1024 28 10000 7.2 100 15:56 15.11.2020
5436 Clouds 21 1024 28 10000 7.2 100 15:37 15.11.2020
5437 Clouds 21 1024 28 10000 7.2 100 15:19 15.11.2020
5438 Clouds 23 1024 25 10000 5.7 120 14:36 15.11.2020
5439 Clouds 23 1024 25 10000 5.7 110 14:18 15.11.2020
5440 Clouds 23 1024 25 10000 5.7 110 13:39 15.11.2020
5441 Clouds 22 1010 25 10000 5.24 99 12:52 15.11.2020
5442 Clouds 22 1011 24 10000 4.91 98 12:26 15.11.2020
5443 Clouds 22 1011 24 10000 4.91 98 11:55 15.11.2020
5444 Clouds 22 1011 24 10000 4.91 98 11:37 15.11.2020
5445 Clear 22 1013 26 10000 4.76 99 11:18 15.11.2020
5446 Clear 22 1013 26 10000 4.76 99 10:43 15.11.2020
5447 Clear 21 1027 32 10000 4.1 130 10:25 15.11.2020
5448 Clear 21 1027 32 10000 4.1 130 09:41 15.11.2020
5449 Clear 21 1027 32 10000 4.1 130 09:20 15.11.2020
5450 Clear 20 1016 32 10000 4.21 108 08:53 15.11.2020
5451 Clear 18 1017 38 10000 4.03 113 08:28 15.11.2020
5452 Clear 18 1017 38 10000 4.03 113 07:43 15.11.2020
5453 Clear 12 1025 54 10000 2.6 90 04:59 15.11.2020
5454 Clear 12 1025 54 10000 2.6 90 03:40 15.11.2020
5455 Clear 10 1016 62 10000 0.32 142 00:49 15.11.2020
5456 Clear 14 1026 47 10000 5.1 50 00:28 15.11.2020
5457 Clear 14 1026 47 10000 5.1 50 23:37 14.11.2020
5458 Clear 14 1027 47 10000 5.1 40 22:50 14.11.2020
5459 Clear 14 1027 47 10000 5.1 40 22:30 14.11.2020
5460 Clear 15 1027 44 10000 5.1 40 21:43 14.11.2020
5461 Clear 15 1027 44 10000 5.1 40 21:22 14.11.2020
5462 Clear 16 1028 44 10000 5.1 50 20:56 14.11.2020
5463 Clear 16 1028 44 10000 5.1 50 20:28 14.11.2020
5464 Clear 17 1027 42 10000 6.2 80 19:51 14.11.2020
5465 Clouds 17 1027 42 10000 6.2 80 19:31 14.11.2020
5466 Clouds 13 1017 48 10000 2.37 46 18:43 14.11.2020
5467 Clouds 13 1016 47 10000 3.03 62 18:24 14.11.2020
5468 Clouds 13 1016 47 10000 3.03 62 17:57 14.11.2020
5469 Clouds 20 1025 30 10000 5.1 100 17:39 14.11.2020
5470 Clouds 20 1025 30 10000 5.1 100 17:19 14.11.2020
5471 Clouds 20 1025 30 10000 5.1 100 16:41 14.11.2020
5472 Clouds 20 1025 30 10000 5.1 100 16:20 14.11.2020
5473 Clouds 21 1025 28 10000 4.1 90 15:51 14.11.2020
5474 Clouds 21 1025 28 10000 4.1 90 15:26 14.11.2020
5475 Clouds 20 1011 32 10000 4.56 104 14:42 14.11.2020
5476 Clouds 21 1011 26 10000 4.52 104 14:23 14.11.2020
5477 Clouds 21 1011 26 10000 4.52 104 13:42 14.11.2020
5478 Clouds 22 1024 33 10000 5.1 120 13:23 14.11.2020
5479 Clouds 22 1024 33 10000 5.1 120 12:46 14.11.2020
5480 Clouds 22 1024 33 10000 5.1 120 12:28 14.11.2020
5481 Clouds 23 1012 23 10000 4.08 108 11:46 14.11.2020
5482 Clouds 21 1026 35 10000 5.1 90 11:25 14.11.2020
5483 Clouds 21 1026 35 10000 5.1 90 10:45 14.11.2020
5484 Clouds 21 1026 35 10000 5.1 90 10:25 14.11.2020
5485 Clear 21 1015 29 10000 2.69 122 09:49 14.11.2020
5486 Clear 20 1016 34 10000 2.71 124 09:28 14.11.2020
5487 Clear 20 1016 34 10000 2.71 124 08:50 14.11.2020
5488 Clear 16 1028 48 10000 4.1 80 08:29 14.11.2020
5489 Clear 16 1028 48 10000 4.1 80 07:50 14.11.2020
5490 Clear 16 1028 48 10000 4.1 80 07:26 14.11.2020
5491 Clear 16 1019 44 10000 2.18 130 06:32 14.11.2020
5492 Clear 12 1027 62 10000 0.83 90 05:31 14.11.2020
5493 Clear 9 1019 59 10000 0.99 25 03:53 14.11.2020
5494 Clear 10 1017 61 10000 0.29 45 00:59 14.11.2020
5495 Clear 10 1018 59 10000 0.27 81 23:47 13.11.2020
5496 Clear 11 1018 56 10000 0.56 73 23:25 13.11.2020
5497 Clear 11 1018 56 10000 0.56 73 22:46 13.11.2020
5498 Clear 11 1018 55 10000 1.11 50 22:26 13.11.2020
5499 Clear 11 1018 55 10000 1.11 50 21:55 13.11.2020
5500 Clear 15 1028 54 10000 6.2 50 21:37 13.11.2020
5501 Clear 15 1028 54 10000 6.2 50 21:19 13.11.2020
5502 Clear 15 1028 54 10000 6.2 50 20:41 13.11.2020
5503 Clear 15 1028 54 10000 6.2 50 20:21 13.11.2020
5504 Clouds 12 1018 53 10000 2.07 52 19:46 13.11.2020
5505 Clear 17 1028 51 10000 4.1 40 19:23 13.11.2020
5506 Clear 17 1028 51 10000 4.1 40 18:54 13.11.2020
5507 Clear 17 1028 51 10000 4.1 40 18:21 13.11.2020
5508 Clear 18 1027 42 10000 5.1 70 17:41 13.11.2020
5509 Clear 18 1027 42 10000 5.1 70 17:18 13.11.2020
5510 Clouds 19 1026 34 10000 7.2 80 16:48 13.11.2020
5511 Clouds 19 1026 34 10000 7.2 80 16:23 13.11.2020
5512 Clouds 20 1025 30 10000 6.2 80 15:47 13.11.2020
5513 Clouds 20 1025 30 10000 6.2 80 15:27 13.11.2020
5514 Clouds 21 1025 28 10000 7.2 110 14:45 13.11.2020
5515 Clouds 21 1025 28 10000 7.2 110 14:22 13.11.2020
5516 Clouds 22 1025 30 10000 7.2 90 13:47 13.11.2020
5517 Clouds 22 1025 30 10000 7.2 90 13:21 13.11.2020
5518 Clouds 22 1025 33 10000 6.2 90 12:45 13.11.2020
5519 Clouds 22 1025 33 10000 6.2 90 12:24 13.11.2020
5520 Clouds 21 1013 31 10000 5.67 107 11:48 13.11.2020
5521 Clouds 20 1027 30 10000 5.1 120 11:25 13.11.2020
5522 Clouds 20 1027 30 10000 5.1 120 10:55 13.11.2020
5523 Clouds 20 1027 30 10000 5.1 120 10:34 13.11.2020
5524 Clouds 20 1016 32 10000 5.31 110 09:56 13.11.2020
5525 Clouds 20 1016 32 10000 5.31 110 09:34 13.11.2020
5526 Clouds 19 1017 32 10000 4.38 113 08:59 13.11.2020
5527 Clouds 17 1029 39 10000 6.2 80 08:34 13.11.2020
5528 Clouds 17 1029 39 10000 6.2 80 07:57 13.11.2020
5529 Clouds 17 1029 39 10000 6.2 80 07:38 13.11.2020
5530 Clouds 17 1029 39 10000 6.2 80 07:20 13.11.2020
5531 Clouds 13 1028 54 10000 2.6 100 06:45 13.11.2020
5532 Clouds 11 1028 71 10000 1 40 05:42 13.11.2020
5533 Clouds 10 1027 76 10000 2.6 70 04:57 13.11.2020
5534 Clouds 12 1027 66 10000 4.1 50 01:45 13.11.2020
5535 Clear 10 1018 55 10000 0.98 358 00:37 13.11.2020
5536 Clear 10 1018 54 10000 0.75 24 00:18 13.11.2020
5537 Clear 15 1029 54 10000 6.2 50 23:37 12.11.2020
5538 Clear 15 1029 54 10000 6.2 50 23:18 12.11.2020
5539 Clear 15 1029 54 10000 6.2 50 22:48 12.11.2020
5540 Clear 11 1019 53 10000 1 25 22:30 12.11.2020
5541 Clear 11 1019 52 10000 1.52 29 21:42 12.11.2020
5542 Clear 12 1019 50 10000 2.17 44 21:24 12.11.2020
5543 Clear 12 1019 50 10000 2.17 44 20:57 12.11.2020
5544 Clear 16 1029 51 10000 8.2 70 20:38 12.11.2020
5545 Clear 16 1029 51 10000 8.2 70 20:18 12.11.2020
5546 Clear 16 1029 51 10000 8.2 70 19:43 12.11.2020
5547 Clear 16 1029 51 10000 8.2 70 19:24 12.11.2020
5548 Clear 13 1018 49 10000 2.62 65 18:48 12.11.2020
5549 Clouds 13 1017 46 10000 2.87 72 18:23 12.11.2020
5550 Clouds 13 1017 46 10000 2.87 72 17:45 12.11.2020
5551 Clouds 19 1026 45 10000 3.31 87 17:26 12.11.2020
5552 Clouds 14 1016 44 10000 3.31 87 16:46 12.11.2020
5553 Clouds 16 1014 42 10000 3.81 99 16:26 12.11.2020
5554 Clouds 16 1014 42 10000 3.81 99 15:57 12.11.2020
5555 Clouds 22 1025 30 10000 6.7 100 15:39 12.11.2020
5556 Clouds 22 1025 30 10000 6.7 100 15:20 12.11.2020
5557 Clouds 22 1025 30 10000 6.7 100 14:43 12.11.2020
5558 Clouds 22 1025 30 10000 6.7 100 14:25 12.11.2020
5559 Clouds 23 1025 31 10000 7.2 120 13:49 12.11.2020
5560 Clouds 23 1025 31 10000 7.2 120 13:21 12.11.2020
5561 Clouds 23 1025 33 10000 6.7 120 12:59 12.11.2020
5562 Clouds 23 1025 33 10000 6.7 120 12:38 12.11.2020
5563 Clouds 23 1025 33 10000 6.7 120 12:18 12.11.2020
5564 Clouds 23 1026 35 10000 7.2 120 11:42 12.11.2020
5565 Clouds 23 1026 35 10000 7.2 120 11:22 12.11.2020
5566 Clouds 22 1027 37 10000 7.2 100 10:41 12.11.2020
5567 Clouds 22 1027 37 10000 7.2 100 10:23 12.11.2020
5568 Clouds 21 1029 40 10000 5.1 120 09:42 12.11.2020
5569 Clouds 21 1029 40 10000 5.1 120 09:22 12.11.2020
5570 Clouds 19 1029 45 10000 5.1 120 08:41 12.11.2020
5571 Clouds 19 1029 45 10000 5.1 120 08:22 12.11.2020
5572 Clouds 19 1029 45 10000 5.1 120 08:22 12.11.2020
5573 Clouds 18 1029 48 10000 4.1 110 07:59 12.11.2020
5574 Clouds 18 1029 48 10000 4.1 110 07:40 12.11.2020
5575 Clouds 18 1029 48 10000 4.1 110 07:18 12.11.2020
5576 Clear 11 1029 71 10000 1 210 06:47 12.11.2020
5577 Clouds 11 1029 71 10000 2.6 50 05:19 12.11.2020
5578 Clouds 10 1028 76 10000 2.6 30 03:21 12.11.2020
5579 Clouds 11 1027 71 10000 4.6 70 01:23 12.11.2020
5580 Clouds 14 1028 54 10000 4.1 40 23:58 11.11.2020
5581 Clouds 14 1028 54 10000 4.1 40 23:25 11.11.2020
5582 Clouds 15 1028 54 10000 3.1 30 22:58 11.11.2020
5583 Clouds 15 1028 54 10000 3.1 30 22:39 11.11.2020
5584 Clouds 15 1028 54 10000 3.1 30 22:19 11.11.2020
5585 Clear 12 1018 56 10000 1.33 39 21:41 11.11.2020
5586 Clear 16 1028 51 10000 5.1 60 21:23 11.11.2020
5587 Clear 16 1028 51 10000 5.1 60 20:57 11.11.2020
5588 Clear 16 1028 51 10000 5.1 60 20:39 11.11.2020
5589 Clear 16 1028 51 10000 5.1 60 20:20 11.11.2020
5590 Clear 17 1028 48 10000 6.2 60 19:48 11.11.2020
5591 Clear 17 1028 48 10000 6.2 60 19:30 11.11.2020
5592 Clouds 19 1026 42 10000 5.7 80 18:50 11.11.2020
5593 Clouds 19 1026 42 10000 5.7 80 18:31 11.11.2020
5594 Clouds 14 1016 50 10000 3.02 68 17:42 11.11.2020
5595 Clouds 15 1015 47 10000 3.42 85 17:22 11.11.2020
5596 Clouds 15 1015 47 10000 3.42 85 16:50 11.11.2020
5597 Clouds 15 1015 47 10000 3.42 85 16:32 11.11.2020
5598 Clouds 15 1015 47 10000 3.42 85 16:32 11.11.2020
5599 Clouds 17 1013 45 10000 3.9 96 15:50 11.11.2020
5600 Clouds 19 1011 42 10000 4.56 100 15:27 11.11.2020
5601 Clouds 19 1011 42 10000 4.56 100 14:56 11.11.2020
5602 Clouds 23 1024 35 10000 6.7 90 14:35 11.11.2020
5603 Clouds 23 1024 35 10000 6.7 90 13:57 11.11.2020
5604 Clouds 23 1024 35 10000 6.7 90 13:35 11.11.2020
5605 Clouds 23 1024 35 10000 5.7 90 12:48 11.11.2020
5606 Clouds 22 1025 33 10000 4.6 130 12:21 11.11.2020
5607 Clouds 22 1025 33 10000 4.6 130 11:49 11.11.2020
5608 Clouds 22 1025 33 10000 4.6 130 11:30 11.11.2020
5609 Clouds 22 1025 33 10000 4.6 130 11:30 11.11.2020
5610 Clouds 21 1027 37 10000 5.1 120 10:43 11.11.2020
5611 Clouds 21 1027 37 10000 5.1 120 10:24 11.11.2020
5612 Clouds 21 1027 40 10000 6.2 100 09:49 11.11.2020
5613 Clear 21 1027 40 10000 6.2 100 09:28 11.11.2020
5614 Clear 19 1028 48 10000 4.6 110 08:49 11.11.2020
5615 Clear 19 1028 48 10000 4.6 110 08:29 11.11.2020
5616 Clear 16 1028 48 10000 3.01 107 07:54 11.11.2020
5617 Clear 16 1028 48 10000 3.01 107 07:36 11.11.2020
5618 Clear 14 1028 47 10000 0.88 70 06:29 11.11.2020
5619 Clear 14 1027 54 10000 2.6 360 04:47 11.11.2020
5620 Clear 14 1026 50 10000 1.5 80 01:33 11.11.2020
5621 Clear 14 1026 50 10000 1 140 00:42 11.11.2020
5622 Clear 11 1017 47 10000 0.84 51 23:56 10.11.2020
5623 Clear 16 1027 48 10000 4.1 60 23:24 10.11.2020
5624 Clear 16 1027 48 10000 4.1 60 22:57 10.11.2020
5625 Clear 16 1027 48 10000 4.1 60 22:28 10.11.2020
5626 Clear 16 1027 48 10000 4.1 60 21:56 10.11.2020
5627 Clear 16 1028 48 10000 5.1 50 21:38 10.11.2020
5628 Clear 16 1028 48 10000 5.1 50 21:19 10.11.2020
5629 Clear 13 1018 42 10000 1.65 37 20:43 10.11.2020
5630 Clear 13 1018 41 10000 2.02 41 20:23 10.11.2020
5631 Clear 13 1018 41 10000 2.02 41 19:56 10.11.2020
5632 Clear 13 1018 41 10000 2.02 41 19:38 10.11.2020
5633 Clouds 13 1017 40 10000 2.19 41 19:20 10.11.2020
5634 Clouds 13 1017 40 10000 2.19 41 18:41 10.11.2020
5635 Clear 14 1016 39 10000 2.7 60 18:20 10.11.2020
5636 Clear 14 1016 39 10000 2.7 60 17:45 10.11.2020
5637 Clear 14 1016 39 10000 2.7 60 17:45 10.11.2020
5638 Clear 14 1015 37 10000 3.08 82 17:27 10.11.2020
5639 Clear 14 1015 37 10000 3.08 82 16:58 10.11.2020
5640 Clear 14 1015 37 10000 3.08 82 16:38 10.11.2020
5641 Clear 16 1013 36 10000 3.68 96 16:20 10.11.2020
5642 Clear 16 1013 36 10000 3.68 96 15:47 10.11.2020
5643 Clear 21 1025 30 10000 5.1 100 15:27 10.11.2020
5644 Clear 19 1012 34 10000 4.37 104 14:43 10.11.2020
5645 Clear 21 1011 30 10000 4.84 106 14:23 10.11.2020
5646 Clear 21 1011 30 10000 4.84 106 13:58 10.11.2020
5647 Clear 23 1024 25 10000 5.7 100 13:37 10.11.2020
5648 Clear 23 1024 25 10000 5.7 100 13:18 10.11.2020
5649 Clear 23 1024 25 10000 5.7 100 12:44 10.11.2020
5650 Clear 23 1024 25 10000 5.7 100 12:24 10.11.2020
5651 Clear 22 1012 28 10000 4.69 104 11:41 10.11.2020
5652 Clear 23 1026 25 10000 6.7 90 11:21 10.11.2020
5653 Clear 23 1026 25 10000 6.7 90 10:48 10.11.2020
5654 Clear 23 1026 25 10000 6.7 90 10:27 10.11.2020
5655 Clear 21 1027 28 10000 7.7 100 09:57 10.11.2020
5656 Clear 21 1027 28 10000 7.7 100 09:39 10.11.2020
5657 Clear 21 1027 28 10000 7.7 100 09:39 10.11.2020
5658 Clear 21 1027 28 10000 7.7 100 09:19 10.11.2020
5659 Clear 21 1028 28 10000 7.2 80 08:49 10.11.2020
5660 Clear 21 1028 28 10000 7.2 80 08:25 10.11.2020
5661 Clear 18 1028 42 10000 6.2 70 07:43 10.11.2020
5662 Clouds 18 1028 42 10000 6.2 70 07:20 10.11.2020
5663 Clear 15 1028 51 10000 2.1 100 06:39 10.11.2020
5664 Clear 11 1028 66 10000 0.5 160 05:41 10.11.2020
5665 Clear 11 1019 52 10000 1.04 57 04:39 10.11.2020
5666 Clear 13 1027 62 10000 3.1 90 01:42 10.11.2020
5667 Clear 13 1027 54 10000 2.1 150 00:59 10.11.2020
5668 Clear 14 1027 50 10000 2.1 230 23:53 09.11.2020
5669 Clear 14 1027 50 10000 2.1 230 23:23 09.11.2020
5670 Clear 14 1028 50 10000 5.1 60 22:44 09.11.2020
5671 Clear 14 1028 50 10000 5.1 60 22:44 09.11.2020
5672 Clear 14 1028 50 10000 5.1 60 22:23 09.11.2020
5673 Clear 15 1028 47 10000 5.1 50 21:45 09.11.2020
5674 Clear 15 1028 47 10000 5.1 50 21:27 09.11.2020
5675 Clear 15 1028 47 10000 5.1 50 21:27 09.11.2020
5676 Clear 15 1029 47 10000 6.2 40 20:45 09.11.2020
5677 Clear 15 1029 47 10000 6.2 40 20:24 09.11.2020
5678 Clear 16 1028 48 10000 7.2 40 19:59 09.11.2020
5679 Clear 16 1028 48 10000 7.2 40 19:40 09.11.2020
5680 Clear 16 1028 48 10000 7.2 40 19:21 09.11.2020
5681 Clear 17 1028 51 10000 5.1 50 18:41 09.11.2020
5682 Clear 17 1028 51 10000 5.1 50 18:20 09.11.2020
5683 Clear 13 1017 46 10000 3.1 65 17:48 09.11.2020
5684 Clouds 20 1026 32 10000 7.2 80 17:29 09.11.2020
5685 Clouds 20 1026 32 10000 7.2 80 16:46 09.11.2020
5686 Clouds 20 1026 32 10000 7.2 80 16:27 09.11.2020
5687 Clouds 22 1026 28 10000 8.2 90 15:50 09.11.2020
5688 Clouds 22 1026 28 10000 8.2 90 15:30 09.11.2020
5689 Clouds 22 1026 28 10000 8.2 90 15:30 09.11.2020
5690 Clouds 22 1026 30 10000 8.2 90 14:57 09.11.2020
5691 Clouds 22 1026 30 10000 8.2 90 14:37 09.11.2020
5692 Clouds 22 1026 30 10000 8.2 90 14:19 09.11.2020
5693 Clouds 23 1026 33 10000 8.2 100 13:43 09.11.2020
5694 Clear 22 1012 33 10000 5.27 99 13:19 09.11.2020
5695 Clear 22 1012 33 10000 5.27 99 12:46 09.11.2020
5696 Clear 22 1013 30 10000 5.01 104 12:21 09.11.2020
5697 Clear 22 1013 30 10000 5.01 104 11:43 09.11.2020
5698 Clouds 22 1028 40 10000 7.2 90 11:24 09.11.2020
5699 Clouds 22 1028 40 10000 7.2 90 10:59 09.11.2020
5700 Clouds 22 1028 40 10000 7.2 90 10:41 09.11.2020
5701 Clouds 22 1028 40 10000 7.2 90 10:22 09.11.2020
5702 Clear 21 1016 32 10000 3.84 98 09:31 09.11.2020
5703 Clear 20 1018 33 10000 4.14 99 08:57 09.11.2020
5704 Clear 18 1030 42 10000 2.1 110 08:28 09.11.2020
5705 Clear 18 1030 42 10000 2.1 110 07:57 09.11.2020
5706 Clouds 17 1020 41 10000 2.79 100 07:24 09.11.2020
5707 Clear 17 1020 43 10000 2.22 111 06:58 09.11.2020
5708 Clouds 14 1029 71 10000 2.1 280 05:38 09.11.2020
5709 Clouds 15 1028 62 10000 1 30 02:22 09.11.2020
5710 Clouds 15 1028 62 10000 1 30 01:41 09.11.2020
5711 Clouds 15 1028 58 10000 3.1 90 00:56 09.11.2020
5712 Clouds 15 1029 58 10000 2.1 80 23:50 08.11.2020
5713 Clouds 15 1029 58 10000 2.1 80 23:28 08.11.2020
5714 Clouds 16 1029 55 10000 3.1 90 22:43 08.11.2020
5715 Clouds 16 1029 55 10000 3.1 90 22:22 08.11.2020
5716 Clouds 13 1018 62 10000 0.86 15 21:49 08.11.2020
5717 Clouds 13 1018 62 10000 1.44 51 21:24 08.11.2020
5718 Clouds 13 1018 62 10000 1.44 51 20:57 08.11.2020
5719 Clouds 13 1018 62 10000 1.44 51 20:38 08.11.2020
5720 Clouds 14 1018 62 10000 1.94 65 20:20 08.11.2020
5721 Clouds 14 1018 62 10000 1.94 65 19:46 08.11.2020
5722 Clouds 14 1018 64 10000 2.71 65 19:24 08.11.2020
5723 Clouds 14 1018 64 10000 2.71 65 18:58 08.11.2020
5724 Clouds 14 1018 63 10000 2.87 63 18:40 08.11.2020
5725 Clouds 14 1017 63 10000 3.4 72 18:20 08.11.2020
5726 Clouds 14 1017 63 10000 3.4 72 17:56 08.11.2020
5727 Clouds 14 1017 63 10000 3.4 72 17:36 08.11.2020
5728 Clouds 15 1015 58 10000 3.48 78 17:18 08.11.2020
5729 Clouds 15 1015 58 10000 3.48 78 16:38 08.11.2020
5730 Clouds 17 1013 53 10000 3.8 92 16:20 08.11.2020
5731 Clouds 17 1013 53 10000 3.8 92 15:46 08.11.2020
5732 Clouds 20 1012 46 10000 4.5 94 15:27 08.11.2020
5733 Clouds 20 1012 46 10000 4.5 94 15:27 08.11.2020
5734 Clouds 20 1012 46 10000 4.5 94 14:44 08.11.2020
5735 Clouds 21 1011 41 10000 4.61 94 14:24 08.11.2020
5736 Clouds 21 1025 43 10000 5.1 100 13:56 08.11.2020
5737 Clouds 21 1025 43 10000 5.1 100 13:26 08.11.2020
5738 Clouds 21 1025 43 10000 5.1 100 13:26 08.11.2020
5739 Clouds 22 1025 40 10000 7.2 120 12:59 08.11.2020
5740 Clouds 22 1025 40 10000 7.2 120 12:40 08.11.2020
5741 Clouds 22 1025 40 10000 7.2 120 12:20 08.11.2020
5742 Clouds 22 1026 40 10000 7.2 110 11:55 08.11.2020
5743 Clouds 22 1026 40 10000 7.2 110 11:37 08.11.2020
5744 Clouds 22 1026 40 10000 7.2 110 11:19 08.11.2020
5745 Clouds 21 1027 46 10000 7.2 90 10:42 08.11.2020
5746 Clouds 21 1027 46 10000 7.2 90 10:18 08.11.2020
5747 Clouds 10 1028 87 10000 8.2 100 09:41 08.11.2020
5748 Clouds 10 1028 87 10000 8.2 100 09:22 08.11.2020
5749 Clouds 20 1016 46 10000 4.22 112 08:45 08.11.2020
5750 Clouds 19 1029 52 10000 3.1 110 08:23 08.11.2020
5751 Clouds 19 1029 52 10000 3.1 110 07:53 08.11.2020
5752 Clouds 19 1029 52 10000 3.1 110 07:31 08.11.2020
5753 Clouds 12 1028 93 10000 2.1 70 06:29 08.11.2020
5754 Clouds 12 1028 93 10000 2.1 70 05:54 08.11.2020
5755 Clouds 12 1028 93 10000 2.1 310 04:51 08.11.2020
5756 Clouds 13 1027 87 10000 1 110 02:44 08.11.2020
5757 Clouds 13 1027 82 10000 1.5 310 01:19 08.11.2020
5758 Clouds 13 1027 82 10000 1.5 310 01:19 08.11.2020
5759 Clouds 14 1027 76 10000 2.1 300 00:31 08.11.2020
5760 Clouds 13 1017 65 10000 0.31 355 23:56 07.11.2020
5761 Clouds 16 1028 67 10000 3.6 70 23:37 07.11.2020
5762 Clouds 16 1028 67 10000 3.6 70 23:18 07.11.2020
5763 Clouds 16 1028 67 10000 3.6 70 22:39 07.11.2020
5764 Clouds 16 1028 67 10000 3.6 70 22:20 07.11.2020
5765 Clouds 17 1028 55 10000 5.7 70 21:40 07.11.2020
5766 Clouds 17 1028 55 10000 5.7 70 21:19 07.11.2020
5767 Clouds 17 1028 55 10000 4.1 70 20:47 07.11.2020
5768 Clouds 17 1028 55 10000 4.1 70 20:29 07.11.2020
5769 Clouds 18 1028 52 10000 4.1 70 19:49 07.11.2020
5770 Clouds 18 1028 52 10000 4.1 70 19:28 07.11.2020
5771 Clouds 18 1027 52 10000 4.1 90 18:45 07.11.2020
5772 Clouds 18 1027 52 10000 4.1 90 18:27 07.11.2020
5773 Clouds 15 1015 56 10000 2.89 70 17:59 07.11.2020
5774 Clouds 15 1015 56 10000 2.89 70 17:37 07.11.2020
5775 Clouds 16 1014 54 10000 3.38 83 16:57 07.11.2020
5776 Clouds 23 1024 38 10000 5.1 110 16:39 07.11.2020
5777 Clouds 23 1024 38 10000 5.1 110 16:20 07.11.2020
5778 Clouds 23 1024 38 10000 5.1 110 15:42 07.11.2020
5779 Clouds 23 1024 38 10000 5.1 110 15:22 07.11.2020
5780 Clouds 23 1024 38 10000 4.1 110 14:48 07.11.2020
5781 Clouds 23 1024 38 10000 4.1 110 14:29 07.11.2020
5782 Clouds 23 1024 33 10000 4.1 90 13:56 07.11.2020
5783 Clouds 23 1024 33 10000 4.1 90 13:31 07.11.2020
5784 Clouds 24 1025 36 10000 3.1 130 12:52 07.11.2020
5785 Clouds 24 1025 36 10000 3.1 130 12:26 07.11.2020
5786 Clouds 22 1025 43 10000 5.7 140 11:45 07.11.2020
5787 Clouds 22 1025 43 10000 5.7 140 11:23 07.11.2020
5788 Clouds 21 1027 46 10000 3.1 130 10:46 07.11.2020
5789 Clouds 21 1027 46 10000 3.1 130 10:27 07.11.2020
5790 Clouds 21 1028 43 10000 3.1 170 09:54 07.11.2020
5791 Clouds 21 1028 43 10000 3.1 170 09:36 07.11.2020
5792 Clouds 20 1028 49 10000 3.6 180 08:55 07.11.2020
5793 Clouds 19 1028 48 10000 4.6 90 08:36 07.11.2020
5794 Clouds 19 1028 48 10000 4.6 90 08:36 07.11.2020
5795 Clouds 19 1028 48 10000 4.6 90 07:55 07.11.2020
5796 Clouds 19 1028 48 10000 4.6 90 07:31 07.11.2020
5797 Clouds 17 1018 45 10000 1.44 147 06:47 07.11.2020
5798 Clouds 14 1028 62 10000 1 20 05:34 07.11.2020
5799 Clouds 12 1027 76 10000 3.1 340 03:24 07.11.2020
5800 Clouds 13 1027 71 10000 2.1 90 01:43 07.11.2020
5801 Clouds 13 1027 71 10000 2.1 90 01:24 07.11.2020
5802 Clear 12 1016 56 10000 0.41 202 00:22 07.11.2020
5803 Clear 13 1017 55 10000 0.31 90 23:24 06.11.2020
5804 Clear 13 1017 55 10000 0.31 90 22:44 06.11.2020
5805 Clear 13 1017 53 10000 1.19 60 22:20 06.11.2020
5806 Clear 13 1017 53 10000 1.19 60 21:47 06.11.2020
5807 Clear 14 1017 52 10000 1.87 50 21:22 06.11.2020
5808 Clear 14 1017 52 10000 1.87 50 20:59 06.11.2020
5809 Clear 14 1017 52 10000 1.87 50 20:41 06.11.2020
5810 Clouds 19 1027 48 10000 5.1 60 20:19 06.11.2020
5811 Clouds 19 1027 48 10000 5.1 60 19:45 06.11.2020
5812 Clouds 19 1027 48 10000 5.1 60 19:26 06.11.2020
5813 Clouds 19 1026 48 10000 5.1 60 18:46 06.11.2020
5814 Clouds 19 1026 48 10000 5.1 60 18:24 06.11.2020
5815 Clouds 20 1025 40 10000 3.6 100 17:51 06.11.2020
5816 Clouds 20 1025 40 10000 3.6 100 17:27 06.11.2020
5817 Clouds 20 1025 40 10000 3.6 100 17:27 06.11.2020
5818 Clouds 22 1024 35 10000 3.6 140 16:50 06.11.2020
5819 Clouds 22 1024 35 10000 3.6 140 16:32 06.11.2020
5820 Clouds 23 1024 33 10000 3.6 150 15:54 06.11.2020
5821 Clouds 23 1024 33 10000 3.6 150 15:33 06.11.2020
5822 Clouds 24 1024 31 10000 5.1 150 14:54 06.11.2020
5823 Clouds 24 1024 31 10000 5.1 150 14:28 06.11.2020
5824 Clouds 24 1024 31 10000 3.1 180 13:49 06.11.2020
5825 Clouds 24 1024 31 10000 3.1 180 13:49 06.11.2020
5826 Clouds 24 1024 31 10000 3.1 180 13:25 06.11.2020
5827 Clouds 23 1009 28 10000 2.99 162 12:47 06.11.2020
5828 Clouds 23 1010 29 10000 2.92 167 12:25 06.11.2020
5829 Clouds 23 1010 29 10000 2.92 167 11:59 06.11.2020
5830 Clouds 23 1010 29 10000 2.92 167 11:36 06.11.2020
5831 Clouds 23 1012 30 10000 2.59 162 10:51 06.11.2020
5832 Clouds 21 1027 35 10000 3.1 110 10:30 06.11.2020
5833 Clouds 21 1027 35 10000 3.1 110 09:50 06.11.2020
5834 Clouds 21 1027 35 10000 3.1 110 09:27 06.11.2020
5835 Clouds 20 1027 37 10000 3.1 100 08:53 06.11.2020
5836 Clouds 20 1027 37 10000 3.1 100 08:31 06.11.2020
5837 Clear 19 1016 35 10000 1.84 145 07:56 06.11.2020
5838 Clouds 16 1027 44 10000 1 50 07:37 06.11.2020
5839 Clouds 16 1027 44 10000 1 50 07:18 06.11.2020
5840 Clouds 16 1027 44 10000 1 50 06:39 06.11.2020
5841 Clear 13 1026 62 10000 2.1 360 05:36 06.11.2020
5842 Clear 11 1015 53 10000 0.23 252 01:45 06.11.2020
5843 Clear 12 1015 53 10000 0.23 249 00:23 06.11.2020
5844 Clear 12 1015 53 10000 0.23 249 23:47 05.11.2020
5845 Clear 14 1026 58 10000 3.1 80 23:19 05.11.2020
5846 Clear 14 1026 58 10000 3.1 80 22:42 05.11.2020
5847 Clear 14 1026 58 10000 3.1 80 22:24 05.11.2020
5848 Clear 15 1026 62 10000 3.1 80 21:44 05.11.2020
5849 Clear 15 1026 62 10000 3.1 80 21:24 05.11.2020
5850 Clear 13 1016 51 10000 1.5 67 20:59 05.11.2020
5851 Clear 13 1016 51 10000 1.5 67 20:41 05.11.2020
5852 Clear 13 1016 51 10000 1.5 67 20:41 05.11.2020
5853 Clear 14 1016 50 10000 1.98 68 20:21 05.11.2020
5854 Clear 14 1016 50 10000 1.98 68 19:43 05.11.2020
5855 Clouds 14 1015 49 10000 2.15 59 19:25 05.11.2020
5856 Clouds 14 1015 47 10000 2.2 63 18:55 05.11.2020
5857 Clear 20 1025 42 10000 4.1 80 18:37 05.11.2020
5858 Clear 20 1025 42 10000 4.1 80 18:18 05.11.2020
5859 Clouds 14 1014 47 10000 2.39 66 17:41 05.11.2020
5860 Clouds 23 1024 31 10000 4.1 90 17:23 05.11.2020
5861 Clouds 15 1013 46 10000 3.04 88 16:43 05.11.2020
5862 Clouds 23 1023 31 10000 5.1 160 16:24 05.11.2020
5863 Clouds 23 1023 31 10000 5.1 160 15:50 05.11.2020
5864 Clouds 23 1023 31 10000 5.1 160 15:50 05.11.2020
5865 Clouds 23 1023 31 10000 5.1 160 15:26 05.11.2020
5866 Clouds 24 1023 31 10000 5.7 150 14:49 05.11.2020
5867 Clouds 24 1023 31 10000 5.7 150 14:31 05.11.2020
5868 Clouds 25 1023 27 10000 5.1 130 13:49 05.11.2020
5869 Clouds 25 1023 27 10000 5.1 130 13:31 05.11.2020
5870 Clouds 24 1023 29 10000 4.1 150 12:54 05.11.2020
5871 Clear 24 1023 29 10000 4.1 150 12:30 05.11.2020
5872 Clear 24 1024 27 10000 5.1 150 11:58 05.11.2020
5873 Clear 24 1024 27 10000 5.1 150 11:38 05.11.2020
5874 Clear 24 1024 27 10000 5.1 150 11:19 05.11.2020
5875 Clear 23 1025 28 10000 5.1 150 10:45 05.11.2020
5876 Clear 23 1025 28 10000 5.1 150 10:26 05.11.2020
5877 Clouds 21 1026 32 10000 4.1 130 09:48 05.11.2020
5878 Clouds 21 1026 32 10000 4.1 130 09:23 05.11.2020
5879 Clouds 20 1027 32 10000 4.1 110 08:45 05.11.2020
5880 Clouds 20 1027 32 10000 4.1 110 08:26 05.11.2020
5881 Clouds 19 1027 32 10000 4.1 100 07:42 05.11.2020
5882 Clouds 19 1027 32 10000 4.1 100 07:22 05.11.2020
5883 Clouds 17 1017 36 10000 1.82 115 06:42 05.11.2020
5884 Clouds 12 1027 50 10000 1 350 05:53 05.11.2020
5885 Clouds 11 1027 57 10000 2.1 350 01:38 05.11.2020
5886 Clear 15 1027 62 10000 3.1 80 00:33 05.11.2020
5887 Clear 11 1017 45 10000 0.25 232 23:45 04.11.2020
5888 Clear 11 1017 45 10000 0.25 232 23:45 04.11.2020
5889 Clear 15 1028 62 10000 0.42 240 23:26 04.11.2020
5890 Clear 15 1028 62 10000 0.42 240 22:53 04.11.2020
5891 Clear 15 1028 62 10000 0.42 240 22:31 04.11.2020
5892 Clear 12 1018 44 10000 0.14 128 21:59 04.11.2020
5893 Clear 12 1018 44 10000 0.14 128 21:41 04.11.2020
5894 Clear 12 1018 44 10000 1.11 91 21:22 04.11.2020
5895 Clear 12 1018 44 10000 1.11 91 20:44 04.11.2020
5896 Clear 13 1018 43 10000 1.56 65 20:26 04.11.2020
5897 Clear 13 1018 43 10000 1.56 65 19:49 04.11.2020
5898 Clouds 17 1027 51 10000 5.1 60 19:30 04.11.2020
5899 Clouds 17 1027 51 10000 5.1 60 18:56 04.11.2020
5900 Clouds 17 1027 51 10000 5.1 60 18:38 04.11.2020
5901 Clouds 17 1027 51 10000 5.1 60 18:20 04.11.2020
5902 Clear 14 1016 42 10000 2.25 81 17:41 04.11.2020
5903 Clouds 22 1025 37 10000 5.1 60 17:23 04.11.2020
5904 Clouds 22 1025 37 10000 5.1 60 16:42 04.11.2020
5905 Clouds 22 1025 37 10000 5.1 60 16:24 04.11.2020
5906 Clouds 23 1024 28 10000 4.1 160 15:48 04.11.2020
5907 Clouds 23 1024 28 10000 4.1 160 15:26 04.11.2020
5908 Clouds 23 1024 28 10000 4.1 160 14:59 04.11.2020
5909 Clouds 23 1024 28 10000 4.1 160 14:41 04.11.2020
5910 Clouds 23 1024 28 10000 4.1 160 14:21 04.11.2020
5911 Clear 22 1010 31 10000 3.42 134 13:47 04.11.2020
5912 Clouds 23 1024 31 10000 2.6 120 13:20 04.11.2020
5913 Clouds 23 1024 31 10000 2.6 120 12:54 04.11.2020
5914 Clouds 23 1024 31 10000 2.6 120 12:36 04.11.2020
5915 Clouds 23 1025 31 10000 3.1 160 11:59 04.11.2020
5916 Clouds 23 1025 31 10000 3.1 160 11:40 04.11.2020
5917 Clouds 23 1025 31 10000 3.1 160 11:20 04.11.2020
5918 Clear 22 1013 29 10000 1.88 133 10:47 04.11.2020
5919 Clear 21 1015 30 10000 2.09 123 10:22 04.11.2020
5920 Clear 21 1015 30 10000 2.09 123 09:53 04.11.2020
5921 Clouds 20 1028 32 10000 2.6 120 09:25 04.11.2020
5922 Clouds 20 1028 32 10000 2.6 120 08:47 04.11.2020
5923 Clouds 18 1028 36 10000 2.1 90 08:21 04.11.2020
5924 Clouds 18 1028 36 10000 2.1 90 07:55 04.11.2020
5925 Clouds 18 1028 36 10000 2.1 90 07:30 04.11.2020
5926 Clouds 15 1028 41 10000 1 300 06:55 04.11.2020
5927 Clouds 15 1028 41 10000 1 300 06:36 04.11.2020
5928 Clear 10 1020 49 10000 0.79 54 03:55 04.11.2020
5929 Clear 10 1019 48 10000 0.33 64 02:24 04.11.2020
5930 Clouds 14 1028 58 10000 4.1 40 00:43 04.11.2020
5931 Clear 10 1019 47 10000 0.5 328 23:44 03.11.2020
5932 Clouds 14 1029 58 10000 5.1 70 23:23 03.11.2020
5933 Clouds 14 1029 58 10000 5.1 70 22:41 03.11.2020
5934 Clouds 14 1029 58 10000 5.1 70 22:21 03.11.2020
5935 Clouds 15 1029 41 10000 3.1 90 21:56 03.11.2020
5936 Clouds 15 1029 41 10000 3.1 90 21:38 03.11.2020
5937 Clouds 15 1029 41 10000 3.1 90 21:20 03.11.2020
5938 Clouds 15 1029 41 10000 3.1 90 20:44 03.11.2020
5939 Clouds 15 1029 41 10000 3.1 90 20:44 03.11.2020
5940 Clouds 15 1029 41 10000 3.1 90 20:23 03.11.2020
5941 Clouds 16 1029 38 10000 2.1 120 19:44 03.11.2020
5942 Clouds 16 1029 38 10000 2.1 120 19:44 03.11.2020
5943 Clouds 16 1029 38 10000 2.1 120 19:23 03.11.2020
5944 Clear 18 1029 36 10000 4.6 80 18:46 03.11.2020
5945 Clear 18 1029 36 10000 4.6 80 18:21 03.11.2020
5946 Clear 18 1027 31 10000 6.2 80 17:59 03.11.2020
5947 Clear 18 1027 31 10000 6.2 80 17:41 03.11.2020
5948 Clear 18 1027 31 10000 6.2 80 17:22 03.11.2020
5949 Clear 14 1017 38 10000 2.64 83 16:45 03.11.2020
5950 Clear 15 1015 34 10000 2.87 102 16:23 03.11.2020
5951 Clear 15 1015 34 10000 2.87 102 15:46 03.11.2020
5952 Clear 19 1013 31 10000 3.6 106 15:25 03.11.2020
5953 Clear 19 1013 31 10000 3.6 106 14:52 03.11.2020
5954 Clear 19 1013 31 10000 3.6 106 14:33 03.11.2020
5955 Clear 20 1013 26 10000 4.75 109 13:46 03.11.2020
5956 Clouds 21 1013 27 10000 4.74 109 13:23 03.11.2020
5957 Clouds 21 1013 28 10000 4.68 107 12:59 03.11.2020
5958 Clouds 21 1013 28 10000 4.68 107 12:37 03.11.2020
5959 Clouds 21 1014 28 10000 4.97 109 12:19 03.11.2020
5960 Clouds 21 1014 28 10000 4.97 109 11:41 03.11.2020
5961 Clouds 21 1015 29 10000 4.62 114 11:20 03.11.2020
5962 Clouds 21 1015 29 10000 4.62 114 10:39 03.11.2020
5963 Clear 21 1016 30 10000 3.95 116 10:21 03.11.2020
5964 Clear 21 1016 30 10000 3.95 116 09:51 03.11.2020
5965 Clear 18 1029 42 10000 5.1 100 09:33 03.11.2020
5966 Clear 18 1029 42 10000 5.1 100 08:56 03.11.2020
5967 Clear 19 1018 33 10000 3.51 116 08:35 03.11.2020
5968 Clear 18 1018 37 10000 3.15 116 07:54 03.11.2020
5969 Clouds 16 1019 43 10000 2.57 116 07:27 03.11.2020
5970 Clouds 16 1019 43 10000 2.49 114 06:49 03.11.2020
5971 Haze 11 1028 62 9000 1 350 05:38 03.11.2020
5972 Clouds 10 1027 71 10000 2.1 310 03:20 03.11.2020
5973 Clouds 13 1029 43 10000 2.1 50 00:42 03.11.2020
5974 Clear 11 1019 46 10000 0.95 30 23:54 02.11.2020
5975 Clear 11 1019 46 10000 0.95 30 23:36 02.11.2020
5976 Clear 11 1019 45 10000 1.07 32 22:55 02.11.2020
5977 Clouds 15 1029 44 10000 2.1 80 22:36 02.11.2020
5978 Clouds 15 1029 44 10000 2.1 80 21:59 02.11.2020
5979 Clouds 15 1029 44 10000 2.1 80 21:38 02.11.2020
5980 Clouds 15 1029 44 10000 2.1 80 21:19 02.11.2020
5981 Clouds 15 1029 44 10000 6.2 50 20:41 02.11.2020
5982 Clouds 15 1029 44 10000 6.2 50 20:20 02.11.2020
5983 Clear 12 1019 42 10000 1.98 47 19:49 02.11.2020
5984 Clouds 16 1028 38 10000 6.2 60 19:27 02.11.2020
5985 Clouds 16 1028 38 10000 6.2 60 18:57 02.11.2020
5986 Clouds 16 1028 38 10000 6.2 60 18:39 02.11.2020
5987 Clouds 16 1028 38 10000 6.2 60 18:20 02.11.2020
5988 Clouds 17 1027 36 10000 6.2 70 17:42 02.11.2020
5989 Clouds 17 1027 36 10000 6.2 70 17:24 02.11.2020
5990 Clouds 20 1027 42 10000 7.2 100 16:54 02.11.2020
5991 Clouds 20 1027 42 10000 7.2 100 16:36 02.11.2020
5992 Clouds 20 1027 40 10000 7.2 100 16:18 02.11.2020
5993 Clear 21 1026 40 10000 7.2 100 15:39 02.11.2020
5994 Clear 21 1026 36 10000 7.2 100 15:20 02.11.2020
5995 Clear 21 1026 36 10000 6.7 100 14:49 02.11.2020
5996 Clear 21 1026 30 10000 6.7 100 14:19 02.11.2020
5997 Clear 20 1012 30 10000 5.39 96 13:51 02.11.2020
5998 Clouds 22 1026 24 10000 9.3 110 13:22 02.11.2020
5999 Clouds 22 1026 24 10000 9.3 110 12:52 02.11.2020
6000 Clouds 22 1026 24 10000 9.3 110 12:28 02.11.2020
6001 Clouds 21 1027 28 10000 8.2 110 11:46 02.11.2020
6002 Clouds 21 1027 28 10000 8.2 110 11:22 02.11.2020
6003 Clouds 20 1028 30 10000 8.7 110 10:59 02.11.2020
6004 Clouds 20 1028 30 10000 8.7 110 10:39 02.11.2020
6005 Clouds 20 1028 30 10000 8.7 110 10:18 02.11.2020
6006 Clouds 20 1029 30 10000 8.2 100 09:42 02.11.2020
6007 Clouds 20 1029 30 10000 8.2 100 09:21 02.11.2020
6008 Clouds 18 1029 45 10000 8.2 90 08:39 02.11.2020
6009 Clouds 18 1029 45 10000 8.2 90 08:19 02.11.2020
6010 Clouds 16 1028 63 10000 6.2 80 07:42 02.11.2020
6011 Clear 16 1019 52 10000 3.66 97 06:46 02.11.2020
6012 Clear 14 1027 71 10000 2.1 110 05:39 02.11.2020
6013 Clouds 15 1026 62 10000 2.1 30 01:35 02.11.2020
6014 Clouds 15 1026 62 10000 2.6 80 00:41 02.11.2020
6015 Clouds 15 1026 62 10000 2.6 80 00:23 02.11.2020
6016 Clouds 15 1027 62 10000 2.6 100 23:40 01.11.2020
6017 Clouds 15 1027 62 10000 2.6 100 23:21 01.11.2020
6018 Clouds 17 1027 59 10000 2.6 60 22:44 01.11.2020
6019 Clouds 17 1027 59 10000 2.6 60 22:23 01.11.2020
6020 Clouds 17 1027 59 10000 2.1 170 21:46 01.11.2020
6021 Clouds 17 1027 59 10000 2.1 170 21:26 01.11.2020
6022 Clouds 17 1028 59 10000 3.1 100 20:51 01.11.2020
6023 Clouds 17 1028 59 10000 3.1 100 20:29 01.11.2020
6024 Clouds 17 1027 59 10000 5.1 70 19:58 01.11.2020
6025 Clouds 17 1027 59 10000 5.1 70 19:39 01.11.2020
6026 Clouds 17 1027 59 10000 5.1 70 19:39 01.11.2020
6027 Clouds 17 1027 59 10000 5.1 70 19:20 01.11.2020
6028 Clouds 18 1026 55 10000 4.1 80 18:40 01.11.2020
6029 Clouds 18 1026 55 10000 4.1 80 18:19 01.11.2020
6030 Clouds 13 1015 56 10000 3.75 68 17:47 01.11.2020
6031 Clouds 14 1014 56 10000 4.06 79 17:29 01.11.2020
6032 Clouds 14 1014 56 10000 4.06 79 16:59 01.11.2020
6033 Clouds 20 1024 40 10000 8.2 100 16:39 01.11.2020
6034 Clouds 20 1024 40 10000 8.2 100 16:18 01.11.2020
6035 Clouds 20 1024 40 10000 8.2 100 15:39 01.11.2020
6036 Clouds 20 1024 40 10000 8.2 100 15:21 01.11.2020
6037 Clouds 21 1024 37 10000 8.2 90 14:48 01.11.2020
6038 Clouds 23 1023 38 10000 8.2 100 14:24 01.11.2020
6039 Clouds 23 1023 38 10000 8.2 100 13:59 01.11.2020
6040 Clouds 23 1023 38 10000 8.2 100 13:40 01.11.2020
6041 Clouds 23 1023 38 10000 8.2 100 13:40 01.11.2020
6042 Clouds 23 1023 38 10000 8.2 100 13:22 01.11.2020
6043 Clouds 22 1024 40 10000 8.2 100 12:43 01.11.2020
6044 Clouds 22 1024 40 10000 8.2 100 12:22 01.11.2020
6045 Clouds 21 1025 46 10000 7.7 90 11:49 01.11.2020
6046 Clouds 21 1025 46 10000 7.7 90 11:18 01.11.2020
6047 Clouds 22 1026 43 10000 8.7 100 10:42 01.11.2020
6048 Clouds 22 1026 43 10000 8.7 100 10:24 01.11.2020
6049 Clouds 20 1027 49 10000 9.8 90 09:50 01.11.2020
6050 Clouds 20 1027 49 10000 9.8 90 09:30 01.11.2020
6051 Clouds 19 1027 52 10000 8.7 90 08:44 01.11.2020
6052 Clouds 18 1027 59 10000 5.7 80 08:18 01.11.2020
6053 Clouds 18 1027 59 10000 5.7 80 07:33 01.11.2020
6054 Clear 11 1017 71 10000 0.31 25 03:25 01.11.2020
6055 Clear 11 1016 71 10000 0.37 20 01:46 01.11.2020
6056 Clear 12 1016 70 10000 1.28 30 00:23 01.11.2020
6057 Clear 12 1016 70 10000 1.37 60 23:24 31.10.2020
6058 Clear 12 1016 70 10000 1.37 60 22:46 31.10.2020
6059 Clear 13 1017 69 10000 1.24 71 22:25 31.10.2020
6060 Clear 13 1017 69 10000 1.24 71 21:47 31.10.2020
6061 Clear 13 1016 68 10000 1.79 53 21:26 31.10.2020
6062 Clear 13 1016 68 10000 1.79 53 20:59 31.10.2020
6063 Clouds 18 1027 52 10000 4.1 80 20:38 31.10.2020
6064 Clouds 18 1027 52 10000 4.1 80 20:18 31.10.2020
6065 Clouds 18 1027 52 10000 4.1 80 19:39 31.10.2020
6066 Clouds 18 1027 52 10000 4.1 80 19:19 31.10.2020
6067 Clouds 19 1026 48 10000 4.1 90 18:46 31.10.2020
6068 Clouds 14 1015 65 10000 2.62 64 17:58 31.10.2020
6069 Clouds 14 1015 65 10000 2.62 64 17:40 31.10.2020
6070 Clouds 15 1014 63 10000 2.84 78 17:19 31.10.2020
6071 Clouds 15 1014 63 10000 2.84 78 16:42 31.10.2020
6072 Clouds 15 1014 63 10000 2.84 78 16:42 31.10.2020
6073 Rain 17 1012 58 10000 2.89 83 16:20 31.10.2020
6074 Rain 17 1012 58 10000 2.89 83 15:43 31.10.2020
6075 Rain 19 1010 52 10000 2.98 88 15:23 31.10.2020
6076 Rain 19 1010 52 10000 2.98 88 14:47 31.10.2020
6077 Clouds 20 1010 46 10000 2.93 80 14:28 31.10.2020
6078 Clouds 20 1010 46 10000 2.93 80 13:50 31.10.2020
6079 Clouds 20 1010 46 10000 2.48 87 13:26 31.10.2020
6080 Clouds 23 1025 35 10000 5.1 100 12:42 31.10.2020
6081 Clouds 23 1025 35 10000 5.1 100 11:48 31.10.2020
6082 Clouds 23 1025 35 10000 5.1 100 11:29 31.10.2020
6083 Clouds 20 1012 42 10000 2.69 120 10:58 31.10.2020
6084 Clouds 21 1027 43 10000 6.2 100 10:36 31.10.2020
6085 Clouds 21 1027 43 10000 6.2 100 09:45 31.10.2020
6086 Clear 20 1015 41 10000 2.59 123 09:27 31.10.2020
6087 Clear 20 1015 41 10000 2.59 123 08:47 31.10.2020
6088 Clouds 17 1028 48 10000 3.1 180 07:59 31.10.2020
6089 Clouds 17 1028 48 10000 3.1 180 07:27 31.10.2020
6090 Clouds 16 1028 51 10000 2.1 200 06:42 31.10.2020
6091 Clouds 16 1028 51 10000 2.1 200 06:20 31.10.2020
6092 Clouds 12 1027 81 10000 2.1 50 03:46 31.10.2020
6093 Clouds 14 1026 71 10000 2.1 100 01:30 31.10.2020
6094 Clouds 14 1027 71 10000 2.1 110 00:47 31.10.2020
6095 Clouds 14 1027 71 10000 2.1 130 23:53 30.10.2020
6096 Clouds 14 1027 71 10000 2.1 130 23:27 30.10.2020
6097 Clouds 15 1027 58 10000 2.1 160 22:56 30.10.2020
6098 Clouds 15 1027 58 10000 2.1 160 22:28 30.10.2020
6099 Clouds 15 1017 47 10000 1.34 62 21:59 30.10.2020
6100 Clouds 15 1017 47 10000 1.34 62 21:40 30.10.2020
6101 Clouds 16 1027 55 10000 5.1 50 21:21 30.10.2020
6102 Clouds 16 1027 55 10000 5.1 50 20:43 30.10.2020
6103 Clouds 16 1027 55 10000 5.1 50 20:24 30.10.2020
6104 Clouds 15 1017 46 10000 2.42 55 19:52 30.10.2020
6105 Clouds 16 1016 45 10000 3.08 68 19:21 30.10.2020
6106 Clouds 15 1016 46 10000 2.92 63 18:52 30.10.2020
6107 Clouds 21 1026 40 10000 4.6 80 18:33 30.10.2020
6108 Clouds 21 1026 40 10000 4.6 80 17:56 30.10.2020
6109 Clouds 21 1026 40 10000 4.6 80 17:36 30.10.2020
6110 Clouds 21 1026 40 10000 4.6 80 17:18 30.10.2020
6111 Clouds 21 1025 40 10000 4.6 90 16:49 30.10.2020
6112 Clouds 21 1025 40 10000 4.6 90 16:19 30.10.2020
6113 Clouds 24 1023 31 10000 5.1 130 15:41 30.10.2020
6114 Clouds 24 1023 31 10000 5.1 130 15:20 30.10.2020
6115 Clouds 24 1023 31 10000 5.1 130 14:45 30.10.2020
6116 Clouds 24 1023 31 10000 5.1 130 14:26 30.10.2020
6117 Clouds 24 1024 31 10000 5.7 180 13:55 30.10.2020
6118 Clouds 24 1024 31 10000 5.7 180 13:37 30.10.2020
6119 Clouds 24 1024 31 10000 5.7 180 13:18 30.10.2020
6120 Clouds 23 1026 31 10000 3.6 150 12:24 30.10.2020
6121 Clouds 23 1026 31 10000 3.6 150 11:59 30.10.2020
6122 Clouds 23 1026 31 10000 3.6 150 11:40 30.10.2020
6123 Clouds 23 1026 31 10000 3.6 150 11:19 30.10.2020
6124 Clouds 22 1027 33 10000 4.1 150 10:47 30.10.2020
6125 Clear 21 1028 32 10000 4.1 120 10:23 30.10.2020
6126 Clear 21 1028 32 10000 4.1 120 09:45 30.10.2020
6127 Clouds 21 1028 32 10000 4.1 120 09:22 30.10.2020
6128 Clear 17 1028 36 10000 5.1 90 08:42 30.10.2020
6129 Clear 17 1028 36 10000 5.1 90 08:23 30.10.2020
6130 Clear 17 1028 36 10000 5.1 90 07:49 30.10.2020
6131 Clear 17 1028 36 10000 5.1 90 07:31 30.10.2020
6132 Clouds 15 1028 44 10000 2.1 120 06:38 30.10.2020
6133 Clouds 11 1020 45 10000 0.6 16 04:47 30.10.2020
6134 Clouds 10 1017 46 10000 0.33 58 02:26 30.10.2020
6135 Clear 13 1026 62 10000 4.1 70 00:40 30.10.2020
6136 Clear 13 1026 62 10000 4.6 70 23:49 29.10.2020
6137 Clear 13 1026 62 10000 4.6 70 23:31 29.10.2020
6138 Clear 13 1027 62 10000 5.7 50 22:58 29.10.2020
6139 Clear 13 1027 62 10000 5.7 50 22:40 29.10.2020
6140 Clear 13 1027 62 10000 5.7 50 22:21 29.10.2020
6141 Clear 14 1027 58 10000 5.7 50 21:37 29.10.2020
6142 Clear 15 1027 51 10000 6.2 50 21:18 29.10.2020
6143 Clear 15 1027 51 10000 6.2 50 20:41 29.10.2020
6144 Clear 15 1027 51 10000 6.2 50 20:19 29.10.2020
6145 Clear 17 1026 39 10000 5.1 50 19:43 29.10.2020
6146 Clouds 17 1026 39 10000 5.1 50 19:22 29.10.2020
6147 Clouds 17 1026 39 10000 5.1 50 18:49 29.10.2020
6148 Clouds 17 1026 39 10000 5.1 50 18:29 29.10.2020
6149 Clouds 17 1026 39 10000 4.1 90 17:57 29.10.2020
6150 Clouds 17 1026 39 10000 4.1 90 17:38 29.10.2020
6151 Clouds 17 1026 39 10000 4.1 90 17:19 29.10.2020
6152 Clear 20 1025 37 10000 6.2 90 16:45 29.10.2020
6153 Clear 20 1025 37 10000 6.2 90 16:19 29.10.2020
6154 Clear 20 1024 34 10000 6.7 100 15:56 29.10.2020
6155 Clear 20 1024 34 10000 6.7 100 15:37 29.10.2020
6156 Clear 20 1024 34 10000 6.7 100 15:19 29.10.2020
6157 Clouds 19 1011 39 10000 4.09 104 14:44 29.10.2020
6158 Clear 23 1023 31 10000 5.1 100 14:22 29.10.2020
6159 Clear 23 1023 31 10000 5.1 100 13:47 29.10.2020
6160 Clear 23 1023 31 10000 5.1 100 13:27 29.10.2020
6161 Clear 21 1011 33 10000 4.44 107 12:44 29.10.2020
6162 Clear 22 1025 30 10000 5.1 70 12:20 29.10.2020
6163 Clear 21 1012 32 10000 4.29 104 11:56 29.10.2020
6164 Clear 21 1026 30 10000 4.6 100 11:38 29.10.2020
6165 Clear 21 1026 30 10000 4.6 100 11:20 29.10.2020
6166 Clear 21 1026 30 10000 4.6 100 10:37 29.10.2020
6167 Clear 21 1026 30 10000 4.6 100 10:37 29.10.2020
6168 Clear 21 1026 30 10000 4.6 100 10:18 29.10.2020
6169 Clear 20 1027 37 10000 7.2 80 09:48 29.10.2020
6170 Clear 20 1027 37 10000 7.2 80 09:24 29.10.2020
6171 Clear 19 1027 39 10000 6.7 90 08:44 29.10.2020
6172 Clear 19 1027 39 10000 6.7 90 08:24 29.10.2020
6173 Clear 16 1027 51 10000 7.2 80 07:49 29.10.2020
6174 Clear 16 1027 51 10000 7.2 80 07:19 29.10.2020
6175 Clear 15 1027 51 10000 5.7 90 06:30 29.10.2020
6176 Clear 11 1019 47 10000 1.59 59 04:48 29.10.2020
6177 Clear 10 1017 47 10000 0.68 20 02:29 29.10.2020
6178 Clear 10 1017 45 10000 0.86 354 00:45 29.10.2020
6179 Clear 11 1017 44 10000 0.92 25 00:22 29.10.2020
6180 Clear 11 1017 44 10000 0.92 25 23:42 28.10.2020
6181 Clear 11 1017 43 10000 1.17 23 23:20 28.10.2020
6182 Clear 11 1017 43 10000 1.17 23 22:43 28.10.2020
6183 Clouds 16 1027 41 10000 3.1 90 22:25 28.10.2020
6184 Clouds 16 1027 41 10000 3.1 90 21:45 28.10.2020
6185 Clouds 16 1027 41 10000 3.1 90 21:26 28.10.2020
6186 Clouds 16 1027 41 10000 3.1 80 20:58 28.10.2020
6187 Clouds 16 1027 41 10000 3.1 80 20:40 28.10.2020
6188 Clouds 16 1027 41 10000 3.1 80 20:18 28.10.2020
6189 Clear 13 1017 41 10000 2.36 44 19:42 28.10.2020
6190 Clear 13 1017 40 10000 2.73 51 19:24 28.10.2020
6191 Clear 13 1017 41 10000 2.59 47 18:43 28.10.2020
6192 Clouds 19 1025 39 10000 4.1 80 18:20 28.10.2020
6193 Clouds 19 1025 39 10000 4.1 80 17:43 28.10.2020
6194 Clouds 19 1025 39 10000 4.1 80 17:21 28.10.2020
6195 Clear 14 1014 38 10000 3.37 77 16:47 28.10.2020
6196 Clear 22 1023 35 10000 7.2 110 16:29 28.10.2020
6197 Clear 22 1023 35 10000 7.2 110 15:45 28.10.2020
6198 Clear 22 1023 35 10000 7.2 110 15:20 28.10.2020
6199 Clear 19 1011 39 10000 4.24 106 14:50 28.10.2020
6200 Clear 23 1023 33 10000 7.2 110 14:32 28.10.2020
6201 Clear 20 1010 34 10000 4.28 101 13:59 28.10.2020
6202 Clear 21 1011 32 10000 3.94 100 12:38 28.10.2020
6203 Clear 21 1012 31 10000 3.86 100 12:20 28.10.2020
6204 Clear 21 1012 31 10000 3.86 100 11:43 28.10.2020
6205 Clear 21 1013 31 10000 3.82 102 11:22 28.10.2020
6206 Clear 21 1013 31 10000 3.82 102 10:57 28.10.2020
6207 Clear 21 1013 31 10000 3.82 102 10:57 28.10.2020
6208 Clear 21 1013 31 10000 3.82 102 10:39 28.10.2020
6209 Clear 20 1014 32 10000 3.94 104 10:21 28.10.2020
6210 Clear 20 1014 32 10000 3.94 104 09:38 28.10.2020
6211 Clear 19 1015 34 10000 3.93 105 09:20 28.10.2020
6212 Clear 19 1015 34 10000 3.93 105 08:47 28.10.2020
6213 Clear 18 1017 37 10000 3.88 103 08:25 28.10.2020
6214 Clear 18 1017 37 10000 3.88 103 07:48 28.10.2020
6215 Clear 18 1017 37 10000 3.88 103 07:30 28.10.2020
6216 Clear 16 1018 43 10000 3.9 97 06:40 28.10.2020
6217 Clear 14 1018 47 10000 2.51 81 05:49 28.10.2020
6218 Clear 11 1019 49 10000 1.74 49 04:52 28.10.2020
6219 Clear 10 1018 47 10000 1.33 43 04:25 28.10.2020
6220 Clear 14 1025 58 10000 5.1 40 02:25 28.10.2020
6221 Clear 10 1016 44 10000 1.08 23 01:29 28.10.2020
6222 Clear 11 1016 43 10000 0.88 38 23:54 27.10.2020
6223 Clear 11 1016 42 10000 1.42 20 23:26 27.10.2020
6224 Clear 11 1016 42 10000 1.42 20 22:57 27.10.2020
6225 Clear 11 1016 42 10000 1.42 20 22:38 27.10.2020
6226 Clear 12 1017 42 10000 1.8 16 22:19 27.10.2020
6227 Clear 12 1017 42 10000 1.8 16 21:55 27.10.2020
6228 Clear 12 1017 42 10000 1.8 16 21:37 27.10.2020
6229 Clear 12 1017 42 10000 1.8 16 21:37 27.10.2020
6230 Clear 12 1017 42 10000 1.8 16 21:37 27.10.2020
6231 Clear 12 1017 42 10000 2.08 32 21:18 27.10.2020
6232 Clear 12 1017 42 10000 2.08 32 21:18 27.10.2020
6233 Clear 12 1017 42 10000 2.08 32 20:41 27.10.2020
6234 Clear 12 1017 41 10000 2.22 40 20:22 27.10.2020
6235 Clear 12 1017 41 10000 2.22 40 19:39 27.10.2020
6236 Clear 13 1017 40 10000 2.59 46 19:21 27.10.2020
6237 Clear 13 1016 40 10000 2.35 39 18:58 27.10.2020
6238 Clear 13 1016 40 10000 2.35 39 18:40 27.10.2020
6239 Clear 13 1016 40 10000 2.68 49 18:19 27.10.2020
6240 Clear 13 1016 40 10000 2.68 49 17:43 27.10.2020
6241 Clear 14 1015 38 10000 3.07 71 17:21 27.10.2020
6242 Clear 14 1015 38 10000 3.07 71 16:48 27.10.2020
6243 Clear 15 1012 36 10000 3.62 93 16:28 27.10.2020
6244 Clear 15 1012 36 10000 3.62 93 15:55 27.10.2020
6245 Clouds 22 1023 26 10000 5.1 110 15:37 27.10.2020
6246 Clouds 22 1023 26 10000 5.1 110 15:18 27.10.2020
6247 Clear 19 1011 36 10000 4.08 98 14:41 27.10.2020
6248 Clear 20 1010 32 10000 4.9 95 14:22 27.10.2020
6249 Clouds 22 1024 21 10000 7.2 110 13:41 27.10.2020
6250 Clouds 22 1024 21 10000 7.2 110 13:21 27.10.2020
6251 Clouds 22 1024 21 10000 7.2 110 12:40 27.10.2020
6252 Clouds 22 1024 21 10000 7.2 110 12:21 27.10.2020
6253 Clear 22 1012 29 10000 4.15 108 11:42 27.10.2020
6254 Clouds 22 1026 21 10000 7.2 110 11:22 27.10.2020
6255 Clouds 22 1026 21 10000 7.2 110 10:47 27.10.2020
6256 Clouds 22 1026 21 10000 7.2 110 10:28 27.10.2020
6257 Clouds 21 1027 22 10000 6.2 90 09:46 27.10.2020
6258 Clouds 20 1027 32 10000 6.2 100 09:26 27.10.2020
6259 Clouds 20 1027 32 10000 6.2 100 08:39 27.10.2020
6260 Clouds 20 1027 32 10000 6.2 100 08:20 27.10.2020
6261 Clear 18 1016 34 10000 3.22 114 07:45 27.10.2020
6262 Clear 18 1016 34 10000 3.22 114 07:45 27.10.2020
6263 Clear 18 1016 34 10000 3.22 114 07:45 27.10.2020
6264 Clear 17 1018 36 10000 1.49 127 07:26 27.10.2020
6265 Clear 14 1019 40 10000 0.57 45 06:22 27.10.2020
6266 Clear 14 1019 40 10000 0.57 45 06:22 27.10.2020
6267 Clear 14 1019 40 10000 0.57 45 06:22 27.10.2020
6268 Clear 14 1019 40 10000 0.57 45 05:52 27.10.2020
6269 Clear 14 1019 40 10000 0.57 45 05:52 27.10.2020
6270 Clouds 11 1026 57 10000 0.5 300 05:34 27.10.2020
6271 Clear 11 1019 46 10000 1.04 17 04:44 27.10.2020
6272 Clear 11 1025 57 10000 1 340 02:34 27.10.2020
6273 Clouds 13 1025 50 10000 4.6 90 00:58 27.10.2020
6274 Clear 11 1017 44 10000 1.34 8 23:46 26.10.2020
6275 Clouds 14 1027 47 10000 6.2 50 23:26 26.10.2020
6276 Clouds 14 1027 47 10000 6.2 50 22:49 26.10.2020
6277 Clouds 14 1027 47 10000 6.2 50 22:27 26.10.2020
6278 Clear 17 1027 36 10000 3.6 70 21:50 26.10.2020
6279 Clear 17 1027 36 10000 3.6 70 21:50 26.10.2020
6280 Clear 17 1027 36 10000 3.6 70 21:21 26.10.2020
6281 Clear 12 1017 41 10000 2.04 36 20:58 26.10.2020
6282 Clear 16 1027 36 10000 6.2 50 20:39 26.10.2020
6283 Clear 16 1027 36 10000 6.2 50 20:19 26.10.2020
6284 Clear 16 1027 36 10000 6.2 50 19:47 26.10.2020
6285 Clear 16 1027 36 10000 6.2 50 19:24 26.10.2020
6286 Clear 18 1025 31 10000 6.2 70 18:45 26.10.2020
6287 Clear 18 1025 31 10000 6.2 70 18:24 26.10.2020
6288 Clear 18 1025 31 10000 6.2 70 17:59 26.10.2020
6289 Clear 18 1025 31 10000 6.2 70 17:39 26.10.2020
6290 Clear 18 1025 31 10000 6.2 70 17:21 26.10.2020
6291 Clear 21 1023 21 10000 7.2 100 16:40 26.10.2020
6292 Clear 21 1023 21 10000 7.2 100 16:21 26.10.2020
6293 Clear 21 1023 21 10000 7.2 100 15:43 26.10.2020
6294 Clear 21 1023 21 10000 7.2 100 15:24 26.10.2020
6295 Clear 19 1011 35 10000 4.27 100 14:53 26.10.2020
6296 Clear 23 1023 23 10000 7.2 90 14:32 26.10.2020
6297 Clear 23 1023 23 10000 7.2 90 13:44 26.10.2020
6298 Clear 23 1023 23 10000 7.2 90 13:24 26.10.2020
6299 Clear 23 1023 25 10000 7.2 90 12:52 26.10.2020
6300 Clear 21 1010 30 10000 4.34 93 12:30 26.10.2020
6301 Clear 21 1011 31 10000 4.41 96 11:57 26.10.2020
6302 Clouds 21 1025 26 10000 7.2 90 11:39 26.10.2020
6303 Clouds 21 1025 26 10000 7.2 90 11:39 26.10.2020
6304 Clouds 21 1025 26 10000 7.2 90 11:21 26.10.2020
6305 Clouds 21 1025 26 10000 7.2 90 10:48 26.10.2020
6306 Clouds 21 1025 26 10000 7.2 90 10:26 26.10.2020
6307 Clouds 21 1026 43 10000 8.2 90 09:51 26.10.2020
6308 Clouds 21 1026 43 10000 8.2 90 09:28 26.10.2020
6309 Clouds 20 1027 32 10000 7.2 70 08:50 26.10.2020
6310 Clouds 20 1027 32 10000 7.2 70 08:23 26.10.2020
6311 Clouds 16 1027 48 10000 5.1 60 07:38 26.10.2020
6312 Clouds 16 1027 48 10000 5.1 60 07:18 26.10.2020
6313 Clouds 10 1027 76 10000 2.6 10 05:31 26.10.2020
6314 Clouds 10 1025 76 10000 3.1 90 04:19 26.10.2020
6315 Clouds 10 1025 71 10000 2.6 80 03:20 26.10.2020
6316 Clouds 12 1024 62 10000 3.1 50 01:34 26.10.2020
6317 Clouds 14 1025 50 10000 4.6 100 00:33 26.10.2020
6318 Clouds 14 1025 50 10000 4.6 40 23:46 25.10.2020
6319 Clouds 14 1025 50 10000 4.6 40 23:24 25.10.2020
6320 Clouds 14 1026 50 10000 3.6 70 22:45 25.10.2020
6321 Clouds 14 1026 50 10000 3.6 70 22:26 25.10.2020
6322 Clear 15 1026 47 10000 6.2 50 21:49 25.10.2020
6323 Clear 15 1026 47 10000 6.2 50 21:30 25.10.2020
6324 Clear 16 1026 44 10000 6.2 50 20:58 25.10.2020
6325 Clear 16 1026 44 10000 6.2 50 20:39 25.10.2020
6326 Clear 14 1015 38 10000 2.83 41 20:19 25.10.2020
6327 Clear 14 1015 38 10000 2.83 41 19:49 25.10.2020
6328 Clear 17 1025 42 10000 6.2 50 19:26 25.10.2020
6329 Clear 17 1025 42 10000 6.2 50 18:58 25.10.2020
6330 Clear 17 1025 42 10000 6.2 50 18:39 25.10.2020
6331 Clear 17 1025 42 10000 6.2 50 18:20 25.10.2020
6332 Clear 18 1024 39 10000 4.6 70 17:40 25.10.2020
6333 Clear 18 1024 39 10000 4.6 70 17:22 25.10.2020
6334 Clear 21 1023 30 10000 6.2 100 16:59 25.10.2020
6335 Clear 21 1023 30 10000 6.2 100 16:39 25.10.2020
6336 Clear 21 1023 30 10000 6.2 100 16:20 25.10.2020
6337 Clear 22 1023 26 10000 6.2 110 15:47 25.10.2020
6338 Clear 22 1023 26 10000 6.2 110 15:26 25.10.2020
6339 Clouds 23 1022 28 10000 6.2 110 14:49 25.10.2020
6340 Clouds 23 1022 28 10000 6.2 110 14:28 25.10.2020
6341 Clouds 23 1022 28 10000 6.2 110 13:44 25.10.2020
6342 Clouds 23 1023 33 10000 6.2 70 13:22 25.10.2020
6343 Clouds 23 1023 33 10000 6.2 70 12:49 25.10.2020
6344 Clouds 23 1023 33 10000 6.2 70 12:27 25.10.2020
6345 Clear 22 1009 40 10000 5.16 97 11:58 25.10.2020
6346 Clouds 23 1024 33 10000 7.2 90 11:39 25.10.2020
6347 Clouds 23 1024 33 10000 7.2 90 11:19 25.10.2020
6348 Clouds 23 1024 33 10000 7.2 90 10:44 25.10.2020
6349 Clouds 23 1024 33 10000 7.2 90 10:25 25.10.2020
6350 Clear 21 1026 35 10000 8.2 100 09:48 25.10.2020
6351 Clear 21 1026 37 10000 8.2 80 09:20 25.10.2020
6352 Clear 21 1026 37 10000 8.2 80 08:55 25.10.2020
6353 Clear 21 1026 37 10000 8.2 80 08:36 25.10.2020
6354 Clear 21 1026 37 10000 8.2 80 08:18 25.10.2020
6355 Clouds 19 1026 42 10000 6.2 70 07:41 25.10.2020
6356 Clouds 17 1026 48 10000 4.1 60 06:52 25.10.2020
6357 Clouds 17 1026 48 10000 4.1 60 06:19 25.10.2020
6358 Clear 12 1017 58 10000 1.66 27 05:18 25.10.2020
6359 Clear 11 1017 56 10000 1.79 22 04:20 25.10.2020
6360 Clouds 16 1025 55 10000 4.1 30 02:19 25.10.2020
6361 Clouds 16 1026 55 10000 1.5 130 00:49 25.10.2020
6362 Clouds 16 1026 55 10000 1.5 130 00:26 25.10.2020
6363 Clear 13 1016 48 10000 2.17 17 23:54 24.10.2020
6364 Clouds 16 1027 55 10000 3.6 360 23:29 24.10.2020
6365 Clouds 16 1027 55 10000 3.6 360 22:57 24.10.2020
6366 Clouds 16 1027 55 10000 3.6 360 22:38 24.10.2020
6367 Clouds 16 1027 55 10000 3.6 360 22:20 24.10.2020
6368 Clear 14 1016 48 10000 2.38 30 21:43 24.10.2020
6369 Clear 14 1016 49 10000 2.44 38 21:21 24.10.2020
6370 Clear 14 1016 49 10000 2.44 38 21:21 24.10.2020
6371 Clear 14 1016 49 10000 2.44 38 20:49 24.10.2020
6372 Clouds 19 1026 48 10000 3.1 80 20:25 24.10.2020
6373 Clouds 19 1026 48 10000 3.1 80 19:57 24.10.2020
6374 Clouds 19 1026 48 10000 3.1 80 19:37 24.10.2020
6375 Clouds 19 1026 48 10000 3.1 80 19:19 24.10.2020
6376 Clouds 19 1025 48 10000 3.1 90 18:46 24.10.2020
6377 Clouds 19 1025 48 10000 3.1 90 18:26 24.10.2020
6378 Clouds 16 1013 46 10000 3.45 85 17:41 24.10.2020
6379 Clouds 22 1023 37 10000 3.1 120 17:22 24.10.2020
6380 Clouds 22 1023 37 10000 3.1 120 16:45 24.10.2020
6381 Clouds 22 1023 37 10000 3.1 120 16:26 24.10.2020
6382 Clouds 23 1023 35 10000 3.1 150 15:41 24.10.2020
6383 Clouds 23 1023 35 10000 3.1 150 15:20 24.10.2020
6384 Clouds 22 1023 37 10000 3.1 160 14:56 24.10.2020
6385 Clouds 22 1010 34 10000 3.14 97 14:29 24.10.2020
6386 Clouds 22 1010 35 10000 2.81 93 13:49 24.10.2020
6387 Clouds 22 1010 35 10000 2.81 93 13:31 24.10.2020
6388 Clouds 22 1011 32 10000 2.83 101 12:58 24.10.2020
6389 Clouds 22 1011 32 10000 2.83 101 12:37 24.10.2020
6390 Clouds 22 1012 32 10000 2.69 107 12:19 24.10.2020
6391 Clouds 22 1012 32 10000 2.69 107 11:43 24.10.2020
6392 Clouds 21 1014 33 10000 2.85 111 10:59 24.10.2020
6393 Clouds 21 1014 33 10000 2.85 111 10:39 24.10.2020
6394 Clouds 20 1015 36 10000 2.8 121 09:58 24.10.2020
6395 Clouds 20 1015 36 10000 2.8 121 09:40 24.10.2020
6396 Haze 18 1027 45 9000 3.1 170 09:21 24.10.2020
6397 Haze 18 1027 45 9000 3.1 170 08:40 24.10.2020
6398 Haze 18 1027 45 9000 3.1 170 08:18 24.10.2020
6399 Clear 16 1027 48 9000 2.1 190 07:45 24.10.2020
6400 Clear 16 1027 48 9000 2.1 190 07:19 24.10.2020
6401 Clouds 16 1026 55 10000 2.1 360 06:36 24.10.2020
6402 Clouds 16 1026 55 10000 2.1 20 04:45 24.10.2020
6403 Clouds 15 1026 62 10000 2.1 330 02:20 24.10.2020
6404 Clear 12 1016 47 10000 2 1 00:44 24.10.2020
6405 Clear 13 1016 46 10000 2.21 9 00:23 24.10.2020
6406 Clear 13 1016 46 10000 2.21 9 23:59 23.10.2020
6407 Clouds 17 1028 51 10000 2.1 350 23:37 23.10.2020
6408 Clouds 17 1028 51 10000 2.1 350 23:18 23.10.2020
6409 Clouds 17 1028 51 10000 2.1 350 22:42 23.10.2020
6410 Clouds 17 1028 51 10000 2.1 350 22:21 23.10.2020
6411 Clear 13 1017 45 10000 2.51 28 21:53 23.10.2020
6412 Clouds 18 1027 48 10000 4.1 70 21:29 23.10.2020
6413 Clouds 18 1027 48 10000 4.1 70 20:57 23.10.2020
6414 Clouds 19 1027 42 10000 3.1 90 20:37 23.10.2020
6415 Clouds 19 1027 42 10000 3.1 90 20:18 23.10.2020
6416 Clouds 19 1027 42 10000 3.1 90 19:42 23.10.2020
6417 Clouds 19 1027 42 10000 3.1 90 19:23 23.10.2020
6418 Clouds 14 1015 46 10000 2.22 43 18:42 23.10.2020
6419 Clouds 15 1014 43 10000 2.82 68 18:22 23.10.2020
6420 Clouds 15 1014 43 10000 2.82 68 17:44 23.10.2020
6421 Clouds 17 1013 42 10000 3.31 96 17:21 23.10.2020
6422 Clouds 17 1013 42 10000 3.31 96 16:47 23.10.2020
6423 Clouds 25 1023 27 10000 5.1 120 16:26 23.10.2020
6424 Clouds 25 1023 27 10000 5.1 120 15:55 23.10.2020
6425 Clouds 25 1023 27 10000 5.1 120 15:36 23.10.2020
6426 Clouds 25 1023 27 10000 5.1 120 15:18 23.10.2020
6427 Clouds 22 1011 35 10000 3.12 88 14:41 23.10.2020
6428 Clouds 22 1011 32 10000 2.88 89 14:22 23.10.2020
6429 Clouds 22 1011 32 10000 2.88 89 14:22 23.10.2020
6430 Clouds 22 1011 32 10000 2.88 89 13:39 23.10.2020
6431 Clouds 22 1012 32 10000 2.54 96 13:21 23.10.2020
6432 Clouds 22 1012 32 10000 2.54 96 12:48 23.10.2020
6433 Clouds 22 1013 33 10000 2.37 97 12:28 23.10.2020
6434 Clouds 22 1013 33 10000 2.37 97 11:48 23.10.2020
6435 Clouds 21 1015 34 10000 2.22 106 11:23 23.10.2020
6436 Clouds 21 1015 34 10000 2.22 106 10:48 23.10.2020
6437 Clouds 20 1016 35 10000 2.33 117 10:26 23.10.2020
6438 Clouds 20 1016 35 10000 2.33 117 09:50 23.10.2020
6439 Haze 18 1028 45 9000 2.6 150 09:27 23.10.2020
6440 Haze 18 1028 45 9000 2.6 150 08:56 23.10.2020
6441 Haze 18 1028 45 9000 2.6 150 08:37 23.10.2020
6442 Clouds 17 1028 42 10000 1.5 320 07:47 23.10.2020
6443 Clouds 17 1028 42 10000 1.5 320 07:26 23.10.2020
6444 Clouds 15 1019 46 10000 0.68 19 06:43 23.10.2020
6445 Clouds 12 1019 51 10000 1.23 3 05:59 23.10.2020
6446 Clouds 13 1026 62 10000 1.5 30 02:54 23.10.2020
6447 Clouds 13 1026 62 10000 1.5 30 02:26 23.10.2020
6448 Clouds 15 1027 58 10000 2.1 100 00:48 23.10.2020
6449 Clouds 15 1027 58 10000 1 260 23:54 22.10.2020
6450 Clouds 15 1027 58 10000 1 260 23:31 22.10.2020
6451 Clouds 13 1017 49 10000 1.94 13 22:56 22.10.2020
6452 Clouds 16 1027 55 10000 4.1 70 22:38 22.10.2020
6453 Clouds 16 1027 55 10000 4.1 70 22:19 22.10.2020
6454 Clouds 16 1027 55 10000 4.1 70 21:43 22.10.2020
6455 Clouds 16 1027 55 10000 4.1 70 21:23 22.10.2020
6456 Clouds 18 1027 42 10000 7.2 60 20:57 22.10.2020
6457 Clouds 18 1027 42 10000 7.2 60 20:39 22.10.2020
6458 Clouds 18 1027 42 10000 7.2 60 20:18 22.10.2020
6459 Clouds 14 1016 53 10000 2.3 44 19:41 22.10.2020
6460 Clouds 19 1026 45 10000 4.6 70 19:19 22.10.2020
6461 Clouds 19 1026 45 10000 4.6 70 18:43 22.10.2020
6462 Clouds 19 1026 45 10000 4.6 70 18:20 22.10.2020
6463 Clouds 20 1025 40 10000 5.1 90 17:46 22.10.2020
6464 Clouds 20 1025 40 10000 5.1 90 17:26 22.10.2020
6465 Clouds 17 1013 49 10000 2.54 80 16:56 22.10.2020
6466 Clouds 17 1013 49 10000 2.54 80 16:37 22.10.2020
6467 Clouds 19 1012 48 10000 2.49 82 16:19 22.10.2020
6468 Clouds 19 1012 48 10000 2.49 82 15:43 22.10.2020
6469 Clouds 20 1012 45 10000 2.43 85 15:22 22.10.2020
6470 Clouds 20 1012 45 10000 2.43 85 14:47 22.10.2020
6471 Clouds 21 1012 42 10000 2.87 92 14:24 22.10.2020
6472 Clouds 21 1012 42 10000 2.87 92 13:48 22.10.2020
6473 Clouds 21 1013 39 10000 3.06 101 13:24 22.10.2020
6474 Clouds 21 1013 39 10000 3.06 101 13:24 22.10.2020
6475 Clouds 21 1013 39 10000 3.06 101 12:53 22.10.2020
6476 Clouds 21 1014 39 10000 3.07 111 12:24 22.10.2020
6477 Clouds 21 1014 39 10000 3.07 111 11:50 22.10.2020
6478 Clear 21 1015 39 10000 3.28 121 11:20 22.10.2020
6479 Clear 21 1015 39 10000 3.28 121 10:51 22.10.2020
6480 Clear 20 1017 41 10000 3 122 10:29 22.10.2020
6481 Clear 20 1017 41 10000 3 122 09:52 22.10.2020
6482 Clear 20 1017 41 10000 3 122 09:33 22.10.2020
6483 Clear 19 1018 42 10000 2.66 120 08:51 22.10.2020
6484 Clear 17 1018 44 10000 1.49 125 08:31 22.10.2020
6485 Clear 17 1018 44 10000 1.49 125 07:58 22.10.2020
6486 Clouds 14 1028 67 10000 2.1 320 07:36 22.10.2020
6487 Clouds 14 1028 67 10000 2.1 320 06:58 22.10.2020
6488 Clear 12 1020 59 10000 1.18 18 06:27 22.10.2020
6489 Clear 12 1020 59 10000 1.18 18 05:41 22.10.2020
6490 Clouds 14 1027 67 10000 2.6 90 05:19 22.10.2020
6491 Clear 11 1017 59 10000 1.29 27 01:50 22.10.2020
6492 Clear 12 1018 59 10000 1.62 22 00:26 22.10.2020
6493 Clear 12 1018 59 10000 1.62 22 23:51 21.10.2020
6494 Clear 12 1018 59 10000 1.62 22 23:32 21.10.2020
6495 Clear 12 1018 59 10000 1.83 31 22:43 21.10.2020
6496 Clouds 15 1028 62 10000 5.1 50 22:19 21.10.2020
6497 Clouds 15 1028 62 10000 5.1 50 21:56 21.10.2020
6498 Clouds 15 1028 62 10000 5.1 50 21:56 21.10.2020
6499 Clouds 15 1028 62 10000 5.1 50 21:38 21.10.2020
6500 Clouds 15 1028 62 10000 5.1 50 21:18 21.10.2020
6501 Clear 13 1017 59 10000 2.45 43 20:48 21.10.2020
6502 Clear 13 1017 60 10000 2.69 48 20:19 21.10.2020
6503 Clear 13 1017 60 10000 2.69 48 19:47 21.10.2020
6504 Clouds 19 1026 55 10000 3.6 90 19:26 21.10.2020
6505 Clouds 19 1026 55 10000 3.6 90 18:54 21.10.2020
6506 Clouds 19 1026 55 10000 3.6 90 18:36 21.10.2020
6507 Clouds 19 1026 55 10000 3.6 90 18:18 21.10.2020
6508 Clouds 20 1025 45 10000 5.1 100 17:41 21.10.2020
6509 Clear 16 1013 59 10000 3.51 85 17:19 21.10.2020
6510 Clouds 23 1024 33 10000 5.7 120 16:41 21.10.2020
6511 Clouds 23 1024 33 10000 5.7 120 16:21 21.10.2020
6512 Clouds 23 1024 33 10000 5.7 120 15:55 21.10.2020
6513 Clouds 23 1024 33 10000 5.7 120 15:37 21.10.2020
6514 Clear 20 1011 50 10000 4.65 92 15:18 21.10.2020
6515 Clear 20 1011 50 10000 4.65 92 14:43 21.10.2020
6516 Clouds 20 1011 49 10000 4.88 89 14:23 21.10.2020
6517 Clouds 20 1012 48 10000 5.1 93 13:42 21.10.2020
6518 Clouds 21 1026 37 10000 5.1 90 13:23 21.10.2020
6519 Clouds 21 1026 37 10000 5.1 90 12:46 21.10.2020
6520 Clouds 21 1026 37 10000 5.1 90 12:24 21.10.2020
6521 Clouds 21 1026 40 10000 6.2 80 11:59 21.10.2020
6522 Clouds 21 1026 40 10000 6.2 80 11:39 21.10.2020
6523 Clouds 21 1027 37 10000 7.2 90 11:19 21.10.2020
6524 Clouds 21 1027 37 10000 7.2 90 10:41 21.10.2020
6525 Clouds 21 1027 37 10000 7.2 90 10:21 21.10.2020
6526 Clouds 20 1027 40 10000 7.2 90 09:51 21.10.2020
6527 Clouds 20 1027 40 10000 7.2 90 09:28 21.10.2020
6528 Clouds 15 1027 54 10000 3.1 90 08:42 21.10.2020
6529 Clouds 15 1027 54 10000 3.1 90 08:24 21.10.2020
6530 Clouds 15 1027 54 10000 3.1 90 07:58 21.10.2020
6531 Clouds 15 1027 54 10000 3.1 90 07:29 21.10.2020
6532 Clouds 15 1026 72 10000 1 250 06:48 21.10.2020
6533 Clouds 15 1026 72 10000 1 250 06:26 21.10.2020
6534 Clouds 14 1025 76 10000 2.1 360 04:45 21.10.2020
6535 Clear 11 1016 54 10000 1.59 22 00:50 21.10.2020
6536 Clear 12 1016 54 10000 1.95 37 23:41 20.10.2020
6537 Clear 12 1017 54 10000 2.25 45 22:52 20.10.2020
6538 Clear 12 1017 54 10000 2.3 51 22:27 20.10.2020
6539 Clear 12 1017 54 10000 2.3 51 21:48 20.10.2020
6540 Clear 13 1016 55 10000 2.37 54 21:20 20.10.2020
6541 Clear 13 1016 55 10000 2.37 54 20:44 20.10.2020
6542 Clouds 18 1025 48 10000 5.1 60 20:25 20.10.2020
6543 Clouds 18 1025 48 10000 5.1 60 20:25 20.10.2020
6544 Clouds 18 1025 48 10000 5.1 60 20:25 20.10.2020
6545 Clouds 18 1025 48 10000 5.1 60 19:57 20.10.2020
6546 Clouds 18 1025 48 10000 5.1 60 19:39 20.10.2020
6547 Clouds 14 1015 53 10000 3.29 74 19:21 20.10.2020
6548 Clouds 14 1015 53 10000 3.29 74 18:46 20.10.2020
6549 Clouds 15 1014 50 10000 3.71 87 18:26 20.10.2020
6550 Clouds 15 1014 50 10000 3.71 87 17:43 20.10.2020
6551 Clouds 21 1023 40 10000 6.2 100 17:24 20.10.2020
6552 Clouds 21 1023 40 10000 6.2 100 16:48 20.10.2020
6553 Clouds 21 1023 40 10000 6.2 100 16:26 20.10.2020
6554 Clouds 18 1011 51 10000 3.51 94 15:50 20.10.2020
6555 Clouds 18 1011 51 10000 3.51 94 15:32 20.10.2020
6556 Clouds 20 1011 47 10000 3.2 95 14:56 20.10.2020
6557 Clouds 20 1011 47 10000 3.2 95 14:37 20.10.2020
6558 Clouds 20 1011 44 10000 2.93 94 14:19 20.10.2020
6559 Clouds 20 1011 44 10000 3.3 98 13:42 20.10.2020
6560 Clouds 21 1012 42 10000 3.2 100 13:22 20.10.2020
6561 Clouds 21 1012 42 10000 3.2 100 12:54 20.10.2020
6562 Clouds 21 1012 42 10000 3.2 100 12:36 20.10.2020
6563 Clear 21 1013 41 10000 3.03 100 12:18 20.10.2020
6564 Clouds 21 1026 40 10000 5.1 110 11:36 20.10.2020
6565 Clouds 21 1026 40 10000 5.1 110 11:18 20.10.2020
6566 Clear 19 1016 43 10000 2.68 111 10:29 20.10.2020
6567 Clear 19 1016 43 10000 2.68 111 09:50 20.10.2020
6568 Clouds 18 1027 45 10000 3.1 110 09:21 20.10.2020
6569 Clouds 18 1027 45 10000 3.1 110 08:57 20.10.2020
6570 Clouds 18 1027 45 10000 3.1 110 08:30 20.10.2020
6571 Clouds 16 1027 51 10000 1 320 07:50 20.10.2020
6572 Clouds 16 1027 51 10000 1 320 07:25 20.10.2020
6573 Clouds 15 1026 72 10000 1 60 06:25 20.10.2020
6574 Clouds 14 1025 76 10000 2.1 270 05:21 20.10.2020
6575 Clouds 15 1024 67 10000 1 320 02:33 20.10.2020
6576 Clouds 16 1025 63 10000 2.1 320 01:59 20.10.2020
6577 Clear 11 1015 52 10000 1.34 2 00:57 20.10.2020
6578 Clear 11 1015 52 10000 1.34 2 00:39 20.10.2020
6579 Clear 12 1016 52 10000 1.72 6 00:18 20.10.2020
6580 Clear 12 1016 52 10000 1.72 6 00:18 20.10.2020
6581 Clear 12 1016 52 10000 1.72 6 23:39 19.10.2020
6582 Clear 12 1016 51 10000 1.86 19 23:18 19.10.2020
6583 Clear 12 1016 51 10000 1.86 19 22:42 19.10.2020
6584 Clouds 17 1026 55 10000 3.1 60 22:20 19.10.2020
6585 Clouds 17 1026 55 10000 3.1 60 21:41 19.10.2020
6586 Clouds 18 1026 52 10000 6.2 60 21:19 19.10.2020
6587 Clouds 18 1026 52 10000 6.2 60 20:45 19.10.2020
6588 Clouds 18 1026 52 10000 6.2 60 20:26 19.10.2020
6589 Clouds 13 1016 54 10000 2.4 51 19:47 19.10.2020
6590 Clouds 14 1014 54 10000 2.77 59 19:22 19.10.2020
6591 Clouds 14 1014 54 10000 2.77 59 19:22 19.10.2020
6592 Clouds 14 1014 54 10000 2.77 59 18:51 19.10.2020
6593 Clouds 14 1014 54 10000 2.77 59 18:32 19.10.2020
6594 Clouds 14 1013 57 10000 3.48 69 17:56 19.10.2020
6595 Clouds 14 1013 57 10000 3.48 69 17:38 19.10.2020
6596 Clouds 16 1012 56 10000 3.6 85 17:19 19.10.2020
6597 Clouds 16 1012 56 10000 3.6 85 16:42 19.10.2020
6598 Clouds 19 1011 52 10000 3.34 90 16:20 19.10.2020
6599 Clouds 19 1011 52 10000 3.34 90 15:40 19.10.2020
6600 Clouds 20 1011 47 10000 3.83 88 15:21 19.10.2020
6601 Clouds 20 1011 47 10000 3.83 88 14:50 19.10.2020
6602 Clouds 20 1011 45 10000 3.79 91 14:24 19.10.2020
6603 Clouds 20 1011 45 10000 3.79 91 13:49 19.10.2020
6604 Clouds 20 1011 45 10000 3.75 95 13:31 19.10.2020
6605 Clouds 20 1012 44 10000 3.54 99 12:49 19.10.2020
6606 Clouds 20 1012 44 10000 3.54 99 12:31 19.10.2020
6607 Clouds 20 1012 42 10000 3 102 11:51 19.10.2020
6608 Clouds 21 1026 43 10000 5.1 100 11:25 19.10.2020
6609 Clouds 21 1026 43 10000 5.1 100 10:56 19.10.2020
6610 Clouds 21 1026 43 10000 5.1 100 10:36 19.10.2020
6611 Clouds 21 1026 43 10000 5.1 100 10:18 19.10.2020
6612 Clouds 20 1027 42 10000 6.2 90 09:42 19.10.2020
6613 Clouds 20 1027 42 10000 6.2 90 09:18 19.10.2020
6614 Clouds 19 1027 45 10000 4.1 80 08:47 19.10.2020
6615 Clouds 19 1027 45 10000 4.1 80 08:47 19.10.2020
6616 Clouds 16 1027 59 10000 1 80 08:21 19.10.2020
6617 Clouds 16 1027 59 10000 1 80 07:22 19.10.2020
6618 Clouds 15 1026 67 10000 1 60 06:51 19.10.2020
6619 Clouds 10 1026 100 10000 1.5 80 05:42 19.10.2020
6620 Clouds 12 1025 87 10000 1.5 300 03:47 19.10.2020
6621 Clouds 13 1025 82 10000 1.5 80 01:59 19.10.2020
6622 Clouds 14 1025 76 10000 2.1 190 00:44 19.10.2020
6623 Clouds 14 1025 76 10000 2.6 350 23:59 18.10.2020
6624 Clouds 14 1025 76 10000 2.6 350 23:41 18.10.2020
6625 Clouds 14 1025 76 10000 2.6 350 23:21 18.10.2020
6626 Clouds 15 1025 67 10000 3.6 40 22:45 18.10.2020
6627 Clouds 15 1025 67 10000 3.6 40 22:19 18.10.2020
6628 Clear 13 1016 54 10000 2.13 38 21:48 18.10.2020
6629 Clear 13 1015 55 10000 2.28 52 21:29 18.10.2020
6630 Clear 13 1015 55 10000 2.28 52 20:47 18.10.2020
6631 Clouds 13 1014 56 10000 2.28 57 20:25 18.10.2020
6632 Clouds 13 1014 55 10000 2.35 57 19:57 18.10.2020
6633 Clouds 19 1023 68 10000 4.6 70 19:39 18.10.2020
6634 Clouds 19 1023 68 10000 4.6 70 19:19 18.10.2020
6635 Clouds 19 1023 68 10000 4.6 70 19:19 18.10.2020
6636 Clouds 19 1023 68 10000 4.6 70 18:46 18.10.2020
6637 Clouds 19 1023 68 10000 4.6 70<